<?xml version="1.0" encoding="UTF-8" standalone="no" ?>
<gpx xmlns="http://www.topografix.com/GPX/1/1" xmlns:xsi="http://www.w3.org/2001/XMLSchema-instance" xsi:schemaLocation="http://www.topografix.com/GPX/1/1 http://www.topografix.com/GPX/1/1/gpx.xsd" version="1.1" creator="VisuGPX - https://www.visugpx.com">
  <metadata>
    <name>lyon montelimar</name>
    <desc><![CDATA[Lyon montélimard par la via rhona]]></desc>
  </metadata>
  <trk>
    <name><![CDATA[20180415225359-J2UR7]]></name>
    <trkseg>
      <trkpt lat="45.75655" lon="4.83949">
        <ele>165</ele>
        <time>2017-07-25T12:14:54Z</time>
      </trkpt>
      <trkpt lat="45.75646" lon="4.83943">
        <ele>165</ele>
        <time>2017-07-25T12:14:56Z</time>
      </trkpt>
      <trkpt lat="45.75604" lon="4.83921">
        <ele>165</ele>
        <time>2017-07-25T12:15:04Z</time>
      </trkpt>
      <trkpt lat="45.75552" lon="4.83891">
        <ele>166</ele>
        <time>2017-07-25T12:15:14Z</time>
      </trkpt>
      <trkpt lat="45.75529" lon="4.83869">
        <ele>166</ele>
        <time>2017-07-25T12:15:19Z</time>
      </trkpt>
      <trkpt lat="45.75497" lon="4.83848">
        <ele>166</ele>
        <time>2017-07-25T12:15:25Z</time>
      </trkpt>
      <trkpt lat="45.7546" lon="4.83824">
        <ele>165</ele>
        <time>2017-07-25T12:15:32Z</time>
      </trkpt>
      <trkpt lat="45.75424" lon="4.83799">
        <ele>165</ele>
        <time>2017-07-25T12:15:39Z</time>
      </trkpt>
      <trkpt lat="45.75372" lon="4.83762">
        <ele>167</ele>
        <time>2017-07-25T12:15:49Z</time>
      </trkpt>
      <trkpt lat="45.75338" lon="4.83735">
        <ele>166</ele>
        <time>2017-07-25T12:15:56Z</time>
      </trkpt>
      <trkpt lat="45.75301" lon="4.83706">
        <ele>166</ele>
        <time>2017-07-25T12:16:04Z</time>
      </trkpt>
      <trkpt lat="45.75269" lon="4.83681">
        <ele>166</ele>
        <time>2017-07-25T12:16:12Z</time>
      </trkpt>
      <trkpt lat="45.75262" lon="4.83677">
        <ele>166</ele>
        <time>2017-07-25T12:16:14Z</time>
      </trkpt>
      <trkpt lat="45.75251" lon="4.83671">
        <ele>165</ele>
        <time>2017-07-25T12:16:17Z</time>
      </trkpt>
      <trkpt lat="45.75246" lon="4.83671">
        <ele>166</ele>
        <time>2017-07-25T12:16:18Z</time>
      </trkpt>
      <trkpt lat="45.75229" lon="4.83675">
        <ele>167</ele>
        <time>2017-07-25T12:16:22Z</time>
      </trkpt>
      <trkpt lat="45.75225" lon="4.83677">
        <ele>167</ele>
        <time>2017-07-25T12:16:23Z</time>
      </trkpt>
      <trkpt lat="45.75217" lon="4.8368">
        <ele>168</ele>
        <time>2017-07-25T12:16:25Z</time>
      </trkpt>
      <trkpt lat="45.75208" lon="4.83676">
        <ele>168</ele>
        <time>2017-07-25T12:16:27Z</time>
      </trkpt>
      <trkpt lat="45.75198" lon="4.83671">
        <ele>168</ele>
        <time>2017-07-25T12:16:29Z</time>
      </trkpt>
      <trkpt lat="45.75186" lon="4.83661">
        <ele>167</ele>
        <time>2017-07-25T12:16:32Z</time>
      </trkpt>
      <trkpt lat="45.75182" lon="4.83657">
        <ele>167</ele>
        <time>2017-07-25T12:16:33Z</time>
      </trkpt>
      <trkpt lat="45.75174" lon="4.83648">
        <ele>167</ele>
        <time>2017-07-25T12:16:35Z</time>
      </trkpt>
      <trkpt lat="45.75168" lon="4.83638">
        <ele>166</ele>
        <time>2017-07-25T12:16:37Z</time>
      </trkpt>
      <trkpt lat="45.75158" lon="4.83625">
        <ele>167</ele>
        <time>2017-07-25T12:16:40Z</time>
      </trkpt>
      <trkpt lat="45.7515" lon="4.83618">
        <ele>167</ele>
        <time>2017-07-25T12:16:42Z</time>
      </trkpt>
      <trkpt lat="45.75132" lon="4.83602">
        <ele>166</ele>
        <time>2017-07-25T12:16:46Z</time>
      </trkpt>
      <trkpt lat="45.75128" lon="4.83598">
        <ele>166</ele>
        <time>2017-07-25T12:16:47Z</time>
      </trkpt>
      <trkpt lat="45.75093" lon="4.83569">
        <ele>165</ele>
        <time>2017-07-25T12:16:55Z</time>
      </trkpt>
      <trkpt lat="45.75062" lon="4.83544">
        <ele>165</ele>
        <time>2017-07-25T12:17:02Z</time>
      </trkpt>
      <trkpt lat="45.75033" lon="4.83513">
        <ele>164</ele>
        <time>2017-07-25T12:17:09Z</time>
      </trkpt>
      <trkpt lat="45.75011" lon="4.83492">
        <ele>164</ele>
        <time>2017-07-25T12:17:14Z</time>
      </trkpt>
      <trkpt lat="45.75006" lon="4.83489">
        <ele>164</ele>
        <time>2017-07-25T12:17:15Z</time>
      </trkpt>
      <trkpt lat="45.74989" lon="4.83475">
        <ele>165</ele>
        <time>2017-07-25T12:17:19Z</time>
      </trkpt>
      <trkpt lat="45.74975" lon="4.83465">
        <ele>165</ele>
        <time>2017-07-25T12:17:22Z</time>
      </trkpt>
      <trkpt lat="45.74971" lon="4.83461">
        <ele>165</ele>
        <time>2017-07-25T12:17:23Z</time>
      </trkpt>
      <trkpt lat="45.74966" lon="4.83457">
        <ele>165</ele>
        <time>2017-07-25T12:17:24Z</time>
      </trkpt>
      <trkpt lat="45.74962" lon="4.83454">
        <ele>165</ele>
        <time>2017-07-25T12:17:25Z</time>
      </trkpt>
      <trkpt lat="45.74948" lon="4.83443">
        <ele>165</ele>
        <time>2017-07-25T12:17:28Z</time>
      </trkpt>
      <trkpt lat="45.74916" lon="4.83416">
        <ele>164</ele>
        <time>2017-07-25T12:17:35Z</time>
      </trkpt>
      <trkpt lat="45.74889" lon="4.83396">
        <ele>166</ele>
        <time>2017-07-25T12:17:41Z</time>
      </trkpt>
      <trkpt lat="45.74884" lon="4.83391">
        <ele>166</ele>
        <time>2017-07-25T12:17:42Z</time>
      </trkpt>
      <trkpt lat="45.74859" lon="4.83373">
        <ele>166</ele>
        <time>2017-07-25T12:17:47Z</time>
      </trkpt>
      <trkpt lat="45.74824" lon="4.83348">
        <ele>168</ele>
        <time>2017-07-25T12:17:54Z</time>
      </trkpt>
      <trkpt lat="45.74801" lon="4.83333">
        <ele>167</ele>
        <time>2017-07-25T12:17:59Z</time>
      </trkpt>
      <trkpt lat="45.74796" lon="4.83332">
        <ele>167</ele>
        <time>2017-07-25T12:18:00Z</time>
      </trkpt>
      <trkpt lat="45.74777" lon="4.8332">
        <ele>169</ele>
        <time>2017-07-25T12:18:04Z</time>
      </trkpt>
      <trkpt lat="45.7477" lon="4.83312">
        <ele>169</ele>
        <time>2017-07-25T12:18:06Z</time>
      </trkpt>
      <trkpt lat="45.74753" lon="4.83294">
        <ele>168</ele>
        <time>2017-07-25T12:18:11Z</time>
      </trkpt>
      <trkpt lat="45.74729" lon="4.83275">
        <ele>168</ele>
        <time>2017-07-25T12:18:17Z</time>
      </trkpt>
      <trkpt lat="45.74697" lon="4.83248">
        <ele>166</ele>
        <time>2017-07-25T12:18:24Z</time>
      </trkpt>
      <trkpt lat="45.74665" lon="4.83222">
        <ele>167</ele>
        <time>2017-07-25T12:18:31Z</time>
      </trkpt>
      <trkpt lat="45.74628" lon="4.83189">
        <ele>168</ele>
        <time>2017-07-25T12:18:39Z</time>
      </trkpt>
      <trkpt lat="45.74614" lon="4.83181">
        <ele>168</ele>
        <time>2017-07-25T12:18:42Z</time>
      </trkpt>
      <trkpt lat="45.74603" lon="4.83174">
        <ele>168</ele>
        <time>2017-07-25T12:18:45Z</time>
      </trkpt>
      <trkpt lat="45.74584" lon="4.83159">
        <ele>168</ele>
        <time>2017-07-25T12:18:49Z</time>
      </trkpt>
      <trkpt lat="45.7456" lon="4.83132">
        <ele>167</ele>
        <time>2017-07-25T12:18:55Z</time>
      </trkpt>
      <trkpt lat="45.74532" lon="4.83098">
        <ele>166</ele>
        <time>2017-07-25T12:19:02Z</time>
      </trkpt>
      <trkpt lat="45.74517" lon="4.83078">
        <ele>165</ele>
        <time>2017-07-25T12:19:06Z</time>
      </trkpt>
      <trkpt lat="45.74512" lon="4.83074">
        <ele>165</ele>
        <time>2017-07-25T12:19:07Z</time>
      </trkpt>
      <trkpt lat="45.74504" lon="4.83064">
        <ele>165</ele>
        <time>2017-07-25T12:19:09Z</time>
      </trkpt>
      <trkpt lat="45.74487" lon="4.83044">
        <ele>165</ele>
        <time>2017-07-25T12:19:13Z</time>
      </trkpt>
      <trkpt lat="45.74458" lon="4.83016">
        <ele>165</ele>
        <time>2017-07-25T12:19:19Z</time>
      </trkpt>
      <trkpt lat="45.7443" lon="4.82991">
        <ele>165</ele>
        <time>2017-07-25T12:19:25Z</time>
      </trkpt>
      <trkpt lat="45.74397" lon="4.82961">
        <ele>165</ele>
        <time>2017-07-25T12:19:32Z</time>
      </trkpt>
      <trkpt lat="45.74382" lon="4.82951">
        <ele>165</ele>
        <time>2017-07-25T12:19:35Z</time>
      </trkpt>
      <trkpt lat="45.74334" lon="4.8291">
        <ele>165</ele>
        <time>2017-07-25T12:19:46Z</time>
      </trkpt>
      <trkpt lat="45.74308" lon="4.82884">
        <ele>166</ele>
        <time>2017-07-25T12:19:52Z</time>
      </trkpt>
      <trkpt lat="45.74271" lon="4.82852">
        <ele>166</ele>
        <time>2017-07-25T12:20:00Z</time>
      </trkpt>
      <trkpt lat="45.74234" lon="4.82819">
        <ele>165</ele>
        <time>2017-07-25T12:20:08Z</time>
      </trkpt>
      <trkpt lat="45.74201" lon="4.82793">
        <ele>166</ele>
        <time>2017-07-25T12:20:15Z</time>
      </trkpt>
      <trkpt lat="45.74175" lon="4.8277">
        <ele>165</ele>
        <time>2017-07-25T12:20:21Z</time>
      </trkpt>
      <trkpt lat="45.74151" lon="4.8275">
        <ele>166</ele>
        <time>2017-07-25T12:20:27Z</time>
      </trkpt>
      <trkpt lat="45.74131" lon="4.82733">
        <ele>167</ele>
        <time>2017-07-25T12:20:34Z</time>
      </trkpt>
      <trkpt lat="45.7411" lon="4.82717">
        <ele>167</ele>
        <time>2017-07-25T12:20:40Z</time>
      </trkpt>
      <trkpt lat="45.7409" lon="4.827">
        <ele>167</ele>
        <time>2017-07-25T12:20:45Z</time>
      </trkpt>
      <trkpt lat="45.74059" lon="4.82675">
        <ele>167</ele>
        <time>2017-07-25T12:20:52Z</time>
      </trkpt>
      <trkpt lat="45.74024" lon="4.82647">
        <ele>165</ele>
        <time>2017-07-25T12:21:00Z</time>
      </trkpt>
      <trkpt lat="45.73988" lon="4.82617">
        <ele>165</ele>
        <time>2017-07-25T12:21:08Z</time>
      </trkpt>
      <trkpt lat="45.7396" lon="4.82594">
        <ele>166</ele>
        <time>2017-07-25T12:21:14Z</time>
      </trkpt>
      <trkpt lat="45.73926" lon="4.82566">
        <ele>165</ele>
        <time>2017-07-25T12:21:22Z</time>
      </trkpt>
      <trkpt lat="45.7389" lon="4.82537">
        <ele>166</ele>
        <time>2017-07-25T12:21:30Z</time>
      </trkpt>
      <trkpt lat="45.73859" lon="4.82507">
        <ele>167</ele>
        <time>2017-07-25T12:21:37Z</time>
      </trkpt>
      <trkpt lat="45.73825" lon="4.82474">
        <ele>167</ele>
        <time>2017-07-25T12:21:45Z</time>
      </trkpt>
      <trkpt lat="45.73791" lon="4.82447">
        <ele>166</ele>
        <time>2017-07-25T12:21:52Z</time>
      </trkpt>
      <trkpt lat="45.73787" lon="4.82444">
        <ele>166</ele>
        <time>2017-07-25T12:21:53Z</time>
      </trkpt>
      <trkpt lat="45.73775" lon="4.82432">
        <ele>166</ele>
        <time>2017-07-25T12:21:56Z</time>
      </trkpt>
      <trkpt lat="45.73745" lon="4.82408">
        <ele>166</ele>
        <time>2017-07-25T12:22:03Z</time>
      </trkpt>
      <trkpt lat="45.73719" lon="4.82386">
        <ele>167</ele>
        <time>2017-07-25T12:22:09Z</time>
      </trkpt>
      <trkpt lat="45.73703" lon="4.82374">
        <ele>167</ele>
        <time>2017-07-25T12:22:13Z</time>
      </trkpt>
      <trkpt lat="45.73699" lon="4.82372">
        <ele>167</ele>
        <time>2017-07-25T12:22:14Z</time>
      </trkpt>
      <trkpt lat="45.73681" lon="4.82361">
        <ele>166</ele>
        <time>2017-07-25T12:22:20Z</time>
      </trkpt>
      <trkpt lat="45.73668" lon="4.82353">
        <ele>166</ele>
        <time>2017-07-25T12:22:39Z</time>
      </trkpt>
      <trkpt lat="45.73664" lon="4.82352">
        <ele>166</ele>
        <time>2017-07-25T12:22:40Z</time>
      </trkpt>
      <trkpt lat="45.7365" lon="4.82348">
        <ele>166</ele>
        <time>2017-07-25T12:22:44Z</time>
      </trkpt>
      <trkpt lat="45.73638" lon="4.82339">
        <ele>166</ele>
        <time>2017-07-25T12:22:47Z</time>
      </trkpt>
      <trkpt lat="45.73613" lon="4.82321">
        <ele>164</ele>
        <time>2017-07-25T12:22:53Z</time>
      </trkpt>
      <trkpt lat="45.73585" lon="4.82299">
        <ele>164</ele>
        <time>2017-07-25T12:23:00Z</time>
      </trkpt>
      <trkpt lat="45.73565" lon="4.82284">
        <ele>165</ele>
        <time>2017-07-25T12:23:05Z</time>
      </trkpt>
      <trkpt lat="45.73554" lon="4.82274">
        <ele>165</ele>
        <time>2017-07-25T12:23:08Z</time>
      </trkpt>
      <trkpt lat="45.73527" lon="4.82251">
        <ele>164</ele>
        <time>2017-07-25T12:23:15Z</time>
      </trkpt>
      <trkpt lat="45.73496" lon="4.82229">
        <ele>164</ele>
        <time>2017-07-25T12:23:22Z</time>
      </trkpt>
      <trkpt lat="45.73467" lon="4.82209">
        <ele>164</ele>
        <time>2017-07-25T12:23:29Z</time>
      </trkpt>
      <trkpt lat="45.7345" lon="4.82205">
        <ele>164</ele>
        <time>2017-07-25T12:23:33Z</time>
      </trkpt>
      <trkpt lat="45.73415" lon="4.82201">
        <ele>165</ele>
        <time>2017-07-25T12:24:57Z</time>
      </trkpt>
      <trkpt lat="45.73391" lon="4.82194">
        <ele>165</ele>
        <time>2017-07-25T12:25:04Z</time>
      </trkpt>
      <trkpt lat="45.73372" lon="4.82191">
        <ele>165</ele>
        <time>2017-07-25T12:25:09Z</time>
      </trkpt>
      <trkpt lat="45.73354" lon="4.82189">
        <ele>165</ele>
        <time>2017-07-25T12:25:15Z</time>
      </trkpt>
      <trkpt lat="45.73335" lon="4.82189">
        <ele>165</ele>
        <time>2017-07-25T12:25:21Z</time>
      </trkpt>
      <trkpt lat="45.73319" lon="4.82191">
        <ele>166</ele>
        <time>2017-07-25T12:25:25Z</time>
      </trkpt>
      <trkpt lat="45.73314" lon="4.82191">
        <ele>166</ele>
        <time>2017-07-25T12:25:26Z</time>
      </trkpt>
      <trkpt lat="45.73295" lon="4.82188">
        <ele>167</ele>
        <time>2017-07-25T12:25:30Z</time>
      </trkpt>
      <trkpt lat="45.73286" lon="4.8218">
        <ele>166</ele>
        <time>2017-07-25T12:25:32Z</time>
      </trkpt>
      <trkpt lat="45.73258" lon="4.82163">
        <ele>165</ele>
        <time>2017-07-25T12:25:38Z</time>
      </trkpt>
      <trkpt lat="45.73229" lon="4.82149">
        <ele>165</ele>
        <time>2017-07-25T12:25:44Z</time>
      </trkpt>
      <trkpt lat="45.73207" lon="4.82138">
        <ele>165</ele>
        <time>2017-07-25T12:25:49Z</time>
      </trkpt>
      <trkpt lat="45.73198" lon="4.82135">
        <ele>165</ele>
        <time>2017-07-25T12:25:51Z</time>
      </trkpt>
      <trkpt lat="45.7317" lon="4.82128">
        <ele>165</ele>
        <time>2017-07-25T12:25:57Z</time>
      </trkpt>
      <trkpt lat="45.73144" lon="4.82122">
        <ele>165</ele>
        <time>2017-07-25T12:26:03Z</time>
      </trkpt>
      <trkpt lat="45.73127" lon="4.8212">
        <ele>164</ele>
        <time>2017-07-25T12:26:08Z</time>
      </trkpt>
      <trkpt lat="45.73126" lon="4.82122">
        <ele>164</ele>
        <time>2017-07-25T12:28:27Z</time>
      </trkpt>
      <trkpt lat="45.73131" lon="4.82126">
        <ele>165</ele>
        <time>2017-07-25T12:28:30Z</time>
      </trkpt>
      <trkpt lat="45.73139" lon="4.8213">
        <ele>165</ele>
        <time>2017-07-25T12:28:33Z</time>
      </trkpt>
      <trkpt lat="45.73142" lon="4.82131">
        <ele>165</ele>
        <time>2017-07-25T12:28:34Z</time>
      </trkpt>
      <trkpt lat="45.73145" lon="4.82133">
        <ele>165</ele>
        <time>2017-07-25T12:28:35Z</time>
      </trkpt>
      <trkpt lat="45.73147" lon="4.82136">
        <ele>165</ele>
        <time>2017-07-25T12:28:36Z</time>
      </trkpt>
      <trkpt lat="45.7315" lon="4.82138">
        <ele>165</ele>
        <time>2017-07-25T12:28:37Z</time>
      </trkpt>
      <trkpt lat="45.73162" lon="4.82148">
        <ele>165</ele>
        <time>2017-07-25T12:28:41Z</time>
      </trkpt>
      <trkpt lat="45.73164" lon="4.8215">
        <ele>165</ele>
        <time>2017-07-25T12:28:44Z</time>
      </trkpt>
      <trkpt lat="45.73167" lon="4.82153">
        <ele>165</ele>
        <time>2017-07-25T12:29:11Z</time>
      </trkpt>
      <trkpt lat="45.73168" lon="4.82154">
        <ele>165</ele>
        <time>2017-07-25T12:29:12Z</time>
      </trkpt>
      <trkpt lat="45.7317" lon="4.82157">
        <ele>166</ele>
        <time>2017-07-25T12:29:13Z</time>
      </trkpt>
      <trkpt lat="45.73173" lon="4.82175">
        <ele>166</ele>
        <time>2017-07-25T12:29:18Z</time>
      </trkpt>
      <trkpt lat="45.73172" lon="4.82197">
        <ele>167</ele>
        <time>2017-07-25T12:29:23Z</time>
      </trkpt>
      <trkpt lat="45.73169" lon="4.82217">
        <ele>167</ele>
        <time>2017-07-25T12:29:27Z</time>
      </trkpt>
      <trkpt lat="45.73169" lon="4.82224">
        <ele>167</ele>
        <time>2017-07-25T12:29:34Z</time>
      </trkpt>
      <trkpt lat="45.73169" lon="4.82226">
        <ele>167</ele>
        <time>2017-07-25T12:29:36Z</time>
      </trkpt>
      <trkpt lat="45.73172" lon="4.82227">
        <ele>167</ele>
        <time>2017-07-25T12:29:38Z</time>
      </trkpt>
      <trkpt lat="45.73176" lon="4.82218">
        <ele>167</ele>
        <time>2017-07-25T12:29:42Z</time>
      </trkpt>
      <trkpt lat="45.7318" lon="4.82194">
        <ele>167</ele>
        <time>2017-07-25T12:29:47Z</time>
      </trkpt>
      <trkpt lat="45.73185" lon="4.82167">
        <ele>166</ele>
        <time>2017-07-25T12:29:51Z</time>
      </trkpt>
      <trkpt lat="45.73186" lon="4.82161">
        <ele>165</ele>
        <time>2017-07-25T12:29:52Z</time>
      </trkpt>
      <trkpt lat="45.73187" lon="4.82154">
        <ele>165</ele>
        <time>2017-07-25T12:29:53Z</time>
      </trkpt>
      <trkpt lat="45.73188" lon="4.82148">
        <ele>165</ele>
        <time>2017-07-25T12:29:54Z</time>
      </trkpt>
      <trkpt lat="45.7319" lon="4.82143">
        <ele>165</ele>
        <time>2017-07-25T12:29:55Z</time>
      </trkpt>
      <trkpt lat="45.73197" lon="4.82127">
        <ele>165</ele>
        <time>2017-07-25T12:29:59Z</time>
      </trkpt>
      <trkpt lat="45.73227" lon="4.82085">
        <ele>164</ele>
        <time>2017-07-25T12:31:07Z</time>
      </trkpt>
      <trkpt lat="45.73264" lon="4.82037">
        <ele>164</ele>
        <time>2017-07-25T12:31:21Z</time>
      </trkpt>
      <trkpt lat="45.73288" lon="4.82009">
        <ele>164</ele>
        <time>2017-07-25T12:31:28Z</time>
      </trkpt>
      <trkpt lat="45.733" lon="4.81995">
        <ele>164</ele>
        <time>2017-07-25T12:31:31Z</time>
      </trkpt>
      <trkpt lat="45.73313" lon="4.8198">
        <ele>164</ele>
        <time>2017-07-25T12:31:34Z</time>
      </trkpt>
      <trkpt lat="45.73338" lon="4.81949">
        <ele>164</ele>
        <time>2017-07-25T12:31:40Z</time>
      </trkpt>
      <trkpt lat="45.7334" lon="4.81942">
        <ele>164</ele>
        <time>2017-07-25T12:31:41Z</time>
      </trkpt>
      <trkpt lat="45.73343" lon="4.81935">
        <ele>164</ele>
        <time>2017-07-25T12:31:42Z</time>
      </trkpt>
      <trkpt lat="45.73357" lon="4.8188">
        <ele>166</ele>
        <time>2017-07-25T12:31:50Z</time>
      </trkpt>
      <trkpt lat="45.73363" lon="4.81863">
        <ele>167</ele>
        <time>2017-07-25T12:31:53Z</time>
      </trkpt>
      <trkpt lat="45.73374" lon="4.81834">
        <ele>167</ele>
        <time>2017-07-25T12:31:59Z</time>
      </trkpt>
      <trkpt lat="45.73384" lon="4.81811">
        <ele>169</ele>
        <time>2017-07-25T12:32:05Z</time>
      </trkpt>
      <trkpt lat="45.73391" lon="4.81798">
        <ele>169</ele>
        <time>2017-07-25T12:32:09Z</time>
      </trkpt>
      <trkpt lat="45.73398" lon="4.81786">
        <ele>169</ele>
        <time>2017-07-25T12:32:13Z</time>
      </trkpt>
      <trkpt lat="45.73401" lon="4.81781">
        <ele>169</ele>
        <time>2017-07-25T12:32:15Z</time>
      </trkpt>
      <trkpt lat="45.73401" lon="4.81779">
        <ele>169</ele>
        <time>2017-07-25T12:32:16Z</time>
      </trkpt>
      <trkpt lat="45.73401" lon="4.81778">
        <ele>169</ele>
        <time>2017-07-25T12:32:17Z</time>
      </trkpt>
      <trkpt lat="45.73401" lon="4.81778">
        <ele>169</ele>
        <time>2017-07-25T12:32:19Z</time>
      </trkpt>
      <trkpt lat="45.73401" lon="4.81775">
        <ele>169</ele>
        <time>2017-07-25T12:32:21Z</time>
      </trkpt>
      <trkpt lat="45.73398" lon="4.81769">
        <ele>169</ele>
        <time>2017-07-25T12:32:23Z</time>
      </trkpt>
      <trkpt lat="45.73393" lon="4.81769">
        <ele>169</ele>
        <time>2017-07-25T12:32:25Z</time>
      </trkpt>
      <trkpt lat="45.73388" lon="4.81768">
        <ele>169</ele>
        <time>2017-07-25T12:32:27Z</time>
      </trkpt>
      <trkpt lat="45.73373" lon="4.81757">
        <ele>169</ele>
        <time>2017-07-25T12:32:32Z</time>
      </trkpt>
      <trkpt lat="45.73349" lon="4.8174">
        <ele>169</ele>
        <time>2017-07-25T12:32:39Z</time>
      </trkpt>
      <trkpt lat="45.73326" lon="4.81721">
        <ele>169</ele>
        <time>2017-07-25T12:32:46Z</time>
      </trkpt>
      <trkpt lat="45.73201" lon="4.81634">
        <ele>166</ele>
        <time>2017-07-25T12:35:36Z</time>
      </trkpt>
      <trkpt lat="45.73192" lon="4.81627">
        <ele>165</ele>
        <time>2017-07-25T12:35:38Z</time>
      </trkpt>
      <trkpt lat="45.73183" lon="4.81619">
        <ele>165</ele>
        <time>2017-07-25T12:35:40Z</time>
      </trkpt>
      <trkpt lat="45.73133" lon="4.81576">
        <ele>165</ele>
        <time>2017-07-25T12:35:51Z</time>
      </trkpt>
      <trkpt lat="45.73099" lon="4.81549">
        <ele>165</ele>
        <time>2017-07-25T12:35:58Z</time>
      </trkpt>
      <trkpt lat="45.73071" lon="4.81525">
        <ele>167</ele>
        <time>2017-07-25T12:36:04Z</time>
      </trkpt>
      <trkpt lat="45.73052" lon="4.81515">
        <ele>168</ele>
        <time>2017-07-25T12:36:09Z</time>
      </trkpt>
      <trkpt lat="45.73043" lon="4.81514">
        <ele>169</ele>
        <time>2017-07-25T12:36:15Z</time>
      </trkpt>
      <trkpt lat="45.73038" lon="4.81518">
        <ele>169</ele>
      </trkpt>
      <trkpt lat="45.73021" lon="4.81521">
        <ele>171</ele>
      </trkpt>
      <trkpt lat="45.73" lon="4.81528">
        <ele>175</ele>
      </trkpt>
      <trkpt lat="45.72987" lon="4.81536">
        <ele>174</ele>
        <time>2017-07-25T12:37:11Z</time>
      </trkpt>
      <trkpt lat="45.72974" lon="4.81544">
        <ele>174</ele>
        <time>2017-07-25T12:38:41Z</time>
      </trkpt>
      <trkpt lat="45.72958" lon="4.81544">
        <ele>174</ele>
      </trkpt>
      <trkpt lat="45.7294" lon="4.81544">
        <ele>175</ele>
      </trkpt>
      <trkpt lat="45.72936" lon="4.81545">
        <ele>175</ele>
      </trkpt>
      <trkpt lat="45.72925" lon="4.81561">
        <ele>174</ele>
      </trkpt>
      <trkpt lat="45.72915" lon="4.81574">
        <ele>174</ele>
      </trkpt>
      <trkpt lat="45.72906" lon="4.8158">
        <ele>174</ele>
        <time>2017-07-25T12:40:50Z</time>
      </trkpt>
      <trkpt lat="45.72896" lon="4.81583">
        <ele>175</ele>
        <time>2017-07-25T12:40:53Z</time>
      </trkpt>
      <trkpt lat="45.72886" lon="4.81585">
        <ele>169</ele>
        <time>2017-07-25T12:40:55Z</time>
      </trkpt>
      <trkpt lat="45.72881" lon="4.81587">
        <ele>169</ele>
        <time>2017-07-25T12:40:56Z</time>
      </trkpt>
      <trkpt lat="45.72876" lon="4.81589">
        <ele>169</ele>
        <time>2017-07-25T12:40:57Z</time>
      </trkpt>
      <trkpt lat="45.7287" lon="4.81592">
        <ele>169</ele>
        <time>2017-07-25T12:40:58Z</time>
      </trkpt>
      <trkpt lat="45.72864" lon="4.81594">
        <ele>169</ele>
        <time>2017-07-25T12:40:59Z</time>
      </trkpt>
      <trkpt lat="45.72843" lon="4.81601">
        <ele>170</ele>
        <time>2017-07-25T12:41:02Z</time>
      </trkpt>
      <trkpt lat="45.72835" lon="4.81604">
        <ele>169</ele>
        <time>2017-07-25T12:41:03Z</time>
      </trkpt>
      <trkpt lat="45.72827" lon="4.81606">
        <ele>169</ele>
        <time>2017-07-25T12:41:04Z</time>
      </trkpt>
      <trkpt lat="45.72819" lon="4.81609">
        <ele>168</ele>
        <time>2017-07-25T12:41:05Z</time>
      </trkpt>
      <trkpt lat="45.7281" lon="4.81611">
        <ele>168</ele>
        <time>2017-07-25T12:41:06Z</time>
      </trkpt>
      <trkpt lat="45.72801" lon="4.81614">
        <ele>167</ele>
        <time>2017-07-25T12:41:07Z</time>
      </trkpt>
      <trkpt lat="45.72792" lon="4.81617">
        <ele>167</ele>
        <time>2017-07-25T12:41:08Z</time>
      </trkpt>
      <trkpt lat="45.72782" lon="4.8162">
        <ele>167</ele>
        <time>2017-07-25T12:41:09Z</time>
      </trkpt>
      <trkpt lat="45.72773" lon="4.81622">
        <ele>167</ele>
        <time>2017-07-25T12:41:10Z</time>
      </trkpt>
      <trkpt lat="45.72766" lon="4.81624">
        <ele>166</ele>
        <time>2017-07-25T12:41:11Z</time>
      </trkpt>
      <trkpt lat="45.72753" lon="4.81626">
        <ele>166</ele>
        <time>2017-07-25T12:41:13Z</time>
      </trkpt>
      <trkpt lat="45.72748" lon="4.81627">
        <ele>165</ele>
        <time>2017-07-25T12:41:14Z</time>
      </trkpt>
      <trkpt lat="45.72745" lon="4.81627">
        <ele>165</ele>
        <time>2017-07-25T12:41:15Z</time>
      </trkpt>
      <trkpt lat="45.72743" lon="4.81627">
        <ele>165</ele>
        <time>2017-07-25T12:41:16Z</time>
      </trkpt>
      <trkpt lat="45.72742" lon="4.81627">
        <ele>165</ele>
        <time>2017-07-25T12:41:17Z</time>
      </trkpt>
      <trkpt lat="45.72733" lon="4.81628">
        <ele>165</ele>
        <time>2017-07-25T12:41:20Z</time>
      </trkpt>
      <trkpt lat="45.72711" lon="4.81633">
        <ele>165</ele>
        <time>2017-07-25T12:41:25Z</time>
      </trkpt>
      <trkpt lat="45.72676" lon="4.81642">
        <ele>165</ele>
        <time>2017-07-25T12:41:32Z</time>
      </trkpt>
      <trkpt lat="45.7264" lon="4.81648">
        <ele>166</ele>
        <time>2017-07-25T12:41:39Z</time>
      </trkpt>
      <trkpt lat="45.72605" lon="4.81661">
        <ele>166</ele>
        <time>2017-07-25T12:41:46Z</time>
      </trkpt>
      <trkpt lat="45.72572" lon="4.81676">
        <ele>165</ele>
        <time>2017-07-25T12:41:52Z</time>
      </trkpt>
      <trkpt lat="45.72531" lon="4.81687">
        <ele>165</ele>
        <time>2017-07-25T12:41:59Z</time>
      </trkpt>
      <trkpt lat="45.72491" lon="4.81697">
        <ele>166</ele>
        <time>2017-07-25T12:42:06Z</time>
      </trkpt>
      <trkpt lat="45.72458" lon="4.81704">
        <ele>165</ele>
        <time>2017-07-25T12:42:12Z</time>
      </trkpt>
      <trkpt lat="45.72404" lon="4.81716">
        <ele>165</ele>
        <time>2017-07-25T12:42:22Z</time>
      </trkpt>
      <trkpt lat="45.72372" lon="4.81724">
        <ele>165</ele>
        <time>2017-07-25T12:42:28Z</time>
      </trkpt>
      <trkpt lat="45.72332" lon="4.81734">
        <ele>164</ele>
        <time>2017-07-25T12:42:35Z</time>
      </trkpt>
      <trkpt lat="45.72283" lon="4.81746">
        <ele>164</ele>
        <time>2017-07-25T12:42:42Z</time>
      </trkpt>
      <trkpt lat="45.72232" lon="4.81758">
        <ele>164</ele>
        <time>2017-07-25T12:42:50Z</time>
      </trkpt>
      <trkpt lat="45.7222" lon="4.8176">
        <ele>164</ele>
        <time>2017-07-25T12:42:52Z</time>
      </trkpt>
      <trkpt lat="45.72168" lon="4.81772">
        <ele>165</ele>
        <time>2017-07-25T12:43:00Z</time>
      </trkpt>
      <trkpt lat="45.72119" lon="4.81783">
        <ele>165</ele>
        <time>2017-07-25T12:43:08Z</time>
      </trkpt>
      <trkpt lat="45.72082" lon="4.8179">
        <ele>165</ele>
        <time>2017-07-25T12:43:15Z</time>
      </trkpt>
      <trkpt lat="45.72046" lon="4.81798">
        <ele>164</ele>
        <time>2017-07-25T12:43:22Z</time>
      </trkpt>
      <trkpt lat="45.72041" lon="4.81799">
        <ele>164</ele>
        <time>2017-07-25T12:43:23Z</time>
      </trkpt>
      <trkpt lat="45.72036" lon="4.818">
        <ele>164</ele>
        <time>2017-07-25T12:43:24Z</time>
      </trkpt>
      <trkpt lat="45.72031" lon="4.81802">
        <ele>164</ele>
        <time>2017-07-25T12:43:25Z</time>
      </trkpt>
      <trkpt lat="45.72004" lon="4.81808">
        <ele>163</ele>
        <time>2017-07-25T12:43:30Z</time>
      </trkpt>
      <trkpt lat="45.7196" lon="4.8182">
        <ele>163</ele>
        <time>2017-07-25T12:43:38Z</time>
      </trkpt>
      <trkpt lat="45.71915" lon="4.81832">
        <ele>162</ele>
        <time>2017-07-25T12:43:46Z</time>
      </trkpt>
      <trkpt lat="45.7187" lon="4.8184">
        <ele>165</ele>
        <time>2017-07-25T12:43:55Z</time>
      </trkpt>
      <trkpt lat="45.71821" lon="4.81847">
        <ele>166</ele>
        <time>2017-07-25T12:47:22Z</time>
      </trkpt>
      <trkpt lat="45.71798" lon="4.81854">
        <ele>166</ele>
        <time>2017-07-25T12:47:27Z</time>
      </trkpt>
      <trkpt lat="45.71777" lon="4.81862">
        <ele>166</ele>
        <time>2017-07-25T12:47:31Z</time>
      </trkpt>
      <trkpt lat="45.71771" lon="4.81863">
        <ele>166</ele>
        <time>2017-07-25T12:47:32Z</time>
      </trkpt>
      <trkpt lat="45.7174" lon="4.81868">
        <ele>166</ele>
        <time>2017-07-25T12:47:38Z</time>
      </trkpt>
      <trkpt lat="45.71688" lon="4.81881">
        <ele>166</ele>
        <time>2017-07-25T12:47:49Z</time>
      </trkpt>
      <trkpt lat="45.71663" lon="4.81884">
        <ele>165</ele>
        <time>2017-07-25T12:47:54Z</time>
      </trkpt>
      <trkpt lat="45.71628" lon="4.81891">
        <ele>165</ele>
        <time>2017-07-25T12:48:00Z</time>
      </trkpt>
      <trkpt lat="45.71615" lon="4.81895">
        <ele>166</ele>
        <time>2017-07-25T12:48:02Z</time>
      </trkpt>
      <trkpt lat="45.71578" lon="4.81904">
        <ele>166</ele>
        <time>2017-07-25T12:48:08Z</time>
      </trkpt>
      <trkpt lat="45.71536" lon="4.81913">
        <ele>166</ele>
        <time>2017-07-25T12:48:15Z</time>
      </trkpt>
      <trkpt lat="45.71414" lon="4.81939">
        <ele>163</ele>
        <time>2017-07-25T12:49:14Z</time>
      </trkpt>
      <trkpt lat="45.7138" lon="4.81949">
        <ele>164</ele>
        <time>2017-07-25T12:49:20Z</time>
      </trkpt>
      <trkpt lat="45.71336" lon="4.81959">
        <ele>164</ele>
        <time>2017-07-25T12:49:27Z</time>
      </trkpt>
      <trkpt lat="45.71254" lon="4.81981">
        <ele>163</ele>
        <time>2017-07-25T12:49:40Z</time>
      </trkpt>
      <trkpt lat="45.71126" lon="4.82006">
        <ele>163</ele>
        <time>2017-07-25T12:50:00Z</time>
      </trkpt>
      <trkpt lat="45.71095" lon="4.82013">
        <ele>163</ele>
        <time>2017-07-25T12:50:05Z</time>
      </trkpt>
      <trkpt lat="45.71063" lon="4.82021">
        <ele>164</ele>
        <time>2017-07-25T12:50:10Z</time>
      </trkpt>
      <trkpt lat="45.71024" lon="4.82036">
        <ele>165</ele>
        <time>2017-07-25T12:50:17Z</time>
      </trkpt>
      <trkpt lat="45.70999" lon="4.8205">
        <ele>165</ele>
        <time>2017-07-25T12:50:22Z</time>
      </trkpt>
      <trkpt lat="45.70995" lon="4.82052">
        <ele>165</ele>
        <time>2017-07-25T12:50:23Z</time>
      </trkpt>
      <trkpt lat="45.70992" lon="4.82054">
        <ele>165</ele>
        <time>2017-07-25T12:50:24Z</time>
      </trkpt>
      <trkpt lat="45.70986" lon="4.82058">
        <ele>165</ele>
        <time>2017-07-25T12:50:26Z</time>
      </trkpt>
      <trkpt lat="45.70969" lon="4.8207">
        <ele>165</ele>
        <time>2017-07-25T12:50:32Z</time>
      </trkpt>
      <trkpt lat="45.70937" lon="4.82093">
        <ele>165</ele>
        <time>2017-07-25T12:50:39Z</time>
      </trkpt>
      <trkpt lat="45.70922" lon="4.82105">
        <ele>165</ele>
        <time>2017-07-25T12:50:42Z</time>
      </trkpt>
      <trkpt lat="45.70906" lon="4.82119">
        <ele>165</ele>
      </trkpt>
      <trkpt lat="45.70883" lon="4.82131">
        <ele>165</ele>
      </trkpt>
      <trkpt lat="45.70872" lon="4.82134">
        <ele>165</ele>
        <time>2017-07-25T12:50:52Z</time>
      </trkpt>
      <trkpt lat="45.70832" lon="4.8214">
        <ele>166</ele>
        <time>2017-07-25T12:51:00Z</time>
      </trkpt>
      <trkpt lat="45.70804" lon="4.82143">
        <ele>166</ele>
        <time>2017-07-25T12:51:05Z</time>
      </trkpt>
      <trkpt lat="45.70791" lon="4.82142">
        <ele>166</ele>
        <time>2017-07-25T12:51:07Z</time>
      </trkpt>
      <trkpt lat="45.70691" lon="4.82122">
        <ele>167</ele>
        <time>2017-07-25T12:51:12Z</time>
      </trkpt>
      <trkpt lat="45.70605" lon="4.82097">
        <ele>168</ele>
        <time>2017-07-25T12:52:35Z</time>
      </trkpt>
      <trkpt lat="45.7057" lon="4.82089">
        <ele>167</ele>
        <time>2017-07-25T12:52:42Z</time>
      </trkpt>
      <trkpt lat="45.70557" lon="4.82085">
        <ele>167</ele>
        <time>2017-07-25T12:52:46Z</time>
      </trkpt>
      <trkpt lat="45.70541" lon="4.82082">
        <ele>167</ele>
        <time>2017-07-25T12:52:50Z</time>
      </trkpt>
      <trkpt lat="45.70518" lon="4.82075">
        <ele>166</ele>
        <time>2017-07-25T12:52:56Z</time>
      </trkpt>
      <trkpt lat="45.70509" lon="4.82073">
        <ele>166</ele>
        <time>2017-07-25T12:52:57Z</time>
      </trkpt>
      <trkpt lat="45.70478" lon="4.82068">
        <ele>167</ele>
        <time>2017-07-25T12:53:04Z</time>
      </trkpt>
      <trkpt lat="45.7047" lon="4.82067">
        <ele>167</ele>
        <time>2017-07-25T12:53:05Z</time>
      </trkpt>
      <trkpt lat="45.70451" lon="4.82067">
        <ele>167</ele>
        <time>2017-07-25T12:53:09Z</time>
      </trkpt>
      <trkpt lat="45.7042" lon="4.82068">
        <ele>167</ele>
        <time>2017-07-25T12:53:15Z</time>
      </trkpt>
      <trkpt lat="45.70406" lon="4.82071">
        <ele>168</ele>
        <time>2017-07-25T12:53:17Z</time>
      </trkpt>
      <trkpt lat="45.70386" lon="4.82075">
        <ele>169</ele>
        <time>2017-07-25T12:53:20Z</time>
      </trkpt>
      <trkpt lat="45.70368" lon="4.82074">
        <ele>169</ele>
        <time>2017-07-25T12:53:28Z</time>
      </trkpt>
      <trkpt lat="45.7036" lon="4.82077">
        <ele>169</ele>
        <time>2017-07-25T12:53:31Z</time>
      </trkpt>
      <trkpt lat="45.7035" lon="4.82081">
        <ele>169</ele>
        <time>2017-07-25T12:53:33Z</time>
      </trkpt>
      <trkpt lat="45.7032" lon="4.82094">
        <ele>168</ele>
        <time>2017-07-25T12:53:40Z</time>
      </trkpt>
      <trkpt lat="45.70298" lon="4.82108">
        <ele>168</ele>
        <time>2017-07-25T12:53:46Z</time>
      </trkpt>
      <trkpt lat="45.70285" lon="4.82115">
        <ele>168</ele>
        <time>2017-07-25T12:53:51Z</time>
      </trkpt>
      <trkpt lat="45.70275" lon="4.8212">
        <ele>168</ele>
        <time>2017-07-25T12:53:56Z</time>
      </trkpt>
      <trkpt lat="45.70249" lon="4.82136">
        <ele>167</ele>
        <time>2017-07-25T12:54:03Z</time>
      </trkpt>
      <trkpt lat="45.70225" lon="4.82154">
        <ele>167</ele>
        <time>2017-07-25T12:54:10Z</time>
      </trkpt>
      <trkpt lat="45.70195" lon="4.82172">
        <ele>165</ele>
        <time>2017-07-25T12:54:19Z</time>
      </trkpt>
      <trkpt lat="45.70167" lon="4.82192">
        <ele>165</ele>
        <time>2017-07-25T12:54:27Z</time>
      </trkpt>
      <trkpt lat="45.70163" lon="4.82194">
        <ele>165</ele>
        <time>2017-07-25T12:54:28Z</time>
      </trkpt>
      <trkpt lat="45.70139" lon="4.82212">
        <ele>166</ele>
        <time>2017-07-25T12:54:35Z</time>
      </trkpt>
      <trkpt lat="45.70115" lon="4.82233">
        <ele>166</ele>
        <time>2017-07-25T12:54:41Z</time>
      </trkpt>
      <trkpt lat="45.70099" lon="4.82242">
        <ele>166</ele>
        <time>2017-07-25T12:54:42Z</time>
      </trkpt>
      <trkpt lat="45.70079" lon="4.82257">
        <ele>167</ele>
        <time>2017-07-25T12:54:47Z</time>
      </trkpt>
      <trkpt lat="45.70057" lon="4.82273">
        <ele>167</ele>
        <time>2017-07-25T12:54:54Z</time>
      </trkpt>
      <trkpt lat="45.70045" lon="4.82279">
        <ele>167</ele>
        <time>2017-07-25T12:54:59Z</time>
      </trkpt>
      <trkpt lat="45.70027" lon="4.82288">
        <ele>167</ele>
        <time>2017-07-25T12:55:06Z</time>
      </trkpt>
      <trkpt lat="45.6998" lon="4.82322">
        <ele>167</ele>
        <time>2017-07-25T12:55:14Z</time>
      </trkpt>
      <trkpt lat="45.6994" lon="4.82349">
        <ele>167</ele>
        <time>2017-07-25T12:55:22Z</time>
      </trkpt>
      <trkpt lat="45.69898" lon="4.82379">
        <ele>167</ele>
        <time>2017-07-25T12:55:30Z</time>
      </trkpt>
      <trkpt lat="45.6986" lon="4.82405">
        <ele>166</ele>
        <time>2017-07-25T12:55:37Z</time>
      </trkpt>
      <trkpt lat="45.69814" lon="4.82439">
        <ele>166</ele>
        <time>2017-07-25T12:55:46Z</time>
      </trkpt>
      <trkpt lat="45.69768" lon="4.82468">
        <ele>167</ele>
        <time>2017-07-25T12:55:55Z</time>
      </trkpt>
      <trkpt lat="45.69743" lon="4.82486">
        <ele>167</ele>
        <time>2017-07-25T12:56:00Z</time>
      </trkpt>
      <trkpt lat="45.69692" lon="4.82524">
        <ele>166</ele>
        <time>2017-07-25T12:56:10Z</time>
      </trkpt>
      <trkpt lat="45.69655" lon="4.8255">
        <ele>167</ele>
        <time>2017-07-25T12:56:17Z</time>
      </trkpt>
      <trkpt lat="45.69629" lon="4.82567">
        <ele>167</ele>
        <time>2017-07-25T12:56:22Z</time>
      </trkpt>
      <trkpt lat="45.69603" lon="4.82585">
        <ele>166</ele>
        <time>2017-07-25T12:56:27Z</time>
      </trkpt>
      <trkpt lat="45.69571" lon="4.82608">
        <ele>166</ele>
        <time>2017-07-25T12:56:34Z</time>
      </trkpt>
      <trkpt lat="45.69558" lon="4.82616">
        <ele>166</ele>
        <time>2017-07-25T12:56:38Z</time>
      </trkpt>
      <trkpt lat="45.69544" lon="4.82619">
        <ele>166</ele>
      </trkpt>
      <trkpt lat="45.69538" lon="4.82614">
        <ele>166</ele>
      </trkpt>
      <trkpt lat="45.69529" lon="4.82606">
        <ele>166</ele>
      </trkpt>
      <trkpt lat="45.6952" lon="4.82599">
        <ele>166</ele>
      </trkpt>
      <trkpt lat="45.69512" lon="4.826">
        <ele>166</ele>
      </trkpt>
      <trkpt lat="45.69501" lon="4.82608">
        <ele>166</ele>
      </trkpt>
      <trkpt lat="45.69493" lon="4.82622">
        <ele>165</ele>
      </trkpt>
      <trkpt lat="45.6949" lon="4.82639">
        <ele>165</ele>
      </trkpt>
      <trkpt lat="45.69492" lon="4.82648">
        <ele>165</ele>
      </trkpt>
      <trkpt lat="45.69495" lon="4.82659">
        <ele>166</ele>
      </trkpt>
      <trkpt lat="45.69496" lon="4.82666">
        <ele>166</ele>
      </trkpt>
      <trkpt lat="45.69487" lon="4.82665">
        <ele>165</ele>
        <time>2017-07-25T13:08:19Z</time>
      </trkpt>
      <trkpt lat="45.69481" lon="4.82667">
        <ele>165</ele>
        <time>2017-07-25T13:08:23Z</time>
      </trkpt>
      <trkpt lat="45.69474" lon="4.82675">
        <ele>165</ele>
        <time>2017-07-25T13:08:26Z</time>
      </trkpt>
      <trkpt lat="45.69469" lon="4.82681">
        <ele>165</ele>
        <time>2017-07-25T13:08:28Z</time>
      </trkpt>
      <trkpt lat="45.69459" lon="4.82695">
        <ele>164</ele>
        <time>2017-07-25T13:08:33Z</time>
      </trkpt>
      <trkpt lat="45.69475" lon="4.82674">
        <ele>165</ele>
        <time>2017-07-25T13:20:42Z</time>
      </trkpt>
      <trkpt lat="45.69471" lon="4.82679">
        <ele>165</ele>
        <time>2017-07-25T13:20:43Z</time>
      </trkpt>
      <trkpt lat="45.69451" lon="4.82704">
        <ele>164</ele>
        <time>2017-07-25T13:20:48Z</time>
      </trkpt>
      <trkpt lat="45.69448" lon="4.82709">
        <ele>164</ele>
        <time>2017-07-25T13:20:49Z</time>
      </trkpt>
      <trkpt lat="45.69442" lon="4.82717">
        <ele>164</ele>
        <time>2017-07-25T13:20:51Z</time>
      </trkpt>
      <trkpt lat="45.69431" lon="4.82725">
        <ele>164</ele>
        <time>2017-07-25T13:20:54Z</time>
      </trkpt>
      <trkpt lat="45.69404" lon="4.82745">
        <ele>164</ele>
        <time>2017-07-25T13:21:00Z</time>
      </trkpt>
      <trkpt lat="45.69369" lon="4.82768">
        <ele>164</ele>
        <time>2017-07-25T13:21:07Z</time>
      </trkpt>
      <trkpt lat="45.69365" lon="4.82769">
        <ele>164</ele>
        <time>2017-07-25T13:21:08Z</time>
      </trkpt>
      <trkpt lat="45.69361" lon="4.8277">
        <ele>164</ele>
        <time>2017-07-25T13:21:10Z</time>
      </trkpt>
      <trkpt lat="45.69361" lon="4.8277">
        <ele>164</ele>
        <time>2017-07-25T13:21:15Z</time>
      </trkpt>
      <trkpt lat="45.69361" lon="4.8277">
        <ele>164</ele>
        <time>2017-07-25T13:21:28Z</time>
      </trkpt>
      <trkpt lat="45.69361" lon="4.8277">
        <ele>164</ele>
        <time>2017-07-25T13:21:39Z</time>
      </trkpt>
      <trkpt lat="45.69361" lon="4.8277">
        <ele>164</ele>
        <time>2017-07-25T13:21:53Z</time>
      </trkpt>
      <trkpt lat="45.6936" lon="4.82771">
        <ele>164</ele>
        <time>2017-07-25T13:21:58Z</time>
      </trkpt>
      <trkpt lat="45.69357" lon="4.82775">
        <ele>164</ele>
        <time>2017-07-25T13:22:00Z</time>
      </trkpt>
      <trkpt lat="45.69352" lon="4.82781">
        <ele>164</ele>
        <time>2017-07-25T13:22:04Z</time>
      </trkpt>
      <trkpt lat="45.69352" lon="4.82781">
        <ele>164</ele>
        <time>2017-07-25T13:22:11Z</time>
      </trkpt>
      <trkpt lat="45.69352" lon="4.82781">
        <ele>164</ele>
        <time>2017-07-25T13:22:24Z</time>
      </trkpt>
      <trkpt lat="45.69351" lon="4.82782">
        <ele>164</ele>
        <time>2017-07-25T13:22:26Z</time>
      </trkpt>
      <trkpt lat="45.69348" lon="4.82787">
        <ele>164</ele>
        <time>2017-07-25T13:22:28Z</time>
      </trkpt>
      <trkpt lat="45.69339" lon="4.82802">
        <ele>164</ele>
        <time>2017-07-25T13:22:33Z</time>
      </trkpt>
      <trkpt lat="45.69337" lon="4.82804">
        <ele>164</ele>
        <time>2017-07-25T13:22:34Z</time>
      </trkpt>
      <trkpt lat="45.69335" lon="4.82806">
        <ele>164</ele>
        <time>2017-07-25T13:22:35Z</time>
      </trkpt>
      <trkpt lat="45.69333" lon="4.82808">
        <ele>166</ele>
        <time>2017-07-25T13:22:36Z</time>
      </trkpt>
      <trkpt lat="45.69332" lon="4.82809">
        <ele>166</ele>
        <time>2017-07-25T13:22:37Z</time>
      </trkpt>
      <trkpt lat="45.69332" lon="4.82809">
        <ele>166</ele>
        <time>2017-07-25T13:22:38Z</time>
      </trkpt>
      <trkpt lat="45.69331" lon="4.8281">
        <ele>166</ele>
        <time>2017-07-25T13:22:39Z</time>
      </trkpt>
      <trkpt lat="45.69324" lon="4.82812">
        <ele>166</ele>
        <time>2017-07-25T13:22:42Z</time>
      </trkpt>
      <trkpt lat="45.69305" lon="4.82804">
        <ele>166</ele>
        <time>2017-07-25T13:22:47Z</time>
      </trkpt>
      <trkpt lat="45.69295" lon="4.82787">
        <ele>167</ele>
        <time>2017-07-25T13:22:51Z</time>
      </trkpt>
      <trkpt lat="45.6928" lon="4.82781">
        <ele>167</ele>
        <time>2017-07-25T13:22:55Z</time>
      </trkpt>
      <trkpt lat="45.69268" lon="4.82777">
        <ele>167</ele>
        <time>2017-07-25T13:22:58Z</time>
      </trkpt>
      <trkpt lat="45.69259" lon="4.82776">
        <ele>168</ele>
        <time>2017-07-25T13:23:00Z</time>
      </trkpt>
      <trkpt lat="45.69248" lon="4.82774">
        <ele>168</ele>
        <time>2017-07-25T13:23:02Z</time>
      </trkpt>
      <trkpt lat="45.69243" lon="4.82773">
        <ele>168</ele>
        <time>2017-07-25T13:23:03Z</time>
      </trkpt>
      <trkpt lat="45.69221" lon="4.82767">
        <ele>168</ele>
        <time>2017-07-25T13:23:07Z</time>
      </trkpt>
      <trkpt lat="45.6919" lon="4.82757">
        <ele>167</ele>
        <time>2017-07-25T13:23:12Z</time>
      </trkpt>
      <trkpt lat="45.69147" lon="4.82742">
        <ele>166</ele>
        <time>2017-07-25T13:23:19Z</time>
      </trkpt>
      <trkpt lat="45.69106" lon="4.82729">
        <ele>167</ele>
        <time>2017-07-25T13:23:26Z</time>
      </trkpt>
      <trkpt lat="45.69085" lon="4.82721">
        <ele>167</ele>
        <time>2017-07-25T13:23:30Z</time>
      </trkpt>
      <trkpt lat="45.69059" lon="4.82714">
        <ele>168</ele>
        <time>2017-07-25T13:23:36Z</time>
      </trkpt>
      <trkpt lat="45.69052" lon="4.82714">
        <ele>168</ele>
        <time>2017-07-25T13:23:38Z</time>
      </trkpt>
      <trkpt lat="45.69044" lon="4.82719">
        <ele>168</ele>
        <time>2017-07-25T13:23:40Z</time>
      </trkpt>
      <trkpt lat="45.69034" lon="4.82732">
        <ele>168</ele>
        <time>2017-07-25T13:23:43Z</time>
      </trkpt>
      <trkpt lat="45.69027" lon="4.82741">
        <ele>168</ele>
        <time>2017-07-25T13:23:45Z</time>
      </trkpt>
      <trkpt lat="45.69018" lon="4.82747">
        <ele>168</ele>
        <time>2017-07-25T13:23:48Z</time>
      </trkpt>
      <trkpt lat="45.69009" lon="4.82745">
        <ele>169</ele>
        <time>2017-07-25T13:23:50Z</time>
      </trkpt>
      <trkpt lat="45.69002" lon="4.82738">
        <ele>168</ele>
        <time>2017-07-25T13:23:52Z</time>
      </trkpt>
      <trkpt lat="45.68995" lon="4.82716">
        <ele>168</ele>
        <time>2017-07-25T13:23:56Z</time>
      </trkpt>
      <trkpt lat="45.68985" lon="4.82704">
        <ele>168</ele>
        <time>2017-07-25T13:23:59Z</time>
      </trkpt>
      <trkpt lat="45.6898" lon="4.82702">
        <ele>168</ele>
        <time>2017-07-25T13:24:00Z</time>
      </trkpt>
      <trkpt lat="45.68952" lon="4.82689">
        <ele>168</ele>
        <time>2017-07-25T13:24:05Z</time>
      </trkpt>
      <trkpt lat="45.68915" lon="4.82679">
        <ele>168</ele>
        <time>2017-07-25T13:24:11Z</time>
      </trkpt>
      <trkpt lat="45.68869" lon="4.82679">
        <ele>167</ele>
        <time>2017-07-25T13:24:18Z</time>
      </trkpt>
      <trkpt lat="45.68863" lon="4.82681">
        <ele>167</ele>
        <time>2017-07-25T13:24:19Z</time>
      </trkpt>
      <trkpt lat="45.68859" lon="4.82682">
        <ele>167</ele>
      </trkpt>
      <trkpt lat="45.68853" lon="4.8269">
        <ele>166</ele>
        <time>2017-07-25T13:24:21Z</time>
      </trkpt>
      <trkpt lat="45.68849" lon="4.82695">
        <ele>166</ele>
      </trkpt>
      <trkpt lat="45.68842" lon="4.82699">
        <ele>166</ele>
        <time>2017-07-25T13:24:24Z</time>
      </trkpt>
      <trkpt lat="45.68836" lon="4.82694">
        <ele>166</ele>
      </trkpt>
      <trkpt lat="45.68832" lon="4.82688">
        <ele>166</ele>
        <time>2017-07-25T13:24:27Z</time>
      </trkpt>
      <trkpt lat="45.68829" lon="4.82683">
        <ele>166</ele>
        <time>2017-07-25T13:24:28Z</time>
      </trkpt>
      <trkpt lat="45.68826" lon="4.82679">
        <ele>166</ele>
        <time>2017-07-25T13:24:29Z</time>
      </trkpt>
      <trkpt lat="45.68816" lon="4.82676">
        <ele>166</ele>
        <time>2017-07-25T13:24:31Z</time>
      </trkpt>
      <trkpt lat="45.68804" lon="4.82675">
        <ele>166</ele>
        <time>2017-07-25T13:24:33Z</time>
      </trkpt>
      <trkpt lat="45.68785" lon="4.82675">
        <ele>166</ele>
        <time>2017-07-25T13:24:36Z</time>
      </trkpt>
      <trkpt lat="45.6873" lon="4.82677">
        <ele>166</ele>
        <time>2017-07-25T13:24:44Z</time>
      </trkpt>
      <trkpt lat="45.68688" lon="4.82682">
        <ele>166</ele>
        <time>2017-07-25T13:24:50Z</time>
      </trkpt>
      <trkpt lat="45.68643" lon="4.8269">
        <ele>165</ele>
        <time>2017-07-25T13:24:57Z</time>
      </trkpt>
      <trkpt lat="45.68631" lon="4.82692">
        <ele>165</ele>
        <time>2017-07-25T13:24:59Z</time>
      </trkpt>
      <trkpt lat="45.68625" lon="4.82694">
        <ele>165</ele>
        <time>2017-07-25T13:25:00Z</time>
      </trkpt>
      <trkpt lat="45.68619" lon="4.82695">
        <ele>165</ele>
        <time>2017-07-25T13:25:01Z</time>
      </trkpt>
      <trkpt lat="45.68613" lon="4.82696">
        <ele>165</ele>
        <time>2017-07-25T13:25:02Z</time>
      </trkpt>
      <trkpt lat="45.68607" lon="4.82697">
        <ele>165</ele>
        <time>2017-07-25T13:25:03Z</time>
      </trkpt>
      <trkpt lat="45.68602" lon="4.82699">
        <ele>165</ele>
        <time>2017-07-25T13:25:04Z</time>
      </trkpt>
      <trkpt lat="45.68597" lon="4.82703">
        <ele>165</ele>
        <time>2017-07-25T13:25:05Z</time>
      </trkpt>
      <trkpt lat="45.6859" lon="4.82709">
        <ele>164</ele>
        <time>2017-07-25T13:25:07Z</time>
      </trkpt>
      <trkpt lat="45.68578" lon="4.82712">
        <ele>165</ele>
        <time>2017-07-25T13:25:10Z</time>
      </trkpt>
      <trkpt lat="45.68573" lon="4.82713">
        <ele>165</ele>
        <time>2017-07-25T13:25:11Z</time>
      </trkpt>
      <trkpt lat="45.68569" lon="4.82713">
        <ele>165</ele>
        <time>2017-07-25T13:25:12Z</time>
      </trkpt>
      <trkpt lat="45.68553" lon="4.82715">
        <ele>165</ele>
        <time>2017-07-25T13:25:15Z</time>
      </trkpt>
      <trkpt lat="45.68542" lon="4.8272">
        <ele>165</ele>
        <time>2017-07-25T13:25:17Z</time>
      </trkpt>
      <trkpt lat="45.68509" lon="4.82741">
        <ele>164</ele>
        <time>2017-07-25T13:25:23Z</time>
      </trkpt>
      <trkpt lat="45.68504" lon="4.82748">
        <ele>164</ele>
        <time>2017-07-25T13:25:24Z</time>
      </trkpt>
      <trkpt lat="45.68488" lon="4.82762">
        <ele>164</ele>
        <time>2017-07-25T13:25:27Z</time>
      </trkpt>
      <trkpt lat="45.68469" lon="4.8278">
        <ele>163</ele>
        <time>2017-07-25T13:25:32Z</time>
      </trkpt>
      <trkpt lat="45.68466" lon="4.8278">
        <ele>163</ele>
        <time>2017-07-25T13:25:33Z</time>
      </trkpt>
      <trkpt lat="45.68456" lon="4.82783">
        <ele>163</ele>
        <time>2017-07-25T13:25:36Z</time>
      </trkpt>
      <trkpt lat="45.68452" lon="4.82781">
        <ele>163</ele>
        <time>2017-07-25T13:25:37Z</time>
      </trkpt>
      <trkpt lat="45.68445" lon="4.82773">
        <ele>163</ele>
        <time>2017-07-25T13:25:39Z</time>
      </trkpt>
      <trkpt lat="45.68436" lon="4.82756">
        <ele>163</ele>
        <time>2017-07-25T13:26:06Z</time>
      </trkpt>
      <trkpt lat="45.68414" lon="4.82762">
        <ele>163</ele>
        <time>2017-07-25T13:26:10Z</time>
      </trkpt>
      <trkpt lat="45.6839" lon="4.82775">
        <ele>163</ele>
        <time>2017-07-25T13:26:15Z</time>
      </trkpt>
      <trkpt lat="45.68352" lon="4.82797">
        <ele>163</ele>
        <time>2017-07-25T13:26:21Z</time>
      </trkpt>
      <trkpt lat="45.68321" lon="4.82814">
        <ele>165</ele>
        <time>2017-07-25T13:26:30Z</time>
      </trkpt>
      <trkpt lat="45.68258" lon="4.82853">
        <ele>166</ele>
        <time>2017-07-25T13:26:37Z</time>
      </trkpt>
      <trkpt lat="45.68214" lon="4.82881">
        <ele>170</ele>
        <time>2017-07-25T13:26:44Z</time>
      </trkpt>
      <trkpt lat="45.68159" lon="4.82918">
        <ele>169</ele>
        <time>2017-07-25T13:26:50Z</time>
      </trkpt>
      <trkpt lat="45.68107" lon="4.82956">
        <ele>170</ele>
        <time>2017-07-25T13:26:58Z</time>
      </trkpt>
      <trkpt lat="45.68077" lon="4.8298">
        <ele>171</ele>
        <time>2017-07-25T13:27:05Z</time>
      </trkpt>
      <trkpt lat="45.68028" lon="4.83019">
        <ele>165</ele>
        <time>2017-07-25T13:27:13Z</time>
      </trkpt>
      <trkpt lat="45.68018" lon="4.83026">
        <ele>165</ele>
        <time>2017-07-25T13:27:14Z</time>
      </trkpt>
      <trkpt lat="45.67976" lon="4.83061">
        <ele>167</ele>
        <time>2017-07-25T13:27:21Z</time>
      </trkpt>
      <trkpt lat="45.67941" lon="4.83093">
        <ele>164</ele>
        <time>2017-07-25T13:27:27Z</time>
      </trkpt>
      <trkpt lat="45.67913" lon="4.83114">
        <ele>165</ele>
        <time>2017-07-25T13:27:32Z</time>
      </trkpt>
      <trkpt lat="45.6787" lon="4.83131">
        <ele>165</ele>
        <time>2017-07-25T13:27:37Z</time>
      </trkpt>
      <trkpt lat="45.67844" lon="4.8314">
        <ele>164</ele>
        <time>2017-07-25T13:27:39Z</time>
      </trkpt>
      <trkpt lat="45.67813" lon="4.83143">
        <ele>166</ele>
        <time>2017-07-25T13:27:46Z</time>
      </trkpt>
      <trkpt lat="45.67772" lon="4.83141">
        <ele>166</ele>
      </trkpt>
      <trkpt lat="45.67741" lon="4.83133">
        <ele>168</ele>
        <time>2017-07-25T13:27:52Z</time>
      </trkpt>
      <trkpt lat="45.67701" lon="4.83117">
        <ele>169</ele>
        <time>2017-07-25T13:28:06Z</time>
      </trkpt>
      <trkpt lat="45.67662" lon="4.83108">
        <ele>168</ele>
        <time>2017-07-25T13:28:13Z</time>
      </trkpt>
      <trkpt lat="45.67626" lon="4.83103">
        <ele>168</ele>
        <time>2017-07-25T13:28:18Z</time>
      </trkpt>
      <trkpt lat="45.67611" lon="4.83099">
        <ele>168</ele>
        <time>2017-07-25T13:28:19Z</time>
      </trkpt>
      <trkpt lat="45.6756" lon="4.83089">
        <ele>167</ele>
        <time>2017-07-25T13:28:26Z</time>
      </trkpt>
      <trkpt lat="45.67458" lon="4.83071">
        <ele>173</ele>
        <time>2017-07-25T13:28:48Z</time>
      </trkpt>
      <trkpt lat="45.67444" lon="4.83068">
        <ele>172</ele>
        <time>2017-07-25T13:28:51Z</time>
      </trkpt>
      <trkpt lat="45.67439" lon="4.83067">
        <ele>172</ele>
        <time>2017-07-25T13:28:52Z</time>
      </trkpt>
      <trkpt lat="45.67435" lon="4.83064">
        <ele>172</ele>
        <time>2017-07-25T13:28:53Z</time>
      </trkpt>
      <trkpt lat="45.67431" lon="4.83062">
        <ele>172</ele>
        <time>2017-07-25T13:28:54Z</time>
      </trkpt>
      <trkpt lat="45.67426" lon="4.83059">
        <ele>172</ele>
        <time>2017-07-25T13:28:55Z</time>
      </trkpt>
      <trkpt lat="45.67404" lon="4.83045">
        <ele>172</ele>
        <time>2017-07-25T13:29:00Z</time>
      </trkpt>
      <trkpt lat="45.67399" lon="4.83043">
        <ele>172</ele>
        <time>2017-07-25T13:29:01Z</time>
      </trkpt>
      <trkpt lat="45.67394" lon="4.8304">
        <ele>172</ele>
        <time>2017-07-25T13:29:02Z</time>
      </trkpt>
      <trkpt lat="45.67389" lon="4.83037">
        <ele>172</ele>
        <time>2017-07-25T13:29:03Z</time>
      </trkpt>
      <trkpt lat="45.67267" lon="4.82966">
        <ele>176</ele>
        <time>2017-07-25T13:29:29Z</time>
      </trkpt>
      <trkpt lat="45.67235" lon="4.82943">
        <ele>173</ele>
        <time>2017-07-25T13:29:36Z</time>
      </trkpt>
      <trkpt lat="45.67207" lon="4.82923">
        <ele>173</ele>
        <time>2017-07-25T13:29:43Z</time>
      </trkpt>
      <trkpt lat="45.67187" lon="4.8291">
        <ele>177</ele>
        <time>2017-07-25T13:29:49Z</time>
      </trkpt>
      <trkpt lat="45.67162" lon="4.82893">
        <ele>175</ele>
        <time>2017-07-25T13:29:55Z</time>
      </trkpt>
      <trkpt lat="45.67138" lon="4.82883">
        <ele>176</ele>
        <time>2017-07-25T13:30:00Z</time>
      </trkpt>
      <trkpt lat="45.67134" lon="4.82881">
        <ele>176</ele>
        <time>2017-07-25T13:30:01Z</time>
      </trkpt>
      <trkpt lat="45.67129" lon="4.82879">
        <ele>176</ele>
        <time>2017-07-25T13:30:02Z</time>
      </trkpt>
      <trkpt lat="45.67124" lon="4.82877">
        <ele>176</ele>
        <time>2017-07-25T13:30:03Z</time>
      </trkpt>
      <trkpt lat="45.6712" lon="4.82875">
        <ele>176</ele>
        <time>2017-07-25T13:30:04Z</time>
      </trkpt>
      <trkpt lat="45.6711" lon="4.82872">
        <ele>176</ele>
        <time>2017-07-25T13:30:06Z</time>
      </trkpt>
      <trkpt lat="45.67095" lon="4.82866">
        <ele>177</ele>
        <time>2017-07-25T13:30:09Z</time>
      </trkpt>
      <trkpt lat="45.67063" lon="4.82859">
        <ele>175</ele>
        <time>2017-07-25T13:30:15Z</time>
      </trkpt>
      <trkpt lat="45.67057" lon="4.82858">
        <ele>175</ele>
        <time>2017-07-25T13:30:16Z</time>
      </trkpt>
      <trkpt lat="45.67051" lon="4.82857">
        <ele>175</ele>
        <time>2017-07-25T13:30:17Z</time>
      </trkpt>
      <trkpt lat="45.67046" lon="4.82856">
        <ele>175</ele>
        <time>2017-07-25T13:30:18Z</time>
      </trkpt>
      <trkpt lat="45.6704" lon="4.82856">
        <ele>175</ele>
        <time>2017-07-25T13:30:19Z</time>
      </trkpt>
      <trkpt lat="45.67017" lon="4.82853">
        <ele>175</ele>
        <time>2017-07-25T13:30:23Z</time>
      </trkpt>
      <trkpt lat="45.6697" lon="4.82845">
        <ele>173</ele>
        <time>2017-07-25T13:30:31Z</time>
      </trkpt>
      <trkpt lat="45.66941" lon="4.82842">
        <ele>173</ele>
        <time>2017-07-25T13:30:36Z</time>
      </trkpt>
      <trkpt lat="45.66935" lon="4.82841">
        <ele>174</ele>
        <time>2017-07-25T13:30:37Z</time>
      </trkpt>
      <trkpt lat="45.6688" lon="4.82838">
        <ele>173</ele>
        <time>2017-07-25T13:30:46Z</time>
      </trkpt>
      <trkpt lat="45.66848" lon="4.82838">
        <ele>174</ele>
        <time>2017-07-25T13:30:51Z</time>
      </trkpt>
      <trkpt lat="45.66842" lon="4.82838">
        <ele>174</ele>
        <time>2017-07-25T13:30:52Z</time>
      </trkpt>
      <trkpt lat="45.66836" lon="4.82839">
        <ele>175</ele>
        <time>2017-07-25T13:30:53Z</time>
      </trkpt>
      <trkpt lat="45.6683" lon="4.8284">
        <ele>175</ele>
        <time>2017-07-25T13:30:54Z</time>
      </trkpt>
      <trkpt lat="45.66824" lon="4.8284">
        <ele>174</ele>
        <time>2017-07-25T13:30:55Z</time>
      </trkpt>
      <trkpt lat="45.6678" lon="4.82839">
        <ele>173</ele>
        <time>2017-07-25T13:31:02Z</time>
      </trkpt>
      <trkpt lat="45.66739" lon="4.82825">
        <ele>177</ele>
        <time>2017-07-25T13:31:09Z</time>
      </trkpt>
      <trkpt lat="45.66688" lon="4.82797">
        <ele>179</ele>
        <time>2017-07-25T13:31:16Z</time>
      </trkpt>
      <trkpt lat="45.66618" lon="4.82734">
        <ele>183</ele>
        <time>2017-07-25T13:31:31Z</time>
      </trkpt>
      <trkpt lat="45.66597" lon="4.82716">
        <ele>184</ele>
        <time>2017-07-25T13:31:37Z</time>
      </trkpt>
      <trkpt lat="45.66554" lon="4.82672">
        <ele>181</ele>
        <time>2017-07-25T13:31:46Z</time>
      </trkpt>
      <trkpt lat="45.66523" lon="4.82637">
        <ele>182</ele>
        <time>2017-07-25T13:31:52Z</time>
      </trkpt>
      <trkpt lat="45.66522" lon="4.82632">
        <ele>182</ele>
        <time>2017-07-25T13:31:54Z</time>
      </trkpt>
      <trkpt lat="45.66523" lon="4.82624">
        <ele>182</ele>
        <time>2017-07-25T13:31:57Z</time>
      </trkpt>
      <trkpt lat="45.66514" lon="4.8261">
        <ele>182</ele>
        <time>2017-07-25T13:31:59Z</time>
      </trkpt>
      <trkpt lat="45.66509" lon="4.82609">
        <ele>182</ele>
      </trkpt>
      <trkpt lat="45.66505" lon="4.82615">
        <ele>182</ele>
      </trkpt>
      <trkpt lat="45.66501" lon="4.82623">
        <ele>181</ele>
      </trkpt>
      <trkpt lat="45.66487" lon="4.82622">
        <ele>178</ele>
        <time>2017-07-25T13:32:04Z</time>
      </trkpt>
      <trkpt lat="45.66479" lon="4.82618">
        <ele>177</ele>
        <time>2017-07-25T13:32:08Z</time>
      </trkpt>
      <trkpt lat="45.66474" lon="4.82616">
        <ele>177</ele>
        <time>2017-07-25T13:32:27Z</time>
      </trkpt>
      <trkpt lat="45.66463" lon="4.82611">
        <ele>177</ele>
        <time>2017-07-25T13:32:32Z</time>
      </trkpt>
      <trkpt lat="45.66456" lon="4.82607">
        <ele>177</ele>
        <time>2017-07-25T13:32:34Z</time>
      </trkpt>
      <trkpt lat="45.66447" lon="4.82602">
        <ele>176</ele>
        <time>2017-07-25T13:32:36Z</time>
      </trkpt>
      <trkpt lat="45.66432" lon="4.82593">
        <ele>176</ele>
        <time>2017-07-25T13:32:39Z</time>
      </trkpt>
      <trkpt lat="45.66427" lon="4.8259">
        <ele>175</ele>
        <time>2017-07-25T13:32:40Z</time>
      </trkpt>
      <trkpt lat="45.6641" lon="4.82582">
        <ele>174</ele>
        <time>2017-07-25T13:32:43Z</time>
      </trkpt>
      <trkpt lat="45.6637" lon="4.82561">
        <ele>175</ele>
        <time>2017-07-25T13:32:50Z</time>
      </trkpt>
      <trkpt lat="45.66322" lon="4.82535">
        <ele>175</ele>
        <time>2017-07-25T13:32:59Z</time>
      </trkpt>
      <trkpt lat="45.66311" lon="4.82528">
        <ele>175</ele>
        <time>2017-07-25T13:33:01Z</time>
      </trkpt>
      <trkpt lat="45.66306" lon="4.82525">
        <ele>175</ele>
        <time>2017-07-25T13:33:02Z</time>
      </trkpt>
      <trkpt lat="45.663" lon="4.82521">
        <ele>175</ele>
        <time>2017-07-25T13:33:03Z</time>
      </trkpt>
      <trkpt lat="45.66295" lon="4.82518">
        <ele>175</ele>
        <time>2017-07-25T13:33:04Z</time>
      </trkpt>
      <trkpt lat="45.66291" lon="4.82514">
        <ele>175</ele>
        <time>2017-07-25T13:33:05Z</time>
      </trkpt>
      <trkpt lat="45.6628" lon="4.82507">
        <ele>175</ele>
        <time>2017-07-25T13:33:07Z</time>
      </trkpt>
      <trkpt lat="45.66239" lon="4.82474">
        <ele>176</ele>
        <time>2017-07-25T13:33:15Z</time>
      </trkpt>
      <trkpt lat="45.66222" lon="4.8246">
        <ele>175</ele>
        <time>2017-07-25T13:33:20Z</time>
      </trkpt>
      <trkpt lat="45.66221" lon="4.82459">
        <ele>175</ele>
        <time>2017-07-25T13:33:24Z</time>
      </trkpt>
      <trkpt lat="45.66221" lon="4.82459">
        <ele>175</ele>
        <time>2017-07-25T13:33:37Z</time>
      </trkpt>
      <trkpt lat="45.66218" lon="4.82458">
        <ele>175</ele>
        <time>2017-07-25T13:33:45Z</time>
      </trkpt>
      <trkpt lat="45.66208" lon="4.8245">
        <ele>175</ele>
        <time>2017-07-25T13:33:49Z</time>
      </trkpt>
      <trkpt lat="45.66185" lon="4.82434">
        <ele>175</ele>
        <time>2017-07-25T13:33:54Z</time>
      </trkpt>
      <trkpt lat="45.66148" lon="4.82403">
        <ele>176</ele>
        <time>2017-07-25T13:34:02Z</time>
      </trkpt>
      <trkpt lat="45.66116" lon="4.82373">
        <ele>176</ele>
        <time>2017-07-25T13:34:09Z</time>
      </trkpt>
      <trkpt lat="45.66028" lon="4.82266">
        <ele>176</ele>
        <time>2017-07-25T13:34:18Z</time>
      </trkpt>
      <trkpt lat="45.65981" lon="4.82211">
        <ele>174</ele>
        <time>2017-07-25T13:34:39Z</time>
      </trkpt>
      <trkpt lat="45.65947" lon="4.82168">
        <ele>174</ele>
        <time>2017-07-25T13:34:47Z</time>
      </trkpt>
      <trkpt lat="45.65905" lon="4.82115">
        <ele>177</ele>
        <time>2017-07-25T13:34:57Z</time>
      </trkpt>
      <trkpt lat="45.65901" lon="4.8211">
        <ele>178</ele>
        <time>2017-07-25T13:34:58Z</time>
      </trkpt>
      <trkpt lat="45.65848" lon="4.82051">
        <ele>185</ele>
        <time>2017-07-25T13:35:14Z</time>
      </trkpt>
      <trkpt lat="45.65803" lon="4.81997">
        <ele>188</ele>
        <time>2017-07-25T13:35:22Z</time>
      </trkpt>
      <trkpt lat="45.65799" lon="4.81993">
        <ele>188</ele>
        <time>2017-07-25T13:35:23Z</time>
      </trkpt>
      <trkpt lat="45.65795" lon="4.81988">
        <ele>187</ele>
        <time>2017-07-25T13:35:24Z</time>
      </trkpt>
      <trkpt lat="45.65791" lon="4.81984">
        <ele>187</ele>
        <time>2017-07-25T13:35:25Z</time>
      </trkpt>
      <trkpt lat="45.65787" lon="4.81981">
        <ele>187</ele>
        <time>2017-07-25T13:35:26Z</time>
      </trkpt>
      <trkpt lat="45.657" lon="4.81881">
        <ele>183</ele>
      </trkpt>
      <trkpt lat="45.65609" lon="4.81784">
        <ele>187</ele>
        <time>2017-07-25T13:38:13Z</time>
      </trkpt>
      <trkpt lat="45.65581" lon="4.81742">
        <ele>188</ele>
        <time>2017-07-25T13:38:14Z</time>
      </trkpt>
      <trkpt lat="45.65578" lon="4.81736">
        <ele>188</ele>
        <time>2017-07-25T13:38:15Z</time>
      </trkpt>
      <trkpt lat="45.65575" lon="4.81731">
        <ele>188</ele>
        <time>2017-07-25T13:38:16Z</time>
      </trkpt>
      <trkpt lat="45.65571" lon="4.81725">
        <ele>187</ele>
        <time>2017-07-25T13:38:17Z</time>
      </trkpt>
      <trkpt lat="45.65568" lon="4.81719">
        <ele>187</ele>
        <time>2017-07-25T13:38:18Z</time>
      </trkpt>
      <trkpt lat="45.65565" lon="4.81712">
        <ele>187</ele>
        <time>2017-07-25T13:38:19Z</time>
      </trkpt>
      <trkpt lat="45.65562" lon="4.81706">
        <ele>188</ele>
        <time>2017-07-25T13:38:20Z</time>
      </trkpt>
      <trkpt lat="45.65544" lon="4.81663">
        <ele>190</ele>
        <time>2017-07-25T13:38:26Z</time>
      </trkpt>
      <trkpt lat="45.65525" lon="4.81609">
        <ele>189</ele>
        <time>2017-07-25T13:38:32Z</time>
      </trkpt>
      <trkpt lat="45.65521" lon="4.816">
        <ele>188</ele>
        <time>2017-07-25T13:38:33Z</time>
      </trkpt>
      <trkpt lat="45.65516" lon="4.81591">
        <ele>187</ele>
        <time>2017-07-25T13:38:34Z</time>
      </trkpt>
      <trkpt lat="45.6551" lon="4.81583">
        <ele>187</ele>
        <time>2017-07-25T13:38:35Z</time>
      </trkpt>
      <trkpt lat="45.65504" lon="4.81576">
        <ele>186</ele>
        <time>2017-07-25T13:38:36Z</time>
      </trkpt>
      <trkpt lat="45.65497" lon="4.81571">
        <ele>185</ele>
        <time>2017-07-25T13:38:37Z</time>
      </trkpt>
      <trkpt lat="45.65482" lon="4.81568">
        <ele>186</ele>
        <time>2017-07-25T13:38:39Z</time>
      </trkpt>
      <trkpt lat="45.65475" lon="4.81567">
        <ele>186</ele>
        <time>2017-07-25T13:38:40Z</time>
      </trkpt>
      <trkpt lat="45.65448" lon="4.8157">
        <ele>186</ele>
        <time>2017-07-25T13:38:44Z</time>
      </trkpt>
      <trkpt lat="45.65442" lon="4.81571">
        <ele>186</ele>
        <time>2017-07-25T13:38:45Z</time>
      </trkpt>
      <trkpt lat="45.65436" lon="4.81572">
        <ele>186</ele>
        <time>2017-07-25T13:38:46Z</time>
      </trkpt>
      <trkpt lat="45.65431" lon="4.81571">
        <ele>186</ele>
        <time>2017-07-25T13:38:47Z</time>
      </trkpt>
      <trkpt lat="45.65425" lon="4.81571">
        <ele>186</ele>
        <time>2017-07-25T13:38:48Z</time>
      </trkpt>
      <trkpt lat="45.65413" lon="4.81568">
        <ele>185</ele>
        <time>2017-07-25T13:38:50Z</time>
      </trkpt>
      <trkpt lat="45.65408" lon="4.81566">
        <ele>185</ele>
        <time>2017-07-25T13:38:51Z</time>
      </trkpt>
      <trkpt lat="45.65393" lon="4.81557">
        <ele>185</ele>
        <time>2017-07-25T13:38:54Z</time>
      </trkpt>
      <trkpt lat="45.65389" lon="4.81553">
        <ele>186</ele>
        <time>2017-07-25T13:38:55Z</time>
      </trkpt>
      <trkpt lat="45.65384" lon="4.81549">
        <ele>186</ele>
        <time>2017-07-25T13:38:56Z</time>
      </trkpt>
      <trkpt lat="45.6538" lon="4.81544">
        <ele>186</ele>
        <time>2017-07-25T13:38:57Z</time>
      </trkpt>
      <trkpt lat="45.65376" lon="4.81539">
        <ele>186</ele>
        <time>2017-07-25T13:38:58Z</time>
      </trkpt>
      <trkpt lat="45.65364" lon="4.81524">
        <ele>186</ele>
        <time>2017-07-25T13:39:01Z</time>
      </trkpt>
      <trkpt lat="45.65328" lon="4.81477">
        <ele>185</ele>
        <time>2017-07-25T13:39:09Z</time>
      </trkpt>
      <trkpt lat="45.65296" lon="4.81433">
        <ele>184</ele>
        <time>2017-07-25T13:39:16Z</time>
      </trkpt>
      <trkpt lat="45.65261" lon="4.81384">
        <ele>186</ele>
        <time>2017-07-25T13:39:24Z</time>
      </trkpt>
      <trkpt lat="45.65231" lon="4.81354">
        <ele>183</ele>
        <time>2017-07-25T13:39:29Z</time>
      </trkpt>
      <trkpt lat="45.65217" lon="4.81345">
        <ele>182</ele>
        <time>2017-07-25T13:39:31Z</time>
      </trkpt>
      <trkpt lat="45.65209" lon="4.81341">
        <ele>182</ele>
        <time>2017-07-25T13:39:32Z</time>
      </trkpt>
      <trkpt lat="45.65202" lon="4.81337">
        <ele>181</ele>
        <time>2017-07-25T13:39:33Z</time>
      </trkpt>
      <trkpt lat="45.65195" lon="4.81334">
        <ele>181</ele>
        <time>2017-07-25T13:39:34Z</time>
      </trkpt>
      <trkpt lat="45.6519" lon="4.8133">
        <ele>182</ele>
        <time>2017-07-25T13:39:35Z</time>
      </trkpt>
      <trkpt lat="45.65183" lon="4.81327">
        <ele>181</ele>
        <time>2017-07-25T13:39:36Z</time>
      </trkpt>
      <trkpt lat="45.65177" lon="4.81323">
        <ele>181</ele>
        <time>2017-07-25T13:39:37Z</time>
      </trkpt>
      <trkpt lat="45.6517" lon="4.8132">
        <ele>181</ele>
        <time>2017-07-25T13:39:38Z</time>
      </trkpt>
      <trkpt lat="45.65163" lon="4.81316">
        <ele>179</ele>
        <time>2017-07-25T13:39:39Z</time>
      </trkpt>
      <trkpt lat="45.65157" lon="4.81313">
        <ele>179</ele>
        <time>2017-07-25T13:39:40Z</time>
      </trkpt>
      <trkpt lat="45.6515" lon="4.81309">
        <ele>179</ele>
        <time>2017-07-25T13:39:41Z</time>
      </trkpt>
      <trkpt lat="45.65122" lon="4.81294">
        <ele>178</ele>
        <time>2017-07-25T13:39:45Z</time>
      </trkpt>
      <trkpt lat="45.65116" lon="4.8129">
        <ele>178</ele>
        <time>2017-07-25T13:39:46Z</time>
      </trkpt>
      <trkpt lat="45.65109" lon="4.81287">
        <ele>178</ele>
        <time>2017-07-25T13:39:47Z</time>
      </trkpt>
      <trkpt lat="45.65103" lon="4.81283">
        <ele>178</ele>
        <time>2017-07-25T13:39:48Z</time>
      </trkpt>
      <trkpt lat="45.65096" lon="4.81279">
        <ele>178</ele>
        <time>2017-07-25T13:39:49Z</time>
      </trkpt>
      <trkpt lat="45.6509" lon="4.81276">
        <ele>178</ele>
        <time>2017-07-25T13:39:50Z</time>
      </trkpt>
      <trkpt lat="45.65064" lon="4.81264">
        <ele>176</ele>
        <time>2017-07-25T13:39:54Z</time>
      </trkpt>
      <trkpt lat="45.65053" lon="4.81257">
        <ele>177</ele>
        <time>2017-07-25T13:39:56Z</time>
      </trkpt>
      <trkpt lat="45.65043" lon="4.81251">
        <ele>177</ele>
        <time>2017-07-25T13:40:27Z</time>
      </trkpt>
      <trkpt lat="45.6503" lon="4.81243">
        <ele>179</ele>
        <time>2017-07-25T13:40:32Z</time>
      </trkpt>
      <trkpt lat="45.65019" lon="4.81234">
        <ele>179</ele>
        <time>2017-07-25T13:40:35Z</time>
      </trkpt>
      <trkpt lat="45.65015" lon="4.8123">
        <ele>179</ele>
        <time>2017-07-25T13:40:36Z</time>
      </trkpt>
      <trkpt lat="45.64987" lon="4.81213">
        <ele>179</ele>
      </trkpt>
      <trkpt lat="45.64969" lon="4.81206">
        <ele>179</ele>
      </trkpt>
      <trkpt lat="45.64954" lon="4.81207">
        <ele>178</ele>
        <time>2017-07-25T13:40:48Z</time>
      </trkpt>
      <trkpt lat="45.64904" lon="4.81206">
        <ele>175</ele>
        <time>2017-07-25T13:40:56Z</time>
      </trkpt>
      <trkpt lat="45.64864" lon="4.81207">
        <ele>175</ele>
        <time>2017-07-25T13:41:02Z</time>
      </trkpt>
      <trkpt lat="45.64824" lon="4.81205">
        <ele>174</ele>
      </trkpt>
      <trkpt lat="45.64794" lon="4.81198">
        <ele>174</ele>
        <time>2017-07-25T13:41:58Z</time>
      </trkpt>
      <trkpt lat="45.6478" lon="4.81196">
        <ele>174</ele>
        <time>2017-07-25T13:42:01Z</time>
      </trkpt>
      <trkpt lat="45.64775" lon="4.81198">
        <ele>174</ele>
      </trkpt>
      <trkpt lat="45.64768" lon="4.81189">
        <ele>175</ele>
        <time>2017-07-25T13:42:04Z</time>
      </trkpt>
      <trkpt lat="45.64762" lon="4.8119">
        <ele>175</ele>
      </trkpt>
      <trkpt lat="45.64759" lon="4.81196">
        <ele>175</ele>
        <time>2017-07-25T13:43:08Z</time>
      </trkpt>
      <trkpt lat="45.6476" lon="4.81206">
        <ele>174</ele>
      </trkpt>
      <trkpt lat="45.64756" lon="4.81219">
        <ele>173</ele>
      </trkpt>
      <trkpt lat="45.64751" lon="4.81231">
        <ele>172</ele>
      </trkpt>
      <trkpt lat="45.6471" lon="4.8142">
        <ele>161</ele>
        <time>2017-07-25T13:45:34Z</time>
      </trkpt>
      <trkpt lat="45.6471" lon="4.8142">
        <ele>161</ele>
        <time>2017-07-25T13:45:35Z</time>
      </trkpt>
      <trkpt lat="45.64709" lon="4.81429">
        <ele>161</ele>
      </trkpt>
      <trkpt lat="45.64704" lon="4.81442">
        <ele>161</ele>
      </trkpt>
      <trkpt lat="45.64692" lon="4.81459">
        <ele>161</ele>
      </trkpt>
      <trkpt lat="45.64666" lon="4.81495">
        <ele>159</ele>
        <time>2017-07-25T13:46:19Z</time>
      </trkpt>
      <trkpt lat="45.64662" lon="4.815">
        <ele>159</ele>
        <time>2017-07-25T13:46:20Z</time>
      </trkpt>
      <trkpt lat="45.64563" lon="4.81646">
        <ele>155</ele>
        <time>2017-07-25T13:46:49Z</time>
      </trkpt>
      <trkpt lat="45.64524" lon="4.81702">
        <ele>156</ele>
        <time>2017-07-25T13:46:57Z</time>
      </trkpt>
      <trkpt lat="45.64487" lon="4.81759">
        <ele>159</ele>
        <time>2017-07-25T13:47:03Z</time>
      </trkpt>
      <trkpt lat="45.64475" lon="4.81775">
        <ele>160</ele>
        <time>2017-07-25T13:47:06Z</time>
      </trkpt>
      <trkpt lat="45.64455" lon="4.81805">
        <ele>160</ele>
      </trkpt>
      <trkpt lat="45.64436" lon="4.81845">
        <ele>161</ele>
      </trkpt>
      <trkpt lat="45.64424" lon="4.819">
        <ele>162</ele>
      </trkpt>
      <trkpt lat="45.64426" lon="4.81984">
        <ele>162</ele>
      </trkpt>
      <trkpt lat="45.64438" lon="4.82079">
        <ele>162</ele>
      </trkpt>
      <trkpt lat="45.6445" lon="4.82153">
        <ele>163</ele>
      </trkpt>
      <trkpt lat="45.64448" lon="4.82213">
        <ele>164</ele>
      </trkpt>
      <trkpt lat="45.6444" lon="4.82254">
        <ele>163</ele>
      </trkpt>
      <trkpt lat="45.64433" lon="4.82285">
        <ele>163</ele>
      </trkpt>
      <trkpt lat="45.64387" lon="4.82395">
        <ele>157</ele>
      </trkpt>
      <trkpt lat="45.64348" lon="4.82498">
        <ele>155</ele>
      </trkpt>
      <trkpt lat="45.643" lon="4.82609">
        <ele>162</ele>
        <time>2017-07-25T13:51:44Z</time>
      </trkpt>
      <trkpt lat="45.64296" lon="4.82612">
        <ele>162</ele>
        <time>2017-07-25T13:51:45Z</time>
      </trkpt>
      <trkpt lat="45.64293" lon="4.82614">
        <ele>162</ele>
        <time>2017-07-25T13:51:46Z</time>
      </trkpt>
      <trkpt lat="45.64288" lon="4.82615">
        <ele>162</ele>
        <time>2017-07-25T13:51:47Z</time>
      </trkpt>
      <trkpt lat="45.64284" lon="4.82616">
        <ele>162</ele>
        <time>2017-07-25T13:51:48Z</time>
      </trkpt>
      <trkpt lat="45.64281" lon="4.82616">
        <ele>162</ele>
        <time>2017-07-25T13:51:49Z</time>
      </trkpt>
      <trkpt lat="45.64276" lon="4.82613">
        <ele>162</ele>
        <time>2017-07-25T13:51:51Z</time>
      </trkpt>
      <trkpt lat="45.6427" lon="4.82601">
        <ele>162</ele>
        <time>2017-07-25T13:51:55Z</time>
      </trkpt>
      <trkpt lat="45.64274" lon="4.82583">
        <ele>162</ele>
        <time>2017-07-25T13:51:59Z</time>
      </trkpt>
      <trkpt lat="45.64277" lon="4.82573">
        <ele>160</ele>
        <time>2017-07-25T13:52:03Z</time>
      </trkpt>
      <trkpt lat="45.64276" lon="4.82575">
        <ele>160</ele>
        <time>2017-07-25T13:52:09Z</time>
      </trkpt>
      <trkpt lat="45.64276" lon="4.82575">
        <ele>160</ele>
        <time>2017-07-25T13:52:22Z</time>
      </trkpt>
      <trkpt lat="45.64276" lon="4.82575">
        <ele>160</ele>
        <time>2017-07-25T13:52:25Z</time>
      </trkpt>
      <trkpt lat="45.64276" lon="4.82575">
        <ele>160</ele>
        <time>2017-07-25T13:52:26Z</time>
      </trkpt>
      <trkpt lat="45.64276" lon="4.82575">
        <ele>160</ele>
        <time>2017-07-25T13:52:27Z</time>
      </trkpt>
      <trkpt lat="45.64276" lon="4.82575">
        <ele>160</ele>
        <time>2017-07-25T13:52:28Z</time>
      </trkpt>
      <trkpt lat="45.64276" lon="4.82575">
        <ele>160</ele>
        <time>2017-07-25T13:52:29Z</time>
      </trkpt>
      <trkpt lat="45.64276" lon="4.82575">
        <ele>160</ele>
        <time>2017-07-25T13:52:34Z</time>
      </trkpt>
      <trkpt lat="45.64276" lon="4.82576">
        <ele>160</ele>
        <time>2017-07-25T13:52:51Z</time>
      </trkpt>
      <trkpt lat="45.64279" lon="4.8257">
        <ele>160</ele>
        <time>2017-07-25T13:53:01Z</time>
      </trkpt>
      <trkpt lat="45.64287" lon="4.82566">
        <ele>160</ele>
      </trkpt>
      <trkpt lat="45.64298" lon="4.82545">
        <ele>159</ele>
      </trkpt>
      <trkpt lat="45.643" lon="4.82525">
        <ele>158</ele>
      </trkpt>
      <trkpt lat="45.64297" lon="4.82502">
        <ele>158</ele>
      </trkpt>
      <trkpt lat="45.6427" lon="4.82485">
        <ele>157</ele>
      </trkpt>
      <trkpt lat="45.64211" lon="4.82435">
        <ele>158</ele>
      </trkpt>
      <trkpt lat="45.64173" lon="4.82398">
        <ele>158</ele>
      </trkpt>
      <trkpt lat="45.6415" lon="4.82374">
        <ele>159</ele>
      </trkpt>
      <trkpt lat="45.64134" lon="4.82365">
        <ele>159</ele>
      </trkpt>
      <trkpt lat="45.64104" lon="4.82339">
        <ele>160</ele>
      </trkpt>
      <trkpt lat="45.64054" lon="4.82301">
        <ele>160</ele>
      </trkpt>
      <trkpt lat="45.64025" lon="4.82273">
        <ele>159</ele>
      </trkpt>
      <trkpt lat="45.63981" lon="4.8224">
        <ele>158</ele>
      </trkpt>
      <trkpt lat="45.63931" lon="4.82197">
        <ele>158</ele>
      </trkpt>
      <trkpt lat="45.63914" lon="4.82179">
        <ele>157</ele>
      </trkpt>
      <trkpt lat="45.63906" lon="4.82175">
        <ele>157</ele>
      </trkpt>
      <trkpt lat="45.63873" lon="4.82168">
        <ele>158</ele>
        <time>2017-07-25T13:57:03Z</time>
      </trkpt>
      <trkpt lat="45.63866" lon="4.82162">
        <ele>156</ele>
        <time>2017-07-25T13:57:07Z</time>
      </trkpt>
      <trkpt lat="45.63866" lon="4.82162">
        <ele>156</ele>
        <time>2017-07-25T13:57:12Z</time>
      </trkpt>
      <trkpt lat="45.63865" lon="4.82162">
        <ele>156</ele>
        <time>2017-07-25T13:57:25Z</time>
      </trkpt>
      <trkpt lat="45.63856" lon="4.82154">
        <ele>156</ele>
        <time>2017-07-25T13:57:29Z</time>
      </trkpt>
      <trkpt lat="45.63845" lon="4.82146">
        <ele>156</ele>
        <time>2017-07-25T13:57:32Z</time>
      </trkpt>
      <trkpt lat="45.6383" lon="4.82133">
        <ele>157</ele>
        <time>2017-07-25T13:57:36Z</time>
      </trkpt>
      <trkpt lat="45.63826" lon="4.8213">
        <ele>157</ele>
        <time>2017-07-25T13:57:37Z</time>
      </trkpt>
      <trkpt lat="45.63803" lon="4.82111">
        <ele>157</ele>
        <time>2017-07-25T13:57:43Z</time>
      </trkpt>
      <trkpt lat="45.63767" lon="4.82082">
        <ele>156</ele>
        <time>2017-07-25T13:57:51Z</time>
      </trkpt>
      <trkpt lat="45.63731" lon="4.82054">
        <ele>157</ele>
        <time>2017-07-25T13:57:58Z</time>
      </trkpt>
      <trkpt lat="45.63718" lon="4.82043">
        <ele>157</ele>
        <time>2017-07-25T13:58:01Z</time>
      </trkpt>
      <trkpt lat="45.6371" lon="4.82035">
        <ele>157</ele>
        <time>2017-07-25T13:58:03Z</time>
      </trkpt>
      <trkpt lat="45.63685" lon="4.82016">
        <ele>157</ele>
        <time>2017-07-25T13:58:10Z</time>
      </trkpt>
      <trkpt lat="45.63672" lon="4.82002">
        <ele>156</ele>
        <time>2017-07-25T13:58:15Z</time>
      </trkpt>
      <trkpt lat="45.63658" lon="4.81985">
        <ele>156</ele>
        <time>2017-07-25T13:58:20Z</time>
      </trkpt>
      <trkpt lat="45.63654" lon="4.8198">
        <ele>156</ele>
        <time>2017-07-25T13:58:21Z</time>
      </trkpt>
      <trkpt lat="45.63641" lon="4.81968">
        <ele>156</ele>
        <time>2017-07-25T13:58:24Z</time>
      </trkpt>
      <trkpt lat="45.63609" lon="4.81942">
        <ele>157</ele>
        <time>2017-07-25T13:58:33Z</time>
      </trkpt>
      <trkpt lat="45.63594" lon="4.81929">
        <ele>157</ele>
        <time>2017-07-25T13:58:38Z</time>
      </trkpt>
      <trkpt lat="45.63576" lon="4.81915">
        <ele>158</ele>
        <time>2017-07-25T13:58:43Z</time>
      </trkpt>
      <trkpt lat="45.63564" lon="4.81905">
        <ele>157</ele>
        <time>2017-07-25T13:58:46Z</time>
      </trkpt>
      <trkpt lat="45.63554" lon="4.81898">
        <ele>157</ele>
        <time>2017-07-25T13:58:48Z</time>
      </trkpt>
      <trkpt lat="45.63534" lon="4.81886">
        <ele>157</ele>
        <time>2017-07-25T13:58:53Z</time>
      </trkpt>
      <trkpt lat="45.63529" lon="4.81884">
        <ele>157</ele>
        <time>2017-07-25T13:58:54Z</time>
      </trkpt>
      <trkpt lat="45.63514" lon="4.81876">
        <ele>157</ele>
        <time>2017-07-25T13:58:58Z</time>
      </trkpt>
      <trkpt lat="45.63492" lon="4.8186">
        <ele>159</ele>
        <time>2017-07-25T13:59:04Z</time>
      </trkpt>
      <trkpt lat="45.63481" lon="4.81845">
        <ele>158</ele>
        <time>2017-07-25T13:59:08Z</time>
      </trkpt>
      <trkpt lat="45.63464" lon="4.81826">
        <ele>156</ele>
        <time>2017-07-25T13:59:13Z</time>
      </trkpt>
      <trkpt lat="45.63442" lon="4.81815">
        <ele>156</ele>
        <time>2017-07-25T13:59:18Z</time>
      </trkpt>
      <trkpt lat="45.6343" lon="4.81805">
        <ele>156</ele>
        <time>2017-07-25T13:59:22Z</time>
      </trkpt>
      <trkpt lat="45.63426" lon="4.81801">
        <ele>156</ele>
        <time>2017-07-25T13:59:23Z</time>
      </trkpt>
      <trkpt lat="45.63413" lon="4.81792">
        <ele>158</ele>
        <time>2017-07-25T13:59:26Z</time>
      </trkpt>
      <trkpt lat="45.63385" lon="4.81772">
        <ele>157</ele>
        <time>2017-07-25T13:59:32Z</time>
      </trkpt>
      <trkpt lat="45.63381" lon="4.81771">
        <ele>157</ele>
        <time>2017-07-25T13:59:33Z</time>
      </trkpt>
      <trkpt lat="45.6337" lon="4.81764">
        <ele>157</ele>
        <time>2017-07-25T13:59:36Z</time>
      </trkpt>
      <trkpt lat="45.63356" lon="4.81752">
        <ele>157</ele>
        <time>2017-07-25T13:59:41Z</time>
      </trkpt>
      <trkpt lat="45.63349" lon="4.81749">
        <ele>154</ele>
        <time>2017-07-25T13:59:45Z</time>
      </trkpt>
      <trkpt lat="45.63347" lon="4.81747">
        <ele>155</ele>
        <time>2017-07-25T13:59:58Z</time>
      </trkpt>
      <trkpt lat="45.63188" lon="4.81653">
        <ele>156</ele>
        <time>2017-07-25T14:01:23Z</time>
      </trkpt>
      <trkpt lat="45.63173" lon="4.81645">
        <ele>157</ele>
        <time>2017-07-25T14:01:26Z</time>
      </trkpt>
      <trkpt lat="45.63168" lon="4.81642">
        <ele>156</ele>
        <time>2017-07-25T14:01:27Z</time>
      </trkpt>
      <trkpt lat="45.63144" lon="4.81629">
        <ele>156</ele>
        <time>2017-07-25T14:01:32Z</time>
      </trkpt>
      <trkpt lat="45.6311" lon="4.81609">
        <ele>156</ele>
        <time>2017-07-25T14:01:39Z</time>
      </trkpt>
      <trkpt lat="45.63077" lon="4.81589">
        <ele>156</ele>
        <time>2017-07-25T14:01:46Z</time>
      </trkpt>
      <trkpt lat="45.63048" lon="4.81572">
        <ele>156</ele>
        <time>2017-07-25T14:01:52Z</time>
      </trkpt>
      <trkpt lat="45.63032" lon="4.81563">
        <ele>157</ele>
        <time>2017-07-25T14:01:56Z</time>
      </trkpt>
      <trkpt lat="45.63014" lon="4.8155">
        <ele>157</ele>
        <time>2017-07-25T14:02:02Z</time>
      </trkpt>
      <trkpt lat="45.6301" lon="4.81548">
        <ele>157</ele>
        <time>2017-07-25T14:02:03Z</time>
      </trkpt>
      <trkpt lat="45.63007" lon="4.81545">
        <ele>157</ele>
        <time>2017-07-25T14:02:04Z</time>
      </trkpt>
      <trkpt lat="45.62998" lon="4.81535">
        <ele>158</ele>
        <time>2017-07-25T14:02:07Z</time>
      </trkpt>
      <trkpt lat="45.62993" lon="4.81531">
        <ele>158</ele>
        <time>2017-07-25T14:02:08Z</time>
      </trkpt>
      <trkpt lat="45.62983" lon="4.81523">
        <ele>158</ele>
        <time>2017-07-25T14:02:10Z</time>
      </trkpt>
      <trkpt lat="45.62967" lon="4.81515">
        <ele>158</ele>
        <time>2017-07-25T14:02:13Z</time>
      </trkpt>
      <trkpt lat="45.62962" lon="4.81514">
        <ele>158</ele>
        <time>2017-07-25T14:02:14Z</time>
      </trkpt>
      <trkpt lat="45.62941" lon="4.81505">
        <ele>158</ele>
        <time>2017-07-25T14:02:19Z</time>
      </trkpt>
      <trkpt lat="45.62938" lon="4.81507">
        <ele>158</ele>
        <time>2017-07-25T14:02:20Z</time>
      </trkpt>
      <trkpt lat="45.62932" lon="4.81504">
        <ele>158</ele>
        <time>2017-07-25T14:02:22Z</time>
      </trkpt>
      <trkpt lat="45.62925" lon="4.815">
        <ele>158</ele>
        <time>2017-07-25T14:02:24Z</time>
      </trkpt>
      <trkpt lat="45.62915" lon="4.81498">
        <ele>158</ele>
        <time>2017-07-25T14:02:27Z</time>
      </trkpt>
      <trkpt lat="45.62907" lon="4.81496">
        <ele>157</ele>
        <time>2017-07-25T14:02:29Z</time>
      </trkpt>
      <trkpt lat="45.629" lon="4.81492">
        <ele>157</ele>
        <time>2017-07-25T14:02:31Z</time>
      </trkpt>
      <trkpt lat="45.62876" lon="4.81478">
        <ele>157</ele>
        <time>2017-07-25T14:02:36Z</time>
      </trkpt>
      <trkpt lat="45.62839" lon="4.81459">
        <ele>156</ele>
        <time>2017-07-25T14:02:43Z</time>
      </trkpt>
      <trkpt lat="45.62823" lon="4.81449">
        <ele>157</ele>
        <time>2017-07-25T14:02:46Z</time>
      </trkpt>
      <trkpt lat="45.62808" lon="4.81441">
        <ele>157</ele>
        <time>2017-07-25T14:02:49Z</time>
      </trkpt>
      <trkpt lat="45.62776" lon="4.81424">
        <ele>158</ele>
        <time>2017-07-25T14:02:55Z</time>
      </trkpt>
      <trkpt lat="45.62743" lon="4.81408">
        <ele>157</ele>
        <time>2017-07-25T14:03:02Z</time>
      </trkpt>
      <trkpt lat="45.62734" lon="4.81401">
        <ele>157</ele>
        <time>2017-07-25T14:03:05Z</time>
      </trkpt>
      <trkpt lat="45.62731" lon="4.81397">
        <ele>157</ele>
        <time>2017-07-25T14:03:06Z</time>
      </trkpt>
      <trkpt lat="45.62718" lon="4.81394">
        <ele>157</ele>
        <time>2017-07-25T14:03:10Z</time>
      </trkpt>
      <trkpt lat="45.62712" lon="4.81389">
        <ele>156</ele>
        <time>2017-07-25T14:03:13Z</time>
      </trkpt>
      <trkpt lat="45.62709" lon="4.81387">
        <ele>156</ele>
        <time>2017-07-25T14:03:14Z</time>
      </trkpt>
      <trkpt lat="45.62696" lon="4.81384">
        <ele>156</ele>
        <time>2017-07-25T14:03:18Z</time>
      </trkpt>
      <trkpt lat="45.6269" lon="4.81377">
        <ele>156</ele>
        <time>2017-07-25T14:03:20Z</time>
      </trkpt>
      <trkpt lat="45.62681" lon="4.81369">
        <ele>155</ele>
        <time>2017-07-25T14:03:22Z</time>
      </trkpt>
      <trkpt lat="45.62676" lon="4.81366">
        <ele>155</ele>
        <time>2017-07-25T14:03:23Z</time>
      </trkpt>
      <trkpt lat="45.62662" lon="4.81361">
        <ele>155</ele>
        <time>2017-07-25T14:03:26Z</time>
      </trkpt>
      <trkpt lat="45.62646" lon="4.81352">
        <ele>155</ele>
        <time>2017-07-25T14:03:31Z</time>
      </trkpt>
      <trkpt lat="45.62631" lon="4.81343">
        <ele>155</ele>
        <time>2017-07-25T14:03:36Z</time>
      </trkpt>
      <trkpt lat="45.6262" lon="4.8134">
        <ele>156</ele>
        <time>2017-07-25T14:03:38Z</time>
      </trkpt>
      <trkpt lat="45.62613" lon="4.8134">
        <ele>156</ele>
        <time>2017-07-25T14:03:40Z</time>
      </trkpt>
      <trkpt lat="45.62594" lon="4.81331">
        <ele>154</ele>
        <time>2017-07-25T14:03:45Z</time>
      </trkpt>
      <trkpt lat="45.6259" lon="4.81328">
        <ele>155</ele>
        <time>2017-07-25T14:03:46Z</time>
      </trkpt>
      <trkpt lat="45.62574" lon="4.81319">
        <ele>155</ele>
        <time>2017-07-25T14:03:49Z</time>
      </trkpt>
      <trkpt lat="45.62568" lon="4.81318">
        <ele>155</ele>
        <time>2017-07-25T14:03:50Z</time>
      </trkpt>
      <trkpt lat="45.62555" lon="4.81312">
        <ele>155</ele>
        <time>2017-07-25T14:03:54Z</time>
      </trkpt>
      <trkpt lat="45.62548" lon="4.81309">
        <ele>155</ele>
        <time>2017-07-25T14:03:56Z</time>
      </trkpt>
      <trkpt lat="45.62543" lon="4.81305">
        <ele>155</ele>
        <time>2017-07-25T14:03:57Z</time>
      </trkpt>
      <trkpt lat="45.62533" lon="4.813">
        <ele>156</ele>
        <time>2017-07-25T14:03:59Z</time>
      </trkpt>
      <trkpt lat="45.62518" lon="4.81297">
        <ele>156</ele>
        <time>2017-07-25T14:04:02Z</time>
      </trkpt>
      <trkpt lat="45.62514" lon="4.81294">
        <ele>156</ele>
        <time>2017-07-25T14:04:03Z</time>
      </trkpt>
      <trkpt lat="45.62492" lon="4.81282">
        <ele>158</ele>
        <time>2017-07-25T14:04:07Z</time>
      </trkpt>
      <trkpt lat="45.62486" lon="4.81279">
        <ele>158</ele>
        <time>2017-07-25T14:04:08Z</time>
      </trkpt>
      <trkpt lat="45.62464" lon="4.8127">
        <ele>158</ele>
        <time>2017-07-25T14:04:12Z</time>
      </trkpt>
      <trkpt lat="45.62454" lon="4.81268">
        <ele>158</ele>
        <time>2017-07-25T14:04:14Z</time>
      </trkpt>
      <trkpt lat="45.62445" lon="4.81264">
        <ele>158</ele>
        <time>2017-07-25T14:04:16Z</time>
      </trkpt>
      <trkpt lat="45.6243" lon="4.81257">
        <ele>158</ele>
        <time>2017-07-25T14:04:19Z</time>
      </trkpt>
      <trkpt lat="45.62395" lon="4.81242">
        <ele>156</ele>
        <time>2017-07-25T14:04:26Z</time>
      </trkpt>
      <trkpt lat="45.62372" lon="4.81232">
        <ele>156</ele>
        <time>2017-07-25T14:04:31Z</time>
      </trkpt>
      <trkpt lat="45.62357" lon="4.81226">
        <ele>156</ele>
        <time>2017-07-25T14:04:34Z</time>
      </trkpt>
      <trkpt lat="45.62342" lon="4.81219">
        <ele>156</ele>
        <time>2017-07-25T14:04:37Z</time>
      </trkpt>
      <trkpt lat="45.62318" lon="4.81208">
        <ele>156</ele>
        <time>2017-07-25T14:04:42Z</time>
      </trkpt>
      <trkpt lat="45.62313" lon="4.81207">
        <ele>156</ele>
        <time>2017-07-25T14:04:43Z</time>
      </trkpt>
      <trkpt lat="45.62296" lon="4.81203">
        <ele>156</ele>
        <time>2017-07-25T14:04:47Z</time>
      </trkpt>
      <trkpt lat="45.62291" lon="4.81201">
        <ele>156</ele>
        <time>2017-07-25T14:04:48Z</time>
      </trkpt>
      <trkpt lat="45.62272" lon="4.81189">
        <ele>156</ele>
        <time>2017-07-25T14:04:52Z</time>
      </trkpt>
      <trkpt lat="45.62266" lon="4.81187">
        <ele>156</ele>
        <time>2017-07-25T14:04:53Z</time>
      </trkpt>
      <trkpt lat="45.62245" lon="4.81182">
        <ele>156</ele>
        <time>2017-07-25T14:04:57Z</time>
      </trkpt>
      <trkpt lat="45.6224" lon="4.8118">
        <ele>156</ele>
        <time>2017-07-25T14:04:58Z</time>
      </trkpt>
      <trkpt lat="45.62224" lon="4.81175">
        <ele>157</ele>
        <time>2017-07-25T14:05:02Z</time>
      </trkpt>
      <trkpt lat="45.62201" lon="4.81164">
        <ele>156</ele>
        <time>2017-07-25T14:05:07Z</time>
      </trkpt>
      <trkpt lat="45.62191" lon="4.8116">
        <ele>156</ele>
        <time>2017-07-25T14:05:09Z</time>
      </trkpt>
      <trkpt lat="45.62177" lon="4.81153">
        <ele>157</ele>
        <time>2017-07-25T14:05:12Z</time>
      </trkpt>
      <trkpt lat="45.62156" lon="4.81145">
        <ele>158</ele>
        <time>2017-07-25T14:05:17Z</time>
      </trkpt>
      <trkpt lat="45.62141" lon="4.81138">
        <ele>158</ele>
        <time>2017-07-25T14:05:20Z</time>
      </trkpt>
      <trkpt lat="45.6213" lon="4.81135">
        <ele>158</ele>
        <time>2017-07-25T14:05:22Z</time>
      </trkpt>
      <trkpt lat="45.62113" lon="4.81129">
        <ele>158</ele>
        <time>2017-07-25T14:05:25Z</time>
      </trkpt>
      <trkpt lat="45.62099" lon="4.81123">
        <ele>158</ele>
        <time>2017-07-25T14:05:28Z</time>
      </trkpt>
      <trkpt lat="45.62073" lon="4.81109">
        <ele>158</ele>
        <time>2017-07-25T14:05:33Z</time>
      </trkpt>
      <trkpt lat="45.62068" lon="4.81107">
        <ele>158</ele>
        <time>2017-07-25T14:05:34Z</time>
      </trkpt>
      <trkpt lat="45.62044" lon="4.81097">
        <ele>158</ele>
        <time>2017-07-25T14:05:39Z</time>
      </trkpt>
      <trkpt lat="45.62025" lon="4.8109">
        <ele>158</ele>
        <time>2017-07-25T14:05:44Z</time>
      </trkpt>
      <trkpt lat="45.62008" lon="4.81084">
        <ele>158</ele>
        <time>2017-07-25T14:05:48Z</time>
      </trkpt>
      <trkpt lat="45.62004" lon="4.81082">
        <ele>158</ele>
        <time>2017-07-25T14:05:49Z</time>
      </trkpt>
      <trkpt lat="45.61992" lon="4.81077">
        <ele>157</ele>
        <time>2017-07-25T14:05:53Z</time>
      </trkpt>
      <trkpt lat="45.6199" lon="4.81077">
        <ele>157</ele>
        <time>2017-07-25T14:05:57Z</time>
      </trkpt>
      <trkpt lat="45.6199" lon="4.81077">
        <ele>157</ele>
        <time>2017-07-25T14:06:07Z</time>
      </trkpt>
      <trkpt lat="45.6199" lon="4.81077">
        <ele>157</ele>
        <time>2017-07-25T14:06:19Z</time>
      </trkpt>
      <trkpt lat="45.61983" lon="4.81074">
        <ele>157</ele>
        <time>2017-07-25T14:06:23Z</time>
      </trkpt>
      <trkpt lat="45.61961" lon="4.81065">
        <ele>156</ele>
        <time>2017-07-25T14:06:28Z</time>
      </trkpt>
      <trkpt lat="45.61927" lon="4.81049">
        <ele>156</ele>
        <time>2017-07-25T14:06:35Z</time>
      </trkpt>
      <trkpt lat="45.61912" lon="4.81044">
        <ele>156</ele>
        <time>2017-07-25T14:06:38Z</time>
      </trkpt>
      <trkpt lat="45.61896" lon="4.81038">
        <ele>155</ele>
        <time>2017-07-25T14:06:41Z</time>
      </trkpt>
      <trkpt lat="45.61861" lon="4.81022">
        <ele>156</ele>
        <time>2017-07-25T14:06:48Z</time>
      </trkpt>
      <trkpt lat="45.61837" lon="4.81012">
        <ele>156</ele>
        <time>2017-07-25T14:06:53Z</time>
      </trkpt>
      <trkpt lat="45.61831" lon="4.81011">
        <ele>157</ele>
        <time>2017-07-25T14:06:54Z</time>
      </trkpt>
      <trkpt lat="45.61816" lon="4.81006">
        <ele>158</ele>
        <time>2017-07-25T14:06:57Z</time>
      </trkpt>
      <trkpt lat="45.61802" lon="4.81002">
        <ele>158</ele>
        <time>2017-07-25T14:07:00Z</time>
      </trkpt>
      <trkpt lat="45.61793" lon="4.80998">
        <ele>158</ele>
        <time>2017-07-25T14:07:02Z</time>
      </trkpt>
      <trkpt lat="45.61779" lon="4.80991">
        <ele>159</ele>
        <time>2017-07-25T14:07:05Z</time>
      </trkpt>
      <trkpt lat="45.61768" lon="4.80986">
        <ele>159</ele>
        <time>2017-07-25T14:07:07Z</time>
      </trkpt>
      <trkpt lat="45.61753" lon="4.80981">
        <ele>159</ele>
        <time>2017-07-25T14:07:10Z</time>
      </trkpt>
      <trkpt lat="45.61728" lon="4.80967">
        <ele>159</ele>
        <time>2017-07-25T14:07:15Z</time>
      </trkpt>
      <trkpt lat="45.61723" lon="4.80965">
        <ele>159</ele>
        <time>2017-07-25T14:07:16Z</time>
      </trkpt>
      <trkpt lat="45.61687" lon="4.8095">
        <ele>158</ele>
        <time>2017-07-25T14:07:23Z</time>
      </trkpt>
      <trkpt lat="45.61655" lon="4.80939">
        <ele>158</ele>
        <time>2017-07-25T14:07:30Z</time>
      </trkpt>
      <trkpt lat="45.6165" lon="4.80936">
        <ele>158</ele>
        <time>2017-07-25T14:07:31Z</time>
      </trkpt>
      <trkpt lat="45.61637" lon="4.80929">
        <ele>158</ele>
        <time>2017-07-25T14:07:34Z</time>
      </trkpt>
      <trkpt lat="45.61633" lon="4.80928">
        <ele>158</ele>
        <time>2017-07-25T14:07:35Z</time>
      </trkpt>
      <trkpt lat="45.61619" lon="4.8092">
        <ele>157</ele>
        <time>2017-07-25T14:07:38Z</time>
      </trkpt>
      <trkpt lat="45.61597" lon="4.80912">
        <ele>156</ele>
        <time>2017-07-25T14:07:43Z</time>
      </trkpt>
      <trkpt lat="45.61593" lon="4.80909">
        <ele>156</ele>
        <time>2017-07-25T14:07:44Z</time>
      </trkpt>
      <trkpt lat="45.61572" lon="4.80898">
        <ele>156</ele>
        <time>2017-07-25T14:07:48Z</time>
      </trkpt>
      <trkpt lat="45.6155" lon="4.80889">
        <ele>156</ele>
        <time>2017-07-25T14:07:53Z</time>
      </trkpt>
      <trkpt lat="45.61546" lon="4.8089">
        <ele>156</ele>
        <time>2017-07-25T14:07:54Z</time>
      </trkpt>
      <trkpt lat="45.61536" lon="4.80892">
        <ele>157</ele>
        <time>2017-07-25T14:07:57Z</time>
      </trkpt>
      <trkpt lat="45.61534" lon="4.80892">
        <ele>157</ele>
        <time>2017-07-25T14:07:58Z</time>
      </trkpt>
      <trkpt lat="45.61528" lon="4.80897">
        <ele>157</ele>
        <time>2017-07-25T14:08:03Z</time>
      </trkpt>
      <trkpt lat="45.61522" lon="4.80898">
        <ele>157</ele>
        <time>2017-07-25T14:08:08Z</time>
      </trkpt>
      <trkpt lat="45.61508" lon="4.80888">
        <ele>157</ele>
        <time>2017-07-25T14:08:13Z</time>
      </trkpt>
      <trkpt lat="45.61504" lon="4.80886">
        <ele>157</ele>
        <time>2017-07-25T14:08:14Z</time>
      </trkpt>
      <trkpt lat="45.61484" lon="4.80878">
        <ele>158</ele>
        <time>2017-07-25T14:08:19Z</time>
      </trkpt>
      <trkpt lat="45.61466" lon="4.80871">
        <ele>159</ele>
        <time>2017-07-25T14:08:23Z</time>
      </trkpt>
      <trkpt lat="45.61462" lon="4.8087">
        <ele>159</ele>
        <time>2017-07-25T14:08:24Z</time>
      </trkpt>
      <trkpt lat="45.61457" lon="4.80868">
        <ele>159</ele>
        <time>2017-07-25T14:08:25Z</time>
      </trkpt>
      <trkpt lat="45.61453" lon="4.80867">
        <ele>159</ele>
        <time>2017-07-25T14:08:26Z</time>
      </trkpt>
      <trkpt lat="45.61448" lon="4.80865">
        <ele>159</ele>
        <time>2017-07-25T14:08:27Z</time>
      </trkpt>
      <trkpt lat="45.61417" lon="4.80853">
        <ele>159</ele>
        <time>2017-07-25T14:08:35Z</time>
      </trkpt>
      <trkpt lat="45.61408" lon="4.8085">
        <ele>160</ele>
        <time>2017-07-25T14:08:38Z</time>
      </trkpt>
      <trkpt lat="45.61405" lon="4.8085">
        <ele>160</ele>
        <time>2017-07-25T14:08:39Z</time>
      </trkpt>
      <trkpt lat="45.61401" lon="4.80849">
        <ele>160</ele>
        <time>2017-07-25T14:08:41Z</time>
      </trkpt>
      <trkpt lat="45.61398" lon="4.80851">
        <ele>160</ele>
        <time>2017-07-25T14:08:45Z</time>
      </trkpt>
      <trkpt lat="45.61398" lon="4.80851">
        <ele>160</ele>
        <time>2017-07-25T14:08:55Z</time>
      </trkpt>
      <trkpt lat="45.61398" lon="4.80851">
        <ele>160</ele>
        <time>2017-07-25T14:09:03Z</time>
      </trkpt>
      <trkpt lat="45.61398" lon="4.80851">
        <ele>160</ele>
        <time>2017-07-25T14:09:12Z</time>
      </trkpt>
      <trkpt lat="45.61397" lon="4.80851">
        <ele>160</ele>
        <time>2017-07-25T14:09:14Z</time>
      </trkpt>
      <trkpt lat="45.61394" lon="4.80854">
        <ele>160</ele>
        <time>2017-07-25T14:09:16Z</time>
      </trkpt>
      <trkpt lat="45.61391" lon="4.80867">
        <ele>161</ele>
        <time>2017-07-25T14:09:20Z</time>
      </trkpt>
      <trkpt lat="45.61385" lon="4.8088">
        <ele>161</ele>
        <time>2017-07-25T14:09:23Z</time>
      </trkpt>
      <trkpt lat="45.61382" lon="4.80891">
        <ele>161</ele>
        <time>2017-07-25T14:09:25Z</time>
      </trkpt>
      <trkpt lat="45.61379" lon="4.80899">
        <ele>161</ele>
        <time>2017-07-25T14:09:27Z</time>
      </trkpt>
      <trkpt lat="45.61378" lon="4.80903">
        <ele>161</ele>
        <time>2017-07-25T14:09:28Z</time>
      </trkpt>
      <trkpt lat="45.61376" lon="4.80907">
        <ele>161</ele>
        <time>2017-07-25T14:09:29Z</time>
      </trkpt>
      <trkpt lat="45.61375" lon="4.80912">
        <ele>162</ele>
        <time>2017-07-25T14:09:30Z</time>
      </trkpt>
      <trkpt lat="45.61371" lon="4.80921">
        <ele>164</ele>
        <time>2017-07-25T14:09:32Z</time>
      </trkpt>
      <trkpt lat="45.61359" lon="4.80941">
        <ele>164</ele>
        <time>2017-07-25T14:09:37Z</time>
      </trkpt>
      <trkpt lat="45.61355" lon="4.80944">
        <ele>164</ele>
        <time>2017-07-25T14:09:38Z</time>
      </trkpt>
      <trkpt lat="45.6134" lon="4.80949">
        <ele>164</ele>
        <time>2017-07-25T14:09:41Z</time>
      </trkpt>
      <trkpt lat="45.6133" lon="4.80944">
        <ele>166</ele>
      </trkpt>
      <trkpt lat="45.61322" lon="4.80934">
        <ele>166</ele>
        <time>2017-07-25T14:09:45Z</time>
      </trkpt>
      <trkpt lat="45.61315" lon="4.80928">
        <ele>166</ele>
        <time>2017-07-25T14:09:46Z</time>
      </trkpt>
      <trkpt lat="45.61304" lon="4.80913">
        <ele>163</ele>
        <time>2017-07-25T14:09:49Z</time>
      </trkpt>
      <trkpt lat="45.61295" lon="4.80902">
        <ele>163</ele>
        <time>2017-07-25T14:09:51Z</time>
      </trkpt>
      <trkpt lat="45.61283" lon="4.80884">
        <ele>163</ele>
        <time>2017-07-25T14:09:54Z</time>
      </trkpt>
      <trkpt lat="45.61274" lon="4.80869">
        <ele>163</ele>
        <time>2017-07-25T14:11:41Z</time>
      </trkpt>
      <trkpt lat="45.61263" lon="4.80851">
        <ele>162</ele>
        <time>2017-07-25T14:12:06Z</time>
      </trkpt>
      <trkpt lat="45.61247" lon="4.80843">
        <ele>164</ele>
        <time>2017-07-25T14:12:12Z</time>
      </trkpt>
      <trkpt lat="45.61236" lon="4.80846">
        <ele>165</ele>
      </trkpt>
      <trkpt lat="45.61231" lon="4.80848">
        <ele>165</ele>
      </trkpt>
      <trkpt lat="45.61218" lon="4.8086">
        <ele>167</ele>
      </trkpt>
      <trkpt lat="45.61198" lon="4.80838">
        <ele>167</ele>
      </trkpt>
      <trkpt lat="45.61193" lon="4.80847">
        <ele>167</ele>
      </trkpt>
      <trkpt lat="45.61191" lon="4.80854">
        <ele>168</ele>
      </trkpt>
      <trkpt lat="45.61174" lon="4.8088">
        <ele>169</ele>
      </trkpt>
      <trkpt lat="45.61162" lon="4.80867">
        <ele>173</ele>
      </trkpt>
      <trkpt lat="45.61157" lon="4.80859">
        <ele>173</ele>
        <time>2017-07-25T14:13:52Z</time>
      </trkpt>
      <trkpt lat="45.61149" lon="4.80846">
        <ele>172</ele>
      </trkpt>
      <trkpt lat="45.61145" lon="4.80843">
        <ele>172</ele>
      </trkpt>
      <trkpt lat="45.61141" lon="4.80843">
        <ele>173</ele>
      </trkpt>
      <trkpt lat="45.61143" lon="4.80848">
        <ele>173</ele>
      </trkpt>
      <trkpt lat="45.61149" lon="4.80856">
        <ele>173</ele>
      </trkpt>
      <trkpt lat="45.61155" lon="4.80863">
        <ele>173</ele>
      </trkpt>
      <trkpt lat="45.61165" lon="4.80885">
        <ele>174</ele>
      </trkpt>
      <trkpt lat="45.61165" lon="4.80907">
        <ele>175</ele>
      </trkpt>
      <trkpt lat="45.61162" lon="4.80916">
        <ele>175</ele>
      </trkpt>
      <trkpt lat="45.61155" lon="4.8093">
        <ele>178</ele>
      </trkpt>
      <trkpt lat="45.6115" lon="4.80948">
        <ele>179</ele>
      </trkpt>
      <trkpt lat="45.6115" lon="4.80956">
        <ele>180</ele>
      </trkpt>
      <trkpt lat="45.61154" lon="4.80966">
        <ele>180</ele>
      </trkpt>
      <trkpt lat="45.61159" lon="4.80976">
        <ele>180</ele>
      </trkpt>
      <trkpt lat="45.6116" lon="4.80981">
        <ele>180</ele>
        <time>2017-07-25T14:15:55Z</time>
      </trkpt>
      <trkpt lat="45.61161" lon="4.80984">
        <ele>180</ele>
        <time>2017-07-25T14:15:56Z</time>
      </trkpt>
      <trkpt lat="45.6116" lon="4.80987">
        <ele>180</ele>
        <time>2017-07-25T14:15:57Z</time>
      </trkpt>
      <trkpt lat="45.6116" lon="4.80991">
        <ele>180</ele>
        <time>2017-07-25T14:15:58Z</time>
      </trkpt>
      <trkpt lat="45.61159" lon="4.80994">
        <ele>180</ele>
        <time>2017-07-25T14:15:59Z</time>
      </trkpt>
      <trkpt lat="45.61143" lon="4.81004">
        <ele>185</ele>
        <time>2017-07-25T14:16:06Z</time>
      </trkpt>
      <trkpt lat="45.61136" lon="4.81005">
        <ele>186</ele>
        <time>2017-07-25T14:16:08Z</time>
      </trkpt>
      <trkpt lat="45.61121" lon="4.81003">
        <ele>187</ele>
        <time>2017-07-25T14:16:13Z</time>
      </trkpt>
      <trkpt lat="45.61118" lon="4.81002">
        <ele>187</ele>
        <time>2017-07-25T14:16:14Z</time>
      </trkpt>
      <trkpt lat="45.61115" lon="4.81">
        <ele>187</ele>
        <time>2017-07-25T14:16:15Z</time>
      </trkpt>
      <trkpt lat="45.61111" lon="4.80999">
        <ele>183</ele>
        <time>2017-07-25T14:16:16Z</time>
      </trkpt>
      <trkpt lat="45.61108" lon="4.80998">
        <ele>183</ele>
        <time>2017-07-25T14:16:17Z</time>
      </trkpt>
      <trkpt lat="45.61103" lon="4.80993">
        <ele>183</ele>
        <time>2017-07-25T14:16:19Z</time>
      </trkpt>
      <trkpt lat="45.61084" lon="4.80972">
        <ele>183</ele>
        <time>2017-07-25T14:16:26Z</time>
      </trkpt>
      <trkpt lat="45.61082" lon="4.80969">
        <ele>189</ele>
        <time>2017-07-25T14:16:29Z</time>
      </trkpt>
      <trkpt lat="45.61081" lon="4.80968">
        <ele>189</ele>
        <time>2017-07-25T14:16:35Z</time>
      </trkpt>
      <trkpt lat="45.61081" lon="4.80968">
        <ele>189</ele>
        <time>2017-07-25T14:16:49Z</time>
      </trkpt>
      <trkpt lat="45.61081" lon="4.80968">
        <ele>189</ele>
        <time>2017-07-25T14:16:53Z</time>
      </trkpt>
      <trkpt lat="45.61076" lon="4.80962">
        <ele>189</ele>
      </trkpt>
      <trkpt lat="45.61073" lon="4.80947">
        <ele>188</ele>
      </trkpt>
      <trkpt lat="45.61062" lon="4.80924">
        <ele>187</ele>
      </trkpt>
      <trkpt lat="45.61058" lon="4.80912">
        <ele>184</ele>
      </trkpt>
      <trkpt lat="45.61036" lon="4.80873">
        <ele>185</ele>
      </trkpt>
      <trkpt lat="45.61013" lon="4.80829">
        <ele>183</ele>
      </trkpt>
      <trkpt lat="45.61008" lon="4.80819">
        <ele>182</ele>
      </trkpt>
      <trkpt lat="45.60984" lon="4.80787">
        <ele>188</ele>
      </trkpt>
      <trkpt lat="45.60951" lon="4.80745">
        <ele>184</ele>
      </trkpt>
      <trkpt lat="45.60944" lon="4.80725">
        <ele>184</ele>
      </trkpt>
      <trkpt lat="45.60922" lon="4.80688">
        <ele>185</ele>
      </trkpt>
      <trkpt lat="45.60918" lon="4.80676">
        <ele>186</ele>
      </trkpt>
      <trkpt lat="45.60907" lon="4.80659">
        <ele>190</ele>
      </trkpt>
      <trkpt lat="45.60901" lon="4.80649">
        <ele>191</ele>
        <time>2017-07-25T14:22:58Z</time>
      </trkpt>
      <trkpt lat="45.60901" lon="4.8065">
        <ele>191</ele>
        <time>2017-07-25T14:23:07Z</time>
      </trkpt>
      <trkpt lat="45.60901" lon="4.80649">
        <ele>191</ele>
        <time>2017-07-25T14:23:16Z</time>
      </trkpt>
      <trkpt lat="45.60901" lon="4.80649">
        <ele>191</ele>
        <time>2017-07-25T14:23:30Z</time>
      </trkpt>
      <trkpt lat="45.60901" lon="4.80649">
        <ele>191</ele>
        <time>2017-07-25T14:23:46Z</time>
      </trkpt>
      <trkpt lat="45.609" lon="4.80645">
        <ele>191</ele>
        <time>2017-07-25T14:23:50Z</time>
      </trkpt>
      <trkpt lat="45.60899" lon="4.80644">
        <ele>192</ele>
        <time>2017-07-25T14:23:51Z</time>
      </trkpt>
      <trkpt lat="45.60891" lon="4.80637">
        <ele>192</ele>
        <time>2017-07-25T14:23:56Z</time>
      </trkpt>
      <trkpt lat="45.60877" lon="4.80617">
        <ele>193</ele>
        <time>2017-07-25T14:24:18Z</time>
      </trkpt>
      <trkpt lat="45.60853" lon="4.80567">
        <ele>189</ele>
      </trkpt>
      <trkpt lat="45.6077" lon="4.80427">
        <ele>188</ele>
        <time>2017-07-25T14:24:56Z</time>
      </trkpt>
      <trkpt lat="45.60685" lon="4.80315">
        <ele>181</ele>
      </trkpt>
      <trkpt lat="45.60581" lon="4.80199">
        <ele>189</ele>
        <time>2017-07-25T14:29:29Z</time>
      </trkpt>
      <trkpt lat="45.60552" lon="4.80168">
        <ele>189</ele>
      </trkpt>
      <trkpt lat="45.60453" lon="4.80014">
        <ele>183</ele>
        <time>2017-07-25T14:29:38Z</time>
      </trkpt>
      <trkpt lat="45.60453" lon="4.80014">
        <ele>183</ele>
        <time>2017-07-25T14:29:52Z</time>
      </trkpt>
      <trkpt lat="45.60453" lon="4.80014">
        <ele>183</ele>
        <time>2017-07-25T14:29:53Z</time>
      </trkpt>
      <trkpt lat="45.60453" lon="4.80013">
        <ele>183</ele>
        <time>2017-07-25T14:29:54Z</time>
      </trkpt>
      <trkpt lat="45.60452" lon="4.8001">
        <ele>183</ele>
        <time>2017-07-25T14:29:55Z</time>
      </trkpt>
      <trkpt lat="45.60451" lon="4.80008">
        <ele>183</ele>
        <time>2017-07-25T14:29:56Z</time>
      </trkpt>
      <trkpt lat="45.60449" lon="4.80006">
        <ele>183</ele>
        <time>2017-07-25T14:29:57Z</time>
      </trkpt>
      <trkpt lat="45.60445" lon="4.79996">
        <ele>176</ele>
        <time>2017-07-25T14:30:00Z</time>
      </trkpt>
      <trkpt lat="45.60444" lon="4.79994">
        <ele>176</ele>
        <time>2017-07-25T14:30:01Z</time>
      </trkpt>
      <trkpt lat="45.60443" lon="4.79991">
        <ele>176</ele>
        <time>2017-07-25T14:30:02Z</time>
      </trkpt>
      <trkpt lat="45.60442" lon="4.7999">
        <ele>176</ele>
        <time>2017-07-25T14:30:03Z</time>
      </trkpt>
      <trkpt lat="45.60442" lon="4.79988">
        <ele>176</ele>
        <time>2017-07-25T14:30:04Z</time>
      </trkpt>
      <trkpt lat="45.6044" lon="4.79986">
        <ele>176</ele>
        <time>2017-07-25T14:30:05Z</time>
      </trkpt>
      <trkpt lat="45.60439" lon="4.79986">
        <ele>176</ele>
        <time>2017-07-25T14:30:06Z</time>
      </trkpt>
      <trkpt lat="45.60439" lon="4.79986">
        <ele>176</ele>
        <time>2017-07-25T14:30:07Z</time>
      </trkpt>
      <trkpt lat="45.60439" lon="4.79986">
        <ele>176</ele>
        <time>2017-07-25T14:30:08Z</time>
      </trkpt>
      <trkpt lat="45.60439" lon="4.79986">
        <ele>176</ele>
        <time>2017-07-25T14:30:09Z</time>
      </trkpt>
      <trkpt lat="45.60439" lon="4.79986">
        <ele>176</ele>
        <time>2017-07-25T14:30:11Z</time>
      </trkpt>
      <trkpt lat="45.60439" lon="4.79986">
        <ele>176</ele>
        <time>2017-07-25T14:30:20Z</time>
      </trkpt>
      <trkpt lat="45.60439" lon="4.79986">
        <ele>176</ele>
        <time>2017-07-25T14:30:30Z</time>
      </trkpt>
      <trkpt lat="45.60437" lon="4.79984">
        <ele>176</ele>
        <time>2017-07-25T14:30:36Z</time>
      </trkpt>
      <trkpt lat="45.60432" lon="4.79979">
        <ele>176</ele>
        <time>2017-07-25T14:30:39Z</time>
      </trkpt>
      <trkpt lat="45.60429" lon="4.79975">
        <ele>176</ele>
        <time>2017-07-25T14:30:40Z</time>
      </trkpt>
      <trkpt lat="45.60427" lon="4.79971">
        <ele>175</ele>
        <time>2017-07-25T14:30:41Z</time>
      </trkpt>
      <trkpt lat="45.60424" lon="4.79967">
        <ele>175</ele>
        <time>2017-07-25T14:30:42Z</time>
      </trkpt>
      <trkpt lat="45.60422" lon="4.79964">
        <ele>174</ele>
        <time>2017-07-25T14:30:43Z</time>
      </trkpt>
      <trkpt lat="45.60418" lon="4.79959">
        <ele>174</ele>
        <time>2017-07-25T14:30:45Z</time>
      </trkpt>
      <trkpt lat="45.60401" lon="4.79945">
        <ele>181</ele>
        <time>2017-07-25T14:30:51Z</time>
      </trkpt>
      <trkpt lat="45.60381" lon="4.79927">
        <ele>181</ele>
        <time>2017-07-25T14:30:57Z</time>
      </trkpt>
      <trkpt lat="45.6036" lon="4.79909">
        <ele>175</ele>
        <time>2017-07-25T14:31:03Z</time>
      </trkpt>
      <trkpt lat="45.60345" lon="4.79896">
        <ele>176</ele>
        <time>2017-07-25T14:31:08Z</time>
      </trkpt>
      <trkpt lat="45.60327" lon="4.79882">
        <ele>179</ele>
        <time>2017-07-25T14:31:14Z</time>
      </trkpt>
      <trkpt lat="45.60303" lon="4.79866">
        <ele>178</ele>
        <time>2017-07-25T14:31:21Z</time>
      </trkpt>
      <trkpt lat="45.6029" lon="4.79869">
        <ele>179</ele>
        <time>2017-07-25T14:31:25Z</time>
      </trkpt>
      <trkpt lat="45.60279" lon="4.79874">
        <ele>180</ele>
        <time>2017-07-25T14:31:29Z</time>
      </trkpt>
      <trkpt lat="45.60258" lon="4.79882">
        <ele>182</ele>
        <time>2017-07-25T14:31:38Z</time>
      </trkpt>
      <trkpt lat="45.60254" lon="4.79883">
        <ele>182</ele>
        <time>2017-07-25T14:31:40Z</time>
      </trkpt>
      <trkpt lat="45.60249" lon="4.79883">
        <ele>185</ele>
        <time>2017-07-25T14:31:42Z</time>
      </trkpt>
      <trkpt lat="45.60244" lon="4.7988">
        <ele>185</ele>
        <time>2017-07-25T14:31:44Z</time>
      </trkpt>
      <trkpt lat="45.60233" lon="4.79874">
        <ele>184</ele>
        <time>2017-07-25T14:31:48Z</time>
      </trkpt>
      <trkpt lat="45.60231" lon="4.79871">
        <ele>184</ele>
        <time>2017-07-25T14:31:49Z</time>
      </trkpt>
      <trkpt lat="45.60229" lon="4.79868">
        <ele>184</ele>
        <time>2017-07-25T14:31:50Z</time>
      </trkpt>
      <trkpt lat="45.60227" lon="4.79864">
        <ele>184</ele>
        <time>2017-07-25T14:31:51Z</time>
      </trkpt>
      <trkpt lat="45.60218" lon="4.79845">
        <ele>183</ele>
        <time>2017-07-25T14:31:55Z</time>
      </trkpt>
      <trkpt lat="45.60205" lon="4.79823">
        <ele>177</ele>
        <time>2017-07-25T14:32:00Z</time>
      </trkpt>
      <trkpt lat="45.60196" lon="4.79816">
        <ele>178</ele>
        <time>2017-07-25T14:32:02Z</time>
      </trkpt>
      <trkpt lat="45.60192" lon="4.79813">
        <ele>178</ele>
        <time>2017-07-25T14:32:03Z</time>
      </trkpt>
      <trkpt lat="45.60187" lon="4.79811">
        <ele>178</ele>
        <time>2017-07-25T14:32:04Z</time>
      </trkpt>
      <trkpt lat="45.60182" lon="4.79806">
        <ele>178</ele>
        <time>2017-07-25T14:32:05Z</time>
      </trkpt>
      <trkpt lat="45.60178" lon="4.79802">
        <ele>178</ele>
        <time>2017-07-25T14:32:06Z</time>
      </trkpt>
      <trkpt lat="45.60173" lon="4.79797">
        <ele>177</ele>
        <time>2017-07-25T14:32:07Z</time>
      </trkpt>
      <trkpt lat="45.60167" lon="4.79792">
        <ele>177</ele>
        <time>2017-07-25T14:32:08Z</time>
      </trkpt>
      <trkpt lat="45.6016" lon="4.79787">
        <ele>179</ele>
        <time>2017-07-25T14:32:09Z</time>
      </trkpt>
      <trkpt lat="45.60153" lon="4.79782">
        <ele>179</ele>
        <time>2017-07-25T14:32:10Z</time>
      </trkpt>
      <trkpt lat="45.60146" lon="4.79777">
        <ele>178</ele>
        <time>2017-07-25T14:32:11Z</time>
      </trkpt>
      <trkpt lat="45.6014" lon="4.79774">
        <ele>178</ele>
        <time>2017-07-25T14:32:12Z</time>
      </trkpt>
      <trkpt lat="45.60133" lon="4.7977">
        <ele>178</ele>
        <time>2017-07-25T14:32:13Z</time>
      </trkpt>
      <trkpt lat="45.60127" lon="4.79767">
        <ele>179</ele>
        <time>2017-07-25T14:32:14Z</time>
      </trkpt>
      <trkpt lat="45.60114" lon="4.79759">
        <ele>178</ele>
        <time>2017-07-25T14:32:17Z</time>
      </trkpt>
      <trkpt lat="45.60104" lon="4.79754">
        <ele>178</ele>
        <time>2017-07-25T14:32:20Z</time>
      </trkpt>
      <trkpt lat="45.60098" lon="4.79753">
        <ele>178</ele>
        <time>2017-07-25T14:32:22Z</time>
      </trkpt>
      <trkpt lat="45.60091" lon="4.7975">
        <ele>178</ele>
        <time>2017-07-25T14:32:25Z</time>
      </trkpt>
      <trkpt lat="45.6009" lon="4.79747">
        <ele>176</ele>
        <time>2017-07-25T14:32:26Z</time>
      </trkpt>
      <trkpt lat="45.60086" lon="4.79739">
        <ele>176</ele>
        <time>2017-07-25T14:32:28Z</time>
      </trkpt>
      <trkpt lat="45.60071" lon="4.7971">
        <ele>176</ele>
        <time>2017-07-25T14:32:34Z</time>
      </trkpt>
      <trkpt lat="45.60064" lon="4.79703">
        <ele>175</ele>
        <time>2017-07-25T14:32:36Z</time>
      </trkpt>
      <trkpt lat="45.6006" lon="4.797">
        <ele>175</ele>
        <time>2017-07-25T14:32:37Z</time>
      </trkpt>
      <trkpt lat="45.60052" lon="4.79692">
        <ele>175</ele>
        <time>2017-07-25T14:32:39Z</time>
      </trkpt>
      <trkpt lat="45.60047" lon="4.79689">
        <ele>175</ele>
        <time>2017-07-25T14:32:40Z</time>
      </trkpt>
      <trkpt lat="45.60042" lon="4.79685">
        <ele>175</ele>
        <time>2017-07-25T14:32:41Z</time>
      </trkpt>
      <trkpt lat="45.60036" lon="4.79681">
        <ele>175</ele>
        <time>2017-07-25T14:32:42Z</time>
      </trkpt>
      <trkpt lat="45.6003" lon="4.79675">
        <ele>175</ele>
        <time>2017-07-25T14:32:43Z</time>
      </trkpt>
      <trkpt lat="45.60017" lon="4.79665">
        <ele>172</ele>
        <time>2017-07-25T14:32:45Z</time>
      </trkpt>
      <trkpt lat="45.6001" lon="4.79659">
        <ele>173</ele>
        <time>2017-07-25T14:32:46Z</time>
      </trkpt>
      <trkpt lat="45.60003" lon="4.79652">
        <ele>173</ele>
        <time>2017-07-25T14:32:47Z</time>
      </trkpt>
      <trkpt lat="45.59996" lon="4.79646">
        <ele>174</ele>
        <time>2017-07-25T14:32:48Z</time>
      </trkpt>
      <trkpt lat="45.59989" lon="4.79639">
        <ele>173</ele>
        <time>2017-07-25T14:32:49Z</time>
      </trkpt>
      <trkpt lat="45.59982" lon="4.79633">
        <ele>173</ele>
        <time>2017-07-25T14:32:50Z</time>
      </trkpt>
      <trkpt lat="45.59974" lon="4.79627">
        <ele>173</ele>
        <time>2017-07-25T14:32:51Z</time>
      </trkpt>
      <trkpt lat="45.59966" lon="4.7962">
        <ele>173</ele>
        <time>2017-07-25T14:32:52Z</time>
      </trkpt>
      <trkpt lat="45.59958" lon="4.79613">
        <ele>173</ele>
        <time>2017-07-25T14:32:53Z</time>
      </trkpt>
      <trkpt lat="45.59952" lon="4.79608">
        <ele>173</ele>
        <time>2017-07-25T14:32:54Z</time>
      </trkpt>
      <trkpt lat="45.59944" lon="4.79601">
        <ele>173</ele>
        <time>2017-07-25T14:32:55Z</time>
      </trkpt>
      <trkpt lat="45.59936" lon="4.79594">
        <ele>172</ele>
        <time>2017-07-25T14:32:56Z</time>
      </trkpt>
      <trkpt lat="45.59929" lon="4.79588">
        <ele>172</ele>
        <time>2017-07-25T14:32:57Z</time>
      </trkpt>
      <trkpt lat="45.59922" lon="4.79582">
        <ele>170</ele>
        <time>2017-07-25T14:32:58Z</time>
      </trkpt>
      <trkpt lat="45.59915" lon="4.79577">
        <ele>171</ele>
        <time>2017-07-25T14:32:59Z</time>
      </trkpt>
      <trkpt lat="45.59904" lon="4.79568">
        <ele>171</ele>
        <time>2017-07-25T14:33:01Z</time>
      </trkpt>
      <trkpt lat="45.59883" lon="4.79554">
        <ele>171</ele>
        <time>2017-07-25T14:33:05Z</time>
      </trkpt>
      <trkpt lat="45.59878" lon="4.7955">
        <ele>171</ele>
        <time>2017-07-25T14:33:06Z</time>
      </trkpt>
      <trkpt lat="45.59874" lon="4.79547">
        <ele>171</ele>
        <time>2017-07-25T14:33:07Z</time>
      </trkpt>
      <trkpt lat="45.5987" lon="4.79543">
        <ele>171</ele>
        <time>2017-07-25T14:33:08Z</time>
      </trkpt>
      <trkpt lat="45.59865" lon="4.79539">
        <ele>171</ele>
        <time>2017-07-25T14:33:09Z</time>
      </trkpt>
      <trkpt lat="45.59834" lon="4.79513">
        <ele>170</ele>
        <time>2017-07-25T14:33:16Z</time>
      </trkpt>
      <trkpt lat="45.59807" lon="4.79492">
        <ele>169</ele>
        <time>2017-07-25T14:33:23Z</time>
      </trkpt>
      <trkpt lat="45.59801" lon="4.79486">
        <ele>169</ele>
        <time>2017-07-25T14:33:25Z</time>
      </trkpt>
      <trkpt lat="45.59821" lon="4.79426">
        <ele>167</ele>
      </trkpt>
      <trkpt lat="45.59831" lon="4.79402">
        <ele>166</ele>
        <time>2017-07-25T14:33:40Z</time>
      </trkpt>
      <trkpt lat="45.59826" lon="4.79392">
        <ele>166</ele>
        <time>2017-07-25T14:33:41Z</time>
      </trkpt>
      <trkpt lat="45.59822" lon="4.79388">
        <ele>166</ele>
        <time>2017-07-25T14:33:42Z</time>
      </trkpt>
      <trkpt lat="45.59817" lon="4.79384">
        <ele>166</ele>
        <time>2017-07-25T14:33:43Z</time>
      </trkpt>
      <trkpt lat="45.59796" lon="4.79357">
        <ele>166</ele>
        <time>2017-07-25T14:33:48Z</time>
      </trkpt>
      <trkpt lat="45.59787" lon="4.79338">
        <ele>166</ele>
        <time>2017-07-25T14:33:51Z</time>
      </trkpt>
      <trkpt lat="45.59783" lon="4.79331">
        <ele>163</ele>
        <time>2017-07-25T14:33:52Z</time>
      </trkpt>
      <trkpt lat="45.59775" lon="4.7932">
        <ele>163</ele>
        <time>2017-07-25T14:33:53Z</time>
      </trkpt>
      <trkpt lat="45.59767" lon="4.79316">
        <ele>164</ele>
        <time>2017-07-25T14:33:54Z</time>
      </trkpt>
      <trkpt lat="45.59747" lon="4.79306">
        <ele>166</ele>
        <time>2017-07-25T14:33:59Z</time>
      </trkpt>
      <trkpt lat="45.59704" lon="4.79288">
        <ele>166</ele>
        <time>2017-07-25T14:34:06Z</time>
      </trkpt>
      <trkpt lat="45.59662" lon="4.79282">
        <ele>167</ele>
        <time>2017-07-25T14:34:13Z</time>
      </trkpt>
      <trkpt lat="45.59617" lon="4.7927">
        <ele>167</ele>
        <time>2017-07-25T14:34:21Z</time>
      </trkpt>
      <trkpt lat="45.59597" lon="4.79264">
        <ele>167</ele>
        <time>2017-07-25T14:34:25Z</time>
      </trkpt>
      <trkpt lat="45.59593" lon="4.79263">
        <ele>167</ele>
        <time>2017-07-25T14:34:26Z</time>
      </trkpt>
      <trkpt lat="45.59589" lon="4.79262">
        <ele>167</ele>
        <time>2017-07-25T14:34:27Z</time>
      </trkpt>
      <trkpt lat="45.59586" lon="4.79261">
        <ele>167</ele>
        <time>2017-07-25T14:34:28Z</time>
      </trkpt>
      <trkpt lat="45.5955" lon="4.79249">
        <ele>166</ele>
      </trkpt>
      <trkpt lat="45.59519" lon="4.79244">
        <ele>165</ele>
        <time>2017-07-25T14:34:41Z</time>
      </trkpt>
      <trkpt lat="45.59514" lon="4.79241">
        <ele>165</ele>
        <time>2017-07-25T14:34:42Z</time>
      </trkpt>
      <trkpt lat="45.59491" lon="4.79231">
        <ele>164</ele>
      </trkpt>
      <trkpt lat="45.59464" lon="4.79205">
        <ele>164</ele>
      </trkpt>
      <trkpt lat="45.59427" lon="4.79164">
        <ele>162</ele>
      </trkpt>
      <trkpt lat="45.59414" lon="4.79134">
        <ele>161</ele>
      </trkpt>
      <trkpt lat="45.59404" lon="4.79094">
        <ele>160</ele>
      </trkpt>
      <trkpt lat="45.59403" lon="4.79072">
        <ele>159</ele>
      </trkpt>
      <trkpt lat="45.59405" lon="4.79036">
        <ele>159</ele>
        <time>2017-07-25T14:35:38Z</time>
      </trkpt>
      <trkpt lat="45.59404" lon="4.79019">
        <ele>159</ele>
      </trkpt>
      <trkpt lat="45.5941" lon="4.78925">
        <ele>158</ele>
        <time>2017-07-25T14:36:38Z</time>
      </trkpt>
      <trkpt lat="45.59414" lon="4.78907">
        <ele>158</ele>
        <time>2017-07-25T14:36:41Z</time>
      </trkpt>
      <trkpt lat="45.59415" lon="4.78904">
        <ele>158</ele>
        <time>2017-07-25T14:36:42Z</time>
      </trkpt>
      <trkpt lat="45.59413" lon="4.78898">
        <ele>158</ele>
        <time>2017-07-25T14:36:45Z</time>
      </trkpt>
      <trkpt lat="45.59406" lon="4.78891">
        <ele>158</ele>
        <time>2017-07-25T14:36:48Z</time>
      </trkpt>
      <trkpt lat="45.59404" lon="4.78887">
        <ele>158</ele>
        <time>2017-07-25T14:36:49Z</time>
      </trkpt>
      <trkpt lat="45.5939" lon="4.78865">
        <ele>158</ele>
        <time>2017-07-25T14:36:54Z</time>
      </trkpt>
      <trkpt lat="45.59387" lon="4.7886">
        <ele>158</ele>
        <time>2017-07-25T14:36:55Z</time>
      </trkpt>
      <trkpt lat="45.59376" lon="4.78838">
        <ele>158</ele>
        <time>2017-07-25T14:36:59Z</time>
      </trkpt>
      <trkpt lat="45.59356" lon="4.78797">
        <ele>157</ele>
        <time>2017-07-25T14:37:06Z</time>
      </trkpt>
      <trkpt lat="45.59329" lon="4.78742">
        <ele>156</ele>
        <time>2017-07-25T14:37:15Z</time>
      </trkpt>
      <trkpt lat="45.59316" lon="4.78717">
        <ele>156</ele>
        <time>2017-07-25T14:37:19Z</time>
      </trkpt>
      <trkpt lat="45.59307" lon="4.78698">
        <ele>156</ele>
        <time>2017-07-25T14:37:22Z</time>
      </trkpt>
      <trkpt lat="45.59287" lon="4.78661">
        <ele>157</ele>
        <time>2017-07-25T14:37:28Z</time>
      </trkpt>
      <trkpt lat="45.59275" lon="4.78635">
        <ele>157</ele>
        <time>2017-07-25T14:37:32Z</time>
      </trkpt>
      <trkpt lat="45.59269" lon="4.78623">
        <ele>157</ele>
        <time>2017-07-25T14:37:34Z</time>
      </trkpt>
      <trkpt lat="45.59252" lon="4.78593">
        <ele>158</ele>
        <time>2017-07-25T14:37:40Z</time>
      </trkpt>
      <trkpt lat="45.59241" lon="4.78574">
        <ele>159</ele>
        <time>2017-07-25T14:37:45Z</time>
      </trkpt>
      <trkpt lat="45.59235" lon="4.78563">
        <ele>160</ele>
        <time>2017-07-25T14:37:50Z</time>
      </trkpt>
      <trkpt lat="45.59235" lon="4.78563">
        <ele>160</ele>
        <time>2017-07-25T14:37:56Z</time>
      </trkpt>
      <trkpt lat="45.59235" lon="4.78561">
        <ele>160</ele>
        <time>2017-07-25T14:38:08Z</time>
      </trkpt>
      <trkpt lat="45.59229" lon="4.78547">
        <ele>160</ele>
        <time>2017-07-25T14:38:14Z</time>
      </trkpt>
      <trkpt lat="45.59226" lon="4.78534">
        <ele>159</ele>
        <time>2017-07-25T14:38:18Z</time>
      </trkpt>
      <trkpt lat="45.59225" lon="4.7853">
        <ele>159</ele>
        <time>2017-07-25T14:38:19Z</time>
      </trkpt>
      <trkpt lat="45.5922" lon="4.78511">
        <ele>159</ele>
        <time>2017-07-25T14:38:24Z</time>
      </trkpt>
      <trkpt lat="45.59216" lon="4.78503">
        <ele>159</ele>
        <time>2017-07-25T14:38:27Z</time>
      </trkpt>
      <trkpt lat="45.59216" lon="4.78503">
        <ele>159</ele>
        <time>2017-07-25T14:38:29Z</time>
      </trkpt>
      <trkpt lat="45.59216" lon="4.78503">
        <ele>159</ele>
        <time>2017-07-25T14:38:42Z</time>
      </trkpt>
      <trkpt lat="45.59213" lon="4.78494">
        <ele>158</ele>
        <time>2017-07-25T14:38:47Z</time>
      </trkpt>
      <trkpt lat="45.59206" lon="4.78479">
        <ele>158</ele>
        <time>2017-07-25T14:38:51Z</time>
      </trkpt>
      <trkpt lat="45.59204" lon="4.78475">
        <ele>158</ele>
        <time>2017-07-25T14:38:52Z</time>
      </trkpt>
      <trkpt lat="45.59195" lon="4.78449">
        <ele>158</ele>
        <time>2017-07-25T14:38:57Z</time>
      </trkpt>
      <trkpt lat="45.59187" lon="4.78432">
        <ele>158</ele>
        <time>2017-07-25T14:39:00Z</time>
      </trkpt>
      <trkpt lat="45.59182" lon="4.7842">
        <ele>159</ele>
        <time>2017-07-25T14:39:02Z</time>
      </trkpt>
      <trkpt lat="45.59169" lon="4.78385">
        <ele>158</ele>
        <time>2017-07-25T14:39:08Z</time>
      </trkpt>
      <trkpt lat="45.59152" lon="4.78337">
        <ele>158</ele>
        <time>2017-07-25T14:39:16Z</time>
      </trkpt>
      <trkpt lat="45.59138" lon="4.78298">
        <ele>157</ele>
        <time>2017-07-25T14:39:23Z</time>
      </trkpt>
      <trkpt lat="45.59125" lon="4.78264">
        <ele>156</ele>
        <time>2017-07-25T14:39:29Z</time>
      </trkpt>
      <trkpt lat="45.59122" lon="4.78258">
        <ele>156</ele>
        <time>2017-07-25T14:39:30Z</time>
      </trkpt>
      <trkpt lat="45.59105" lon="4.78216">
        <ele>156</ele>
        <time>2017-07-25T14:39:37Z</time>
      </trkpt>
      <trkpt lat="45.59092" lon="4.78188">
        <ele>156</ele>
        <time>2017-07-25T14:39:41Z</time>
      </trkpt>
      <trkpt lat="45.59082" lon="4.78167">
        <ele>157</ele>
        <time>2017-07-25T14:39:44Z</time>
      </trkpt>
      <trkpt lat="45.59071" lon="4.78146">
        <ele>157</ele>
        <time>2017-07-25T14:39:47Z</time>
      </trkpt>
      <trkpt lat="45.59055" lon="4.7812">
        <ele>157</ele>
        <time>2017-07-25T14:39:51Z</time>
      </trkpt>
      <trkpt lat="45.59048" lon="4.78107">
        <ele>157</ele>
        <time>2017-07-25T14:39:53Z</time>
      </trkpt>
      <trkpt lat="45.5904" lon="4.78093">
        <ele>157</ele>
        <time>2017-07-25T14:39:55Z</time>
      </trkpt>
      <trkpt lat="45.59035" lon="4.78086">
        <ele>157</ele>
        <time>2017-07-25T14:39:56Z</time>
      </trkpt>
      <trkpt lat="45.59027" lon="4.78074">
        <ele>156</ele>
        <time>2017-07-25T14:39:58Z</time>
      </trkpt>
      <trkpt lat="45.58997" lon="4.78026">
        <ele>157</ele>
        <time>2017-07-25T14:40:06Z</time>
      </trkpt>
      <trkpt lat="45.58976" lon="4.7799">
        <ele>157</ele>
        <time>2017-07-25T14:40:12Z</time>
      </trkpt>
      <trkpt lat="45.58973" lon="4.77984">
        <ele>157</ele>
        <time>2017-07-25T14:40:13Z</time>
      </trkpt>
      <trkpt lat="45.58955" lon="4.77955">
        <ele>158</ele>
        <time>2017-07-25T14:40:18Z</time>
      </trkpt>
      <trkpt lat="45.58952" lon="4.77951">
        <ele>158</ele>
        <time>2017-07-25T14:40:19Z</time>
      </trkpt>
      <trkpt lat="45.58938" lon="4.7793">
        <ele>159</ele>
        <time>2017-07-25T14:40:23Z</time>
      </trkpt>
      <trkpt lat="45.58932" lon="4.77921">
        <ele>159</ele>
        <time>2017-07-25T14:40:25Z</time>
      </trkpt>
      <trkpt lat="45.58929" lon="4.77917">
        <ele>159</ele>
        <time>2017-07-25T14:40:26Z</time>
      </trkpt>
      <trkpt lat="45.58925" lon="4.77913">
        <ele>159</ele>
        <time>2017-07-25T14:40:27Z</time>
      </trkpt>
      <trkpt lat="45.58921" lon="4.7791">
        <ele>159</ele>
        <time>2017-07-25T14:40:28Z</time>
      </trkpt>
      <trkpt lat="45.58909" lon="4.77901">
        <ele>159</ele>
        <time>2017-07-25T14:40:31Z</time>
      </trkpt>
      <trkpt lat="45.58904" lon="4.77898">
        <ele>159</ele>
        <time>2017-07-25T14:40:32Z</time>
      </trkpt>
      <trkpt lat="45.58898" lon="4.77896">
        <ele>158</ele>
        <time>2017-07-25T14:40:33Z</time>
      </trkpt>
      <trkpt lat="45.58889" lon="4.77891">
        <ele>158</ele>
        <time>2017-07-25T14:40:35Z</time>
      </trkpt>
      <trkpt lat="45.58867" lon="4.77879">
        <ele>158</ele>
        <time>2017-07-25T14:40:41Z</time>
      </trkpt>
      <trkpt lat="45.58851" lon="4.77875">
        <ele>158</ele>
        <time>2017-07-25T14:40:46Z</time>
      </trkpt>
      <trkpt lat="45.58831" lon="4.77871">
        <ele>157</ele>
        <time>2017-07-25T14:40:51Z</time>
      </trkpt>
      <trkpt lat="45.58827" lon="4.7787">
        <ele>157</ele>
        <time>2017-07-25T14:40:52Z</time>
      </trkpt>
      <trkpt lat="45.58812" lon="4.77869">
        <ele>157</ele>
        <time>2017-07-25T14:40:55Z</time>
      </trkpt>
      <trkpt lat="45.58807" lon="4.77869">
        <ele>157</ele>
        <time>2017-07-25T14:40:56Z</time>
      </trkpt>
      <trkpt lat="45.58791" lon="4.77866">
        <ele>157</ele>
        <time>2017-07-25T14:40:59Z</time>
      </trkpt>
      <trkpt lat="45.58781" lon="4.77865">
        <ele>157</ele>
        <time>2017-07-25T14:41:01Z</time>
      </trkpt>
      <trkpt lat="45.58776" lon="4.77865">
        <ele>157</ele>
        <time>2017-07-25T14:41:02Z</time>
      </trkpt>
      <trkpt lat="45.58752" lon="4.77861">
        <ele>157</ele>
        <time>2017-07-25T14:41:07Z</time>
      </trkpt>
      <trkpt lat="45.58737" lon="4.7786">
        <ele>155</ele>
        <time>2017-07-25T14:41:10Z</time>
      </trkpt>
      <trkpt lat="45.58721" lon="4.77859">
        <ele>155</ele>
        <time>2017-07-25T14:41:13Z</time>
      </trkpt>
      <trkpt lat="45.58702" lon="4.77858">
        <ele>155</ele>
        <time>2017-07-25T14:41:17Z</time>
      </trkpt>
      <trkpt lat="45.58664" lon="4.77856">
        <ele>153</ele>
        <time>2017-07-25T14:41:24Z</time>
      </trkpt>
      <trkpt lat="45.58626" lon="4.77857">
        <ele>153</ele>
        <time>2017-07-25T14:41:31Z</time>
      </trkpt>
      <trkpt lat="45.58607" lon="4.77858">
        <ele>153</ele>
        <time>2017-07-25T14:41:35Z</time>
      </trkpt>
      <trkpt lat="45.58602" lon="4.77859">
        <ele>153</ele>
        <time>2017-07-25T14:41:36Z</time>
      </trkpt>
      <trkpt lat="45.58591" lon="4.77859">
        <ele>153</ele>
        <time>2017-07-25T14:42:34Z</time>
      </trkpt>
      <trkpt lat="45.58559" lon="4.77868">
        <ele>154</ele>
        <time>2017-07-25T14:42:45Z</time>
      </trkpt>
      <trkpt lat="45.58551" lon="4.7787">
        <ele>154</ele>
        <time>2017-07-25T14:42:47Z</time>
      </trkpt>
      <trkpt lat="45.5854" lon="4.77873">
        <ele>154</ele>
        <time>2017-07-25T14:42:50Z</time>
      </trkpt>
      <trkpt lat="45.58523" lon="4.77879">
        <ele>154</ele>
        <time>2017-07-25T14:42:56Z</time>
      </trkpt>
      <trkpt lat="45.58503" lon="4.77886">
        <ele>154</ele>
        <time>2017-07-25T14:43:01Z</time>
      </trkpt>
      <trkpt lat="45.58499" lon="4.77888">
        <ele>154</ele>
        <time>2017-07-25T14:43:02Z</time>
      </trkpt>
      <trkpt lat="45.58477" lon="4.77897">
        <ele>154</ele>
        <time>2017-07-25T14:43:07Z</time>
      </trkpt>
      <trkpt lat="45.58451" lon="4.77909">
        <ele>154</ele>
        <time>2017-07-25T14:43:13Z</time>
      </trkpt>
      <trkpt lat="45.58446" lon="4.77911">
        <ele>154</ele>
        <time>2017-07-25T14:43:14Z</time>
      </trkpt>
      <trkpt lat="45.5843" lon="4.7792">
        <ele>154</ele>
        <time>2017-07-25T14:43:18Z</time>
      </trkpt>
      <trkpt lat="45.58421" lon="4.77925">
        <ele>154</ele>
        <time>2017-07-25T14:43:20Z</time>
      </trkpt>
      <trkpt lat="45.58413" lon="4.77931">
        <ele>154</ele>
        <time>2017-07-25T14:43:22Z</time>
      </trkpt>
      <trkpt lat="45.58396" lon="4.77942">
        <ele>155</ele>
        <time>2017-07-25T14:43:26Z</time>
      </trkpt>
      <trkpt lat="45.58381" lon="4.77953">
        <ele>155</ele>
        <time>2017-07-25T14:43:30Z</time>
      </trkpt>
      <trkpt lat="45.58252" lon="4.78059">
        <ele>155</ele>
        <time>2017-07-25T14:44:01Z</time>
      </trkpt>
      <trkpt lat="45.58236" lon="4.78072">
        <ele>154</ele>
        <time>2017-07-25T14:44:07Z</time>
      </trkpt>
      <trkpt lat="45.58223" lon="4.78079">
        <ele>153</ele>
        <time>2017-07-25T14:44:11Z</time>
      </trkpt>
      <trkpt lat="45.58214" lon="4.78089">
        <ele>154</ele>
        <time>2017-07-25T14:44:14Z</time>
      </trkpt>
      <trkpt lat="45.58214" lon="4.78092">
        <ele>154</ele>
        <time>2017-07-25T14:44:15Z</time>
      </trkpt>
      <trkpt lat="45.5821" lon="4.78107">
        <ele>154</ele>
        <time>2017-07-25T14:44:20Z</time>
      </trkpt>
      <trkpt lat="45.58209" lon="4.78109">
        <ele>154</ele>
        <time>2017-07-25T14:44:21Z</time>
      </trkpt>
      <trkpt lat="45.58209" lon="4.7811">
        <ele>154</ele>
        <time>2017-07-25T14:44:25Z</time>
      </trkpt>
      <trkpt lat="45.58209" lon="4.7811">
        <ele>154</ele>
        <time>2017-07-25T14:44:38Z</time>
      </trkpt>
      <trkpt lat="45.58209" lon="4.7811">
        <ele>154</ele>
        <time>2017-07-25T14:44:50Z</time>
      </trkpt>
      <trkpt lat="45.58209" lon="4.7811">
        <ele>154</ele>
        <time>2017-07-25T14:45:03Z</time>
      </trkpt>
      <trkpt lat="45.58209" lon="4.78112">
        <ele>154</ele>
        <time>2017-07-25T14:45:11Z</time>
      </trkpt>
      <trkpt lat="45.58211" lon="4.78114">
        <ele>154</ele>
        <time>2017-07-25T14:45:12Z</time>
      </trkpt>
      <trkpt lat="45.58218" lon="4.78117">
        <ele>154</ele>
        <time>2017-07-25T14:45:15Z</time>
      </trkpt>
      <trkpt lat="45.58221" lon="4.7812">
        <ele>154</ele>
        <time>2017-07-25T14:45:16Z</time>
      </trkpt>
      <trkpt lat="45.58228" lon="4.78129">
        <ele>154</ele>
        <time>2017-07-25T14:45:19Z</time>
      </trkpt>
      <trkpt lat="45.58233" lon="4.78136">
        <ele>154</ele>
        <time>2017-07-25T14:45:21Z</time>
      </trkpt>
      <trkpt lat="45.58249" lon="4.78148">
        <ele>155</ele>
        <time>2017-07-25T14:45:26Z</time>
      </trkpt>
      <trkpt lat="45.58262" lon="4.78159">
        <ele>156</ele>
        <time>2017-07-25T14:45:30Z</time>
      </trkpt>
      <trkpt lat="45.58264" lon="4.78161">
        <ele>156</ele>
        <time>2017-07-25T14:45:31Z</time>
      </trkpt>
      <trkpt lat="45.58266" lon="4.78164">
        <ele>156</ele>
        <time>2017-07-25T14:45:32Z</time>
      </trkpt>
      <trkpt lat="45.58268" lon="4.78167">
        <ele>156</ele>
        <time>2017-07-25T14:45:33Z</time>
      </trkpt>
      <trkpt lat="45.5827" lon="4.78169">
        <ele>157</ele>
        <time>2017-07-25T14:45:34Z</time>
      </trkpt>
      <trkpt lat="45.58282" lon="4.78166">
        <ele>157</ele>
        <time>2017-07-25T14:45:37Z</time>
      </trkpt>
      <trkpt lat="45.58161" lon="4.77996">
        <ele>153</ele>
        <time>2017-07-25T14:48:38Z</time>
      </trkpt>
      <trkpt lat="45.58076" lon="4.77874">
        <ele>166</ele>
        <time>2017-07-25T14:48:39Z</time>
      </trkpt>
      <trkpt lat="45.58058" lon="4.77894">
        <ele>167</ele>
      </trkpt>
      <trkpt lat="45.58017" lon="4.77982">
        <ele>162</ele>
      </trkpt>
      <trkpt lat="45.57964" lon="4.78137">
        <ele>164</ele>
        <time>2017-07-25T14:48:41Z</time>
      </trkpt>
      <trkpt lat="45.57851" lon="4.7848">
        <ele>159</ele>
        <time>2017-07-25T14:51:26Z</time>
      </trkpt>
      <trkpt lat="45.57825" lon="4.78567">
        <ele>160</ele>
      </trkpt>
      <trkpt lat="45.57804" lon="4.78635">
        <ele>158</ele>
      </trkpt>
      <trkpt lat="45.57768" lon="4.78713">
        <ele>156</ele>
      </trkpt>
      <trkpt lat="45.57753" lon="4.78746">
        <ele>156</ele>
      </trkpt>
      <trkpt lat="45.57723" lon="4.78791">
        <ele>157</ele>
        <time>2017-07-25T14:51:27Z</time>
      </trkpt>
      <trkpt lat="45.57692" lon="4.78834">
        <ele>156</ele>
        <time>2017-07-25T14:51:35Z</time>
      </trkpt>
      <trkpt lat="45.57661" lon="4.78882">
        <ele>159</ele>
        <time>2017-07-25T14:51:42Z</time>
      </trkpt>
      <trkpt lat="45.57622" lon="4.78939">
        <ele>158</ele>
        <time>2017-07-25T14:51:50Z</time>
      </trkpt>
      <trkpt lat="45.57582" lon="4.7899">
        <ele>159</ele>
        <time>2017-07-25T14:51:58Z</time>
      </trkpt>
      <trkpt lat="45.57552" lon="4.79026">
        <ele>160</ele>
        <time>2017-07-25T14:52:05Z</time>
      </trkpt>
      <trkpt lat="45.57522" lon="4.79064">
        <ele>160</ele>
        <time>2017-07-25T14:52:12Z</time>
      </trkpt>
      <trkpt lat="45.57489" lon="4.79104">
        <ele>161</ele>
        <time>2017-07-25T14:52:19Z</time>
      </trkpt>
      <trkpt lat="45.57465" lon="4.79134">
        <ele>160</ele>
        <time>2017-07-25T14:52:24Z</time>
      </trkpt>
      <trkpt lat="45.57432" lon="4.79174">
        <ele>159</ele>
        <time>2017-07-25T14:52:31Z</time>
      </trkpt>
      <trkpt lat="45.57398" lon="4.79214">
        <ele>161</ele>
        <time>2017-07-25T14:52:38Z</time>
      </trkpt>
      <trkpt lat="45.57365" lon="4.79254">
        <ele>159</ele>
        <time>2017-07-25T14:52:45Z</time>
      </trkpt>
      <trkpt lat="45.5736" lon="4.7926">
        <ele>159</ele>
        <time>2017-07-25T14:52:46Z</time>
      </trkpt>
      <trkpt lat="45.57356" lon="4.79265">
        <ele>159</ele>
        <time>2017-07-25T14:52:47Z</time>
      </trkpt>
      <trkpt lat="45.57351" lon="4.79271">
        <ele>159</ele>
        <time>2017-07-25T14:52:48Z</time>
      </trkpt>
      <trkpt lat="45.57347" lon="4.79276">
        <ele>159</ele>
        <time>2017-07-25T14:52:49Z</time>
      </trkpt>
      <trkpt lat="45.57338" lon="4.79287">
        <ele>159</ele>
        <time>2017-07-25T14:52:51Z</time>
      </trkpt>
      <trkpt lat="45.57298" lon="4.79335">
        <ele>160</ele>
        <time>2017-07-25T14:53:00Z</time>
      </trkpt>
      <trkpt lat="45.57274" lon="4.7936">
        <ele>161</ele>
        <time>2017-07-25T14:53:06Z</time>
      </trkpt>
      <trkpt lat="45.57261" lon="4.79376">
        <ele>160</ele>
        <time>2017-07-25T14:53:11Z</time>
      </trkpt>
      <trkpt lat="45.57248" lon="4.79393">
        <ele>163</ele>
        <time>2017-07-25T14:53:15Z</time>
      </trkpt>
      <trkpt lat="45.57244" lon="4.79397">
        <ele>162</ele>
        <time>2017-07-25T14:53:16Z</time>
      </trkpt>
      <trkpt lat="45.57241" lon="4.79401">
        <ele>162</ele>
        <time>2017-07-25T14:53:17Z</time>
      </trkpt>
      <trkpt lat="45.57237" lon="4.79406">
        <ele>162</ele>
        <time>2017-07-25T14:53:18Z</time>
      </trkpt>
      <trkpt lat="45.57226" lon="4.79419">
        <ele>161</ele>
        <time>2017-07-25T14:53:21Z</time>
      </trkpt>
      <trkpt lat="45.57218" lon="4.79423">
        <ele>161</ele>
        <time>2017-07-25T14:53:23Z</time>
      </trkpt>
      <trkpt lat="45.57214" lon="4.79422">
        <ele>162</ele>
        <time>2017-07-25T14:53:24Z</time>
      </trkpt>
      <trkpt lat="45.57211" lon="4.79417">
        <ele>162</ele>
        <time>2017-07-25T14:53:25Z</time>
      </trkpt>
      <trkpt lat="45.57209" lon="4.79412">
        <ele>164</ele>
        <time>2017-07-25T14:53:26Z</time>
      </trkpt>
      <trkpt lat="45.57207" lon="4.79407">
        <ele>164</ele>
        <time>2017-07-25T14:53:27Z</time>
      </trkpt>
      <trkpt lat="45.57205" lon="4.79403">
        <ele>164</ele>
        <time>2017-07-25T14:53:28Z</time>
      </trkpt>
      <trkpt lat="45.57199" lon="4.79388">
        <ele>165</ele>
        <time>2017-07-25T14:53:32Z</time>
      </trkpt>
      <trkpt lat="45.57191" lon="4.79366">
        <ele>165</ele>
      </trkpt>
      <trkpt lat="45.57178" lon="4.7935">
        <ele>166</ele>
        <time>2017-07-25T14:53:50Z</time>
      </trkpt>
      <trkpt lat="45.57165" lon="4.79342">
        <ele>168</ele>
        <time>2017-07-25T14:53:54Z</time>
      </trkpt>
      <trkpt lat="45.57147" lon="4.79346">
        <ele>168</ele>
        <time>2017-07-25T14:53:58Z</time>
      </trkpt>
      <trkpt lat="45.57142" lon="4.79349">
        <ele>168</ele>
        <time>2017-07-25T14:53:59Z</time>
      </trkpt>
      <trkpt lat="45.57137" lon="4.7935">
        <ele>168</ele>
        <time>2017-07-25T14:54:00Z</time>
      </trkpt>
      <trkpt lat="45.57122" lon="4.79356">
        <ele>168</ele>
        <time>2017-07-25T14:54:03Z</time>
      </trkpt>
      <trkpt lat="45.57109" lon="4.79367">
        <ele>168</ele>
        <time>2017-07-25T14:54:06Z</time>
      </trkpt>
      <trkpt lat="45.571" lon="4.79374">
        <ele>168</ele>
        <time>2017-07-25T14:54:08Z</time>
      </trkpt>
      <trkpt lat="45.57074" lon="4.79405">
        <ele>168</ele>
        <time>2017-07-25T14:54:14Z</time>
      </trkpt>
      <trkpt lat="45.57033" lon="4.79454">
        <ele>168</ele>
        <time>2017-07-25T14:54:23Z</time>
      </trkpt>
      <trkpt lat="45.5702" lon="4.79468">
        <ele>168</ele>
        <time>2017-07-25T14:54:26Z</time>
      </trkpt>
      <trkpt lat="45.57009" lon="4.79476">
        <ele>169</ele>
        <time>2017-07-25T14:54:28Z</time>
      </trkpt>
      <trkpt lat="45.56994" lon="4.79487">
        <ele>170</ele>
        <time>2017-07-25T14:54:31Z</time>
      </trkpt>
      <trkpt lat="45.56989" lon="4.79492">
        <ele>170</ele>
        <time>2017-07-25T14:54:32Z</time>
      </trkpt>
      <trkpt lat="45.56984" lon="4.79496">
        <ele>170</ele>
        <time>2017-07-25T14:54:33Z</time>
      </trkpt>
      <trkpt lat="45.56978" lon="4.795">
        <ele>169</ele>
        <time>2017-07-25T14:54:34Z</time>
      </trkpt>
      <trkpt lat="45.56973" lon="4.79504">
        <ele>169</ele>
        <time>2017-07-25T14:54:35Z</time>
      </trkpt>
      <trkpt lat="45.5695" lon="4.79522">
        <ele>169</ele>
        <time>2017-07-25T14:54:39Z</time>
      </trkpt>
      <trkpt lat="45.5694" lon="4.7953">
        <ele>169</ele>
        <time>2017-07-25T14:54:41Z</time>
      </trkpt>
      <trkpt lat="45.56904" lon="4.79553">
        <ele>169</ele>
        <time>2017-07-25T14:54:47Z</time>
      </trkpt>
      <trkpt lat="45.56886" lon="4.79564">
        <ele>169</ele>
        <time>2017-07-25T14:54:50Z</time>
      </trkpt>
      <trkpt lat="45.56867" lon="4.79572">
        <ele>169</ele>
        <time>2017-07-25T14:54:53Z</time>
      </trkpt>
      <trkpt lat="45.56828" lon="4.79599">
        <ele>169</ele>
        <time>2017-07-25T14:55:00Z</time>
      </trkpt>
      <trkpt lat="45.56806" lon="4.79616">
        <ele>169</ele>
        <time>2017-07-25T14:55:04Z</time>
      </trkpt>
      <trkpt lat="45.56801" lon="4.7962">
        <ele>169</ele>
        <time>2017-07-25T14:55:05Z</time>
      </trkpt>
      <trkpt lat="45.56795" lon="4.79625">
        <ele>169</ele>
        <time>2017-07-25T14:55:06Z</time>
      </trkpt>
      <trkpt lat="45.56789" lon="4.79629">
        <ele>169</ele>
        <time>2017-07-25T14:55:07Z</time>
      </trkpt>
      <trkpt lat="45.56783" lon="4.79633">
        <ele>169</ele>
        <time>2017-07-25T14:55:08Z</time>
      </trkpt>
      <trkpt lat="45.56751" lon="4.79651">
        <ele>170</ele>
        <time>2017-07-25T14:55:13Z</time>
      </trkpt>
      <trkpt lat="45.567" lon="4.79681">
        <ele>169</ele>
        <time>2017-07-25T14:55:21Z</time>
      </trkpt>
      <trkpt lat="45.56665" lon="4.79709">
        <ele>172</ele>
        <time>2017-07-25T14:55:27Z</time>
      </trkpt>
      <trkpt lat="45.56632" lon="4.79738">
        <ele>172</ele>
        <time>2017-07-25T14:55:33Z</time>
      </trkpt>
      <trkpt lat="45.56609" lon="4.79759">
        <ele>169</ele>
      </trkpt>
      <trkpt lat="45.5658" lon="4.79932">
        <ele>164</ele>
        <time>2017-07-25T14:56:22Z</time>
      </trkpt>
      <trkpt lat="45.56579" lon="4.79947">
        <ele>164</ele>
        <time>2017-07-25T14:56:24Z</time>
      </trkpt>
      <trkpt lat="45.56569" lon="4.79965">
        <ele>164</ele>
        <time>2017-07-25T14:56:27Z</time>
      </trkpt>
      <trkpt lat="45.56565" lon="4.79971">
        <ele>164</ele>
        <time>2017-07-25T14:56:28Z</time>
      </trkpt>
      <trkpt lat="45.5656" lon="4.79978">
        <ele>164</ele>
        <time>2017-07-25T14:56:29Z</time>
      </trkpt>
      <trkpt lat="45.56556" lon="4.79985">
        <ele>164</ele>
        <time>2017-07-25T14:56:30Z</time>
      </trkpt>
      <trkpt lat="45.56551" lon="4.79993">
        <ele>164</ele>
        <time>2017-07-25T14:56:31Z</time>
      </trkpt>
      <trkpt lat="45.56542" lon="4.80007">
        <ele>162</ele>
        <time>2017-07-25T14:56:33Z</time>
      </trkpt>
      <trkpt lat="45.56502" lon="4.80058">
        <ele>162</ele>
        <time>2017-07-25T14:56:40Z</time>
      </trkpt>
      <trkpt lat="45.56496" lon="4.80064">
        <ele>163</ele>
        <time>2017-07-25T14:56:41Z</time>
      </trkpt>
      <trkpt lat="45.5649" lon="4.8007">
        <ele>162</ele>
        <time>2017-07-25T14:56:42Z</time>
      </trkpt>
      <trkpt lat="45.56485" lon="4.80076">
        <ele>162</ele>
        <time>2017-07-25T14:56:43Z</time>
      </trkpt>
      <trkpt lat="45.56479" lon="4.80082">
        <ele>163</ele>
        <time>2017-07-25T14:56:44Z</time>
      </trkpt>
      <trkpt lat="45.56452" lon="4.80111">
        <ele>161</ele>
        <time>2017-07-25T14:56:49Z</time>
      </trkpt>
      <trkpt lat="45.56407" lon="4.80159">
        <ele>160</ele>
        <time>2017-07-25T14:56:57Z</time>
      </trkpt>
      <trkpt lat="45.56374" lon="4.80197">
        <ele>160</ele>
        <time>2017-07-25T14:57:04Z</time>
      </trkpt>
      <trkpt lat="45.56341" lon="4.80231">
        <ele>159</ele>
        <time>2017-07-25T14:57:11Z</time>
      </trkpt>
      <trkpt lat="45.56336" lon="4.80234">
        <ele>159</ele>
        <time>2017-07-25T14:57:12Z</time>
      </trkpt>
      <trkpt lat="45.56322" lon="4.80244">
        <ele>160</ele>
        <time>2017-07-25T14:57:16Z</time>
      </trkpt>
      <trkpt lat="45.56321" lon="4.80244">
        <ele>160</ele>
        <time>2017-07-25T14:57:17Z</time>
      </trkpt>
      <trkpt lat="45.56321" lon="4.80245">
        <ele>160</ele>
        <time>2017-07-25T14:57:18Z</time>
      </trkpt>
      <trkpt lat="45.5632" lon="4.80245">
        <ele>160</ele>
        <time>2017-07-25T14:57:19Z</time>
      </trkpt>
      <trkpt lat="45.5632" lon="4.80245">
        <ele>160</ele>
        <time>2017-07-25T14:57:20Z</time>
      </trkpt>
      <trkpt lat="45.56312" lon="4.80256">
        <ele>160</ele>
        <time>2017-07-25T14:57:29Z</time>
      </trkpt>
      <trkpt lat="45.56309" lon="4.80259">
        <ele>160</ele>
        <time>2017-07-25T14:57:30Z</time>
      </trkpt>
      <trkpt lat="45.56306" lon="4.80262">
        <ele>160</ele>
        <time>2017-07-25T14:57:31Z</time>
      </trkpt>
      <trkpt lat="45.56299" lon="4.80268">
        <ele>160</ele>
        <time>2017-07-25T14:57:33Z</time>
      </trkpt>
      <trkpt lat="45.56292" lon="4.80277">
        <ele>160</ele>
        <time>2017-07-25T14:57:35Z</time>
      </trkpt>
      <trkpt lat="45.56286" lon="4.80288">
        <ele>160</ele>
        <time>2017-07-25T14:57:37Z</time>
      </trkpt>
      <trkpt lat="45.56278" lon="4.8031">
        <ele>160</ele>
        <time>2017-07-25T14:57:40Z</time>
      </trkpt>
      <trkpt lat="45.56273" lon="4.80334">
        <ele>161</ele>
        <time>2017-07-25T14:57:43Z</time>
      </trkpt>
      <trkpt lat="45.56269" lon="4.80361">
        <ele>160</ele>
        <time>2017-07-25T14:57:46Z</time>
      </trkpt>
      <trkpt lat="45.56261" lon="4.80393">
        <ele>161</ele>
        <time>2017-07-25T14:57:50Z</time>
      </trkpt>
      <trkpt lat="45.56258" lon="4.804">
        <ele>161</ele>
        <time>2017-07-25T14:57:51Z</time>
      </trkpt>
      <trkpt lat="45.56249" lon="4.8042">
        <ele>161</ele>
        <time>2017-07-25T14:57:54Z</time>
      </trkpt>
      <trkpt lat="45.56241" lon="4.8043">
        <ele>161</ele>
        <time>2017-07-25T14:57:56Z</time>
      </trkpt>
      <trkpt lat="45.56219" lon="4.80436">
        <ele>161</ele>
        <time>2017-07-25T14:58:00Z</time>
      </trkpt>
      <trkpt lat="45.56207" lon="4.80432">
        <ele>161</ele>
        <time>2017-07-25T14:58:02Z</time>
      </trkpt>
      <trkpt lat="45.56201" lon="4.80431">
        <ele>161</ele>
        <time>2017-07-25T14:58:03Z</time>
      </trkpt>
      <trkpt lat="45.56195" lon="4.80432">
        <ele>161</ele>
        <time>2017-07-25T14:58:04Z</time>
      </trkpt>
      <trkpt lat="45.56176" lon="4.80442">
        <ele>161</ele>
        <time>2017-07-25T14:58:07Z</time>
      </trkpt>
      <trkpt lat="45.5617" lon="4.80447">
        <ele>161</ele>
        <time>2017-07-25T14:58:08Z</time>
      </trkpt>
      <trkpt lat="45.56135" lon="4.80475">
        <ele>161</ele>
        <time>2017-07-25T14:58:14Z</time>
      </trkpt>
      <trkpt lat="45.56104" lon="4.80501">
        <ele>160</ele>
        <time>2017-07-25T14:58:20Z</time>
      </trkpt>
      <trkpt lat="45.5607" lon="4.80525">
        <ele>163</ele>
        <time>2017-07-25T14:58:26Z</time>
      </trkpt>
      <trkpt lat="45.56047" lon="4.8054">
        <ele>164</ele>
        <time>2017-07-25T14:58:30Z</time>
      </trkpt>
      <trkpt lat="45.56042" lon="4.80543">
        <ele>164</ele>
        <time>2017-07-25T14:58:31Z</time>
      </trkpt>
      <trkpt lat="45.56032" lon="4.80549">
        <ele>165</ele>
        <time>2017-07-25T14:58:33Z</time>
      </trkpt>
      <trkpt lat="45.56023" lon="4.80551">
        <ele>165</ele>
        <time>2017-07-25T14:58:35Z</time>
      </trkpt>
      <trkpt lat="45.56018" lon="4.80552">
        <ele>165</ele>
        <time>2017-07-25T14:58:36Z</time>
      </trkpt>
      <trkpt lat="45.5601" lon="4.80552">
        <ele>165</ele>
        <time>2017-07-25T14:58:38Z</time>
      </trkpt>
      <trkpt lat="45.56005" lon="4.80553">
        <ele>165</ele>
        <time>2017-07-25T14:58:39Z</time>
      </trkpt>
      <trkpt lat="45.56001" lon="4.80553">
        <ele>165</ele>
        <time>2017-07-25T14:58:40Z</time>
      </trkpt>
      <trkpt lat="45.55997" lon="4.80553">
        <ele>169</ele>
        <time>2017-07-25T14:58:41Z</time>
      </trkpt>
      <trkpt lat="45.55994" lon="4.80553">
        <ele>169</ele>
        <time>2017-07-25T14:58:42Z</time>
      </trkpt>
      <trkpt lat="45.5599" lon="4.80553">
        <ele>169</ele>
        <time>2017-07-25T14:58:43Z</time>
      </trkpt>
      <trkpt lat="45.55987" lon="4.80553">
        <ele>169</ele>
        <time>2017-07-25T14:58:44Z</time>
      </trkpt>
      <trkpt lat="45.55977" lon="4.8056">
        <ele>170</ele>
        <time>2017-07-25T14:58:48Z</time>
      </trkpt>
      <trkpt lat="45.55977" lon="4.80568">
        <ele>169</ele>
        <time>2017-07-25T14:58:50Z</time>
      </trkpt>
      <trkpt lat="45.55988" lon="4.80585">
        <ele>166</ele>
        <time>2017-07-25T14:58:54Z</time>
      </trkpt>
      <trkpt lat="45.55991" lon="4.8059">
        <ele>166</ele>
        <time>2017-07-25T14:58:55Z</time>
      </trkpt>
      <trkpt lat="45.55995" lon="4.80602">
        <ele>166</ele>
        <time>2017-07-25T14:58:57Z</time>
      </trkpt>
      <trkpt lat="45.56003" lon="4.80629">
        <ele>162</ele>
        <time>2017-07-25T14:59:01Z</time>
      </trkpt>
      <trkpt lat="45.56004" lon="4.80636">
        <ele>162</ele>
        <time>2017-07-25T14:59:02Z</time>
      </trkpt>
      <trkpt lat="45.56009" lon="4.80663">
        <ele>161</ele>
        <time>2017-07-25T14:59:05Z</time>
      </trkpt>
      <trkpt lat="45.56003" lon="4.80673">
        <ele>160</ele>
        <time>2017-07-25T14:59:06Z</time>
      </trkpt>
      <trkpt lat="45.56003" lon="4.80677">
        <ele>160</ele>
        <time>2017-07-25T14:59:07Z</time>
      </trkpt>
      <trkpt lat="45.56011" lon="4.80701">
        <ele>159</ele>
        <time>2017-07-25T14:59:11Z</time>
      </trkpt>
      <trkpt lat="45.56054" lon="4.80852">
        <ele>157</ele>
        <time>2017-07-25T14:59:51Z</time>
      </trkpt>
      <trkpt lat="45.56064" lon="4.80876">
        <ele>157</ele>
        <time>2017-07-25T14:59:55Z</time>
      </trkpt>
      <trkpt lat="45.56067" lon="4.80882">
        <ele>157</ele>
        <time>2017-07-25T14:59:56Z</time>
      </trkpt>
      <trkpt lat="45.56076" lon="4.80897">
        <ele>157</ele>
        <time>2017-07-25T14:59:59Z</time>
      </trkpt>
      <trkpt lat="45.56086" lon="4.80911">
        <ele>157</ele>
        <time>2017-07-25T15:00:02Z</time>
      </trkpt>
      <trkpt lat="45.56092" lon="4.80921">
        <ele>157</ele>
        <time>2017-07-25T15:00:04Z</time>
      </trkpt>
      <trkpt lat="45.56104" lon="4.8094">
        <ele>157</ele>
        <time>2017-07-25T15:00:08Z</time>
      </trkpt>
      <trkpt lat="45.56107" lon="4.80945">
        <ele>157</ele>
        <time>2017-07-25T15:00:09Z</time>
      </trkpt>
      <trkpt lat="45.56108" lon="4.80957">
        <ele>156</ele>
        <time>2017-07-25T15:00:11Z</time>
      </trkpt>
      <trkpt lat="45.56106" lon="4.80987">
        <ele>156</ele>
        <time>2017-07-25T15:00:15Z</time>
      </trkpt>
      <trkpt lat="45.56106" lon="4.81003">
        <ele>155</ele>
        <time>2017-07-25T15:00:17Z</time>
      </trkpt>
      <trkpt lat="45.56105" lon="4.81031">
        <ele>155</ele>
        <time>2017-07-25T15:00:21Z</time>
      </trkpt>
      <trkpt lat="45.56106" lon="4.81054">
        <ele>155</ele>
      </trkpt>
      <trkpt lat="45.56118" lon="4.81106">
        <ele>154</ele>
        <time>2017-07-25T15:01:17Z</time>
      </trkpt>
      <trkpt lat="45.56128" lon="4.81143">
        <ele>154</ele>
        <time>2017-07-25T15:01:23Z</time>
      </trkpt>
      <trkpt lat="45.5613" lon="4.81148">
        <ele>154</ele>
        <time>2017-07-25T15:01:24Z</time>
      </trkpt>
      <trkpt lat="45.56133" lon="4.81153">
        <ele>154</ele>
        <time>2017-07-25T15:01:25Z</time>
      </trkpt>
      <trkpt lat="45.56137" lon="4.81168">
        <ele>154</ele>
        <time>2017-07-25T15:01:28Z</time>
      </trkpt>
      <trkpt lat="45.56141" lon="4.81193">
        <ele>155</ele>
        <time>2017-07-25T15:01:33Z</time>
      </trkpt>
      <trkpt lat="45.5614" lon="4.81205">
        <ele>155</ele>
        <time>2017-07-25T15:01:36Z</time>
      </trkpt>
      <trkpt lat="45.56137" lon="4.81208">
        <ele>155</ele>
        <time>2017-07-25T15:01:37Z</time>
      </trkpt>
      <trkpt lat="45.56113" lon="4.81228">
        <ele>155</ele>
        <time>2017-07-25T15:01:43Z</time>
      </trkpt>
      <trkpt lat="45.5609" lon="4.81246">
        <ele>156</ele>
        <time>2017-07-25T15:01:48Z</time>
      </trkpt>
      <trkpt lat="45.5608" lon="4.81254">
        <ele>156</ele>
        <time>2017-07-25T15:01:50Z</time>
      </trkpt>
      <trkpt lat="45.56044" lon="4.81279">
        <ele>156</ele>
        <time>2017-07-25T15:01:57Z</time>
      </trkpt>
      <trkpt lat="45.56005" lon="4.81306">
        <ele>156</ele>
        <time>2017-07-25T15:02:04Z</time>
      </trkpt>
      <trkpt lat="45.55951" lon="4.81344">
        <ele>155</ele>
        <time>2017-07-25T15:02:13Z</time>
      </trkpt>
      <trkpt lat="45.55907" lon="4.81374">
        <ele>156</ele>
        <time>2017-07-25T15:02:20Z</time>
      </trkpt>
      <trkpt lat="45.55868" lon="4.81401">
        <ele>157</ele>
        <time>2017-07-25T15:02:27Z</time>
      </trkpt>
      <trkpt lat="45.55834" lon="4.8142">
        <ele>158</ele>
        <time>2017-07-25T15:02:33Z</time>
      </trkpt>
      <trkpt lat="45.55794" lon="4.81446">
        <ele>157</ele>
        <time>2017-07-25T15:02:40Z</time>
      </trkpt>
      <trkpt lat="45.55748" lon="4.81477">
        <ele>155</ele>
        <time>2017-07-25T15:02:48Z</time>
      </trkpt>
      <trkpt lat="45.55712" lon="4.81501">
        <ele>154</ele>
        <time>2017-07-25T15:02:54Z</time>
      </trkpt>
      <trkpt lat="45.55672" lon="4.81529">
        <ele>154</ele>
        <time>2017-07-25T15:03:01Z</time>
      </trkpt>
      <trkpt lat="45.55642" lon="4.81551">
        <ele>154</ele>
        <time>2017-07-25T15:03:06Z</time>
      </trkpt>
      <trkpt lat="45.55601" lon="4.8158">
        <ele>155</ele>
        <time>2017-07-25T15:03:13Z</time>
      </trkpt>
      <trkpt lat="45.55562" lon="4.81614">
        <ele>156</ele>
        <time>2017-07-25T15:03:20Z</time>
      </trkpt>
      <trkpt lat="45.55521" lon="4.8166">
        <ele>155</ele>
        <time>2017-07-25T15:03:28Z</time>
      </trkpt>
      <trkpt lat="45.55488" lon="4.81704">
        <ele>158</ele>
        <time>2017-07-25T15:03:35Z</time>
      </trkpt>
      <trkpt lat="45.5548" lon="4.81716">
        <ele>158</ele>
        <time>2017-07-25T15:03:37Z</time>
      </trkpt>
      <trkpt lat="45.55467" lon="4.81732">
        <ele>158</ele>
        <time>2017-07-25T15:03:40Z</time>
      </trkpt>
      <trkpt lat="45.5546" lon="4.81745">
        <ele>158</ele>
        <time>2017-07-25T15:03:42Z</time>
      </trkpt>
      <trkpt lat="45.55449" lon="4.81766">
        <ele>156</ele>
        <time>2017-07-25T15:03:45Z</time>
      </trkpt>
      <trkpt lat="45.55418" lon="4.81826">
        <ele>154</ele>
        <time>2017-07-25T15:03:53Z</time>
      </trkpt>
      <trkpt lat="45.55407" lon="4.81848">
        <ele>155</ele>
        <time>2017-07-25T15:03:56Z</time>
      </trkpt>
      <trkpt lat="45.55398" lon="4.81869">
        <ele>156</ele>
        <time>2017-07-25T15:03:59Z</time>
      </trkpt>
      <trkpt lat="45.55369" lon="4.81923">
        <ele>155</ele>
        <time>2017-07-25T15:04:07Z</time>
      </trkpt>
      <trkpt lat="45.55359" lon="4.81939">
        <ele>155</ele>
        <time>2017-07-25T15:04:11Z</time>
      </trkpt>
      <trkpt lat="45.55358" lon="4.8194">
        <ele>155</ele>
        <time>2017-07-25T15:04:15Z</time>
      </trkpt>
      <trkpt lat="45.55358" lon="4.8194">
        <ele>155</ele>
        <time>2017-07-25T15:04:24Z</time>
      </trkpt>
      <trkpt lat="45.55355" lon="4.81945">
        <ele>156</ele>
        <time>2017-07-25T15:04:29Z</time>
      </trkpt>
      <trkpt lat="45.55344" lon="4.8196">
        <ele>156</ele>
        <time>2017-07-25T15:04:33Z</time>
      </trkpt>
      <trkpt lat="45.55341" lon="4.81964">
        <ele>156</ele>
        <time>2017-07-25T15:04:34Z</time>
      </trkpt>
      <trkpt lat="45.55334" lon="4.81974">
        <ele>155</ele>
        <time>2017-07-25T15:04:36Z</time>
      </trkpt>
      <trkpt lat="45.55331" lon="4.81979">
        <ele>158</ele>
        <time>2017-07-25T15:04:37Z</time>
      </trkpt>
      <trkpt lat="45.55314" lon="4.81996">
        <ele>158</ele>
        <time>2017-07-25T15:04:41Z</time>
      </trkpt>
      <trkpt lat="45.55305" lon="4.82003">
        <ele>156</ele>
        <time>2017-07-25T15:04:43Z</time>
      </trkpt>
      <trkpt lat="45.5528" lon="4.82029">
        <ele>156</ele>
        <time>2017-07-25T15:04:49Z</time>
      </trkpt>
      <trkpt lat="45.55249" lon="4.82059">
        <ele>161</ele>
        <time>2017-07-25T15:04:56Z</time>
      </trkpt>
      <trkpt lat="45.55224" lon="4.82084">
        <ele>158</ele>
        <time>2017-07-25T15:05:02Z</time>
      </trkpt>
      <trkpt lat="45.5522" lon="4.82088">
        <ele>158</ele>
        <time>2017-07-25T15:05:03Z</time>
      </trkpt>
      <trkpt lat="45.55195" lon="4.82125">
        <ele>158</ele>
        <time>2017-07-25T15:05:10Z</time>
      </trkpt>
      <trkpt lat="45.5519" lon="4.8214">
        <ele>157</ele>
        <time>2017-07-25T15:05:13Z</time>
      </trkpt>
      <trkpt lat="45.5519" lon="4.82144">
        <ele>157</ele>
        <time>2017-07-25T15:05:14Z</time>
      </trkpt>
      <trkpt lat="45.55189" lon="4.82159">
        <ele>156</ele>
        <time>2017-07-25T15:05:18Z</time>
      </trkpt>
      <trkpt lat="45.55187" lon="4.82163">
        <ele>156</ele>
        <time>2017-07-25T15:05:19Z</time>
      </trkpt>
      <trkpt lat="45.55176" lon="4.82183">
        <ele>154</ele>
        <time>2017-07-25T15:05:23Z</time>
      </trkpt>
      <trkpt lat="45.55157" lon="4.82223">
        <ele>156</ele>
        <time>2017-07-25T15:05:29Z</time>
      </trkpt>
      <trkpt lat="45.55134" lon="4.82262">
        <ele>154</ele>
        <time>2017-07-25T15:05:35Z</time>
      </trkpt>
      <trkpt lat="45.55111" lon="4.82297">
        <ele>154</ele>
        <time>2017-07-25T15:05:41Z</time>
      </trkpt>
      <trkpt lat="45.55081" lon="4.82339">
        <ele>154</ele>
        <time>2017-07-25T15:05:48Z</time>
      </trkpt>
      <trkpt lat="45.55046" lon="4.8238">
        <ele>155</ele>
        <time>2017-07-25T15:05:55Z</time>
      </trkpt>
      <trkpt lat="45.55006" lon="4.8242">
        <ele>155</ele>
        <time>2017-07-25T15:06:02Z</time>
      </trkpt>
      <trkpt lat="45.54966" lon="4.82456">
        <ele>155</ele>
        <time>2017-07-25T15:06:09Z</time>
      </trkpt>
      <trkpt lat="45.54934" lon="4.82483">
        <ele>154</ele>
        <time>2017-07-25T15:06:15Z</time>
      </trkpt>
      <trkpt lat="45.54901" lon="4.82513">
        <ele>154</ele>
        <time>2017-07-25T15:06:23Z</time>
      </trkpt>
      <trkpt lat="45.54886" lon="4.82525">
        <ele>154</ele>
        <time>2017-07-25T15:06:28Z</time>
      </trkpt>
      <trkpt lat="45.5487" lon="4.82539">
        <ele>154</ele>
        <time>2017-07-25T15:06:35Z</time>
      </trkpt>
      <trkpt lat="45.54857" lon="4.82552">
        <ele>154</ele>
        <time>2017-07-25T15:06:41Z</time>
      </trkpt>
      <trkpt lat="45.54835" lon="4.8257">
        <ele>154</ele>
        <time>2017-07-25T15:06:50Z</time>
      </trkpt>
      <trkpt lat="45.54821" lon="4.82581">
        <ele>155</ele>
        <time>2017-07-25T15:06:56Z</time>
      </trkpt>
      <trkpt lat="45.54807" lon="4.82594">
        <ele>155</ele>
        <time>2017-07-25T15:07:03Z</time>
      </trkpt>
      <trkpt lat="45.54708" lon="4.82692">
        <ele>155</ele>
        <time>2017-07-25T15:07:21Z</time>
      </trkpt>
      <trkpt lat="45.54703" lon="4.82701">
        <ele>155</ele>
        <time>2017-07-25T15:07:22Z</time>
      </trkpt>
      <trkpt lat="45.54692" lon="4.82721">
        <ele>155</ele>
        <time>2017-07-25T15:07:25Z</time>
      </trkpt>
      <trkpt lat="45.54682" lon="4.82756">
        <ele>155</ele>
        <time>2017-07-25T15:07:29Z</time>
      </trkpt>
      <trkpt lat="45.54681" lon="4.82767">
        <ele>155</ele>
        <time>2017-07-25T15:07:30Z</time>
      </trkpt>
      <trkpt lat="45.54677" lon="4.82818">
        <ele>155</ele>
        <time>2017-07-25T15:07:35Z</time>
      </trkpt>
      <trkpt lat="45.54673" lon="4.82891">
        <ele>157</ele>
        <time>2017-07-25T15:07:42Z</time>
      </trkpt>
      <trkpt lat="45.54668" lon="4.82921">
        <ele>158</ele>
        <time>2017-07-25T15:07:45Z</time>
      </trkpt>
      <trkpt lat="45.54664" lon="4.8293">
        <ele>158</ele>
        <time>2017-07-25T15:07:46Z</time>
      </trkpt>
      <trkpt lat="45.54647" lon="4.8295">
        <ele>158</ele>
        <time>2017-07-25T15:07:49Z</time>
      </trkpt>
      <trkpt lat="45.54607" lon="4.83005">
        <ele>163</ele>
        <time>2017-07-25T15:07:56Z</time>
      </trkpt>
      <trkpt lat="45.54602" lon="4.83013">
        <ele>163</ele>
        <time>2017-07-25T15:07:57Z</time>
      </trkpt>
      <trkpt lat="45.54561" lon="4.83071">
        <ele>159</ele>
        <time>2017-07-25T15:08:04Z</time>
      </trkpt>
      <trkpt lat="45.54556" lon="4.83079">
        <ele>159</ele>
        <time>2017-07-25T15:08:05Z</time>
      </trkpt>
      <trkpt lat="45.54483" lon="4.83193">
        <ele>155</ele>
        <time>2017-07-25T15:08:21Z</time>
      </trkpt>
      <trkpt lat="45.54455" lon="4.83236">
        <ele>155</ele>
        <time>2017-07-25T15:08:27Z</time>
      </trkpt>
      <trkpt lat="45.54417" lon="4.83297">
        <ele>153</ele>
        <time>2017-07-25T15:08:36Z</time>
      </trkpt>
      <trkpt lat="45.5438" lon="4.83362">
        <ele>152</ele>
        <time>2017-07-25T15:08:44Z</time>
      </trkpt>
      <trkpt lat="45.54354" lon="4.83412">
        <ele>152</ele>
        <time>2017-07-25T15:08:50Z</time>
      </trkpt>
      <trkpt lat="45.5435" lon="4.83421">
        <ele>151</ele>
        <time>2017-07-25T15:08:51Z</time>
      </trkpt>
      <trkpt lat="45.54345" lon="4.83429">
        <ele>152</ele>
        <time>2017-07-25T15:08:52Z</time>
      </trkpt>
      <trkpt lat="45.54341" lon="4.83437">
        <ele>152</ele>
        <time>2017-07-25T15:08:53Z</time>
      </trkpt>
      <trkpt lat="45.54336" lon="4.83446">
        <ele>152</ele>
        <time>2017-07-25T15:08:54Z</time>
      </trkpt>
      <trkpt lat="45.54308" lon="4.83505">
        <ele>154</ele>
        <time>2017-07-25T15:09:01Z</time>
      </trkpt>
      <trkpt lat="45.54278" lon="4.83574">
        <ele>153</ele>
        <time>2017-07-25T15:09:09Z</time>
      </trkpt>
      <trkpt lat="45.54251" lon="4.83644">
        <ele>149</ele>
        <time>2017-07-25T15:09:17Z</time>
      </trkpt>
      <trkpt lat="45.54225" lon="4.83714">
        <ele>150</ele>
        <time>2017-07-25T15:09:25Z</time>
      </trkpt>
      <trkpt lat="45.54223" lon="4.83723">
        <ele>150</ele>
        <time>2017-07-25T15:09:26Z</time>
      </trkpt>
      <trkpt lat="45.54203" lon="4.83781">
        <ele>151</ele>
        <time>2017-07-25T15:09:33Z</time>
      </trkpt>
      <trkpt lat="45.54179" lon="4.83855">
        <ele>153</ele>
        <time>2017-07-25T15:09:42Z</time>
      </trkpt>
      <trkpt lat="45.54173" lon="4.83877">
        <ele>153</ele>
        <time>2017-07-25T15:09:45Z</time>
      </trkpt>
      <trkpt lat="45.54168" lon="4.83893">
        <ele>153</ele>
        <time>2017-07-25T15:09:47Z</time>
      </trkpt>
      <trkpt lat="45.54152" lon="4.83959">
        <ele>153</ele>
        <time>2017-07-25T15:09:55Z</time>
      </trkpt>
      <trkpt lat="45.54148" lon="4.83974">
        <ele>152</ele>
        <time>2017-07-25T15:09:57Z</time>
      </trkpt>
      <trkpt lat="45.54144" lon="4.83997">
        <ele>151</ele>
        <time>2017-07-25T15:10:00Z</time>
      </trkpt>
      <trkpt lat="45.54139" lon="4.84025">
        <ele>150</ele>
        <time>2017-07-25T15:10:04Z</time>
      </trkpt>
      <trkpt lat="45.54137" lon="4.84034">
        <ele>151</ele>
        <time>2017-07-25T15:10:05Z</time>
      </trkpt>
      <trkpt lat="45.54129" lon="4.84068">
        <ele>151</ele>
        <time>2017-07-25T15:10:09Z</time>
      </trkpt>
      <trkpt lat="45.54126" lon="4.84077">
        <ele>151</ele>
        <time>2017-07-25T15:10:10Z</time>
      </trkpt>
      <trkpt lat="45.54114" lon="4.84128">
        <ele>152</ele>
        <time>2017-07-25T15:10:16Z</time>
      </trkpt>
      <trkpt lat="45.54107" lon="4.84163">
        <ele>153</ele>
        <time>2017-07-25T15:10:20Z</time>
      </trkpt>
      <trkpt lat="45.54104" lon="4.84172">
        <ele>153</ele>
        <time>2017-07-25T15:10:21Z</time>
      </trkpt>
      <trkpt lat="45.54086" lon="4.84239">
        <ele>154</ele>
        <time>2017-07-25T15:10:28Z</time>
      </trkpt>
      <trkpt lat="45.54069" lon="4.84314">
        <ele>157</ele>
        <time>2017-07-25T15:10:36Z</time>
      </trkpt>
      <trkpt lat="45.54063" lon="4.8434">
        <ele>156</ele>
        <time>2017-07-25T15:10:39Z</time>
      </trkpt>
      <trkpt lat="45.5406" lon="4.84356">
        <ele>156</ele>
        <time>2017-07-25T15:10:41Z</time>
      </trkpt>
      <trkpt lat="45.54057" lon="4.84372">
        <ele>155</ele>
        <time>2017-07-25T15:10:43Z</time>
      </trkpt>
      <trkpt lat="45.54051" lon="4.84405">
        <ele>154</ele>
        <time>2017-07-25T15:10:47Z</time>
      </trkpt>
      <trkpt lat="45.54049" lon="4.84414">
        <ele>154</ele>
        <time>2017-07-25T15:10:48Z</time>
      </trkpt>
      <trkpt lat="45.54048" lon="4.84423">
        <ele>152</ele>
        <time>2017-07-25T15:10:49Z</time>
      </trkpt>
      <trkpt lat="45.54047" lon="4.84432">
        <ele>152</ele>
        <time>2017-07-25T15:10:50Z</time>
      </trkpt>
      <trkpt lat="45.54046" lon="4.84441">
        <ele>152</ele>
        <time>2017-07-25T15:10:51Z</time>
      </trkpt>
      <trkpt lat="45.54045" lon="4.84451">
        <ele>152</ele>
        <time>2017-07-25T15:10:52Z</time>
      </trkpt>
      <trkpt lat="45.54042" lon="4.84469">
        <ele>152</ele>
        <time>2017-07-25T15:10:54Z</time>
      </trkpt>
      <trkpt lat="45.5403" lon="4.84546">
        <ele>151</ele>
        <time>2017-07-25T15:11:02Z</time>
      </trkpt>
      <trkpt lat="45.54023" lon="4.84604">
        <ele>151</ele>
        <time>2017-07-25T15:11:09Z</time>
      </trkpt>
      <trkpt lat="45.54014" lon="4.84681">
        <ele>153</ele>
        <time>2017-07-25T15:11:18Z</time>
      </trkpt>
      <trkpt lat="45.54011" lon="4.84716">
        <ele>153</ele>
        <time>2017-07-25T15:11:22Z</time>
      </trkpt>
      <trkpt lat="45.5401" lon="4.84725">
        <ele>154</ele>
        <time>2017-07-25T15:11:23Z</time>
      </trkpt>
      <trkpt lat="45.54004" lon="4.84778">
        <ele>153</ele>
        <time>2017-07-25T15:11:29Z</time>
      </trkpt>
      <trkpt lat="45.53998" lon="4.84832">
        <ele>153</ele>
        <time>2017-07-25T15:11:35Z</time>
      </trkpt>
      <trkpt lat="45.53991" lon="4.84902">
        <ele>150</ele>
        <time>2017-07-25T15:11:43Z</time>
      </trkpt>
      <trkpt lat="45.53986" lon="4.84961">
        <ele>150</ele>
        <time>2017-07-25T15:11:50Z</time>
      </trkpt>
      <trkpt lat="45.53964" lon="4.85138">
        <ele>151</ele>
        <time>2017-07-25T15:12:16Z</time>
      </trkpt>
      <trkpt lat="45.53959" lon="4.85198">
        <ele>151</ele>
        <time>2017-07-25T15:12:23Z</time>
      </trkpt>
      <trkpt lat="45.53952" lon="4.85273">
        <ele>149</ele>
        <time>2017-07-25T15:12:32Z</time>
      </trkpt>
      <trkpt lat="45.53947" lon="4.85322">
        <ele>149</ele>
        <time>2017-07-25T15:12:39Z</time>
      </trkpt>
      <trkpt lat="45.53926" lon="4.85454">
        <ele>151</ele>
        <time>2017-07-25T15:13:31Z</time>
      </trkpt>
      <trkpt lat="45.53918" lon="4.85483">
        <ele>151</ele>
        <time>2017-07-25T15:13:37Z</time>
      </trkpt>
      <trkpt lat="45.53906" lon="4.85483">
        <ele>152</ele>
        <time>2017-07-25T15:13:40Z</time>
      </trkpt>
      <trkpt lat="45.53888" lon="4.85478">
        <ele>153</ele>
        <time>2017-07-25T15:13:44Z</time>
      </trkpt>
      <trkpt lat="45.53883" lon="4.85477">
        <ele>153</ele>
        <time>2017-07-25T15:13:45Z</time>
      </trkpt>
      <trkpt lat="45.53871" lon="4.85474">
        <ele>153</ele>
        <time>2017-07-25T15:13:49Z</time>
      </trkpt>
      <trkpt lat="45.53852" lon="4.85469">
        <ele>153</ele>
        <time>2017-07-25T15:13:54Z</time>
      </trkpt>
      <trkpt lat="45.53836" lon="4.85466">
        <ele>153</ele>
        <time>2017-07-25T15:13:59Z</time>
      </trkpt>
      <trkpt lat="45.53831" lon="4.85469">
        <ele>156</ele>
        <time>2017-07-25T15:14:01Z</time>
      </trkpt>
      <trkpt lat="45.5383" lon="4.85474">
        <ele>156</ele>
        <time>2017-07-25T15:14:02Z</time>
      </trkpt>
      <trkpt lat="45.53827" lon="4.855">
        <ele>155</ele>
        <time>2017-07-25T15:14:06Z</time>
      </trkpt>
      <trkpt lat="45.53826" lon="4.85508">
        <ele>155</ele>
        <time>2017-07-25T15:14:07Z</time>
      </trkpt>
      <trkpt lat="45.53805" lon="4.85647">
        <ele>153</ele>
        <time>2017-07-25T15:16:53Z</time>
      </trkpt>
      <trkpt lat="45.53803" lon="4.85662">
        <ele>153</ele>
        <time>2017-07-25T15:16:55Z</time>
      </trkpt>
      <trkpt lat="45.53801" lon="4.85677">
        <ele>152</ele>
        <time>2017-07-25T15:16:57Z</time>
      </trkpt>
      <trkpt lat="45.53795" lon="4.85704">
        <ele>152</ele>
        <time>2017-07-25T15:17:01Z</time>
      </trkpt>
      <trkpt lat="45.53793" lon="4.85717">
        <ele>152</ele>
        <time>2017-07-25T15:17:03Z</time>
      </trkpt>
      <trkpt lat="45.53786" lon="4.85772">
        <ele>152</ele>
        <time>2017-07-25T15:17:10Z</time>
      </trkpt>
      <trkpt lat="45.53778" lon="4.85827">
        <ele>152</ele>
        <time>2017-07-25T15:17:17Z</time>
      </trkpt>
      <trkpt lat="45.53771" lon="4.85871">
        <ele>152</ele>
        <time>2017-07-25T15:17:23Z</time>
      </trkpt>
      <trkpt lat="45.53763" lon="4.85926">
        <ele>152</ele>
        <time>2017-07-25T15:17:30Z</time>
      </trkpt>
      <trkpt lat="45.53758" lon="4.85963">
        <ele>150</ele>
        <time>2017-07-25T15:17:35Z</time>
      </trkpt>
      <trkpt lat="45.53757" lon="4.85971">
        <ele>149</ele>
        <time>2017-07-25T15:17:36Z</time>
      </trkpt>
      <trkpt lat="45.5375" lon="4.86021">
        <ele>149</ele>
        <time>2017-07-25T15:17:42Z</time>
      </trkpt>
      <trkpt lat="45.5374" lon="4.86083">
        <ele>149</ele>
        <time>2017-07-25T15:17:49Z</time>
      </trkpt>
      <trkpt lat="45.53726" lon="4.86133">
        <ele>150</ele>
        <time>2017-07-25T15:17:55Z</time>
      </trkpt>
      <trkpt lat="45.53711" lon="4.86182">
        <ele>150</ele>
        <time>2017-07-25T15:18:01Z</time>
      </trkpt>
      <trkpt lat="45.53691" lon="4.86235">
        <ele>151</ele>
        <time>2017-07-25T15:18:08Z</time>
      </trkpt>
      <trkpt lat="45.53673" lon="4.8628">
        <ele>150</ele>
        <time>2017-07-25T15:18:14Z</time>
      </trkpt>
      <trkpt lat="45.53656" lon="4.86327">
        <ele>149</ele>
        <time>2017-07-25T15:18:20Z</time>
      </trkpt>
      <trkpt lat="45.53637" lon="4.86389">
        <ele>150</ele>
        <time>2017-07-25T15:18:27Z</time>
      </trkpt>
      <trkpt lat="45.53625" lon="4.86438">
        <ele>150</ele>
        <time>2017-07-25T15:18:33Z</time>
      </trkpt>
      <trkpt lat="45.53606" lon="4.86495">
        <ele>150</ele>
        <time>2017-07-25T15:18:40Z</time>
      </trkpt>
      <trkpt lat="45.53588" lon="4.86546">
        <ele>149</ele>
        <time>2017-07-25T15:18:46Z</time>
      </trkpt>
      <trkpt lat="45.5357" lon="4.86589">
        <ele>149</ele>
        <time>2017-07-25T15:18:52Z</time>
      </trkpt>
      <trkpt lat="45.53551" lon="4.86633">
        <ele>149</ele>
        <time>2017-07-25T15:18:58Z</time>
      </trkpt>
      <trkpt lat="45.53542" lon="4.86656">
        <ele>149</ele>
        <time>2017-07-25T15:19:01Z</time>
      </trkpt>
      <trkpt lat="45.53532" lon="4.86682">
        <ele>149</ele>
        <time>2017-07-25T15:19:04Z</time>
      </trkpt>
      <trkpt lat="45.53529" lon="4.86689">
        <ele>149</ele>
        <time>2017-07-25T15:19:05Z</time>
      </trkpt>
      <trkpt lat="45.53512" lon="4.86724">
        <ele>148</ele>
        <time>2017-07-25T15:19:09Z</time>
      </trkpt>
      <trkpt lat="45.53479" lon="4.86789">
        <ele>149</ele>
        <time>2017-07-25T15:19:17Z</time>
      </trkpt>
      <trkpt lat="45.5345" lon="4.86832">
        <ele>150</ele>
        <time>2017-07-25T15:19:23Z</time>
      </trkpt>
      <trkpt lat="45.53426" lon="4.86872">
        <ele>150</ele>
        <time>2017-07-25T15:19:29Z</time>
      </trkpt>
      <trkpt lat="45.534" lon="4.86905">
        <ele>150</ele>
        <time>2017-07-25T15:19:34Z</time>
      </trkpt>
      <trkpt lat="45.53377" lon="4.86939">
        <ele>150</ele>
        <time>2017-07-25T15:19:39Z</time>
      </trkpt>
      <trkpt lat="45.53341" lon="4.86989">
        <ele>151</ele>
        <time>2017-07-25T15:19:47Z</time>
      </trkpt>
      <trkpt lat="45.53306" lon="4.87028">
        <ele>151</ele>
        <time>2017-07-25T15:19:54Z</time>
      </trkpt>
      <trkpt lat="45.53264" lon="4.87066">
        <ele>150</ele>
        <time>2017-07-25T15:20:02Z</time>
      </trkpt>
      <trkpt lat="45.53237" lon="4.87089">
        <ele>149</ele>
        <time>2017-07-25T15:20:07Z</time>
      </trkpt>
      <trkpt lat="45.53226" lon="4.87097">
        <ele>149</ele>
        <time>2017-07-25T15:20:09Z</time>
      </trkpt>
      <trkpt lat="45.53194" lon="4.87124">
        <ele>149</ele>
        <time>2017-07-25T15:20:15Z</time>
      </trkpt>
      <trkpt lat="45.53184" lon="4.87132">
        <ele>149</ele>
        <time>2017-07-25T15:20:17Z</time>
      </trkpt>
      <trkpt lat="45.53166" lon="4.87146">
        <ele>150</ele>
        <time>2017-07-25T15:20:21Z</time>
      </trkpt>
      <trkpt lat="45.53138" lon="4.87162">
        <ele>151</ele>
        <time>2017-07-25T15:20:27Z</time>
      </trkpt>
      <trkpt lat="45.53127" lon="4.87165">
        <ele>151</ele>
        <time>2017-07-25T15:20:29Z</time>
      </trkpt>
      <trkpt lat="45.53105" lon="4.8717">
        <ele>151</ele>
        <time>2017-07-25T15:20:33Z</time>
      </trkpt>
      <trkpt lat="45.53074" lon="4.87172">
        <ele>152</ele>
        <time>2017-07-25T15:20:39Z</time>
      </trkpt>
      <trkpt lat="45.53065" lon="4.87172">
        <ele>152</ele>
        <time>2017-07-25T15:20:41Z</time>
      </trkpt>
      <trkpt lat="45.53051" lon="4.87171">
        <ele>152</ele>
        <time>2017-07-25T15:20:44Z</time>
      </trkpt>
      <trkpt lat="45.52907" lon="4.87141">
        <ele>153</ele>
        <time>2017-07-25T15:21:14Z</time>
      </trkpt>
      <trkpt lat="45.52885" lon="4.87135">
        <ele>153</ele>
        <time>2017-07-25T15:21:19Z</time>
      </trkpt>
      <trkpt lat="45.5288" lon="4.87134">
        <ele>153</ele>
        <time>2017-07-25T15:21:20Z</time>
      </trkpt>
      <trkpt lat="45.52849" lon="4.87121">
        <ele>152</ele>
        <time>2017-07-25T15:21:26Z</time>
      </trkpt>
      <trkpt lat="45.52827" lon="4.87108">
        <ele>151</ele>
        <time>2017-07-25T15:21:30Z</time>
      </trkpt>
      <trkpt lat="45.52778" lon="4.87074">
        <ele>152</ele>
        <time>2017-07-25T15:21:38Z</time>
      </trkpt>
      <trkpt lat="45.52745" lon="4.87054">
        <ele>151</ele>
        <time>2017-07-25T15:21:44Z</time>
      </trkpt>
      <trkpt lat="45.52709" lon="4.87029">
        <ele>152</ele>
        <time>2017-07-25T15:21:51Z</time>
      </trkpt>
      <trkpt lat="45.52675" lon="4.87009">
        <ele>154</ele>
        <time>2017-07-25T15:21:58Z</time>
      </trkpt>
      <trkpt lat="45.52655" lon="4.86994">
        <ele>154</ele>
        <time>2017-07-25T15:22:03Z</time>
      </trkpt>
      <trkpt lat="45.52648" lon="4.86989">
        <ele>154</ele>
        <time>2017-07-25T15:22:05Z</time>
      </trkpt>
      <trkpt lat="45.52638" lon="4.86977">
        <ele>154</ele>
        <time>2017-07-25T15:22:09Z</time>
      </trkpt>
      <trkpt lat="45.52548" lon="4.86907">
        <ele>154</ele>
      </trkpt>
    </trkseg>
  </trk>
  <trk>
    <name><![CDATA[20180415225359-J2UR7]]></name>
    <trkseg>
      <trkpt lat="45.52543" lon="4.86909">
        <ele>154</ele>
        <time>2013-04-23T12:07:21Z</time>
      </trkpt>
      <trkpt lat="45.52407" lon="4.86799">
        <ele>152</ele>
        <time>2013-04-23T12:09:37Z</time>
      </trkpt>
      <trkpt lat="45.5231" lon="4.86677">
        <ele>154</ele>
        <time>2013-04-23T12:10:06Z</time>
      </trkpt>
      <trkpt lat="45.52274" lon="4.86612">
        <ele>156</ele>
        <time>2013-04-23T12:10:19Z</time>
      </trkpt>
      <trkpt lat="45.51731" lon="4.86012">
        <ele>151</ele>
        <time>2013-04-23T12:13:10Z</time>
      </trkpt>
      <trkpt lat="45.51406" lon="4.85583">
        <ele>152</ele>
        <time>2013-04-23T12:14:33Z</time>
      </trkpt>
      <trkpt lat="45.5134" lon="4.85423">
        <ele>156</ele>
        <time>2013-04-23T12:15:01Z</time>
      </trkpt>
      <trkpt lat="45.51288" lon="4.85331">
        <ele>156</ele>
        <time>2013-04-23T12:15:19Z</time>
      </trkpt>
      <trkpt lat="45.51237" lon="4.85348">
        <ele>152</ele>
        <time>2013-04-23T12:15:39Z</time>
      </trkpt>
      <trkpt lat="45.51186" lon="4.85281">
        <ele>150</ele>
        <time>2013-04-23T12:17:58Z</time>
      </trkpt>
      <trkpt lat="45.50569" lon="4.84454">
        <ele>144</ele>
        <time>2013-04-23T12:21:29Z</time>
      </trkpt>
      <trkpt lat="45.50237" lon="4.84049">
        <ele>147</ele>
        <time>2013-04-23T12:22:51Z</time>
      </trkpt>
      <trkpt lat="45.50158" lon="4.83911">
        <ele>151</ele>
        <time>2013-04-23T12:23:15Z</time>
      </trkpt>
      <trkpt lat="45.50149" lon="4.83882">
        <ele>149</ele>
        <time>2013-04-23T12:23:20Z</time>
      </trkpt>
      <trkpt lat="45.5016" lon="4.83858">
        <ele>149</ele>
        <time>2013-04-23T12:23:24Z</time>
      </trkpt>
      <trkpt lat="45.50176" lon="4.83853">
        <ele>151</ele>
        <time>2013-04-23T12:23:30Z</time>
      </trkpt>
      <trkpt lat="45.50183" lon="4.83813">
        <ele>150</ele>
        <time>2013-04-23T12:23:38Z</time>
      </trkpt>
      <trkpt lat="45.50135" lon="4.83675">
        <ele>149</ele>
        <time>2013-04-23T12:24:01Z</time>
      </trkpt>
      <trkpt lat="45.50121" lon="4.83635">
        <ele>149</ele>
        <time>2013-04-23T12:24:08Z</time>
      </trkpt>
      <trkpt lat="45.50011" lon="4.83206">
        <ele>149</ele>
        <time>2013-04-23T12:32:17Z</time>
      </trkpt>
      <trkpt lat="45.49939" lon="4.83046">
        <ele>150</ele>
        <time>2013-04-23T12:32:45Z</time>
      </trkpt>
      <trkpt lat="45.49668" lon="4.82591">
        <ele>149</ele>
        <time>2013-04-23T12:34:28Z</time>
      </trkpt>
      <trkpt lat="45.49765" lon="4.82468">
        <ele>154</ele>
        <time>2013-04-23T12:35:13Z</time>
      </trkpt>
      <trkpt lat="45.49685" lon="4.82321">
        <ele>155</ele>
        <time>2013-04-23T12:35:46Z</time>
      </trkpt>
      <trkpt lat="45.49636" lon="4.82246">
        <ele>152</ele>
        <time>2013-04-23T12:35:59Z</time>
      </trkpt>
      <trkpt lat="45.49607" lon="4.82243">
        <ele>151</ele>
        <time>2013-04-23T12:36:32Z</time>
      </trkpt>
      <trkpt lat="45.4943" lon="4.82117">
        <ele>146</ele>
        <time>2013-04-23T12:39:48Z</time>
      </trkpt>
      <trkpt lat="45.49317" lon="4.82009">
        <ele>148</ele>
        <time>2013-04-23T12:40:23Z</time>
      </trkpt>
      <trkpt lat="45.49312" lon="4.82006">
        <ele>148</ele>
        <time>2013-04-23T12:40:42Z</time>
      </trkpt>
      <trkpt lat="45.49265" lon="4.8193">
        <ele>150</ele>
        <time>2013-04-23T12:41:01Z</time>
      </trkpt>
      <trkpt lat="45.48975" lon="4.81714">
        <ele>148</ele>
        <time>2013-04-23T12:42:10Z</time>
      </trkpt>
      <trkpt lat="45.48793" lon="4.8154">
        <ele>149</ele>
        <time>2013-04-23T12:43:23Z</time>
      </trkpt>
      <trkpt lat="45.48699" lon="4.81466">
        <ele>152</ele>
        <time>2013-04-23T13:07:04Z</time>
      </trkpt>
      <trkpt lat="45.48645" lon="4.81359">
        <ele>150</ele>
        <time>2013-04-23T13:07:21Z</time>
      </trkpt>
      <trkpt lat="45.48616" lon="4.813">
        <ele>150</ele>
        <time>2013-04-23T13:07:30Z</time>
      </trkpt>
      <trkpt lat="45.48597" lon="4.81249">
        <ele>150</ele>
        <time>2013-04-23T13:07:38Z</time>
      </trkpt>
      <trkpt lat="45.48682" lon="4.81146">
        <ele>151</ele>
        <time>2013-04-23T13:07:58Z</time>
      </trkpt>
      <trkpt lat="45.48637" lon="4.81041">
        <ele>151</ele>
        <time>2013-04-23T13:08:14Z</time>
      </trkpt>
      <trkpt lat="45.48636" lon="4.80952">
        <ele>150</ele>
        <time>2013-04-23T13:08:25Z</time>
      </trkpt>
      <trkpt lat="45.48656" lon="4.80756">
        <ele>149</ele>
        <time>2013-04-23T13:08:47Z</time>
      </trkpt>
      <trkpt lat="45.48642" lon="4.80672">
        <ele>148</ele>
        <time>2013-04-23T13:08:57Z</time>
      </trkpt>
      <trkpt lat="45.48448" lon="4.80095">
        <ele>147</ele>
        <time>2013-04-23T13:10:18Z</time>
      </trkpt>
      <trkpt lat="45.48329" lon="4.79843">
        <ele>146</ele>
        <time>2013-04-23T13:11:03Z</time>
      </trkpt>
      <trkpt lat="45.48377" lon="4.79446">
        <ele>150</ele>
        <time>2013-04-23T13:12:05Z</time>
      </trkpt>
      <trkpt lat="45.48334" lon="4.79246">
        <ele>151</ele>
        <time>2013-04-23T13:12:37Z</time>
      </trkpt>
      <trkpt lat="45.48284" lon="4.78871">
        <ele>152</ele>
        <time>2013-04-23T13:13:29Z</time>
      </trkpt>
      <trkpt lat="45.48057" lon="4.78827">
        <ele>146</ele>
        <time>2013-04-23T13:15:07Z</time>
      </trkpt>
      <trkpt lat="45.48078" lon="4.78725">
        <ele>147</ele>
        <time>2013-04-23T13:15:20Z</time>
      </trkpt>
      <trkpt lat="45.48067" lon="4.78632">
        <ele>149</ele>
        <time>2013-04-23T13:15:32Z</time>
      </trkpt>
      <trkpt lat="45.48045" lon="4.78566">
        <ele>148</ele>
        <time>2013-04-23T13:15:41Z</time>
      </trkpt>
      <trkpt lat="45.47946" lon="4.78422">
        <ele>148</ele>
        <time>2013-04-23T13:16:09Z</time>
      </trkpt>
      <trkpt lat="45.47959" lon="4.78369">
        <ele>150</ele>
        <time>2013-04-23T13:18:25Z</time>
      </trkpt>
      <trkpt lat="45.47934" lon="4.78304">
        <ele>153</ele>
        <time>2013-04-23T13:18:37Z</time>
      </trkpt>
      <trkpt lat="45.47847" lon="4.7824">
        <ele>151</ele>
        <time>2013-04-23T13:18:56Z</time>
      </trkpt>
      <trkpt lat="45.47677" lon="4.78188">
        <ele>148</ele>
        <time>2013-04-23T13:19:27Z</time>
      </trkpt>
      <trkpt lat="45.47667" lon="4.78174">
        <ele>147</ele>
        <time>2013-04-23T13:19:30Z</time>
      </trkpt>
      <trkpt lat="45.47671" lon="4.78101">
        <ele>151</ele>
        <time>2013-04-23T13:19:40Z</time>
      </trkpt>
      <trkpt lat="45.47641" lon="4.78075">
        <ele>154</ele>
        <time>2013-04-23T13:19:47Z</time>
      </trkpt>
      <trkpt lat="45.47426" lon="4.77929">
        <ele>154</ele>
        <time>2013-04-23T13:21:07Z</time>
      </trkpt>
      <trkpt lat="45.47226" lon="4.77819">
        <ele>152</ele>
        <time>2013-04-23T13:23:13Z</time>
      </trkpt>
      <trkpt lat="45.47139" lon="4.77755">
        <ele>149</ele>
        <time>2013-04-23T13:23:25Z</time>
      </trkpt>
      <trkpt lat="45.47091" lon="4.77786">
        <ele>148</ele>
        <time>2013-04-23T13:23:34Z</time>
      </trkpt>
      <trkpt lat="45.47079" lon="4.77787">
        <ele>148</ele>
        <time>2013-04-23T13:23:38Z</time>
      </trkpt>
      <trkpt lat="45.47062" lon="4.77754">
        <ele>148</ele>
        <time>2013-04-23T13:24:38Z</time>
      </trkpt>
      <trkpt lat="45.46969" lon="4.77858">
        <ele>146</ele>
        <time>2013-04-23T13:25:28Z</time>
      </trkpt>
      <trkpt lat="45.4675" lon="4.77892">
        <ele>144</ele>
        <time>2013-04-23T13:26:20Z</time>
      </trkpt>
      <trkpt lat="45.46598" lon="4.77717">
        <ele>146</ele>
        <time>2013-04-23T13:27:48Z</time>
      </trkpt>
      <trkpt lat="45.46499" lon="4.77865">
        <ele>148</ele>
        <time>2013-04-23T13:28:37Z</time>
      </trkpt>
      <trkpt lat="45.46485" lon="4.77934">
        <ele>146</ele>
        <time>2013-04-23T13:28:51Z</time>
      </trkpt>
      <trkpt lat="45.46461" lon="4.77941">
        <ele>146</ele>
        <time>2013-04-23T13:29:00Z</time>
      </trkpt>
      <trkpt lat="45.46376" lon="4.77917">
        <ele>146</ele>
        <time>2013-04-23T13:29:19Z</time>
      </trkpt>
      <trkpt lat="45.46278" lon="4.77861">
        <ele>146</ele>
        <time>2013-04-23T13:29:40Z</time>
      </trkpt>
      <trkpt lat="45.46133" lon="4.77717">
        <ele>147</ele>
        <time>2013-04-23T13:30:13Z</time>
      </trkpt>
      <trkpt lat="45.46052" lon="4.77658">
        <ele>147</ele>
        <time>2013-04-23T13:30:29Z</time>
      </trkpt>
      <trkpt lat="45.46018" lon="4.77455">
        <ele>146</ele>
        <time>2013-04-23T13:31:01Z</time>
      </trkpt>
      <trkpt lat="45.45928" lon="4.77215">
        <ele>146</ele>
        <time>2013-04-23T13:31:53Z</time>
      </trkpt>
      <trkpt lat="45.45812" lon="4.77129">
        <ele>145</ele>
        <time>2013-04-23T13:32:36Z</time>
      </trkpt>
      <trkpt lat="45.45783" lon="4.77086">
        <ele>144</ele>
        <time>2013-04-23T13:32:49Z</time>
      </trkpt>
      <trkpt lat="45.45793" lon="4.76944">
        <ele>145</ele>
        <time>2013-04-23T13:33:45Z</time>
      </trkpt>
      <trkpt lat="45.45783" lon="4.76811">
        <ele>145</ele>
        <time>2013-04-23T13:35:54Z</time>
      </trkpt>
      <trkpt lat="45.45829" lon="4.765">
        <ele>147</ele>
        <time>2013-04-23T13:37:47Z</time>
      </trkpt>
      <trkpt lat="45.45794" lon="4.76163">
        <ele>143</ele>
        <time>2013-04-23T13:40:31Z</time>
      </trkpt>
      <trkpt lat="45.45824" lon="4.76161">
        <ele>145</ele>
        <time>2013-04-23T13:41:47Z</time>
      </trkpt>
      <trkpt lat="45.4587" lon="4.7608">
        <ele>146</ele>
        <time>2013-04-23T13:42:17Z</time>
      </trkpt>
      <trkpt lat="45.4583" lon="4.75986">
        <ele>146</ele>
        <time>2013-04-23T13:42:44Z</time>
      </trkpt>
      <trkpt lat="45.45762" lon="4.75991">
        <ele>145</ele>
        <time>2013-04-23T13:43:16Z</time>
      </trkpt>
      <trkpt lat="45.45715" lon="4.75935">
        <ele>144</ele>
        <time>2013-04-23T13:44:02Z</time>
      </trkpt>
      <trkpt lat="45.45674" lon="4.75738">
        <ele>146</ele>
        <time>2013-04-23T13:44:40Z</time>
      </trkpt>
      <trkpt lat="45.45591" lon="4.75531">
        <ele>146</ele>
        <time>2013-04-23T13:45:25Z</time>
      </trkpt>
      <trkpt lat="45.45544" lon="4.75471">
        <ele>146</ele>
        <time>2013-04-23T13:45:40Z</time>
      </trkpt>
      <trkpt lat="45.45496" lon="4.75436">
        <ele>144</ele>
        <time>2013-04-23T13:45:52Z</time>
      </trkpt>
      <trkpt lat="45.4542" lon="4.75419">
        <ele>142</ele>
        <time>2013-04-23T13:46:13Z</time>
      </trkpt>
      <trkpt lat="45.45011" lon="4.75373">
        <ele>144</ele>
        <time>2013-04-23T13:47:42Z</time>
      </trkpt>
      <trkpt lat="45.44831" lon="4.75374">
        <ele>136</ele>
        <time>2013-04-23T13:48:17Z</time>
      </trkpt>
      <trkpt lat="45.44655" lon="4.75422">
        <ele>143</ele>
        <time>2013-04-23T13:48:49Z</time>
      </trkpt>
      <trkpt lat="45.44498" lon="4.75491">
        <ele>141</ele>
        <time>2013-04-23T13:49:54Z</time>
      </trkpt>
      <trkpt lat="45.44392" lon="4.75499">
        <ele>146</ele>
        <time>2013-04-23T13:50:11Z</time>
      </trkpt>
      <trkpt lat="45.44292" lon="4.75564">
        <ele>144</ele>
        <time>2013-04-23T13:50:27Z</time>
      </trkpt>
      <trkpt lat="45.44151" lon="4.75534">
        <ele>147</ele>
        <time>2013-04-23T13:50:51Z</time>
      </trkpt>
      <trkpt lat="45.44126" lon="4.75552">
        <ele>148</ele>
        <time>2013-04-23T13:50:56Z</time>
      </trkpt>
      <trkpt lat="45.44069" lon="4.75653">
        <ele>146</ele>
        <time>2013-04-23T13:51:18Z</time>
      </trkpt>
      <trkpt lat="45.44018" lon="4.75676">
        <ele>143</ele>
        <time>2013-04-23T13:51:32Z</time>
      </trkpt>
      <trkpt lat="45.43831" lon="4.75645">
        <ele>147</ele>
        <time>2013-04-23T13:52:03Z</time>
      </trkpt>
      <trkpt lat="45.43755" lon="4.7568">
        <ele>148</ele>
        <time>2013-04-23T13:52:16Z</time>
      </trkpt>
      <trkpt lat="45.43675" lon="4.75753">
        <ele>146</ele>
        <time>2013-04-23T13:52:32Z</time>
      </trkpt>
      <trkpt lat="45.43587" lon="4.75755">
        <ele>145</ele>
        <time>2013-04-23T13:52:46Z</time>
      </trkpt>
      <trkpt lat="45.43501" lon="4.75729">
        <ele>144</ele>
        <time>2013-04-23T13:52:59Z</time>
      </trkpt>
      <trkpt lat="45.43446" lon="4.75697">
        <ele>143</ele>
        <time>2013-04-23T13:53:09Z</time>
      </trkpt>
      <trkpt lat="45.43398" lon="4.75631">
        <ele>144</ele>
        <time>2013-04-23T13:53:21Z</time>
      </trkpt>
      <trkpt lat="45.43257" lon="4.75537">
        <ele>145</ele>
        <time>2013-04-23T13:53:50Z</time>
      </trkpt>
      <trkpt lat="45.4316" lon="4.75441">
        <ele>143</ele>
        <time>2013-04-23T13:54:43Z</time>
      </trkpt>
      <trkpt lat="45.42931" lon="4.7509">
        <ele>142</ele>
        <time>2013-04-23T13:55:51Z</time>
      </trkpt>
      <trkpt lat="45.42289" lon="4.74311">
        <ele>141</ele>
        <time>2013-04-23T13:58:01Z</time>
      </trkpt>
      <trkpt lat="45.42212" lon="4.74233">
        <ele>143</ele>
        <time>2013-04-23T13:58:15Z</time>
      </trkpt>
      <trkpt lat="45.42092" lon="4.74147">
        <ele>147</ele>
        <time>2013-04-23T13:58:35Z</time>
      </trkpt>
      <trkpt lat="45.41873" lon="4.74054">
        <ele>141</ele>
        <time>2013-04-23T13:59:09Z</time>
      </trkpt>
      <trkpt lat="45.41631" lon="4.7401">
        <ele>144</ele>
        <time>2013-04-23T13:59:47Z</time>
      </trkpt>
      <trkpt lat="45.41494" lon="4.74015">
        <ele>144</ele>
        <time>2013-04-23T14:00:10Z</time>
      </trkpt>
      <trkpt lat="45.4148" lon="4.74">
        <ele>144</ele>
        <time>2013-04-23T14:00:13Z</time>
      </trkpt>
      <trkpt lat="45.41444" lon="4.73767">
        <ele>146</ele>
        <time>2013-04-23T14:00:45Z</time>
      </trkpt>
      <trkpt lat="45.41421" lon="4.7375">
        <ele>146</ele>
        <time>2013-04-23T14:00:53Z</time>
      </trkpt>
      <trkpt lat="45.41406" lon="4.73765">
        <ele>145</ele>
        <time>2013-04-23T14:01:01Z</time>
      </trkpt>
      <trkpt lat="45.41423" lon="4.73866">
        <ele>145</ele>
        <time>2013-04-23T14:01:15Z</time>
      </trkpt>
      <trkpt lat="45.41421" lon="4.7398">
        <ele>143</ele>
        <time>2013-04-23T14:01:29Z</time>
      </trkpt>
      <trkpt lat="45.41399" lon="4.74027">
        <ele>142</ele>
        <time>2013-04-23T14:01:38Z</time>
      </trkpt>
      <trkpt lat="45.41236" lon="4.74057">
        <ele>143</ele>
        <time>2013-04-23T14:02:08Z</time>
      </trkpt>
      <trkpt lat="45.41221" lon="4.74007">
        <ele>142</ele>
        <time>2013-04-23T14:02:15Z</time>
      </trkpt>
      <trkpt lat="45.41202" lon="4.73995">
        <ele>141</ele>
        <time>2013-04-23T14:02:19Z</time>
      </trkpt>
      <trkpt lat="45.41019" lon="4.74042">
        <ele>140</ele>
        <time>2013-04-23T14:02:49Z</time>
      </trkpt>
      <trkpt lat="45.40817" lon="4.74149">
        <ele>141</ele>
        <time>2013-04-23T14:03:22Z</time>
      </trkpt>
      <trkpt lat="45.40511" lon="4.74359">
        <ele>141</ele>
        <time>2013-04-23T14:04:14Z</time>
      </trkpt>
      <trkpt lat="45.40103" lon="4.74756">
        <ele>142</ele>
        <time>2013-04-23T14:05:34Z</time>
      </trkpt>
      <trkpt lat="45.40108" lon="4.74828">
        <ele>142</ele>
        <time>2013-04-23T14:05:44Z</time>
      </trkpt>
      <trkpt lat="45.40071" lon="4.74888">
        <ele>139</ele>
        <time>2013-04-23T14:05:56Z</time>
      </trkpt>
      <trkpt lat="45.39735" lon="4.75192">
        <ele>141</ele>
        <time>2013-04-23T14:07:07Z</time>
      </trkpt>
      <trkpt lat="45.39633" lon="4.75229">
        <ele>142</ele>
        <time>2013-04-23T14:07:25Z</time>
      </trkpt>
      <trkpt lat="45.39574" lon="4.75269">
        <ele>142</ele>
        <time>2013-04-23T14:07:36Z</time>
      </trkpt>
      <trkpt lat="45.39534" lon="4.75317">
        <ele>142</ele>
        <time>2013-04-23T14:07:45Z</time>
      </trkpt>
      <trkpt lat="45.3934" lon="4.75391">
        <ele>142</ele>
        <time>2013-04-23T14:08:19Z</time>
      </trkpt>
      <trkpt lat="45.39246" lon="4.75461">
        <ele>140</ele>
        <time>2013-04-23T14:08:37Z</time>
      </trkpt>
      <trkpt lat="45.39127" lon="4.75483">
        <ele>141</ele>
        <time>2013-04-23T14:08:59Z</time>
      </trkpt>
      <trkpt lat="45.39007" lon="4.75548">
        <ele>140</ele>
        <time>2013-04-23T14:09:21Z</time>
      </trkpt>
      <trkpt lat="45.38695" lon="4.75599">
        <ele>141</ele>
        <time>2013-04-23T14:10:14Z</time>
      </trkpt>
      <trkpt lat="45.38508" lon="4.7556">
        <ele>140</ele>
        <time>2013-04-23T14:10:46Z</time>
      </trkpt>
      <trkpt lat="45.38303" lon="4.75427">
        <ele>139</ele>
        <time>2013-04-23T14:11:24Z</time>
      </trkpt>
      <trkpt lat="45.3827" lon="4.75421">
        <ele>139</ele>
        <time>2013-04-23T14:11:30Z</time>
      </trkpt>
      <trkpt lat="45.3814" lon="4.75523">
        <ele>141</ele>
        <time>2013-04-23T14:12:02Z</time>
      </trkpt>
      <trkpt lat="45.38132" lon="4.75629">
        <ele>140</ele>
        <time>2013-04-23T14:13:19Z</time>
      </trkpt>
      <trkpt lat="45.38111" lon="4.75587">
        <ele>141</ele>
        <time>2013-04-23T14:14:03Z</time>
      </trkpt>
      <trkpt lat="45.38085" lon="4.75666">
        <ele>139</ele>
        <time>2013-04-23T14:14:52Z</time>
      </trkpt>
      <trkpt lat="45.38037" lon="4.75953">
        <ele>145</ele>
        <time>2013-04-23T14:16:22Z</time>
      </trkpt>
      <trkpt lat="45.38019" lon="4.75988">
        <ele>145</ele>
        <time>2013-04-23T14:16:27Z</time>
      </trkpt>
      <trkpt lat="45.37998" lon="4.76013">
        <ele>145</ele>
        <time>2013-04-23T14:16:31Z</time>
      </trkpt>
      <trkpt lat="45.37558" lon="4.76275">
        <ele>142</ele>
        <time>2013-04-23T14:17:37Z</time>
      </trkpt>
      <trkpt lat="45.37281" lon="4.7648">
        <ele>139</ele>
        <time>2013-04-23T14:18:22Z</time>
      </trkpt>
      <trkpt lat="45.35697" lon="4.77922">
        <ele>137</ele>
        <time>2013-04-23T14:23:48Z</time>
      </trkpt>
      <trkpt lat="45.35509" lon="4.78058">
        <ele>138</ele>
        <time>2013-04-23T14:24:26Z</time>
      </trkpt>
      <trkpt lat="45.35338" lon="4.78137">
        <ele>136</ele>
        <time>2013-04-23T14:25:01Z</time>
      </trkpt>
      <trkpt lat="45.35298" lon="4.78208">
        <ele>139</ele>
        <time>2013-04-23T14:25:20Z</time>
      </trkpt>
      <trkpt lat="45.35274" lon="4.78216">
        <ele>140</ele>
        <time>2013-04-23T14:25:25Z</time>
      </trkpt>
      <trkpt lat="45.35233" lon="4.78177">
        <ele>140</ele>
        <time>2013-04-23T14:25:34Z</time>
      </trkpt>
      <trkpt lat="45.35184" lon="4.78175">
        <ele>140</ele>
        <time>2013-04-23T14:25:44Z</time>
      </trkpt>
      <trkpt lat="45.34092" lon="4.78346">
        <ele>142</ele>
        <time>2013-04-23T14:28:49Z</time>
      </trkpt>
      <trkpt lat="45.34065" lon="4.78357">
        <ele>143</ele>
        <time>2013-04-23T14:28:55Z</time>
      </trkpt>
      <trkpt lat="45.34046" lon="4.78432">
        <ele>142</ele>
        <time>2013-04-23T14:29:11Z</time>
      </trkpt>
      <trkpt lat="45.34017" lon="4.78451">
        <ele>141</ele>
        <time>2013-04-23T14:29:59Z</time>
      </trkpt>
      <trkpt lat="45.33987" lon="4.78429">
        <ele>142</ele>
        <time>2013-04-23T14:30:50Z</time>
      </trkpt>
      <trkpt lat="45.33978" lon="4.78374">
        <ele>142</ele>
        <time>2013-04-23T14:30:57Z</time>
      </trkpt>
      <trkpt lat="45.33962" lon="4.78364">
        <ele>141</ele>
        <time>2013-04-23T14:31:00Z</time>
      </trkpt>
      <trkpt lat="45.32962" lon="4.78526">
        <ele>138</ele>
        <time>2013-04-23T14:33:58Z</time>
      </trkpt>
      <trkpt lat="45.32958" lon="4.7852">
        <ele>138</ele>
        <time>2013-04-23T14:34:03Z</time>
      </trkpt>
      <trkpt lat="45.32885" lon="4.78373">
        <ele>138</ele>
        <time>2013-04-23T14:34:53Z</time>
      </trkpt>
      <trkpt lat="45.3282" lon="4.78142">
        <ele>137</ele>
        <time>2013-04-23T14:40:52Z</time>
      </trkpt>
      <trkpt lat="45.32805" lon="4.7789">
        <ele>138</ele>
        <time>2013-04-23T14:41:29Z</time>
      </trkpt>
      <trkpt lat="45.32865" lon="4.77358">
        <ele>137</ele>
        <time>2013-04-23T14:42:42Z</time>
      </trkpt>
      <trkpt lat="45.32836" lon="4.77166">
        <ele>136</ele>
        <time>2013-04-23T14:43:09Z</time>
      </trkpt>
      <trkpt lat="45.32965" lon="4.77162">
        <ele>136</ele>
        <time>2013-04-23T14:43:37Z</time>
      </trkpt>
      <trkpt lat="45.33002" lon="4.76972">
        <ele>137</ele>
        <time>2013-04-23T14:44:10Z</time>
      </trkpt>
      <trkpt lat="45.32787" lon="4.76798">
        <ele>137</ele>
        <time>2013-04-23T14:44:58Z</time>
      </trkpt>
      <trkpt lat="45.32731" lon="4.76719">
        <ele>139</ele>
        <time>2013-04-23T14:46:05Z</time>
      </trkpt>
      <trkpt lat="45.32604" lon="4.76769">
        <ele>137</ele>
        <time>2013-04-23T14:46:36Z</time>
      </trkpt>
      <trkpt lat="45.32437" lon="4.76801">
        <ele>137</ele>
        <time>2013-04-23T14:47:09Z</time>
      </trkpt>
      <trkpt lat="45.32033" lon="4.76753">
        <ele>137</ele>
        <time>2013-04-23T14:48:29Z</time>
      </trkpt>
      <trkpt lat="45.32004" lon="4.76762">
        <ele>136</ele>
        <time>2013-04-23T14:48:35Z</time>
      </trkpt>
      <trkpt lat="45.31952" lon="4.76829">
        <ele>136</ele>
        <time>2013-04-23T14:48:51Z</time>
      </trkpt>
      <trkpt lat="45.31932" lon="4.76832">
        <ele>136</ele>
        <time>2013-04-23T14:49:05Z</time>
      </trkpt>
      <trkpt lat="45.31936" lon="4.76817">
        <ele>136</ele>
        <time>2013-04-23T14:49:17Z</time>
      </trkpt>
      <trkpt lat="45.31881" lon="4.76813">
        <ele>138</ele>
      </trkpt>
    </trkseg>
  </trk>
  <trk>
    <name><![CDATA[20180415225359-J2UR7]]></name>
    <trkseg>
      <trkpt lat="45.31881" lon="4.76821">
        <ele>138</ele>
        <time>2013-04-23T14:55:19Z</time>
      </trkpt>
      <trkpt lat="45.31878" lon="4.76837">
        <ele>139</ele>
        <time>2013-04-23T14:55:20Z</time>
      </trkpt>
      <trkpt lat="45.31872" lon="4.76849">
        <ele>139</ele>
        <time>2013-04-23T14:55:21Z</time>
      </trkpt>
      <trkpt lat="45.31868" lon="4.7686">
        <ele>139</ele>
        <time>2013-04-23T14:55:25Z</time>
      </trkpt>
      <trkpt lat="45.31858" lon="4.76872">
        <ele>139</ele>
        <time>2013-04-23T14:55:32Z</time>
      </trkpt>
      <trkpt lat="45.31841" lon="4.76887">
        <ele>139</ele>
        <time>2013-04-23T14:55:40Z</time>
      </trkpt>
      <trkpt lat="45.31833" lon="4.76902">
        <ele>139</ele>
        <time>2013-04-23T14:55:46Z</time>
      </trkpt>
      <trkpt lat="45.31824" lon="4.76918">
        <ele>138</ele>
        <time>2013-04-23T14:55:51Z</time>
      </trkpt>
      <trkpt lat="45.31809" lon="4.76946">
        <ele>137</ele>
        <time>2013-04-23T14:55:58Z</time>
      </trkpt>
      <trkpt lat="45.31781" lon="4.77">
        <ele>136</ele>
        <time>2013-04-23T14:56:58Z</time>
      </trkpt>
      <trkpt lat="45.31773" lon="4.77017">
        <ele>136</ele>
        <time>2013-04-23T14:57:04Z</time>
      </trkpt>
      <trkpt lat="45.31758" lon="4.77041">
        <ele>136</ele>
        <time>2013-04-23T14:57:11Z</time>
      </trkpt>
      <trkpt lat="45.31741" lon="4.77072">
        <ele>136</ele>
        <time>2013-04-23T14:57:18Z</time>
      </trkpt>
      <trkpt lat="45.3172" lon="4.77109">
        <ele>136</ele>
        <time>2013-04-23T14:57:27Z</time>
      </trkpt>
      <trkpt lat="45.31706" lon="4.7713">
        <ele>136</ele>
        <time>2013-04-23T14:57:32Z</time>
      </trkpt>
      <trkpt lat="45.31703" lon="4.77134">
        <ele>136</ele>
        <time>2013-04-23T14:57:33Z</time>
      </trkpt>
      <trkpt lat="45.3168" lon="4.77175">
        <ele>136</ele>
        <time>2013-04-23T14:57:42Z</time>
      </trkpt>
      <trkpt lat="45.31664" lon="4.77212">
        <ele>137</ele>
        <time>2013-04-23T14:57:50Z</time>
      </trkpt>
      <trkpt lat="45.31647" lon="4.77243">
        <ele>137</ele>
        <time>2013-04-23T14:57:57Z</time>
      </trkpt>
      <trkpt lat="45.31624" lon="4.77281">
        <ele>137</ele>
        <time>2013-04-23T14:58:05Z</time>
      </trkpt>
      <trkpt lat="45.31599" lon="4.77326">
        <ele>137</ele>
        <time>2013-04-23T14:58:14Z</time>
      </trkpt>
      <trkpt lat="45.31575" lon="4.77367">
        <ele>137</ele>
        <time>2013-04-23T14:58:22Z</time>
      </trkpt>
      <trkpt lat="45.3155" lon="4.7741">
        <ele>137</ele>
        <time>2013-04-23T14:58:30Z</time>
      </trkpt>
      <trkpt lat="45.3152" lon="4.77461">
        <ele>137</ele>
        <time>2013-04-23T14:58:39Z</time>
      </trkpt>
      <trkpt lat="45.31517" lon="4.77467">
        <ele>137</ele>
        <time>2013-04-23T14:58:40Z</time>
      </trkpt>
      <trkpt lat="45.31492" lon="4.7751">
        <ele>137</ele>
        <time>2013-04-23T14:58:48Z</time>
      </trkpt>
      <trkpt lat="45.31428" lon="4.77624">
        <ele>137</ele>
        <time>2013-04-23T14:59:53Z</time>
      </trkpt>
      <trkpt lat="45.31417" lon="4.77643">
        <ele>137</ele>
        <time>2013-04-23T14:59:57Z</time>
      </trkpt>
      <trkpt lat="45.31413" lon="4.77655">
        <ele>137</ele>
        <time>2013-04-23T14:59:59Z</time>
      </trkpt>
      <trkpt lat="45.31397" lon="4.77708">
        <ele>137</ele>
        <time>2013-04-23T15:00:08Z</time>
      </trkpt>
      <trkpt lat="45.31384" lon="4.77752">
        <ele>137</ele>
        <time>2013-04-23T15:00:16Z</time>
      </trkpt>
      <trkpt lat="45.31369" lon="4.77792">
        <ele>137</ele>
        <time>2013-04-23T15:00:25Z</time>
      </trkpt>
      <trkpt lat="45.31365" lon="4.77804">
        <ele>137</ele>
        <time>2013-04-23T15:00:49Z</time>
      </trkpt>
      <trkpt lat="45.31355" lon="4.7782">
        <ele>137</ele>
        <time>2013-04-23T15:00:53Z</time>
      </trkpt>
      <trkpt lat="45.31349" lon="4.77827">
        <ele>137</ele>
        <time>2013-04-23T15:00:55Z</time>
      </trkpt>
      <trkpt lat="45.3134" lon="4.77837">
        <ele>137</ele>
        <time>2013-04-23T15:00:58Z</time>
      </trkpt>
      <trkpt lat="45.31321" lon="4.77853">
        <ele>137</ele>
        <time>2013-04-23T15:01:04Z</time>
      </trkpt>
      <trkpt lat="45.31298" lon="4.77874">
        <ele>137</ele>
        <time>2013-04-23T15:01:12Z</time>
      </trkpt>
      <trkpt lat="45.31296" lon="4.77886">
        <ele>137</ele>
        <time>2013-04-23T15:01:16Z</time>
      </trkpt>
      <trkpt lat="45.31303" lon="4.77906">
        <ele>137</ele>
        <time>2013-04-23T15:01:22Z</time>
      </trkpt>
      <trkpt lat="45.31296" lon="4.77932">
        <ele>137</ele>
        <time>2013-04-23T15:01:25Z</time>
      </trkpt>
      <trkpt lat="45.31293" lon="4.77936">
        <ele>137</ele>
        <time>2013-04-23T15:01:26Z</time>
      </trkpt>
      <trkpt lat="45.31279" lon="4.77955">
        <ele>137</ele>
        <time>2013-04-23T15:01:31Z</time>
      </trkpt>
      <trkpt lat="45.31257" lon="4.77987">
        <ele>136</ele>
        <time>2013-04-23T15:01:38Z</time>
      </trkpt>
      <trkpt lat="45.31234" lon="4.78019">
        <ele>138</ele>
        <time>2013-04-23T15:01:45Z</time>
      </trkpt>
      <trkpt lat="45.31206" lon="4.7806">
        <ele>139</ele>
        <time>2013-04-23T15:01:54Z</time>
      </trkpt>
      <trkpt lat="45.312" lon="4.78079">
        <ele>139</ele>
        <time>2013-04-23T15:01:57Z</time>
      </trkpt>
      <trkpt lat="45.31194" lon="4.78096">
        <ele>138</ele>
        <time>2013-04-23T15:02:00Z</time>
      </trkpt>
      <trkpt lat="45.31187" lon="4.78125">
        <ele>138</ele>
        <time>2013-04-23T15:02:33Z</time>
      </trkpt>
      <trkpt lat="45.31179" lon="4.78151">
        <ele>138</ele>
        <time>2013-04-23T15:02:39Z</time>
      </trkpt>
      <trkpt lat="45.31173" lon="4.7817">
        <ele>138</ele>
        <time>2013-04-23T15:04:08Z</time>
      </trkpt>
      <trkpt lat="45.3116" lon="4.78211">
        <ele>137</ele>
        <time>2013-04-23T15:04:16Z</time>
      </trkpt>
      <trkpt lat="45.31145" lon="4.78251">
        <ele>136</ele>
        <time>2013-04-23T15:04:23Z</time>
      </trkpt>
      <trkpt lat="45.31134" lon="4.78289">
        <ele>136</ele>
        <time>2013-04-23T15:04:29Z</time>
      </trkpt>
      <trkpt lat="45.3113" lon="4.783">
        <ele>135</ele>
        <time>2013-04-23T15:04:31Z</time>
      </trkpt>
      <trkpt lat="45.31127" lon="4.78312">
        <ele>135</ele>
        <time>2013-04-23T15:04:33Z</time>
      </trkpt>
      <trkpt lat="45.31118" lon="4.78339">
        <ele>135</ele>
        <time>2013-04-23T15:04:38Z</time>
      </trkpt>
      <trkpt lat="45.31113" lon="4.78357">
        <ele>135</ele>
        <time>2013-04-23T15:04:41Z</time>
      </trkpt>
      <trkpt lat="45.31107" lon="4.78376">
        <ele>135</ele>
        <time>2013-04-23T15:04:44Z</time>
      </trkpt>
      <trkpt lat="45.311" lon="4.78403">
        <ele>136</ele>
        <time>2013-04-23T15:04:48Z</time>
      </trkpt>
      <trkpt lat="45.31099" lon="4.78424">
        <ele>135</ele>
        <time>2013-04-23T15:04:51Z</time>
      </trkpt>
      <trkpt lat="45.31101" lon="4.78455">
        <ele>135</ele>
        <time>2013-04-23T15:04:56Z</time>
      </trkpt>
      <trkpt lat="45.31103" lon="4.78466">
        <ele>135</ele>
        <time>2013-04-23T15:04:57Z</time>
      </trkpt>
      <trkpt lat="45.31109" lon="4.78478">
        <ele>135</ele>
        <time>2013-04-23T15:04:59Z</time>
      </trkpt>
      <trkpt lat="45.31097" lon="4.78494">
        <ele>134</ele>
        <time>2013-04-23T15:05:02Z</time>
      </trkpt>
      <trkpt lat="45.31082" lon="4.78513">
        <ele>135</ele>
        <time>2013-04-23T15:05:06Z</time>
      </trkpt>
      <trkpt lat="45.31078" lon="4.78518">
        <ele>135</ele>
        <time>2013-04-23T15:05:07Z</time>
      </trkpt>
      <trkpt lat="45.31048" lon="4.78556">
        <ele>136</ele>
        <time>2013-04-23T15:05:15Z</time>
      </trkpt>
      <trkpt lat="45.31046" lon="4.78561">
        <ele>136</ele>
        <time>2013-04-23T15:05:16Z</time>
      </trkpt>
      <trkpt lat="45.31038" lon="4.78583">
        <ele>137</ele>
        <time>2013-04-23T15:05:20Z</time>
      </trkpt>
      <trkpt lat="45.31031" lon="4.78606">
        <ele>137</ele>
        <time>2013-04-23T15:05:25Z</time>
      </trkpt>
      <trkpt lat="45.31031" lon="4.78606">
        <ele>137</ele>
        <time>2013-04-23T15:05:28Z</time>
      </trkpt>
      <trkpt lat="45.31031" lon="4.78606">
        <ele>137</ele>
        <time>2013-04-23T15:05:42Z</time>
      </trkpt>
      <trkpt lat="45.31031" lon="4.78606">
        <ele>137</ele>
        <time>2013-04-23T15:05:54Z</time>
      </trkpt>
      <trkpt lat="45.31029" lon="4.78606">
        <ele>137</ele>
        <time>2013-04-23T15:05:57Z</time>
      </trkpt>
      <trkpt lat="45.31029" lon="4.78606">
        <ele>137</ele>
        <time>2013-04-23T15:05:57Z</time>
      </trkpt>
      <trkpt lat="45.31026" lon="4.78605">
        <ele>137</ele>
        <time>2013-04-23T15:05:59Z</time>
      </trkpt>
      <trkpt lat="45.31018" lon="4.78599">
        <ele>138</ele>
        <time>2013-04-23T15:06:02Z</time>
      </trkpt>
      <trkpt lat="45.31015" lon="4.78598">
        <ele>139</ele>
        <time>2013-04-23T15:06:03Z</time>
      </trkpt>
      <trkpt lat="45.31011" lon="4.78601">
        <ele>139</ele>
        <time>2013-04-23T15:06:04Z</time>
      </trkpt>
      <trkpt lat="45.31007" lon="4.78605">
        <ele>138</ele>
        <time>2013-04-23T15:06:06Z</time>
      </trkpt>
      <trkpt lat="45.31007" lon="4.78605">
        <ele>138</ele>
        <time>2013-04-23T15:06:09Z</time>
      </trkpt>
      <trkpt lat="45.31007" lon="4.78605">
        <ele>138</ele>
        <time>2013-04-23T15:06:24Z</time>
      </trkpt>
      <trkpt lat="45.31002" lon="4.78612">
        <ele>138</ele>
        <time>2013-04-23T15:06:33Z</time>
      </trkpt>
      <trkpt lat="45.30987" lon="4.78636">
        <ele>137</ele>
        <time>2013-04-23T15:06:38Z</time>
      </trkpt>
      <trkpt lat="45.30953" lon="4.78688">
        <ele>134</ele>
        <time>2013-04-23T15:06:48Z</time>
      </trkpt>
      <trkpt lat="45.30932" lon="4.78718">
        <ele>133</ele>
        <time>2013-04-23T15:06:54Z</time>
      </trkpt>
      <trkpt lat="45.30926" lon="4.78728">
        <ele>133</ele>
        <time>2013-04-23T15:06:56Z</time>
      </trkpt>
      <trkpt lat="45.309" lon="4.7876">
        <ele>133</ele>
        <time>2013-04-23T15:07:05Z</time>
      </trkpt>
      <trkpt lat="45.30887" lon="4.78774">
        <ele>134</ele>
        <time>2013-04-23T15:07:12Z</time>
      </trkpt>
      <trkpt lat="45.30865" lon="4.78826">
        <ele>134</ele>
        <time>2013-04-23T15:07:16Z</time>
      </trkpt>
      <trkpt lat="45.30859" lon="4.78845">
        <ele>134</ele>
        <time>2013-04-23T15:07:19Z</time>
      </trkpt>
      <trkpt lat="45.30839" lon="4.78887">
        <ele>135</ele>
        <time>2013-04-23T15:07:26Z</time>
      </trkpt>
      <trkpt lat="45.30833" lon="4.78897">
        <ele>135</ele>
        <time>2013-04-23T15:07:28Z</time>
      </trkpt>
      <trkpt lat="45.3082" lon="4.78916">
        <ele>136</ele>
        <time>2013-04-23T15:07:32Z</time>
      </trkpt>
      <trkpt lat="45.308" lon="4.78944">
        <ele>137</ele>
        <time>2013-04-23T15:07:38Z</time>
      </trkpt>
      <trkpt lat="45.30779" lon="4.78977">
        <ele>137</ele>
        <time>2013-04-23T15:07:45Z</time>
      </trkpt>
      <trkpt lat="45.30777" lon="4.78984">
        <ele>137</ele>
        <time>2013-04-23T15:07:46Z</time>
      </trkpt>
      <trkpt lat="45.3077" lon="4.79003">
        <ele>138</ele>
        <time>2013-04-23T15:07:49Z</time>
      </trkpt>
      <trkpt lat="45.30768" lon="4.7901">
        <ele>138</ele>
        <time>2013-04-23T15:07:50Z</time>
      </trkpt>
      <trkpt lat="45.30759" lon="4.79058">
        <ele>138</ele>
        <time>2013-04-23T15:07:57Z</time>
      </trkpt>
      <trkpt lat="45.30749" lon="4.79116">
        <ele>139</ele>
        <time>2013-04-23T15:08:06Z</time>
      </trkpt>
      <trkpt lat="45.30739" lon="4.79167">
        <ele>138</ele>
        <time>2013-04-23T15:08:14Z</time>
      </trkpt>
      <trkpt lat="45.30736" lon="4.79199">
        <ele>138</ele>
        <time>2013-04-23T15:08:19Z</time>
      </trkpt>
      <trkpt lat="45.30736" lon="4.79212">
        <ele>138</ele>
        <time>2013-04-23T15:08:21Z</time>
      </trkpt>
      <trkpt lat="45.30739" lon="4.79252">
        <ele>137</ele>
        <time>2013-04-23T15:08:28Z</time>
      </trkpt>
      <trkpt lat="45.30739" lon="4.79258">
        <ele>137</ele>
        <time>2013-04-23T15:08:29Z</time>
      </trkpt>
      <trkpt lat="45.30735" lon="4.7929">
        <ele>137</ele>
        <time>2013-04-23T15:08:35Z</time>
      </trkpt>
      <trkpt lat="45.30729" lon="4.79337">
        <ele>138</ele>
        <time>2013-04-23T15:08:44Z</time>
      </trkpt>
      <trkpt lat="45.3074" lon="4.79374">
        <ele>138</ele>
        <time>2013-04-23T15:08:51Z</time>
      </trkpt>
      <trkpt lat="45.30745" lon="4.79392">
        <ele>138</ele>
        <time>2013-04-23T15:08:56Z</time>
      </trkpt>
      <trkpt lat="45.30749" lon="4.79414">
        <ele>138</ele>
        <time>2013-04-23T15:09:02Z</time>
      </trkpt>
      <trkpt lat="45.3075" lon="4.79421">
        <ele>138</ele>
        <time>2013-04-23T15:09:07Z</time>
      </trkpt>
      <trkpt lat="45.3075" lon="4.79421">
        <ele>138</ele>
        <time>2013-04-23T15:09:09Z</time>
      </trkpt>
      <trkpt lat="45.3075" lon="4.79421">
        <ele>138</ele>
        <time>2013-04-23T15:09:10Z</time>
      </trkpt>
      <trkpt lat="45.3075" lon="4.79421">
        <ele>138</ele>
        <time>2013-04-23T15:09:11Z</time>
      </trkpt>
      <trkpt lat="45.3075" lon="4.79421">
        <ele>138</ele>
        <time>2013-04-23T15:09:12Z</time>
      </trkpt>
      <trkpt lat="45.3075" lon="4.79421">
        <ele>138</ele>
        <time>2013-04-23T15:09:13Z</time>
      </trkpt>
      <trkpt lat="45.3075" lon="4.79421">
        <ele>138</ele>
        <time>2013-04-23T15:09:22Z</time>
      </trkpt>
      <trkpt lat="45.3075" lon="4.79424">
        <ele>139</ele>
        <time>2013-04-23T15:09:33Z</time>
      </trkpt>
      <trkpt lat="45.3075" lon="4.79424">
        <ele>139</ele>
        <time>2013-04-23T15:09:33Z</time>
      </trkpt>
      <trkpt lat="45.3074" lon="4.7943">
        <ele>139</ele>
        <time>2013-04-23T15:09:37Z</time>
      </trkpt>
      <trkpt lat="45.30719" lon="4.79445">
        <ele>141</ele>
        <time>2013-04-23T15:09:44Z</time>
      </trkpt>
      <trkpt lat="45.30691" lon="4.79466">
        <ele>141</ele>
        <time>2013-04-23T15:09:53Z</time>
      </trkpt>
      <trkpt lat="45.30674" lon="4.7948">
        <ele>142</ele>
        <time>2013-04-23T15:09:59Z</time>
      </trkpt>
      <trkpt lat="45.3067" lon="4.79482">
        <ele>142</ele>
        <time>2013-04-23T15:10:00Z</time>
      </trkpt>
      <trkpt lat="45.30667" lon="4.79484">
        <ele>142</ele>
        <time>2013-04-23T15:10:01Z</time>
      </trkpt>
      <trkpt lat="45.30664" lon="4.79486">
        <ele>142</ele>
        <time>2013-04-23T15:10:02Z</time>
      </trkpt>
      <trkpt lat="45.30661" lon="4.79489">
        <ele>142</ele>
        <time>2013-04-23T15:10:03Z</time>
      </trkpt>
      <trkpt lat="45.30646" lon="4.79502">
        <ele>142</ele>
        <time>2013-04-23T15:10:08Z</time>
      </trkpt>
      <trkpt lat="45.30634" lon="4.79518">
        <ele>142</ele>
        <time>2013-04-23T15:10:13Z</time>
      </trkpt>
      <trkpt lat="45.30632" lon="4.79522">
        <ele>141</ele>
        <time>2013-04-23T15:10:14Z</time>
      </trkpt>
      <trkpt lat="45.3063" lon="4.79526">
        <ele>141</ele>
        <time>2013-04-23T15:10:15Z</time>
      </trkpt>
      <trkpt lat="45.30628" lon="4.79531">
        <ele>141</ele>
        <time>2013-04-23T15:10:16Z</time>
      </trkpt>
      <trkpt lat="45.30626" lon="4.79534">
        <ele>141</ele>
        <time>2013-04-23T15:10:17Z</time>
      </trkpt>
      <trkpt lat="45.30621" lon="4.79556">
        <ele>141</ele>
        <time>2013-04-23T15:10:22Z</time>
      </trkpt>
      <trkpt lat="45.30619" lon="4.79582">
        <ele>141</ele>
        <time>2013-04-23T15:10:28Z</time>
      </trkpt>
      <trkpt lat="45.30619" lon="4.79586">
        <ele>139</ele>
        <time>2013-04-23T15:10:29Z</time>
      </trkpt>
      <trkpt lat="45.3062" lon="4.7959">
        <ele>139</ele>
        <time>2013-04-23T15:10:30Z</time>
      </trkpt>
      <trkpt lat="45.3062" lon="4.79594">
        <ele>139</ele>
        <time>2013-04-23T15:10:31Z</time>
      </trkpt>
      <trkpt lat="45.30621" lon="4.79599">
        <ele>139</ele>
        <time>2013-04-23T15:10:32Z</time>
      </trkpt>
      <trkpt lat="45.30627" lon="4.79626">
        <ele>138</ele>
        <time>2013-04-23T15:10:38Z</time>
      </trkpt>
      <trkpt lat="45.30642" lon="4.79672">
        <ele>134</ele>
        <time>2013-04-23T15:10:48Z</time>
      </trkpt>
      <trkpt lat="45.30654" lon="4.79707">
        <ele>134</ele>
        <time>2013-04-23T15:10:55Z</time>
      </trkpt>
      <trkpt lat="45.30671" lon="4.79753">
        <ele>135</ele>
        <time>2013-04-23T15:11:04Z</time>
      </trkpt>
      <trkpt lat="45.30683" lon="4.79785">
        <ele>136</ele>
        <time>2013-04-23T15:11:10Z</time>
      </trkpt>
      <trkpt lat="45.30689" lon="4.798">
        <ele>136</ele>
        <time>2013-04-23T15:11:13Z</time>
      </trkpt>
      <trkpt lat="45.30707" lon="4.79848">
        <ele>138</ele>
        <time>2013-04-23T15:11:22Z</time>
      </trkpt>
      <trkpt lat="45.3072" lon="4.79882">
        <ele>138</ele>
        <time>2013-04-23T15:11:29Z</time>
      </trkpt>
      <trkpt lat="45.30737" lon="4.79927">
        <ele>140</ele>
        <time>2013-04-23T15:11:38Z</time>
      </trkpt>
      <trkpt lat="45.30751" lon="4.7996">
        <ele>140</ele>
        <time>2013-04-23T15:11:44Z</time>
      </trkpt>
      <trkpt lat="45.30755" lon="4.79973">
        <ele>140</ele>
        <time>2013-04-23T15:11:46Z</time>
      </trkpt>
      <trkpt lat="45.30765" lon="4.79999">
        <ele>139</ele>
        <time>2013-04-23T15:12:48Z</time>
      </trkpt>
      <trkpt lat="45.30766" lon="4.80003">
        <ele>138</ele>
        <time>2013-04-23T15:12:49Z</time>
      </trkpt>
      <trkpt lat="45.30769" lon="4.80015">
        <ele>138</ele>
        <time>2013-04-23T15:12:52Z</time>
      </trkpt>
      <trkpt lat="45.30772" lon="4.8003">
        <ele>138</ele>
        <time>2013-04-23T15:12:55Z</time>
      </trkpt>
      <trkpt lat="45.3078" lon="4.80064">
        <ele>137</ele>
        <time>2013-04-23T15:13:01Z</time>
      </trkpt>
      <trkpt lat="45.30789" lon="4.80121">
        <ele>135</ele>
        <time>2013-04-23T15:13:09Z</time>
      </trkpt>
      <trkpt lat="45.30792" lon="4.80153">
        <ele>135</ele>
        <time>2013-04-23T15:13:13Z</time>
      </trkpt>
      <trkpt lat="45.30791" lon="4.80161">
        <ele>136</ele>
        <time>2013-04-23T15:13:14Z</time>
      </trkpt>
      <trkpt lat="45.30789" lon="4.80169">
        <ele>136</ele>
        <time>2013-04-23T15:13:15Z</time>
      </trkpt>
      <trkpt lat="45.30784" lon="4.80174">
        <ele>136</ele>
        <time>2013-04-23T15:13:16Z</time>
      </trkpt>
      <trkpt lat="45.30779" lon="4.80177">
        <ele>136</ele>
        <time>2013-04-23T15:13:17Z</time>
      </trkpt>
      <trkpt lat="45.30775" lon="4.80179">
        <ele>136</ele>
        <time>2013-04-23T15:13:18Z</time>
      </trkpt>
      <trkpt lat="45.30772" lon="4.8018">
        <ele>136</ele>
        <time>2013-04-23T15:13:19Z</time>
      </trkpt>
      <trkpt lat="45.30769" lon="4.80178">
        <ele>136</ele>
        <time>2013-04-23T15:13:22Z</time>
      </trkpt>
      <trkpt lat="45.30769" lon="4.80178">
        <ele>136</ele>
        <time>2013-04-23T15:13:29Z</time>
      </trkpt>
      <trkpt lat="45.30769" lon="4.80178">
        <ele>136</ele>
        <time>2013-04-23T15:13:30Z</time>
      </trkpt>
      <trkpt lat="45.30769" lon="4.80178">
        <ele>136</ele>
        <time>2013-04-23T15:13:31Z</time>
      </trkpt>
      <trkpt lat="45.30769" lon="4.80178">
        <ele>136</ele>
        <time>2013-04-23T15:13:32Z</time>
      </trkpt>
      <trkpt lat="45.30769" lon="4.80178">
        <ele>136</ele>
        <time>2013-04-23T15:13:33Z</time>
      </trkpt>
      <trkpt lat="45.30769" lon="4.80178">
        <ele>136</ele>
        <time>2013-04-23T15:13:34Z</time>
      </trkpt>
      <trkpt lat="45.30768" lon="4.80173">
        <ele>136</ele>
        <time>2013-04-23T15:13:42Z</time>
      </trkpt>
      <trkpt lat="45.30768" lon="4.80173">
        <ele>136</ele>
        <time>2013-04-23T15:13:42Z</time>
      </trkpt>
      <trkpt lat="45.30768" lon="4.80158">
        <ele>136</ele>
        <time>2013-04-23T15:13:46Z</time>
      </trkpt>
      <trkpt lat="45.30766" lon="4.80149">
        <ele>136</ele>
        <time>2013-04-23T15:13:48Z</time>
      </trkpt>
      <trkpt lat="45.30763" lon="4.80148">
        <ele>136</ele>
        <time>2013-04-23T15:13:49Z</time>
      </trkpt>
      <trkpt lat="45.30752" lon="4.80154">
        <ele>136</ele>
        <time>2013-04-23T15:13:52Z</time>
      </trkpt>
      <trkpt lat="45.30727" lon="4.8017">
        <ele>136</ele>
        <time>2013-04-23T15:13:59Z</time>
      </trkpt>
      <trkpt lat="45.30699" lon="4.8019">
        <ele>137</ele>
        <time>2013-04-23T15:14:06Z</time>
      </trkpt>
      <trkpt lat="45.30672" lon="4.8021">
        <ele>137</ele>
        <time>2013-04-23T15:14:13Z</time>
      </trkpt>
      <trkpt lat="45.30647" lon="4.80229">
        <ele>137</ele>
        <time>2013-04-23T15:14:20Z</time>
      </trkpt>
      <trkpt lat="45.30604" lon="4.8026">
        <ele>137</ele>
        <time>2013-04-23T15:14:30Z</time>
      </trkpt>
      <trkpt lat="45.30571" lon="4.80284">
        <ele>138</ele>
        <time>2013-04-23T15:14:37Z</time>
      </trkpt>
      <trkpt lat="45.30544" lon="4.80304">
        <ele>138</ele>
        <time>2013-04-23T15:14:43Z</time>
      </trkpt>
      <trkpt lat="45.30508" lon="4.8033">
        <ele>138</ele>
        <time>2013-04-23T15:14:51Z</time>
      </trkpt>
      <trkpt lat="45.30479" lon="4.80351">
        <ele>138</ele>
        <time>2013-04-23T15:14:57Z</time>
      </trkpt>
      <trkpt lat="45.30474" lon="4.80355">
        <ele>138</ele>
        <time>2013-04-23T15:14:58Z</time>
      </trkpt>
      <trkpt lat="45.30441" lon="4.80378">
        <ele>138</ele>
        <time>2013-04-23T15:15:05Z</time>
      </trkpt>
      <trkpt lat="45.30413" lon="4.80393">
        <ele>138</ele>
        <time>2013-04-23T15:15:11Z</time>
      </trkpt>
      <trkpt lat="45.30386" lon="4.80397">
        <ele>138</ele>
        <time>2013-04-23T15:15:16Z</time>
      </trkpt>
      <trkpt lat="45.30376" lon="4.80395">
        <ele>137</ele>
        <time>2013-04-23T15:15:18Z</time>
      </trkpt>
      <trkpt lat="45.3035" lon="4.80379">
        <ele>137</ele>
        <time>2013-04-23T15:15:23Z</time>
      </trkpt>
      <trkpt lat="45.30317" lon="4.80349">
        <ele>136</ele>
        <time>2013-04-23T15:15:30Z</time>
      </trkpt>
      <trkpt lat="45.30283" lon="4.80324">
        <ele>136</ele>
        <time>2013-04-23T15:15:37Z</time>
      </trkpt>
      <trkpt lat="45.30246" lon="4.80308">
        <ele>135</ele>
        <time>2013-04-23T15:15:44Z</time>
      </trkpt>
      <trkpt lat="45.30208" lon="4.80303">
        <ele>135</ele>
        <time>2013-04-23T15:15:51Z</time>
      </trkpt>
      <trkpt lat="45.30179" lon="4.80313">
        <ele>135</ele>
        <time>2013-04-23T15:15:56Z</time>
      </trkpt>
      <trkpt lat="45.30168" lon="4.8032">
        <ele>135</ele>
        <time>2013-04-23T15:15:58Z</time>
      </trkpt>
      <trkpt lat="45.30152" lon="4.80333">
        <ele>135</ele>
        <time>2013-04-23T15:16:01Z</time>
      </trkpt>
      <trkpt lat="45.30128" lon="4.8036">
        <ele>136</ele>
        <time>2013-04-23T15:16:06Z</time>
      </trkpt>
      <trkpt lat="45.30094" lon="4.80391">
        <ele>135</ele>
        <time>2013-04-23T15:16:12Z</time>
      </trkpt>
      <trkpt lat="45.30088" lon="4.80396">
        <ele>135</ele>
        <time>2013-04-23T15:16:13Z</time>
      </trkpt>
      <trkpt lat="45.30082" lon="4.80402">
        <ele>134</ele>
        <time>2013-04-23T15:16:14Z</time>
      </trkpt>
      <trkpt lat="45.30076" lon="4.80407">
        <ele>134</ele>
        <time>2013-04-23T15:16:15Z</time>
      </trkpt>
      <trkpt lat="45.3007" lon="4.80413">
        <ele>134</ele>
        <time>2013-04-23T15:16:16Z</time>
      </trkpt>
      <trkpt lat="45.30064" lon="4.80419">
        <ele>135</ele>
        <time>2013-04-23T15:16:17Z</time>
      </trkpt>
      <trkpt lat="45.30059" lon="4.80425">
        <ele>135</ele>
        <time>2013-04-23T15:16:18Z</time>
      </trkpt>
      <trkpt lat="45.30036" lon="4.80449">
        <ele>135</ele>
        <time>2013-04-23T15:16:22Z</time>
      </trkpt>
      <trkpt lat="45.30008" lon="4.8048">
        <ele>135</ele>
        <time>2013-04-23T15:16:28Z</time>
      </trkpt>
      <trkpt lat="45.29998" lon="4.80489">
        <ele>134</ele>
        <time>2013-04-23T15:16:30Z</time>
      </trkpt>
      <trkpt lat="45.29984" lon="4.80504">
        <ele>136</ele>
        <time>2013-04-23T15:16:33Z</time>
      </trkpt>
      <trkpt lat="45.29949" lon="4.80541">
        <ele>136</ele>
        <time>2013-04-23T15:16:40Z</time>
      </trkpt>
      <trkpt lat="45.29919" lon="4.80572">
        <ele>136</ele>
        <time>2013-04-23T15:16:47Z</time>
      </trkpt>
      <trkpt lat="45.29904" lon="4.80588">
        <ele>136</ele>
        <time>2013-04-23T15:16:51Z</time>
      </trkpt>
      <trkpt lat="45.29897" lon="4.80595">
        <ele>136</ele>
        <time>2013-04-23T15:16:53Z</time>
      </trkpt>
      <trkpt lat="45.29894" lon="4.80599">
        <ele>136</ele>
        <time>2013-04-23T15:16:54Z</time>
      </trkpt>
      <trkpt lat="45.29882" lon="4.8061">
        <ele>136</ele>
        <time>2013-04-23T15:16:58Z</time>
      </trkpt>
      <trkpt lat="45.29858" lon="4.80634">
        <ele>136</ele>
        <time>2013-04-23T15:17:06Z</time>
      </trkpt>
      <trkpt lat="45.29846" lon="4.80649">
        <ele>136</ele>
        <time>2013-04-23T15:17:10Z</time>
      </trkpt>
      <trkpt lat="45.2984" lon="4.80657">
        <ele>135</ele>
        <time>2013-04-23T15:17:12Z</time>
      </trkpt>
      <trkpt lat="45.2982" lon="4.80681">
        <ele>135</ele>
        <time>2013-04-23T15:17:19Z</time>
      </trkpt>
      <trkpt lat="45.29803" lon="4.80697">
        <ele>135</ele>
        <time>2013-04-23T15:17:24Z</time>
      </trkpt>
      <trkpt lat="45.29799" lon="4.80701">
        <ele>135</ele>
        <time>2013-04-23T15:17:25Z</time>
      </trkpt>
      <trkpt lat="45.29775" lon="4.80726">
        <ele>135</ele>
        <time>2013-04-23T15:17:32Z</time>
      </trkpt>
      <trkpt lat="45.29747" lon="4.80755">
        <ele>134</ele>
        <time>2013-04-23T15:17:39Z</time>
      </trkpt>
      <trkpt lat="45.29725" lon="4.80778">
        <ele>135</ele>
        <time>2013-04-23T15:17:45Z</time>
      </trkpt>
      <trkpt lat="45.29709" lon="4.80794">
        <ele>136</ele>
        <time>2013-04-23T15:17:50Z</time>
      </trkpt>
      <trkpt lat="45.29687" lon="4.80814">
        <ele>135</ele>
        <time>2013-04-23T15:17:57Z</time>
      </trkpt>
      <trkpt lat="45.29673" lon="4.80826">
        <ele>135</ele>
        <time>2013-04-23T15:18:02Z</time>
      </trkpt>
      <trkpt lat="45.29668" lon="4.80829">
        <ele>135</ele>
        <time>2013-04-23T15:18:04Z</time>
      </trkpt>
      <trkpt lat="45.29666" lon="4.80831">
        <ele>135</ele>
        <time>2013-04-23T15:18:05Z</time>
      </trkpt>
      <trkpt lat="45.29666" lon="4.80831">
        <ele>135</ele>
        <time>2013-04-23T15:18:05Z</time>
      </trkpt>
      <trkpt lat="45.29662" lon="4.80835">
        <ele>135</ele>
        <time>2013-04-23T15:18:07Z</time>
      </trkpt>
      <trkpt lat="45.2965" lon="4.80843">
        <ele>136</ele>
        <time>2013-04-23T15:21:34Z</time>
      </trkpt>
      <trkpt lat="45.29635" lon="4.80855">
        <ele>136</ele>
        <time>2013-04-23T15:21:40Z</time>
      </trkpt>
      <trkpt lat="45.29616" lon="4.80871">
        <ele>136</ele>
        <time>2013-04-23T15:21:47Z</time>
      </trkpt>
      <trkpt lat="45.29599" lon="4.80882">
        <ele>136</ele>
        <time>2013-04-23T15:21:53Z</time>
      </trkpt>
      <trkpt lat="45.29587" lon="4.80892">
        <ele>136</ele>
        <time>2013-04-23T15:21:58Z</time>
      </trkpt>
      <trkpt lat="45.29574" lon="4.80902">
        <ele>135</ele>
        <time>2013-04-23T15:22:05Z</time>
      </trkpt>
      <trkpt lat="45.29574" lon="4.80902">
        <ele>135</ele>
        <time>2013-04-23T15:22:16Z</time>
      </trkpt>
      <trkpt lat="45.29574" lon="4.80902">
        <ele>135</ele>
        <time>2013-04-23T15:22:27Z</time>
      </trkpt>
      <trkpt lat="45.29565" lon="4.80908">
        <ele>135</ele>
        <time>2013-04-23T15:22:31Z</time>
      </trkpt>
      <trkpt lat="45.29551" lon="4.80917">
        <ele>136</ele>
        <time>2013-04-23T15:22:35Z</time>
      </trkpt>
      <trkpt lat="45.29524" lon="4.80935">
        <ele>135</ele>
        <time>2013-04-23T15:22:42Z</time>
      </trkpt>
      <trkpt lat="45.295" lon="4.80949">
        <ele>135</ele>
        <time>2013-04-23T15:22:48Z</time>
      </trkpt>
      <trkpt lat="45.29468" lon="4.80967">
        <ele>133</ele>
        <time>2013-04-23T15:22:55Z</time>
      </trkpt>
      <trkpt lat="45.29444" lon="4.80978">
        <ele>133</ele>
        <time>2013-04-23T15:23:00Z</time>
      </trkpt>
      <trkpt lat="45.2944" lon="4.8098">
        <ele>133</ele>
        <time>2013-04-23T15:23:01Z</time>
      </trkpt>
      <trkpt lat="45.29408" lon="4.80994">
        <ele>133</ele>
        <time>2013-04-23T15:23:07Z</time>
      </trkpt>
      <trkpt lat="45.29367" lon="4.81012">
        <ele>135</ele>
        <time>2013-04-23T15:23:14Z</time>
      </trkpt>
      <trkpt lat="45.29355" lon="4.81017">
        <ele>135</ele>
        <time>2013-04-23T15:23:16Z</time>
      </trkpt>
      <trkpt lat="45.29341" lon="4.81025">
        <ele>135</ele>
        <time>2013-04-23T15:23:19Z</time>
      </trkpt>
      <trkpt lat="45.29327" lon="4.81036">
        <ele>135</ele>
        <time>2013-04-23T15:23:24Z</time>
      </trkpt>
      <trkpt lat="45.29327" lon="4.81036">
        <ele>135</ele>
        <time>2013-04-23T15:23:28Z</time>
      </trkpt>
      <trkpt lat="45.29327" lon="4.81036">
        <ele>135</ele>
        <time>2013-04-23T15:23:44Z</time>
      </trkpt>
      <trkpt lat="45.29322" lon="4.81039">
        <ele>135</ele>
        <time>2013-04-23T15:23:53Z</time>
      </trkpt>
      <trkpt lat="45.29322" lon="4.81039">
        <ele>135</ele>
        <time>2013-04-23T15:23:53Z</time>
      </trkpt>
      <trkpt lat="45.29308" lon="4.81046">
        <ele>135</ele>
        <time>2013-04-23T15:23:58Z</time>
      </trkpt>
      <trkpt lat="45.29295" lon="4.81051">
        <ele>135</ele>
        <time>2013-04-23T15:24:02Z</time>
      </trkpt>
      <trkpt lat="45.29291" lon="4.81052">
        <ele>135</ele>
        <time>2013-04-23T15:24:03Z</time>
      </trkpt>
      <trkpt lat="45.29287" lon="4.81053">
        <ele>135</ele>
        <time>2013-04-23T15:24:04Z</time>
      </trkpt>
      <trkpt lat="45.29284" lon="4.81055">
        <ele>135</ele>
        <time>2013-04-23T15:24:05Z</time>
      </trkpt>
      <trkpt lat="45.2928" lon="4.81056">
        <ele>135</ele>
        <time>2013-04-23T15:24:06Z</time>
      </trkpt>
      <trkpt lat="45.29252" lon="4.81064">
        <ele>135</ele>
        <time>2013-04-23T15:24:13Z</time>
      </trkpt>
      <trkpt lat="45.29228" lon="4.81075">
        <ele>134</ele>
        <time>2013-04-23T15:24:19Z</time>
      </trkpt>
      <trkpt lat="45.29224" lon="4.81077">
        <ele>134</ele>
        <time>2013-04-23T15:24:20Z</time>
      </trkpt>
      <trkpt lat="45.29205" lon="4.81085">
        <ele>135</ele>
        <time>2013-04-23T15:24:25Z</time>
      </trkpt>
      <trkpt lat="45.29177" lon="4.8109">
        <ele>134</ele>
        <time>2013-04-23T15:24:32Z</time>
      </trkpt>
      <trkpt lat="45.29141" lon="4.81095">
        <ele>134</ele>
        <time>2013-04-23T15:24:40Z</time>
      </trkpt>
      <trkpt lat="45.29104" lon="4.81099">
        <ele>133</ele>
        <time>2013-04-23T15:24:48Z</time>
      </trkpt>
      <trkpt lat="45.29059" lon="4.81104">
        <ele>134</ele>
        <time>2013-04-23T15:24:57Z</time>
      </trkpt>
      <trkpt lat="45.29013" lon="4.81111">
        <ele>134</ele>
        <time>2013-04-23T15:25:06Z</time>
      </trkpt>
      <trkpt lat="45.28974" lon="4.81113">
        <ele>135</ele>
        <time>2013-04-23T15:25:13Z</time>
      </trkpt>
      <trkpt lat="45.28929" lon="4.81116">
        <ele>135</ele>
        <time>2013-04-23T15:25:21Z</time>
      </trkpt>
      <trkpt lat="45.28879" lon="4.81119">
        <ele>135</ele>
        <time>2013-04-23T15:25:30Z</time>
      </trkpt>
      <trkpt lat="45.28834" lon="4.81121">
        <ele>135</ele>
        <time>2013-04-23T15:25:38Z</time>
      </trkpt>
      <trkpt lat="45.28782" lon="4.81118">
        <ele>135</ele>
        <time>2013-04-23T15:25:47Z</time>
      </trkpt>
      <trkpt lat="45.28741" lon="4.81117">
        <ele>134</ele>
        <time>2013-04-23T15:25:55Z</time>
      </trkpt>
      <trkpt lat="45.28704" lon="4.8112">
        <ele>134</ele>
        <time>2013-04-23T15:26:02Z</time>
      </trkpt>
      <trkpt lat="45.2866" lon="4.81122">
        <ele>135</ele>
        <time>2013-04-23T15:26:10Z</time>
      </trkpt>
      <trkpt lat="45.28622" lon="4.81123">
        <ele>135</ele>
        <time>2013-04-23T15:26:17Z</time>
      </trkpt>
      <trkpt lat="45.28605" lon="4.81122">
        <ele>136</ele>
        <time>2013-04-23T15:26:20Z</time>
      </trkpt>
      <trkpt lat="45.28589" lon="4.81118">
        <ele>136</ele>
        <time>2013-04-23T15:26:23Z</time>
      </trkpt>
      <trkpt lat="45.28549" lon="4.81112">
        <ele>137</ele>
        <time>2013-04-23T15:26:30Z</time>
      </trkpt>
      <trkpt lat="45.28513" lon="4.81111">
        <ele>136</ele>
        <time>2013-04-23T15:26:37Z</time>
      </trkpt>
      <trkpt lat="45.28473" lon="4.81107">
        <ele>136</ele>
        <time>2013-04-23T15:26:44Z</time>
      </trkpt>
      <trkpt lat="45.28467" lon="4.81107">
        <ele>136</ele>
        <time>2013-04-23T15:26:45Z</time>
      </trkpt>
      <trkpt lat="45.28461" lon="4.81106">
        <ele>136</ele>
        <time>2013-04-23T15:26:46Z</time>
      </trkpt>
      <trkpt lat="45.28454" lon="4.81106">
        <ele>136</ele>
        <time>2013-04-23T15:26:47Z</time>
      </trkpt>
      <trkpt lat="45.28448" lon="4.81105">
        <ele>136</ele>
        <time>2013-04-23T15:26:48Z</time>
      </trkpt>
      <trkpt lat="45.28441" lon="4.81105">
        <ele>136</ele>
        <time>2013-04-23T15:26:49Z</time>
      </trkpt>
      <trkpt lat="45.28428" lon="4.81104">
        <ele>136</ele>
        <time>2013-04-23T15:26:51Z</time>
      </trkpt>
      <trkpt lat="45.28415" lon="4.81104">
        <ele>135</ele>
        <time>2013-04-23T15:26:53Z</time>
      </trkpt>
      <trkpt lat="45.28396" lon="4.8111">
        <ele>136</ele>
        <time>2013-04-23T15:26:56Z</time>
      </trkpt>
      <trkpt lat="45.2839" lon="4.81111">
        <ele>136</ele>
        <time>2013-04-23T15:26:57Z</time>
      </trkpt>
      <trkpt lat="45.28374" lon="4.81111">
        <ele>136</ele>
        <time>2013-04-23T15:27:00Z</time>
      </trkpt>
      <trkpt lat="45.28215" lon="4.81135">
        <ele>136</ele>
        <time>2013-04-23T15:27:32Z</time>
      </trkpt>
      <trkpt lat="45.28178" lon="4.8114">
        <ele>137</ele>
        <time>2013-04-23T15:27:40Z</time>
      </trkpt>
      <trkpt lat="45.28163" lon="4.81143">
        <ele>137</ele>
        <time>2013-04-23T15:27:43Z</time>
      </trkpt>
      <trkpt lat="45.28152" lon="4.81146">
        <ele>137</ele>
        <time>2013-04-23T15:27:45Z</time>
      </trkpt>
      <trkpt lat="45.28113" lon="4.81155">
        <ele>137</ele>
        <time>2013-04-23T15:27:53Z</time>
      </trkpt>
      <trkpt lat="45.28069" lon="4.8116">
        <ele>137</ele>
        <time>2013-04-23T15:28:01Z</time>
      </trkpt>
      <trkpt lat="45.28038" lon="4.81164">
        <ele>136</ele>
        <time>2013-04-23T15:28:07Z</time>
      </trkpt>
      <trkpt lat="45.28021" lon="4.81168">
        <ele>138</ele>
        <time>2013-04-23T15:28:11Z</time>
      </trkpt>
      <trkpt lat="45.28011" lon="4.81169">
        <ele>138</ele>
        <time>2013-04-23T15:28:13Z</time>
      </trkpt>
      <trkpt lat="45.28006" lon="4.8117">
        <ele>138</ele>
        <time>2013-04-23T15:28:14Z</time>
      </trkpt>
      <trkpt lat="45.27982" lon="4.81176">
        <ele>138</ele>
        <time>2013-04-23T15:28:19Z</time>
      </trkpt>
      <trkpt lat="45.27959" lon="4.81179">
        <ele>138</ele>
        <time>2013-04-23T15:28:24Z</time>
      </trkpt>
      <trkpt lat="45.27951" lon="4.81181">
        <ele>138</ele>
        <time>2013-04-23T15:28:26Z</time>
      </trkpt>
      <trkpt lat="45.27918" lon="4.81187">
        <ele>138</ele>
        <time>2013-04-23T15:28:33Z</time>
      </trkpt>
      <trkpt lat="45.27884" lon="4.81184">
        <ele>138</ele>
        <time>2013-04-23T15:28:39Z</time>
      </trkpt>
      <trkpt lat="45.27844" lon="4.81181">
        <ele>137</ele>
        <time>2013-04-23T15:28:45Z</time>
      </trkpt>
      <trkpt lat="45.27831" lon="4.81182">
        <ele>137</ele>
        <time>2013-04-23T15:28:47Z</time>
      </trkpt>
      <trkpt lat="45.27812" lon="4.81182">
        <ele>137</ele>
        <time>2013-04-23T15:28:50Z</time>
      </trkpt>
      <trkpt lat="45.27766" lon="4.8118">
        <ele>137</ele>
        <time>2013-04-23T15:28:57Z</time>
      </trkpt>
      <trkpt lat="45.27715" lon="4.81182">
        <ele>137</ele>
        <time>2013-04-23T15:29:04Z</time>
      </trkpt>
      <trkpt lat="45.27659" lon="4.81179">
        <ele>136</ele>
        <time>2013-04-23T15:29:12Z</time>
      </trkpt>
      <trkpt lat="45.27608" lon="4.81178">
        <ele>136</ele>
        <time>2013-04-23T15:29:19Z</time>
      </trkpt>
      <trkpt lat="45.27559" lon="4.81177">
        <ele>136</ele>
        <time>2013-04-23T15:29:26Z</time>
      </trkpt>
      <trkpt lat="45.27522" lon="4.81176">
        <ele>136</ele>
        <time>2013-04-23T15:29:31Z</time>
      </trkpt>
      <trkpt lat="45.27471" lon="4.81173">
        <ele>137</ele>
        <time>2013-04-23T15:29:38Z</time>
      </trkpt>
      <trkpt lat="45.27437" lon="4.81173">
        <ele>137</ele>
        <time>2013-04-23T15:29:43Z</time>
      </trkpt>
      <trkpt lat="45.27383" lon="4.81172">
        <ele>137</ele>
        <time>2013-04-23T15:29:51Z</time>
      </trkpt>
      <trkpt lat="45.27377" lon="4.81173">
        <ele>137</ele>
        <time>2013-04-23T15:29:52Z</time>
      </trkpt>
      <trkpt lat="45.27354" lon="4.81175">
        <ele>137</ele>
        <time>2013-04-23T15:29:56Z</time>
      </trkpt>
      <trkpt lat="45.27323" lon="4.81178">
        <ele>136</ele>
        <time>2013-04-23T15:30:02Z</time>
      </trkpt>
      <trkpt lat="45.27289" lon="4.81181">
        <ele>137</ele>
        <time>2013-04-23T15:30:09Z</time>
      </trkpt>
      <trkpt lat="45.27279" lon="4.81183">
        <ele>137</ele>
        <time>2013-04-23T15:30:11Z</time>
      </trkpt>
      <trkpt lat="45.27274" lon="4.81183">
        <ele>137</ele>
        <time>2013-04-23T15:30:12Z</time>
      </trkpt>
      <trkpt lat="45.27269" lon="4.81184">
        <ele>137</ele>
        <time>2013-04-23T15:30:13Z</time>
      </trkpt>
      <trkpt lat="45.27264" lon="4.81184">
        <ele>137</ele>
        <time>2013-04-23T15:30:14Z</time>
      </trkpt>
      <trkpt lat="45.27259" lon="4.81184">
        <ele>137</ele>
        <time>2013-04-23T15:30:15Z</time>
      </trkpt>
      <trkpt lat="45.27255" lon="4.81185">
        <ele>136</ele>
        <time>2013-04-23T15:30:16Z</time>
      </trkpt>
      <trkpt lat="45.27222" lon="4.81188">
        <ele>137</ele>
        <time>2013-04-23T15:30:23Z</time>
      </trkpt>
      <trkpt lat="45.27217" lon="4.81189">
        <ele>137</ele>
        <time>2013-04-23T15:30:24Z</time>
      </trkpt>
      <trkpt lat="45.27213" lon="4.81189">
        <ele>137</ele>
        <time>2013-04-23T15:30:25Z</time>
      </trkpt>
      <trkpt lat="45.27209" lon="4.81189">
        <ele>137</ele>
        <time>2013-04-23T15:30:26Z</time>
      </trkpt>
      <trkpt lat="45.27196" lon="4.81189">
        <ele>137</ele>
        <time>2013-04-23T15:30:30Z</time>
      </trkpt>
      <trkpt lat="45.27181" lon="4.81189">
        <ele>137</ele>
        <time>2013-04-23T15:30:36Z</time>
      </trkpt>
      <trkpt lat="45.27172" lon="4.8119">
        <ele>136</ele>
        <time>2013-04-23T15:30:39Z</time>
      </trkpt>
      <trkpt lat="45.2717" lon="4.81191">
        <ele>136</ele>
        <time>2013-04-23T15:30:40Z</time>
      </trkpt>
      <trkpt lat="45.2717" lon="4.81192">
        <ele>137</ele>
        <time>2013-04-23T15:30:45Z</time>
      </trkpt>
      <trkpt lat="45.27168" lon="4.81191">
        <ele>136</ele>
        <time>2013-04-23T15:30:51Z</time>
      </trkpt>
      <trkpt lat="45.27166" lon="4.81191">
        <ele>136</ele>
        <time>2013-04-23T15:30:52Z</time>
      </trkpt>
      <trkpt lat="45.27166" lon="4.81191">
        <ele>136</ele>
        <time>2013-04-23T15:30:52Z</time>
      </trkpt>
      <trkpt lat="45.27149" lon="4.81189">
        <ele>136</ele>
        <time>2013-04-23T15:30:56Z</time>
      </trkpt>
      <trkpt lat="45.27118" lon="4.81189">
        <ele>135</ele>
        <time>2013-04-23T15:31:01Z</time>
      </trkpt>
      <trkpt lat="45.27098" lon="4.81191">
        <ele>135</ele>
        <time>2013-04-23T15:31:04Z</time>
      </trkpt>
      <trkpt lat="45.27091" lon="4.81192">
        <ele>135</ele>
        <time>2013-04-23T15:31:05Z</time>
      </trkpt>
      <trkpt lat="45.27084" lon="4.81193">
        <ele>135</ele>
        <time>2013-04-23T15:31:06Z</time>
      </trkpt>
      <trkpt lat="45.27078" lon="4.81193">
        <ele>133</ele>
        <time>2013-04-23T15:31:07Z</time>
      </trkpt>
      <trkpt lat="45.27071" lon="4.81195">
        <ele>133</ele>
        <time>2013-04-23T15:31:08Z</time>
      </trkpt>
      <trkpt lat="45.27027" lon="4.81198">
        <ele>133</ele>
        <time>2013-04-23T15:31:15Z</time>
      </trkpt>
      <trkpt lat="45.26987" lon="4.81194">
        <ele>132</ele>
        <time>2013-04-23T15:31:22Z</time>
      </trkpt>
      <trkpt lat="45.26976" lon="4.81195">
        <ele>132</ele>
        <time>2013-04-23T15:31:24Z</time>
      </trkpt>
      <trkpt lat="45.26959" lon="4.81197">
        <ele>132</ele>
        <time>2013-04-23T15:31:27Z</time>
      </trkpt>
      <trkpt lat="45.26953" lon="4.81197">
        <ele>132</ele>
        <time>2013-04-23T15:31:28Z</time>
      </trkpt>
      <trkpt lat="45.26942" lon="4.81197">
        <ele>132</ele>
        <time>2013-04-23T15:31:30Z</time>
      </trkpt>
      <trkpt lat="45.26931" lon="4.81198">
        <ele>132</ele>
        <time>2013-04-23T15:31:32Z</time>
      </trkpt>
      <trkpt lat="45.26919" lon="4.81198">
        <ele>132</ele>
        <time>2013-04-23T15:31:35Z</time>
      </trkpt>
      <trkpt lat="45.26914" lon="4.81198">
        <ele>132</ele>
        <time>2013-04-23T15:31:36Z</time>
      </trkpt>
      <trkpt lat="45.26908" lon="4.81198">
        <ele>132</ele>
        <time>2013-04-23T15:31:37Z</time>
      </trkpt>
      <trkpt lat="45.26902" lon="4.81198">
        <ele>132</ele>
        <time>2013-04-23T15:31:38Z</time>
      </trkpt>
      <trkpt lat="45.26896" lon="4.81199">
        <ele>132</ele>
        <time>2013-04-23T15:31:39Z</time>
      </trkpt>
      <trkpt lat="45.2689" lon="4.812">
        <ele>132</ele>
        <time>2013-04-23T15:31:40Z</time>
      </trkpt>
      <trkpt lat="45.26848" lon="4.81207">
        <ele>133</ele>
        <time>2013-04-23T15:31:47Z</time>
      </trkpt>
      <trkpt lat="45.26808" lon="4.81214">
        <ele>133</ele>
        <time>2013-04-23T15:31:54Z</time>
      </trkpt>
      <trkpt lat="45.26761" lon="4.81221">
        <ele>133</ele>
        <time>2013-04-23T15:32:03Z</time>
      </trkpt>
      <trkpt lat="45.26718" lon="4.81232">
        <ele>132</ele>
        <time>2013-04-23T15:32:11Z</time>
      </trkpt>
      <trkpt lat="45.26708" lon="4.81237">
        <ele>132</ele>
        <time>2013-04-23T15:32:13Z</time>
      </trkpt>
      <trkpt lat="45.26692" lon="4.81246">
        <ele>132</ele>
        <time>2013-04-23T15:32:17Z</time>
      </trkpt>
      <trkpt lat="45.26663" lon="4.81259">
        <ele>132</ele>
        <time>2013-04-23T15:32:24Z</time>
      </trkpt>
      <trkpt lat="45.26649" lon="4.81269">
        <ele>132</ele>
        <time>2013-04-23T15:32:28Z</time>
      </trkpt>
      <trkpt lat="45.26645" lon="4.81271">
        <ele>132</ele>
        <time>2013-04-23T15:32:29Z</time>
      </trkpt>
      <trkpt lat="45.2664" lon="4.81273">
        <ele>132</ele>
        <time>2013-04-23T15:32:32Z</time>
      </trkpt>
      <trkpt lat="45.2664" lon="4.81273">
        <ele>132</ele>
        <time>2013-04-23T15:32:37Z</time>
      </trkpt>
      <trkpt lat="45.26637" lon="4.81274">
        <ele>132</ele>
        <time>2013-04-23T15:32:44Z</time>
      </trkpt>
      <trkpt lat="45.26637" lon="4.81274">
        <ele>132</ele>
        <time>2013-04-23T15:32:44Z</time>
      </trkpt>
      <trkpt lat="45.26635" lon="4.81274">
        <ele>132</ele>
        <time>2013-04-23T15:32:45Z</time>
      </trkpt>
      <trkpt lat="45.26616" lon="4.81272">
        <ele>132</ele>
        <time>2013-04-23T15:32:50Z</time>
      </trkpt>
      <trkpt lat="45.26587" lon="4.81265">
        <ele>132</ele>
        <time>2013-04-23T15:32:56Z</time>
      </trkpt>
      <trkpt lat="45.26583" lon="4.81263">
        <ele>132</ele>
        <time>2013-04-23T15:32:57Z</time>
      </trkpt>
      <trkpt lat="45.26557" lon="4.81247">
        <ele>132</ele>
        <time>2013-04-23T15:33:04Z</time>
      </trkpt>
      <trkpt lat="45.26531" lon="4.81238">
        <ele>132</ele>
        <time>2013-04-23T15:33:10Z</time>
      </trkpt>
      <trkpt lat="45.26496" lon="4.81232">
        <ele>133</ele>
        <time>2013-04-23T15:33:18Z</time>
      </trkpt>
      <trkpt lat="45.26467" lon="4.81227">
        <ele>133</ele>
        <time>2013-04-23T15:33:24Z</time>
      </trkpt>
      <trkpt lat="45.26462" lon="4.81226">
        <ele>133</ele>
        <time>2013-04-23T15:33:25Z</time>
      </trkpt>
      <trkpt lat="45.2644" lon="4.81223">
        <ele>133</ele>
        <time>2013-04-23T15:33:29Z</time>
      </trkpt>
      <trkpt lat="45.26425" lon="4.81222">
        <ele>133</ele>
        <time>2013-04-23T15:33:32Z</time>
      </trkpt>
      <trkpt lat="45.26391" lon="4.81222">
        <ele>132</ele>
        <time>2013-04-23T15:33:39Z</time>
      </trkpt>
      <trkpt lat="45.26357" lon="4.81227">
        <ele>132</ele>
        <time>2013-04-23T15:33:46Z</time>
      </trkpt>
      <trkpt lat="45.26342" lon="4.81228">
        <ele>132</ele>
        <time>2013-04-23T15:33:49Z</time>
      </trkpt>
      <trkpt lat="45.2633" lon="4.81226">
        <ele>132</ele>
        <time>2013-04-23T15:33:51Z</time>
      </trkpt>
      <trkpt lat="45.26293" lon="4.81219">
        <ele>132</ele>
        <time>2013-04-23T15:33:58Z</time>
      </trkpt>
      <trkpt lat="45.26262" lon="4.81214">
        <ele>132</ele>
        <time>2013-04-23T15:34:04Z</time>
      </trkpt>
      <trkpt lat="45.26221" lon="4.81211">
        <ele>132</ele>
        <time>2013-04-23T15:34:12Z</time>
      </trkpt>
      <trkpt lat="45.26211" lon="4.81206">
        <ele>132</ele>
        <time>2013-04-23T15:34:14Z</time>
      </trkpt>
      <trkpt lat="45.26196" lon="4.81199">
        <ele>132</ele>
        <time>2013-04-23T15:34:17Z</time>
      </trkpt>
      <trkpt lat="45.26162" lon="4.81192">
        <ele>132</ele>
        <time>2013-04-23T15:34:23Z</time>
      </trkpt>
      <trkpt lat="45.26134" lon="4.81182">
        <ele>132</ele>
        <time>2013-04-23T15:34:28Z</time>
      </trkpt>
      <trkpt lat="45.26091" lon="4.81171">
        <ele>132</ele>
        <time>2013-04-23T15:34:35Z</time>
      </trkpt>
      <trkpt lat="45.2606" lon="4.81164">
        <ele>134</ele>
        <time>2013-04-23T15:34:41Z</time>
      </trkpt>
      <trkpt lat="45.26034" lon="4.81156">
        <ele>135</ele>
        <time>2013-04-23T15:34:46Z</time>
      </trkpt>
      <trkpt lat="45.26029" lon="4.81153">
        <ele>135</ele>
        <time>2013-04-23T15:34:47Z</time>
      </trkpt>
      <trkpt lat="45.25988" lon="4.81129">
        <ele>135</ele>
        <time>2013-04-23T15:34:55Z</time>
      </trkpt>
      <trkpt lat="45.25953" lon="4.81109">
        <ele>134</ele>
        <time>2013-04-23T15:35:01Z</time>
      </trkpt>
      <trkpt lat="45.25918" lon="4.81091">
        <ele>133</ele>
        <time>2013-04-23T15:35:08Z</time>
      </trkpt>
      <trkpt lat="45.25908" lon="4.81085">
        <ele>133</ele>
        <time>2013-04-23T15:35:12Z</time>
      </trkpt>
      <trkpt lat="45.25908" lon="4.81085">
        <ele>133</ele>
        <time>2013-04-23T15:35:20Z</time>
      </trkpt>
      <trkpt lat="45.25908" lon="4.81085">
        <ele>133</ele>
        <time>2013-04-23T15:35:35Z</time>
      </trkpt>
      <trkpt lat="45.25908" lon="4.81085">
        <ele>133</ele>
        <time>2013-04-23T15:35:47Z</time>
      </trkpt>
      <trkpt lat="45.25901" lon="4.81082">
        <ele>133</ele>
        <time>2013-04-23T15:35:51Z</time>
      </trkpt>
      <trkpt lat="45.25898" lon="4.81081">
        <ele>133</ele>
        <time>2013-04-23T15:35:52Z</time>
      </trkpt>
      <trkpt lat="45.25877" lon="4.81073">
        <ele>132</ele>
        <time>2013-04-23T15:35:57Z</time>
      </trkpt>
      <trkpt lat="45.25849" lon="4.81066">
        <ele>133</ele>
        <time>2013-04-23T15:36:02Z</time>
      </trkpt>
      <trkpt lat="45.25843" lon="4.81063">
        <ele>133</ele>
        <time>2013-04-23T15:36:03Z</time>
      </trkpt>
      <trkpt lat="45.25805" lon="4.81046">
        <ele>132</ele>
        <time>2013-04-23T15:36:10Z</time>
      </trkpt>
      <trkpt lat="45.25766" lon="4.81033">
        <ele>132</ele>
        <time>2013-04-23T15:36:17Z</time>
      </trkpt>
      <trkpt lat="45.25734" lon="4.81014">
        <ele>132</ele>
        <time>2013-04-23T15:36:23Z</time>
      </trkpt>
      <trkpt lat="45.25692" lon="4.80988">
        <ele>132</ele>
        <time>2013-04-23T15:36:31Z</time>
      </trkpt>
      <trkpt lat="45.25657" lon="4.80971">
        <ele>132</ele>
        <time>2013-04-23T15:36:38Z</time>
      </trkpt>
      <trkpt lat="45.25637" lon="4.80965">
        <ele>132</ele>
        <time>2013-04-23T15:36:42Z</time>
      </trkpt>
      <trkpt lat="45.25621" lon="4.80958">
        <ele>131</ele>
        <time>2013-04-23T15:36:45Z</time>
      </trkpt>
      <trkpt lat="45.2561" lon="4.80955">
        <ele>132</ele>
        <time>2013-04-23T15:36:47Z</time>
      </trkpt>
      <trkpt lat="45.25589" lon="4.80946">
        <ele>132</ele>
        <time>2013-04-23T15:36:51Z</time>
      </trkpt>
      <trkpt lat="45.25551" lon="4.80934">
        <ele>131</ele>
        <time>2013-04-23T15:36:58Z</time>
      </trkpt>
      <trkpt lat="45.25526" lon="4.80924">
        <ele>131</ele>
        <time>2013-04-23T15:37:04Z</time>
      </trkpt>
      <trkpt lat="45.25504" lon="4.80913">
        <ele>130</ele>
        <time>2013-04-23T15:37:10Z</time>
      </trkpt>
      <trkpt lat="45.25478" lon="4.80909">
        <ele>131</ele>
        <time>2013-04-23T15:37:17Z</time>
      </trkpt>
      <trkpt lat="45.25444" lon="4.80905">
        <ele>132</ele>
        <time>2013-04-23T15:37:25Z</time>
      </trkpt>
      <trkpt lat="45.25421" lon="4.80903">
        <ele>132</ele>
        <time>2013-04-23T15:37:31Z</time>
      </trkpt>
      <trkpt lat="45.2541" lon="4.80903">
        <ele>132</ele>
        <time>2013-04-23T15:37:33Z</time>
      </trkpt>
      <trkpt lat="45.25399" lon="4.809">
        <ele>132</ele>
        <time>2013-04-23T15:37:35Z</time>
      </trkpt>
      <trkpt lat="45.25381" lon="4.80896">
        <ele>132</ele>
        <time>2013-04-23T15:37:38Z</time>
      </trkpt>
      <trkpt lat="45.2537" lon="4.80898">
        <ele>132</ele>
        <time>2013-04-23T15:37:40Z</time>
      </trkpt>
      <trkpt lat="45.2536" lon="4.80913">
        <ele>133</ele>
        <time>2013-04-23T15:37:43Z</time>
      </trkpt>
      <trkpt lat="45.25352" lon="4.80929">
        <ele>135</ele>
        <time>2013-04-23T15:37:46Z</time>
      </trkpt>
      <trkpt lat="45.25342" lon="4.80939">
        <ele>135</ele>
        <time>2013-04-23T15:37:49Z</time>
      </trkpt>
      <trkpt lat="45.25339" lon="4.80941">
        <ele>135</ele>
        <time>2013-04-23T15:37:50Z</time>
      </trkpt>
      <trkpt lat="45.25317" lon="4.80952">
        <ele>137</ele>
        <time>2013-04-23T15:37:55Z</time>
      </trkpt>
      <trkpt lat="45.25298" lon="4.80957">
        <ele>137</ele>
        <time>2013-04-23T15:38:00Z</time>
      </trkpt>
      <trkpt lat="45.25272" lon="4.80965">
        <ele>138</ele>
        <time>2013-04-23T15:38:07Z</time>
      </trkpt>
      <trkpt lat="45.25266" lon="4.80966">
        <ele>138</ele>
        <time>2013-04-23T15:38:09Z</time>
      </trkpt>
      <trkpt lat="45.25263" lon="4.80967">
        <ele>138</ele>
        <time>2013-04-23T15:38:10Z</time>
      </trkpt>
      <trkpt lat="45.25259" lon="4.80967">
        <ele>138</ele>
        <time>2013-04-23T15:38:11Z</time>
      </trkpt>
      <trkpt lat="45.25256" lon="4.80967">
        <ele>138</ele>
        <time>2013-04-23T15:38:12Z</time>
      </trkpt>
      <trkpt lat="45.25253" lon="4.80967">
        <ele>138</ele>
        <time>2013-04-23T15:38:13Z</time>
      </trkpt>
      <trkpt lat="45.25253" lon="4.80967">
        <ele>138</ele>
        <time>2013-04-23T15:38:13Z</time>
      </trkpt>
      <trkpt lat="45.25229" lon="4.80967">
        <ele>138</ele>
        <time>2013-04-23T15:38:20Z</time>
      </trkpt>
      <trkpt lat="45.25226" lon="4.80967">
        <ele>138</ele>
        <time>2013-04-23T15:38:21Z</time>
      </trkpt>
      <trkpt lat="45.25223" lon="4.80968">
        <ele>138</ele>
        <time>2013-04-23T15:38:22Z</time>
      </trkpt>
      <trkpt lat="45.2522" lon="4.80969">
        <ele>138</ele>
        <time>2013-04-23T15:38:23Z</time>
      </trkpt>
      <trkpt lat="45.25219" lon="4.80971">
        <ele>138</ele>
        <time>2013-04-23T15:38:24Z</time>
      </trkpt>
      <trkpt lat="45.25217" lon="4.80973">
        <ele>138</ele>
        <time>2013-04-23T15:38:25Z</time>
      </trkpt>
      <trkpt lat="45.25213" lon="4.80992">
        <ele>138</ele>
        <time>2013-04-23T15:38:30Z</time>
      </trkpt>
      <trkpt lat="45.25212" lon="4.8101">
        <ele>139</ele>
        <time>2013-04-23T15:38:36Z</time>
      </trkpt>
      <trkpt lat="45.25213" lon="4.8101">
        <ele>139</ele>
        <time>2013-04-23T15:38:45Z</time>
      </trkpt>
      <trkpt lat="45.25212" lon="4.8101">
        <ele>139</ele>
        <time>2013-04-23T15:38:50Z</time>
      </trkpt>
      <trkpt lat="45.25212" lon="4.8101">
        <ele>139</ele>
        <time>2013-04-23T15:38:52Z</time>
      </trkpt>
      <trkpt lat="45.25212" lon="4.8101">
        <ele>139</ele>
        <time>2013-04-23T15:39:08Z</time>
      </trkpt>
      <trkpt lat="45.25212" lon="4.8101">
        <ele>139</ele>
        <time>2013-04-23T15:39:25Z</time>
      </trkpt>
      <trkpt lat="45.25212" lon="4.8101">
        <ele>139</ele>
        <time>2013-04-23T15:39:41Z</time>
      </trkpt>
      <trkpt lat="45.25212" lon="4.8101">
        <ele>139</ele>
        <time>2013-04-23T15:39:49Z</time>
      </trkpt>
      <trkpt lat="45.25212" lon="4.81011">
        <ele>139</ele>
        <time>2013-04-23T15:39:51Z</time>
      </trkpt>
      <trkpt lat="45.25212" lon="4.81031">
        <ele>139</ele>
        <time>2013-04-23T15:40:37Z</time>
      </trkpt>
      <trkpt lat="45.25208" lon="4.81051">
        <ele>139</ele>
        <time>2013-04-23T15:40:41Z</time>
      </trkpt>
      <trkpt lat="45.25205" lon="4.81055">
        <ele>139</ele>
        <time>2013-04-23T15:40:42Z</time>
      </trkpt>
      <trkpt lat="45.2519" lon="4.81071">
        <ele>139</ele>
        <time>2013-04-23T15:40:47Z</time>
      </trkpt>
      <trkpt lat="45.25187" lon="4.81073">
        <ele>139</ele>
        <time>2013-04-23T15:40:48Z</time>
      </trkpt>
      <trkpt lat="45.25164" lon="4.81092">
        <ele>138</ele>
        <time>2013-04-23T15:40:56Z</time>
      </trkpt>
      <trkpt lat="45.25154" lon="4.81102">
        <ele>137</ele>
        <time>2013-04-23T15:40:59Z</time>
      </trkpt>
      <trkpt lat="45.2515" lon="4.81104">
        <ele>137</ele>
        <time>2013-04-23T15:41:01Z</time>
      </trkpt>
      <trkpt lat="45.25149" lon="4.81104">
        <ele>137</ele>
        <time>2013-04-23T15:41:06Z</time>
      </trkpt>
      <trkpt lat="45.2515" lon="4.81104">
        <ele>137</ele>
        <time>2013-04-23T15:41:13Z</time>
      </trkpt>
      <trkpt lat="45.2515" lon="4.81104">
        <ele>137</ele>
        <time>2013-04-23T15:41:27Z</time>
      </trkpt>
      <trkpt lat="45.2515" lon="4.81104">
        <ele>137</ele>
        <time>2013-04-23T15:41:38Z</time>
      </trkpt>
      <trkpt lat="45.2515" lon="4.81104">
        <ele>137</ele>
        <time>2013-04-23T15:41:52Z</time>
      </trkpt>
      <trkpt lat="45.2515" lon="4.81104">
        <ele>137</ele>
        <time>2013-04-23T15:42:05Z</time>
      </trkpt>
      <trkpt lat="45.25144" lon="4.81101">
        <ele>137</ele>
        <time>2013-04-23T15:42:09Z</time>
      </trkpt>
      <trkpt lat="45.25124" lon="4.81083">
        <ele>137</ele>
        <time>2013-04-23T15:42:15Z</time>
      </trkpt>
      <trkpt lat="45.25097" lon="4.81059">
        <ele>136</ele>
        <time>2013-04-23T15:42:23Z</time>
      </trkpt>
      <trkpt lat="45.25065" lon="4.81035">
        <ele>136</ele>
        <time>2013-04-23T15:42:30Z</time>
      </trkpt>
      <trkpt lat="45.25034" lon="4.81012">
        <ele>136</ele>
        <time>2013-04-23T15:42:37Z</time>
      </trkpt>
      <trkpt lat="45.24996" lon="4.80982">
        <ele>137</ele>
        <time>2013-04-23T15:42:46Z</time>
      </trkpt>
      <trkpt lat="45.24984" lon="4.80972">
        <ele>137</ele>
        <time>2013-04-23T15:42:49Z</time>
      </trkpt>
      <trkpt lat="45.2497" lon="4.80959">
        <ele>137</ele>
        <time>2013-04-23T15:42:53Z</time>
      </trkpt>
      <trkpt lat="45.2496" lon="4.80949">
        <ele>137</ele>
        <time>2013-04-23T15:42:56Z</time>
      </trkpt>
      <trkpt lat="45.24943" lon="4.80938">
        <ele>137</ele>
        <time>2013-04-23T15:43:00Z</time>
      </trkpt>
      <trkpt lat="45.24909" lon="4.80916">
        <ele>137</ele>
        <time>2013-04-23T15:43:07Z</time>
      </trkpt>
      <trkpt lat="45.24878" lon="4.80896">
        <ele>136</ele>
        <time>2013-04-23T15:43:13Z</time>
      </trkpt>
      <trkpt lat="45.24824" lon="4.80859">
        <ele>136</ele>
        <time>2013-04-23T15:43:23Z</time>
      </trkpt>
      <trkpt lat="45.24782" lon="4.80828">
        <ele>136</ele>
        <time>2013-04-23T15:43:31Z</time>
      </trkpt>
      <trkpt lat="45.24733" lon="4.8079">
        <ele>136</ele>
        <time>2013-04-23T15:43:40Z</time>
      </trkpt>
      <trkpt lat="45.24685" lon="4.80754">
        <ele>136</ele>
        <time>2013-04-23T15:43:49Z</time>
      </trkpt>
      <trkpt lat="45.2468" lon="4.80749">
        <ele>136</ele>
        <time>2013-04-23T15:43:50Z</time>
      </trkpt>
      <trkpt lat="45.24635" lon="4.80716">
        <ele>137</ele>
        <time>2013-04-23T15:43:58Z</time>
      </trkpt>
      <trkpt lat="45.24607" lon="4.80697">
        <ele>137</ele>
        <time>2013-04-23T15:44:03Z</time>
      </trkpt>
      <trkpt lat="45.24602" lon="4.80693">
        <ele>137</ele>
        <time>2013-04-23T15:44:04Z</time>
      </trkpt>
      <trkpt lat="45.24596" lon="4.80689">
        <ele>137</ele>
        <time>2013-04-23T15:44:05Z</time>
      </trkpt>
      <trkpt lat="45.24591" lon="4.80685">
        <ele>137</ele>
        <time>2013-04-23T15:44:06Z</time>
      </trkpt>
      <trkpt lat="45.24585" lon="4.80681">
        <ele>137</ele>
        <time>2013-04-23T15:44:07Z</time>
      </trkpt>
      <trkpt lat="45.24558" lon="4.80663">
        <ele>137</ele>
        <time>2013-04-23T15:44:12Z</time>
      </trkpt>
      <trkpt lat="45.24524" lon="4.80652">
        <ele>137</ele>
        <time>2013-04-23T15:44:18Z</time>
      </trkpt>
      <trkpt lat="45.24491" lon="4.80641">
        <ele>138</ele>
        <time>2013-04-23T15:44:25Z</time>
      </trkpt>
      <trkpt lat="45.24456" lon="4.80631">
        <ele>139</ele>
        <time>2013-04-23T15:44:34Z</time>
      </trkpt>
      <trkpt lat="45.24461" lon="4.80516">
        <ele>137</ele>
        <time>2013-04-23T15:45:22Z</time>
      </trkpt>
      <trkpt lat="45.24466" lon="4.80455">
        <ele>135</ele>
        <time>2013-04-23T15:45:29Z</time>
      </trkpt>
      <trkpt lat="45.24468" lon="4.80436">
        <ele>135</ele>
        <time>2013-04-23T15:45:31Z</time>
      </trkpt>
      <trkpt lat="45.24469" lon="4.80426">
        <ele>135</ele>
        <time>2013-04-23T15:45:32Z</time>
      </trkpt>
      <trkpt lat="45.2447" lon="4.80417">
        <ele>135</ele>
        <time>2013-04-23T15:45:33Z</time>
      </trkpt>
      <trkpt lat="45.24471" lon="4.80407">
        <ele>134</ele>
        <time>2013-04-23T15:45:34Z</time>
      </trkpt>
      <trkpt lat="45.24471" lon="4.80397">
        <ele>134</ele>
        <time>2013-04-23T15:45:35Z</time>
      </trkpt>
      <trkpt lat="45.24473" lon="4.80355">
        <ele>133</ele>
        <time>2013-04-23T15:45:39Z</time>
      </trkpt>
      <trkpt lat="45.24474" lon="4.80345">
        <ele>133</ele>
        <time>2013-04-23T15:45:40Z</time>
      </trkpt>
      <trkpt lat="45.24475" lon="4.80334">
        <ele>133</ele>
        <time>2013-04-23T15:45:41Z</time>
      </trkpt>
      <trkpt lat="45.24476" lon="4.80324">
        <ele>132</ele>
        <time>2013-04-23T15:45:42Z</time>
      </trkpt>
      <trkpt lat="45.24475" lon="4.80317">
        <ele>132</ele>
        <time>2013-04-23T15:45:43Z</time>
      </trkpt>
      <trkpt lat="45.24381" lon="4.80303">
        <ele>132</ele>
        <time>2013-04-23T15:46:06Z</time>
      </trkpt>
      <trkpt lat="45.24375" lon="4.80304">
        <ele>132</ele>
        <time>2013-04-23T15:46:07Z</time>
      </trkpt>
      <trkpt lat="45.24371" lon="4.80305">
        <ele>132</ele>
        <time>2013-04-23T15:46:08Z</time>
      </trkpt>
      <trkpt lat="45.24361" lon="4.80306">
        <ele>132</ele>
        <time>2013-04-23T15:46:10Z</time>
      </trkpt>
      <trkpt lat="45.24334" lon="4.8031">
        <ele>132</ele>
        <time>2013-04-23T15:46:16Z</time>
      </trkpt>
      <trkpt lat="45.24318" lon="4.80306">
        <ele>132</ele>
        <time>2013-04-23T15:49:13Z</time>
      </trkpt>
      <trkpt lat="45.24309" lon="4.80304">
        <ele>131</ele>
        <time>2013-04-23T15:49:17Z</time>
      </trkpt>
      <trkpt lat="45.24289" lon="4.80287">
        <ele>131</ele>
        <time>2013-04-23T15:49:24Z</time>
      </trkpt>
      <trkpt lat="45.24271" lon="4.8028">
        <ele>130</ele>
        <time>2013-04-23T15:49:29Z</time>
      </trkpt>
      <trkpt lat="45.2425" lon="4.80271">
        <ele>130</ele>
        <time>2013-04-23T15:49:36Z</time>
      </trkpt>
      <trkpt lat="45.24229" lon="4.80264">
        <ele>130</ele>
        <time>2013-04-23T15:49:43Z</time>
      </trkpt>
      <trkpt lat="45.24226" lon="4.80263">
        <ele>131</ele>
        <time>2013-04-23T15:49:44Z</time>
      </trkpt>
      <trkpt lat="45.24223" lon="4.80262">
        <ele>131</ele>
        <time>2013-04-23T15:49:45Z</time>
      </trkpt>
      <trkpt lat="45.24221" lon="4.80261">
        <ele>131</ele>
        <time>2013-04-23T15:49:46Z</time>
      </trkpt>
      <trkpt lat="45.2422" lon="4.80261">
        <ele>131</ele>
        <time>2013-04-23T15:49:47Z</time>
      </trkpt>
      <trkpt lat="45.24219" lon="4.80261">
        <ele>131</ele>
        <time>2013-04-23T15:49:48Z</time>
      </trkpt>
      <trkpt lat="45.24219" lon="4.80261">
        <ele>131</ele>
        <time>2013-04-23T15:50:00Z</time>
      </trkpt>
      <trkpt lat="45.24219" lon="4.80261">
        <ele>131</ele>
        <time>2013-04-23T15:50:15Z</time>
      </trkpt>
      <trkpt lat="45.24217" lon="4.80262">
        <ele>131</ele>
        <time>2013-04-23T15:50:22Z</time>
      </trkpt>
      <trkpt lat="45.24206" lon="4.80265">
        <ele>131</ele>
        <time>2013-04-23T15:50:27Z</time>
      </trkpt>
      <trkpt lat="45.24184" lon="4.80269">
        <ele>132</ele>
        <time>2013-04-23T15:50:33Z</time>
      </trkpt>
      <trkpt lat="45.24152" lon="4.80281">
        <ele>133</ele>
        <time>2013-04-23T15:50:42Z</time>
      </trkpt>
      <trkpt lat="45.24131" lon="4.80286">
        <ele>133</ele>
        <time>2013-04-23T15:50:48Z</time>
      </trkpt>
      <trkpt lat="45.24118" lon="4.8029">
        <ele>133</ele>
        <time>2013-04-23T15:50:51Z</time>
      </trkpt>
      <trkpt lat="45.24099" lon="4.80295">
        <ele>134</ele>
        <time>2013-04-23T15:50:55Z</time>
      </trkpt>
      <trkpt lat="45.24059" lon="4.80302">
        <ele>133</ele>
        <time>2013-04-23T15:51:03Z</time>
      </trkpt>
      <trkpt lat="45.24017" lon="4.80305">
        <ele>132</ele>
        <time>2013-04-23T15:51:11Z</time>
      </trkpt>
      <trkpt lat="45.2399" lon="4.80308">
        <ele>131</ele>
        <time>2013-04-23T15:51:17Z</time>
      </trkpt>
      <trkpt lat="45.23963" lon="4.80311">
        <ele>131</ele>
        <time>2013-04-23T15:51:24Z</time>
      </trkpt>
      <trkpt lat="45.23936" lon="4.80316">
        <ele>131</ele>
        <time>2013-04-23T15:51:31Z</time>
      </trkpt>
      <trkpt lat="45.23909" lon="4.80325">
        <ele>132</ele>
        <time>2013-04-23T15:51:37Z</time>
      </trkpt>
      <trkpt lat="45.23889" lon="4.8033">
        <ele>131</ele>
        <time>2013-04-23T15:51:41Z</time>
      </trkpt>
      <trkpt lat="45.23879" lon="4.80332">
        <ele>131</ele>
        <time>2013-04-23T15:51:43Z</time>
      </trkpt>
      <trkpt lat="45.23831" lon="4.80342">
        <ele>132</ele>
        <time>2013-04-23T15:51:52Z</time>
      </trkpt>
      <trkpt lat="45.23792" lon="4.80352">
        <ele>131</ele>
        <time>2013-04-23T15:52:00Z</time>
      </trkpt>
      <trkpt lat="45.23756" lon="4.80361">
        <ele>131</ele>
        <time>2013-04-23T15:52:08Z</time>
      </trkpt>
      <trkpt lat="45.23739" lon="4.80365">
        <ele>130</ele>
        <time>2013-04-23T15:52:14Z</time>
      </trkpt>
      <trkpt lat="45.23735" lon="4.80368">
        <ele>130</ele>
        <time>2013-04-23T15:52:19Z</time>
      </trkpt>
      <trkpt lat="45.23735" lon="4.80368">
        <ele>130</ele>
        <time>2013-04-23T15:52:33Z</time>
      </trkpt>
      <trkpt lat="45.23735" lon="4.80368">
        <ele>130</ele>
        <time>2013-04-23T15:52:47Z</time>
      </trkpt>
      <trkpt lat="45.23731" lon="4.80365">
        <ele>130</ele>
        <time>2013-04-23T15:52:53Z</time>
      </trkpt>
      <trkpt lat="45.23731" lon="4.80365">
        <ele>130</ele>
        <time>2013-04-23T15:52:53Z</time>
      </trkpt>
      <trkpt lat="45.23719" lon="4.80369">
        <ele>130</ele>
        <time>2013-04-23T15:52:57Z</time>
      </trkpt>
      <trkpt lat="45.23703" lon="4.80372">
        <ele>130</ele>
        <time>2013-04-23T15:53:00Z</time>
      </trkpt>
      <trkpt lat="45.23702" lon="4.80375">
        <ele>130</ele>
        <time>2013-04-23T15:53:29Z</time>
      </trkpt>
      <trkpt lat="45.23701" lon="4.80378">
        <ele>130</ele>
        <time>2013-04-23T15:53:31Z</time>
      </trkpt>
      <trkpt lat="45.23697" lon="4.80389">
        <ele>130</ele>
        <time>2013-04-23T15:53:37Z</time>
      </trkpt>
      <trkpt lat="45.23707" lon="4.80403">
        <ele>130</ele>
        <time>2013-04-23T15:55:36Z</time>
      </trkpt>
      <trkpt lat="45.23723" lon="4.80428">
        <ele>131</ele>
        <time>2013-04-23T15:55:42Z</time>
      </trkpt>
      <trkpt lat="45.23742" lon="4.80447">
        <ele>131</ele>
        <time>2013-04-23T15:55:48Z</time>
      </trkpt>
      <trkpt lat="45.23745" lon="4.80451">
        <ele>131</ele>
        <time>2013-04-23T15:55:49Z</time>
      </trkpt>
      <trkpt lat="45.23771" lon="4.80477">
        <ele>131</ele>
        <time>2013-04-23T15:55:56Z</time>
      </trkpt>
      <trkpt lat="45.23796" lon="4.80504">
        <ele>131</ele>
        <time>2013-04-23T15:56:03Z</time>
      </trkpt>
      <trkpt lat="45.23817" lon="4.80529">
        <ele>131</ele>
        <time>2013-04-23T15:56:09Z</time>
      </trkpt>
      <trkpt lat="45.23825" lon="4.80536">
        <ele>131</ele>
        <time>2013-04-23T15:56:11Z</time>
      </trkpt>
      <trkpt lat="45.23851" lon="4.80563">
        <ele>131</ele>
        <time>2013-04-23T15:56:18Z</time>
      </trkpt>
      <trkpt lat="45.23876" lon="4.80587">
        <ele>131</ele>
        <time>2013-04-23T15:56:25Z</time>
      </trkpt>
      <trkpt lat="45.23895" lon="4.80608">
        <ele>132</ele>
        <time>2013-04-23T15:56:32Z</time>
      </trkpt>
      <trkpt lat="45.23911" lon="4.80626">
        <ele>132</ele>
        <time>2013-04-23T15:56:38Z</time>
      </trkpt>
      <trkpt lat="45.23911" lon="4.80626">
        <ele>132</ele>
        <time>2013-04-23T15:56:42Z</time>
      </trkpt>
      <trkpt lat="45.23911" lon="4.80626">
        <ele>132</ele>
        <time>2013-04-23T15:56:42Z</time>
      </trkpt>
      <trkpt lat="45.23911" lon="4.80626">
        <ele>132</ele>
        <time>2013-04-23T15:56:54Z</time>
      </trkpt>
      <trkpt lat="45.2391" lon="4.80627">
        <ele>132</ele>
        <time>2013-04-23T15:57:03Z</time>
      </trkpt>
      <trkpt lat="45.2391" lon="4.80627">
        <ele>132</ele>
        <time>2013-04-23T15:57:05Z</time>
      </trkpt>
      <trkpt lat="45.2391" lon="4.80627">
        <ele>132</ele>
        <time>2013-04-23T15:57:19Z</time>
      </trkpt>
      <trkpt lat="45.23905" lon="4.80632">
        <ele>132</ele>
        <time>2013-04-23T15:57:23Z</time>
      </trkpt>
      <trkpt lat="45.23889" lon="4.80644">
        <ele>131</ele>
        <time>2013-04-23T15:57:28Z</time>
      </trkpt>
      <trkpt lat="45.23867" lon="4.80652">
        <ele>131</ele>
        <time>2013-04-23T15:57:34Z</time>
      </trkpt>
      <trkpt lat="45.23852" lon="4.80655">
        <ele>131</ele>
        <time>2013-04-23T15:57:40Z</time>
      </trkpt>
      <trkpt lat="45.23851" lon="4.80655">
        <ele>131</ele>
        <time>2013-04-23T15:57:45Z</time>
      </trkpt>
      <trkpt lat="45.23851" lon="4.80655">
        <ele>131</ele>
        <time>2013-04-23T15:57:46Z</time>
      </trkpt>
      <trkpt lat="45.23851" lon="4.80655">
        <ele>131</ele>
        <time>2013-04-23T15:57:47Z</time>
      </trkpt>
      <trkpt lat="45.23851" lon="4.80655">
        <ele>131</ele>
        <time>2013-04-23T15:57:48Z</time>
      </trkpt>
      <trkpt lat="45.23851" lon="4.80655">
        <ele>131</ele>
        <time>2013-04-23T15:57:49Z</time>
      </trkpt>
      <trkpt lat="45.23851" lon="4.80654">
        <ele>131</ele>
        <time>2013-04-23T15:57:56Z</time>
      </trkpt>
      <trkpt lat="45.23849" lon="4.80652">
        <ele>131</ele>
        <time>2013-04-23T15:57:57Z</time>
      </trkpt>
      <trkpt lat="45.23849" lon="4.80652">
        <ele>131</ele>
        <time>2013-04-23T15:57:57Z</time>
      </trkpt>
      <trkpt lat="45.23839" lon="4.80637">
        <ele>131</ele>
        <time>2013-04-23T15:58:01Z</time>
      </trkpt>
      <trkpt lat="45.2381" lon="4.80609">
        <ele>130</ele>
        <time>2013-04-23T15:58:08Z</time>
      </trkpt>
      <trkpt lat="45.23779" lon="4.80579">
        <ele>131</ele>
        <time>2013-04-23T15:58:15Z</time>
      </trkpt>
      <trkpt lat="45.23756" lon="4.80559">
        <ele>131</ele>
        <time>2013-04-23T15:58:20Z</time>
      </trkpt>
      <trkpt lat="45.23727" lon="4.80534">
        <ele>131</ele>
        <time>2013-04-23T15:58:26Z</time>
      </trkpt>
      <trkpt lat="45.23696" lon="4.80512">
        <ele>131</ele>
        <time>2013-04-23T15:58:33Z</time>
      </trkpt>
      <trkpt lat="45.2369" lon="4.80509">
        <ele>131</ele>
        <time>2013-04-23T15:58:34Z</time>
      </trkpt>
      <trkpt lat="45.23675" lon="4.80503">
        <ele>130</ele>
        <time>2013-04-23T15:58:37Z</time>
      </trkpt>
      <trkpt lat="45.23665" lon="4.805">
        <ele>130</ele>
        <time>2013-04-23T15:58:39Z</time>
      </trkpt>
      <trkpt lat="45.23648" lon="4.80496">
        <ele>130</ele>
        <time>2013-04-23T15:58:42Z</time>
      </trkpt>
      <trkpt lat="45.23637" lon="4.80494">
        <ele>130</ele>
        <time>2013-04-23T15:58:44Z</time>
      </trkpt>
      <trkpt lat="45.23631" lon="4.80492">
        <ele>130</ele>
        <time>2013-04-23T15:58:45Z</time>
      </trkpt>
      <trkpt lat="45.23607" lon="4.80486">
        <ele>131</ele>
        <time>2013-04-23T15:58:49Z</time>
      </trkpt>
      <trkpt lat="45.23571" lon="4.80479">
        <ele>131</ele>
        <time>2013-04-23T15:58:55Z</time>
      </trkpt>
      <trkpt lat="45.2354" lon="4.80474">
        <ele>131</ele>
        <time>2013-04-23T15:59:00Z</time>
      </trkpt>
      <trkpt lat="45.23495" lon="4.80463">
        <ele>130</ele>
        <time>2013-04-23T15:59:07Z</time>
      </trkpt>
      <trkpt lat="45.23451" lon="4.80454">
        <ele>130</ele>
        <time>2013-04-23T15:59:14Z</time>
      </trkpt>
      <trkpt lat="45.23415" lon="4.80446">
        <ele>130</ele>
        <time>2013-04-23T15:59:20Z</time>
      </trkpt>
      <trkpt lat="45.23379" lon="4.80432">
        <ele>130</ele>
        <time>2013-04-23T15:59:27Z</time>
      </trkpt>
      <trkpt lat="45.23363" lon="4.80427">
        <ele>130</ele>
        <time>2013-04-23T15:59:30Z</time>
      </trkpt>
      <trkpt lat="45.23352" lon="4.80424">
        <ele>130</ele>
        <time>2013-04-23T15:59:32Z</time>
      </trkpt>
      <trkpt lat="45.23346" lon="4.80424">
        <ele>130</ele>
        <time>2013-04-23T15:59:33Z</time>
      </trkpt>
      <trkpt lat="45.23319" lon="4.80422">
        <ele>131</ele>
        <time>2013-04-23T15:59:37Z</time>
      </trkpt>
      <trkpt lat="45.23304" lon="4.80424">
        <ele>131</ele>
        <time>2013-04-23T15:59:39Z</time>
      </trkpt>
      <trkpt lat="45.23284" lon="4.8043">
        <ele>132</ele>
        <time>2013-04-23T15:59:42Z</time>
      </trkpt>
      <trkpt lat="45.23265" lon="4.80439">
        <ele>132</ele>
        <time>2013-04-23T15:59:45Z</time>
      </trkpt>
      <trkpt lat="45.23253" lon="4.80441">
        <ele>132</ele>
        <time>2013-04-23T15:59:47Z</time>
      </trkpt>
      <trkpt lat="45.23211" lon="4.80441">
        <ele>134</ele>
        <time>2013-04-23T15:59:54Z</time>
      </trkpt>
      <trkpt lat="45.23205" lon="4.8044">
        <ele>133</ele>
        <time>2013-04-23T15:59:55Z</time>
      </trkpt>
      <trkpt lat="45.23181" lon="4.80435">
        <ele>133</ele>
        <time>2013-04-23T15:59:59Z</time>
      </trkpt>
      <trkpt lat="45.23143" lon="4.80433">
        <ele>133</ele>
        <time>2013-04-23T16:00:06Z</time>
      </trkpt>
      <trkpt lat="45.23138" lon="4.80433">
        <ele>133</ele>
        <time>2013-04-23T16:00:07Z</time>
      </trkpt>
      <trkpt lat="45.23119" lon="4.80431">
        <ele>132</ele>
        <time>2013-04-23T16:00:10Z</time>
      </trkpt>
      <trkpt lat="45.23074" lon="4.80426">
        <ele>131</ele>
        <time>2013-04-23T16:00:17Z</time>
      </trkpt>
      <trkpt lat="45.23058" lon="4.80425">
        <ele>132</ele>
        <time>2013-04-23T16:00:21Z</time>
      </trkpt>
      <trkpt lat="45.23056" lon="4.80425">
        <ele>132</ele>
        <time>2013-04-23T16:00:24Z</time>
      </trkpt>
      <trkpt lat="45.23056" lon="4.80425">
        <ele>132</ele>
        <time>2013-04-23T16:00:24Z</time>
      </trkpt>
      <trkpt lat="45.23056" lon="4.80425">
        <ele>132</ele>
        <time>2013-04-23T16:00:27Z</time>
      </trkpt>
      <trkpt lat="45.23056" lon="4.80425">
        <ele>132</ele>
        <time>2013-04-23T16:00:28Z</time>
      </trkpt>
      <trkpt lat="45.23056" lon="4.80425">
        <ele>132</ele>
        <time>2013-04-23T16:00:29Z</time>
      </trkpt>
      <trkpt lat="45.23056" lon="4.80425">
        <ele>132</ele>
        <time>2013-04-23T16:00:30Z</time>
      </trkpt>
      <trkpt lat="45.23056" lon="4.80425">
        <ele>132</ele>
        <time>2013-04-23T16:00:31Z</time>
      </trkpt>
      <trkpt lat="45.23054" lon="4.80424">
        <ele>132</ele>
        <time>2013-04-23T16:00:34Z</time>
      </trkpt>
      <trkpt lat="45.23042" lon="4.8042">
        <ele>132</ele>
        <time>2013-04-23T16:00:39Z</time>
      </trkpt>
      <trkpt lat="45.23019" lon="4.80412">
        <ele>131</ele>
        <time>2013-04-23T16:00:45Z</time>
      </trkpt>
      <trkpt lat="45.23002" lon="4.80409">
        <ele>131</ele>
        <time>2013-04-23T16:00:49Z</time>
      </trkpt>
      <trkpt lat="45.22986" lon="4.80409">
        <ele>131</ele>
        <time>2013-04-23T16:00:53Z</time>
      </trkpt>
      <trkpt lat="45.22978" lon="4.80407">
        <ele>131</ele>
        <time>2013-04-23T16:00:55Z</time>
      </trkpt>
      <trkpt lat="45.2296" lon="4.80406">
        <ele>131</ele>
        <time>2013-04-23T16:00:59Z</time>
      </trkpt>
      <trkpt lat="45.2292" lon="4.80405">
        <ele>131</ele>
        <time>2013-04-23T16:01:07Z</time>
      </trkpt>
      <trkpt lat="45.22894" lon="4.80407">
        <ele>131</ele>
        <time>2013-04-23T16:01:13Z</time>
      </trkpt>
      <trkpt lat="45.22867" lon="4.80408">
        <ele>131</ele>
        <time>2013-04-23T16:01:20Z</time>
      </trkpt>
      <trkpt lat="45.22849" lon="4.80411">
        <ele>131</ele>
        <time>2013-04-23T16:01:26Z</time>
      </trkpt>
      <trkpt lat="45.22829" lon="4.80416">
        <ele>131</ele>
        <time>2013-04-23T16:01:35Z</time>
      </trkpt>
      <trkpt lat="45.22775" lon="4.80432">
        <ele>132</ele>
        <time>2013-04-23T16:02:51Z</time>
      </trkpt>
      <trkpt lat="45.22749" lon="4.80441">
        <ele>132</ele>
        <time>2013-04-23T16:05:12Z</time>
      </trkpt>
      <trkpt lat="45.22729" lon="4.80448">
        <ele>131</ele>
        <time>2013-04-23T16:05:18Z</time>
      </trkpt>
      <trkpt lat="45.22694" lon="4.8046">
        <ele>131</ele>
        <time>2013-04-23T16:05:26Z</time>
      </trkpt>
      <trkpt lat="45.22675" lon="4.80467">
        <ele>130</ele>
        <time>2013-04-23T16:05:30Z</time>
      </trkpt>
      <trkpt lat="45.2267" lon="4.80469">
        <ele>130</ele>
        <time>2013-04-23T16:05:31Z</time>
      </trkpt>
      <trkpt lat="45.22652" lon="4.80476">
        <ele>129</ele>
        <time>2013-04-23T16:05:35Z</time>
      </trkpt>
      <trkpt lat="45.22642" lon="4.80479">
        <ele>129</ele>
        <time>2013-04-23T16:05:37Z</time>
      </trkpt>
      <trkpt lat="45.22621" lon="4.80488">
        <ele>129</ele>
        <time>2013-04-23T16:05:41Z</time>
      </trkpt>
      <trkpt lat="45.22611" lon="4.80493">
        <ele>130</ele>
        <time>2013-04-23T16:05:43Z</time>
      </trkpt>
      <trkpt lat="45.22591" lon="4.80505">
        <ele>130</ele>
        <time>2013-04-23T16:05:47Z</time>
      </trkpt>
      <trkpt lat="45.2255" lon="4.80528">
        <ele>129</ele>
        <time>2013-04-23T16:05:55Z</time>
      </trkpt>
      <trkpt lat="45.22508" lon="4.80549">
        <ele>129</ele>
        <time>2013-04-23T16:06:03Z</time>
      </trkpt>
      <trkpt lat="45.22471" lon="4.80573">
        <ele>128</ele>
        <time>2013-04-23T16:06:10Z</time>
      </trkpt>
      <trkpt lat="45.2246" lon="4.80579">
        <ele>128</ele>
        <time>2013-04-23T16:06:12Z</time>
      </trkpt>
      <trkpt lat="45.22418" lon="4.806">
        <ele>128</ele>
        <time>2013-04-23T16:06:20Z</time>
      </trkpt>
      <trkpt lat="45.22379" lon="4.80621">
        <ele>128</ele>
        <time>2013-04-23T16:06:27Z</time>
      </trkpt>
      <trkpt lat="45.22343" lon="4.8064">
        <ele>129</ele>
        <time>2013-04-23T16:06:33Z</time>
      </trkpt>
      <trkpt lat="45.22298" lon="4.80662">
        <ele>129</ele>
        <time>2013-04-23T16:06:40Z</time>
      </trkpt>
      <trkpt lat="45.22242" lon="4.80689">
        <ele>127</ele>
        <time>2013-04-23T16:06:49Z</time>
      </trkpt>
      <trkpt lat="45.22201" lon="4.80709">
        <ele>128</ele>
        <time>2013-04-23T16:06:57Z</time>
      </trkpt>
      <trkpt lat="45.22196" lon="4.80711">
        <ele>128</ele>
        <time>2013-04-23T16:06:58Z</time>
      </trkpt>
      <trkpt lat="45.2219" lon="4.80714">
        <ele>128</ele>
        <time>2013-04-23T16:06:59Z</time>
      </trkpt>
      <trkpt lat="45.22184" lon="4.80716">
        <ele>128</ele>
        <time>2013-04-23T16:07:00Z</time>
      </trkpt>
      <trkpt lat="45.22178" lon="4.80718">
        <ele>128</ele>
        <time>2013-04-23T16:07:01Z</time>
      </trkpt>
      <trkpt lat="45.22168" lon="4.80723">
        <ele>128</ele>
        <time>2013-04-23T16:07:03Z</time>
      </trkpt>
      <trkpt lat="45.22143" lon="4.80733">
        <ele>128</ele>
        <time>2013-04-23T16:07:08Z</time>
      </trkpt>
      <trkpt lat="45.2214" lon="4.80734">
        <ele>128</ele>
        <time>2013-04-23T16:07:09Z</time>
      </trkpt>
      <trkpt lat="45.22141" lon="4.80734">
        <ele>128</ele>
        <time>2013-04-23T16:07:12Z</time>
      </trkpt>
      <trkpt lat="45.22139" lon="4.80735">
        <ele>128</ele>
        <time>2013-04-23T16:07:22Z</time>
      </trkpt>
      <trkpt lat="45.22139" lon="4.80735">
        <ele>128</ele>
        <time>2013-04-23T16:07:22Z</time>
      </trkpt>
      <trkpt lat="45.22128" lon="4.80739">
        <ele>128</ele>
        <time>2013-04-23T16:07:26Z</time>
      </trkpt>
      <trkpt lat="45.22102" lon="4.80752">
        <ele>128</ele>
        <time>2013-04-23T16:07:31Z</time>
      </trkpt>
      <trkpt lat="45.22068" lon="4.80767">
        <ele>127</ele>
        <time>2013-04-23T16:07:37Z</time>
      </trkpt>
      <trkpt lat="45.22042" lon="4.80781">
        <ele>127</ele>
        <time>2013-04-23T16:07:42Z</time>
      </trkpt>
      <trkpt lat="45.22037" lon="4.80783">
        <ele>127</ele>
        <time>2013-04-23T16:07:43Z</time>
      </trkpt>
      <trkpt lat="45.22031" lon="4.80784">
        <ele>127</ele>
        <time>2013-04-23T16:07:44Z</time>
      </trkpt>
      <trkpt lat="45.22007" lon="4.8079">
        <ele>127</ele>
        <time>2013-04-23T16:07:48Z</time>
      </trkpt>
      <trkpt lat="45.21957" lon="4.80807">
        <ele>128</ele>
        <time>2013-04-23T16:07:56Z</time>
      </trkpt>
      <trkpt lat="45.2192" lon="4.80824">
        <ele>128</ele>
        <time>2013-04-23T16:08:03Z</time>
      </trkpt>
      <trkpt lat="45.21903" lon="4.80836">
        <ele>130</ele>
        <time>2013-04-23T16:08:07Z</time>
      </trkpt>
      <trkpt lat="45.219" lon="4.80841">
        <ele>130</ele>
        <time>2013-04-23T16:08:08Z</time>
      </trkpt>
      <trkpt lat="45.21889" lon="4.80844">
        <ele>130</ele>
        <time>2013-04-23T16:08:12Z</time>
      </trkpt>
      <trkpt lat="45.21872" lon="4.80842">
        <ele>131</ele>
        <time>2013-04-23T16:08:16Z</time>
      </trkpt>
      <trkpt lat="45.21868" lon="4.80843">
        <ele>131</ele>
        <time>2013-04-23T16:08:17Z</time>
      </trkpt>
      <trkpt lat="45.21864" lon="4.80844">
        <ele>131</ele>
        <time>2013-04-23T16:08:18Z</time>
      </trkpt>
      <trkpt lat="45.21852" lon="4.80848">
        <ele>131</ele>
        <time>2013-04-23T16:08:21Z</time>
      </trkpt>
      <trkpt lat="45.21827" lon="4.80856">
        <ele>132</ele>
        <time>2013-04-23T16:08:26Z</time>
      </trkpt>
      <trkpt lat="45.21822" lon="4.80857">
        <ele>132</ele>
        <time>2013-04-23T16:08:27Z</time>
      </trkpt>
      <trkpt lat="45.21789" lon="4.80863">
        <ele>132</ele>
        <time>2013-04-23T16:08:33Z</time>
      </trkpt>
      <trkpt lat="45.21742" lon="4.80872">
        <ele>131</ele>
        <time>2013-04-23T16:08:41Z</time>
      </trkpt>
      <trkpt lat="45.21684" lon="4.80887">
        <ele>131</ele>
        <time>2013-04-23T16:08:51Z</time>
      </trkpt>
      <trkpt lat="45.21678" lon="4.80889">
        <ele>131</ele>
        <time>2013-04-23T16:08:52Z</time>
      </trkpt>
      <trkpt lat="45.2163" lon="4.80903">
        <ele>131</ele>
        <time>2013-04-23T16:09:00Z</time>
      </trkpt>
      <trkpt lat="45.21582" lon="4.80912">
        <ele>132</ele>
        <time>2013-04-23T16:09:08Z</time>
      </trkpt>
      <trkpt lat="45.21535" lon="4.80921">
        <ele>133</ele>
        <time>2013-04-23T16:09:16Z</time>
      </trkpt>
      <trkpt lat="45.21499" lon="4.80927">
        <ele>132</ele>
        <time>2013-04-23T16:09:23Z</time>
      </trkpt>
      <trkpt lat="45.21459" lon="4.80938">
        <ele>133</ele>
        <time>2013-04-23T16:09:30Z</time>
      </trkpt>
      <trkpt lat="45.21453" lon="4.8094">
        <ele>133</ele>
        <time>2013-04-23T16:09:31Z</time>
      </trkpt>
      <trkpt lat="45.21412" lon="4.80952">
        <ele>131</ele>
        <time>2013-04-23T16:09:37Z</time>
      </trkpt>
      <trkpt lat="45.21355" lon="4.80968">
        <ele>130</ele>
        <time>2013-04-23T16:09:46Z</time>
      </trkpt>
      <trkpt lat="45.21316" lon="4.80978">
        <ele>129</ele>
        <time>2013-04-23T16:09:53Z</time>
      </trkpt>
      <trkpt lat="45.2127" lon="4.80988">
        <ele>129</ele>
        <time>2013-04-23T16:10:01Z</time>
      </trkpt>
      <trkpt lat="45.21225" lon="4.81">
        <ele>129</ele>
        <time>2013-04-23T16:10:09Z</time>
      </trkpt>
      <trkpt lat="45.21185" lon="4.81018">
        <ele>130</ele>
        <time>2013-04-23T16:10:17Z</time>
      </trkpt>
      <trkpt lat="45.2118" lon="4.81019">
        <ele>129</ele>
        <time>2013-04-23T16:10:18Z</time>
      </trkpt>
      <trkpt lat="45.21158" lon="4.81029">
        <ele>130</ele>
        <time>2013-04-23T16:10:22Z</time>
      </trkpt>
      <trkpt lat="45.21119" lon="4.81047">
        <ele>130</ele>
        <time>2013-04-23T16:10:29Z</time>
      </trkpt>
      <trkpt lat="45.21073" lon="4.81071">
        <ele>131</ele>
        <time>2013-04-23T16:10:37Z</time>
      </trkpt>
      <trkpt lat="45.21034" lon="4.8109">
        <ele>130</ele>
        <time>2013-04-23T16:10:44Z</time>
      </trkpt>
      <trkpt lat="45.21001" lon="4.81107">
        <ele>129</ele>
        <time>2013-04-23T16:10:51Z</time>
      </trkpt>
      <trkpt lat="45.20962" lon="4.81129">
        <ele>129</ele>
        <time>2013-04-23T16:10:59Z</time>
      </trkpt>
      <trkpt lat="45.20928" lon="4.81147">
        <ele>129</ele>
        <time>2013-04-23T16:11:06Z</time>
      </trkpt>
      <trkpt lat="45.20898" lon="4.81164">
        <ele>129</ele>
        <time>2013-04-23T16:11:13Z</time>
      </trkpt>
      <trkpt lat="45.20879" lon="4.81184">
        <ele>130</ele>
        <time>2013-04-23T16:11:19Z</time>
      </trkpt>
      <trkpt lat="45.20861" lon="4.81205">
        <ele>130</ele>
        <time>2013-04-23T16:11:25Z</time>
      </trkpt>
      <trkpt lat="45.20845" lon="4.81221">
        <ele>130</ele>
        <time>2013-04-23T16:11:30Z</time>
      </trkpt>
      <trkpt lat="45.20837" lon="4.81227">
        <ele>129</ele>
        <time>2013-04-23T16:11:32Z</time>
      </trkpt>
      <trkpt lat="45.20824" lon="4.81231">
        <ele>128</ele>
        <time>2013-04-23T16:11:35Z</time>
      </trkpt>
      <trkpt lat="45.20802" lon="4.81244">
        <ele>128</ele>
        <time>2013-04-23T16:11:41Z</time>
      </trkpt>
      <trkpt lat="45.20786" lon="4.81256">
        <ele>128</ele>
        <time>2013-04-23T16:11:46Z</time>
      </trkpt>
      <trkpt lat="45.20753" lon="4.81268">
        <ele>128</ele>
        <time>2013-04-23T16:11:53Z</time>
      </trkpt>
      <trkpt lat="45.20729" lon="4.81279">
        <ele>128</ele>
        <time>2013-04-23T16:11:59Z</time>
      </trkpt>
      <trkpt lat="45.20702" lon="4.81292">
        <ele>128</ele>
        <time>2013-04-23T16:12:05Z</time>
      </trkpt>
      <trkpt lat="45.20664" lon="4.81311">
        <ele>129</ele>
        <time>2013-04-23T16:12:13Z</time>
      </trkpt>
      <trkpt lat="45.20638" lon="4.81327">
        <ele>129</ele>
        <time>2013-04-23T16:12:19Z</time>
      </trkpt>
      <trkpt lat="45.20622" lon="4.81342">
        <ele>130</ele>
        <time>2013-04-23T16:12:23Z</time>
      </trkpt>
      <trkpt lat="45.20615" lon="4.8135">
        <ele>130</ele>
        <time>2013-04-23T16:12:25Z</time>
      </trkpt>
      <trkpt lat="45.20594" lon="4.81355">
        <ele>130</ele>
        <time>2013-04-23T16:12:29Z</time>
      </trkpt>
      <trkpt lat="45.20572" lon="4.81361">
        <ele>130</ele>
        <time>2013-04-23T16:12:33Z</time>
      </trkpt>
      <trkpt lat="45.20564" lon="4.81371">
        <ele>130</ele>
        <time>2013-04-23T16:12:35Z</time>
      </trkpt>
      <trkpt lat="45.20559" lon="4.8138">
        <ele>130</ele>
        <time>2013-04-23T16:12:37Z</time>
      </trkpt>
      <trkpt lat="45.20553" lon="4.81386">
        <ele>130</ele>
        <time>2013-04-23T16:12:39Z</time>
      </trkpt>
      <trkpt lat="45.20535" lon="4.8139">
        <ele>130</ele>
        <time>2013-04-23T16:12:43Z</time>
      </trkpt>
      <trkpt lat="45.20496" lon="4.81393">
        <ele>129</ele>
        <time>2013-04-23T16:12:50Z</time>
      </trkpt>
      <trkpt lat="45.20459" lon="4.81392">
        <ele>129</ele>
        <time>2013-04-23T16:12:57Z</time>
      </trkpt>
      <trkpt lat="45.20428" lon="4.81392">
        <ele>129</ele>
        <time>2013-04-23T16:13:03Z</time>
      </trkpt>
      <trkpt lat="45.20423" lon="4.81392">
        <ele>129</ele>
        <time>2013-04-23T16:13:04Z</time>
      </trkpt>
      <trkpt lat="45.20386" lon="4.81391">
        <ele>129</ele>
        <time>2013-04-23T16:13:12Z</time>
      </trkpt>
      <trkpt lat="45.20358" lon="4.81394">
        <ele>129</ele>
        <time>2013-04-23T16:13:19Z</time>
      </trkpt>
      <trkpt lat="45.20336" lon="4.81394">
        <ele>129</ele>
        <time>2013-04-23T16:13:26Z</time>
      </trkpt>
      <trkpt lat="45.20322" lon="4.8139">
        <ele>130</ele>
        <time>2013-04-23T16:13:34Z</time>
      </trkpt>
      <trkpt lat="45.20313" lon="4.81386">
        <ele>130</ele>
        <time>2013-04-23T16:14:03Z</time>
      </trkpt>
      <trkpt lat="45.20298" lon="4.81379">
        <ele>130</ele>
        <time>2013-04-23T16:14:09Z</time>
      </trkpt>
      <trkpt lat="45.20281" lon="4.81369">
        <ele>130</ele>
        <time>2013-04-23T16:14:15Z</time>
      </trkpt>
      <trkpt lat="45.20258" lon="4.81352">
        <ele>130</ele>
        <time>2013-04-23T16:14:22Z</time>
      </trkpt>
      <trkpt lat="45.20226" lon="4.81336">
        <ele>131</ele>
        <time>2013-04-23T16:14:30Z</time>
      </trkpt>
      <trkpt lat="45.20212" lon="4.81323">
        <ele>129</ele>
        <time>2013-04-23T16:14:34Z</time>
      </trkpt>
      <trkpt lat="45.20187" lon="4.813">
        <ele>129</ele>
        <time>2013-04-23T16:14:41Z</time>
      </trkpt>
      <trkpt lat="45.20168" lon="4.81276">
        <ele>128</ele>
        <time>2013-04-23T16:14:47Z</time>
      </trkpt>
      <trkpt lat="45.20144" lon="4.81242">
        <ele>132</ele>
        <time>2013-04-23T16:14:54Z</time>
      </trkpt>
      <trkpt lat="45.20116" lon="4.81202">
        <ele>135</ele>
        <time>2013-04-23T16:15:02Z</time>
      </trkpt>
      <trkpt lat="45.20093" lon="4.81163">
        <ele>135</ele>
        <time>2013-04-23T16:15:09Z</time>
      </trkpt>
      <trkpt lat="45.20063" lon="4.81105">
        <ele>135</ele>
        <time>2013-04-23T16:15:18Z</time>
      </trkpt>
      <trkpt lat="45.20041" lon="4.81059">
        <ele>131</ele>
        <time>2013-04-23T16:15:25Z</time>
      </trkpt>
      <trkpt lat="45.20014" lon="4.81006">
        <ele>129</ele>
        <time>2013-04-23T16:15:33Z</time>
      </trkpt>
      <trkpt lat="45.19991" lon="4.80965">
        <ele>131</ele>
        <time>2013-04-23T16:15:40Z</time>
      </trkpt>
      <trkpt lat="45.19958" lon="4.80916">
        <ele>130</ele>
        <time>2013-04-23T16:15:49Z</time>
      </trkpt>
      <trkpt lat="45.19929" lon="4.80883">
        <ele>130</ele>
        <time>2013-04-23T16:15:55Z</time>
      </trkpt>
      <trkpt lat="45.19895" lon="4.80843">
        <ele>131</ele>
        <time>2013-04-23T16:16:02Z</time>
      </trkpt>
      <trkpt lat="45.19863" lon="4.80805">
        <ele>129</ele>
        <time>2013-04-23T16:16:09Z</time>
      </trkpt>
      <trkpt lat="45.19854" lon="4.80799">
        <ele>129</ele>
        <time>2013-04-23T16:16:11Z</time>
      </trkpt>
      <trkpt lat="45.19841" lon="4.80793">
        <ele>129</ele>
        <time>2013-04-23T16:16:14Z</time>
      </trkpt>
      <trkpt lat="45.19828" lon="4.80788">
        <ele>131</ele>
        <time>2013-04-23T16:16:17Z</time>
      </trkpt>
      <trkpt lat="45.1981" lon="4.80785">
        <ele>131</ele>
        <time>2013-04-23T16:16:21Z</time>
      </trkpt>
      <trkpt lat="45.19782" lon="4.80784">
        <ele>131</ele>
        <time>2013-04-23T16:16:27Z</time>
      </trkpt>
      <trkpt lat="45.19774" lon="4.80784">
        <ele>131</ele>
        <time>2013-04-23T16:16:29Z</time>
      </trkpt>
      <trkpt lat="45.19756" lon="4.80783">
        <ele>131</ele>
        <time>2013-04-23T16:16:33Z</time>
      </trkpt>
      <trkpt lat="45.19737" lon="4.80779">
        <ele>131</ele>
        <time>2013-04-23T16:16:37Z</time>
      </trkpt>
      <trkpt lat="45.19727" lon="4.80776">
        <ele>131</ele>
        <time>2013-04-23T16:16:39Z</time>
      </trkpt>
      <trkpt lat="45.19705" lon="4.80771">
        <ele>130</ele>
        <time>2013-04-23T16:16:44Z</time>
      </trkpt>
      <trkpt lat="45.19701" lon="4.80771">
        <ele>130</ele>
        <time>2013-04-23T16:16:45Z</time>
      </trkpt>
      <trkpt lat="45.19696" lon="4.8077">
        <ele>130</ele>
        <time>2013-04-23T16:16:46Z</time>
      </trkpt>
      <trkpt lat="45.19674" lon="4.80768">
        <ele>129</ele>
        <time>2013-04-23T16:16:50Z</time>
      </trkpt>
      <trkpt lat="45.19621" lon="4.80763">
        <ele>129</ele>
        <time>2013-04-23T16:16:59Z</time>
      </trkpt>
      <trkpt lat="45.19569" lon="4.80764">
        <ele>129</ele>
        <time>2013-04-23T16:17:07Z</time>
      </trkpt>
      <trkpt lat="45.19522" lon="4.80767">
        <ele>129</ele>
        <time>2013-04-23T16:17:15Z</time>
      </trkpt>
      <trkpt lat="45.195" lon="4.80767">
        <ele>129</ele>
        <time>2013-04-23T16:17:20Z</time>
      </trkpt>
      <trkpt lat="45.19499" lon="4.80767">
        <ele>129</ele>
        <time>2013-04-23T16:17:24Z</time>
      </trkpt>
      <trkpt lat="45.19499" lon="4.80767">
        <ele>129</ele>
        <time>2013-04-23T16:17:36Z</time>
      </trkpt>
      <trkpt lat="45.19499" lon="4.80767">
        <ele>129</ele>
        <time>2013-04-23T16:17:51Z</time>
      </trkpt>
      <trkpt lat="45.19499" lon="4.80767">
        <ele>129</ele>
        <time>2013-04-23T16:18:08Z</time>
      </trkpt>
      <trkpt lat="45.19495" lon="4.80764">
        <ele>129</ele>
        <time>2013-04-23T16:18:13Z</time>
      </trkpt>
      <trkpt lat="45.19478" lon="4.80757">
        <ele>129</ele>
        <time>2013-04-23T16:18:18Z</time>
      </trkpt>
      <trkpt lat="45.19465" lon="4.80756">
        <ele>130</ele>
        <time>2013-04-23T16:18:21Z</time>
      </trkpt>
      <trkpt lat="45.19456" lon="4.80758">
        <ele>130</ele>
        <time>2013-04-23T16:18:23Z</time>
      </trkpt>
      <trkpt lat="45.19417" lon="4.80768">
        <ele>130</ele>
        <time>2013-04-23T16:18:31Z</time>
      </trkpt>
      <trkpt lat="45.19378" lon="4.80781">
        <ele>129</ele>
        <time>2013-04-23T16:18:39Z</time>
      </trkpt>
      <trkpt lat="45.19339" lon="4.808">
        <ele>129</ele>
        <time>2013-04-23T16:18:47Z</time>
      </trkpt>
      <trkpt lat="45.19298" lon="4.80824">
        <ele>128</ele>
        <time>2013-04-23T16:18:56Z</time>
      </trkpt>
      <trkpt lat="45.19265" lon="4.80849">
        <ele>129</ele>
        <time>2013-04-23T16:19:03Z</time>
      </trkpt>
      <trkpt lat="45.19237" lon="4.80868">
        <ele>129</ele>
        <time>2013-04-23T16:19:09Z</time>
      </trkpt>
      <trkpt lat="45.19207" lon="4.80887">
        <ele>129</ele>
        <time>2013-04-23T16:19:16Z</time>
      </trkpt>
      <trkpt lat="45.19169" lon="4.80915">
        <ele>131</ele>
        <time>2013-04-23T16:19:24Z</time>
      </trkpt>
      <trkpt lat="45.19129" lon="4.80943">
        <ele>130</ele>
        <time>2013-04-23T16:19:32Z</time>
      </trkpt>
      <trkpt lat="45.19087" lon="4.80971">
        <ele>130</ele>
        <time>2013-04-23T16:19:40Z</time>
      </trkpt>
      <trkpt lat="45.19041" lon="4.81003">
        <ele>131</ele>
        <time>2013-04-23T16:19:49Z</time>
      </trkpt>
      <trkpt lat="45.19006" lon="4.81028">
        <ele>131</ele>
        <time>2013-04-23T16:19:56Z</time>
      </trkpt>
      <trkpt lat="45.1898" lon="4.81045">
        <ele>129</ele>
        <time>2013-04-23T16:20:02Z</time>
      </trkpt>
      <trkpt lat="45.18935" lon="4.81077">
        <ele>130</ele>
        <time>2013-04-23T16:20:12Z</time>
      </trkpt>
      <trkpt lat="45.18902" lon="4.81099">
        <ele>130</ele>
        <time>2013-04-23T16:20:19Z</time>
      </trkpt>
      <trkpt lat="45.1886" lon="4.81127">
        <ele>129</ele>
        <time>2013-04-23T16:20:28Z</time>
      </trkpt>
      <trkpt lat="45.18828" lon="4.81147">
        <ele>129</ele>
        <time>2013-04-23T16:20:36Z</time>
      </trkpt>
      <trkpt lat="45.18798" lon="4.81163">
        <ele>128</ele>
        <time>2013-04-23T16:20:43Z</time>
      </trkpt>
      <trkpt lat="45.18763" lon="4.81183">
        <ele>129</ele>
        <time>2013-04-23T16:20:52Z</time>
      </trkpt>
      <trkpt lat="45.18739" lon="4.81196">
        <ele>129</ele>
        <time>2013-04-23T16:20:59Z</time>
      </trkpt>
      <trkpt lat="45.18712" lon="4.8121">
        <ele>130</ele>
        <time>2013-04-23T16:21:07Z</time>
      </trkpt>
      <trkpt lat="45.18693" lon="4.8122">
        <ele>130</ele>
        <time>2013-04-23T16:21:14Z</time>
      </trkpt>
      <trkpt lat="45.18692" lon="4.81221">
        <ele>131</ele>
        <time>2013-04-23T16:21:18Z</time>
      </trkpt>
      <trkpt lat="45.18692" lon="4.81221">
        <ele>131</ele>
        <time>2013-04-23T16:21:32Z</time>
      </trkpt>
      <trkpt lat="45.18692" lon="4.81221">
        <ele>131</ele>
        <time>2013-04-23T16:21:45Z</time>
      </trkpt>
      <trkpt lat="45.18692" lon="4.81221">
        <ele>131</ele>
        <time>2013-04-23T16:21:57Z</time>
      </trkpt>
      <trkpt lat="45.18692" lon="4.81221">
        <ele>131</ele>
        <time>2013-04-23T16:22:12Z</time>
      </trkpt>
      <trkpt lat="45.18691" lon="4.81221">
        <ele>131</ele>
        <time>2013-04-23T16:22:20Z</time>
      </trkpt>
      <trkpt lat="45.18686" lon="4.81226">
        <ele>131</ele>
        <time>2013-04-23T16:22:26Z</time>
      </trkpt>
      <trkpt lat="45.18686" lon="4.81226">
        <ele>131</ele>
        <time>2013-04-23T16:22:37Z</time>
      </trkpt>
      <trkpt lat="45.18686" lon="4.81226">
        <ele>131</ele>
        <time>2013-04-23T16:22:48Z</time>
      </trkpt>
      <trkpt lat="45.18686" lon="4.81226">
        <ele>131</ele>
        <time>2013-04-23T16:22:58Z</time>
      </trkpt>
      <trkpt lat="45.18686" lon="4.81226">
        <ele>131</ele>
        <time>2013-04-23T16:23:12Z</time>
      </trkpt>
      <trkpt lat="45.18686" lon="4.81226">
        <ele>131</ele>
        <time>2013-04-23T16:23:22Z</time>
      </trkpt>
      <trkpt lat="45.18686" lon="4.81226">
        <ele>131</ele>
        <time>2013-04-23T16:23:36Z</time>
      </trkpt>
      <trkpt lat="45.18686" lon="4.81226">
        <ele>131</ele>
        <time>2013-04-23T16:23:49Z</time>
      </trkpt>
      <trkpt lat="45.18434" lon="4.81352">
        <ele>131</ele>
      </trkpt>
      <trkpt lat="45.18416" lon="4.8125">
        <ele>127</ele>
      </trkpt>
      <trkpt lat="45.18391" lon="4.8112">
        <ele>128</ele>
      </trkpt>
      <trkpt lat="45.18381" lon="4.81065">
        <ele>130</ele>
      </trkpt>
      <trkpt lat="45.18378" lon="4.81051">
        <ele>131</ele>
      </trkpt>
      <trkpt lat="45.18362" lon="4.8095">
        <ele>131</ele>
      </trkpt>
      <trkpt lat="45.18358" lon="4.80941">
        <ele>131</ele>
      </trkpt>
      <trkpt lat="45.18355" lon="4.80934">
        <ele>131</ele>
      </trkpt>
      <trkpt lat="45.1835" lon="4.80932">
        <ele>131</ele>
      </trkpt>
      <trkpt lat="45.18344" lon="4.8093">
        <ele>131</ele>
      </trkpt>
      <trkpt lat="45.18339" lon="4.80931">
        <ele>131</ele>
      </trkpt>
      <trkpt lat="45.18332" lon="4.80937">
        <ele>131</ele>
      </trkpt>
      <trkpt lat="45.1832" lon="4.80964">
        <ele>131</ele>
      </trkpt>
      <trkpt lat="45.18305" lon="4.81007">
        <ele>132</ele>
      </trkpt>
      <trkpt lat="45.183" lon="4.81041">
        <ele>132</ele>
      </trkpt>
      <trkpt lat="45.18302" lon="4.81077">
        <ele>132</ele>
      </trkpt>
      <trkpt lat="45.18303" lon="4.81102">
        <ele>131</ele>
      </trkpt>
      <trkpt lat="45.18304" lon="4.81112">
        <ele>130</ele>
      </trkpt>
      <trkpt lat="45.18302" lon="4.81117">
        <ele>130</ele>
      </trkpt>
      <trkpt lat="45.18302" lon="4.81117">
        <ele>130</ele>
      </trkpt>
      <trkpt lat="45.18298" lon="4.81119">
        <ele>130</ele>
      </trkpt>
      <trkpt lat="45.18276" lon="4.81122">
        <ele>130</ele>
      </trkpt>
      <trkpt lat="45.18239" lon="4.81122">
        <ele>129</ele>
      </trkpt>
      <trkpt lat="45.18201" lon="4.81121">
        <ele>129</ele>
      </trkpt>
      <trkpt lat="45.18164" lon="4.81116">
        <ele>129</ele>
      </trkpt>
      <trkpt lat="45.18118" lon="4.81108">
        <ele>129</ele>
      </trkpt>
      <trkpt lat="45.18071" lon="4.81096">
        <ele>130</ele>
      </trkpt>
      <trkpt lat="45.18009" lon="4.81075">
        <ele>128</ele>
      </trkpt>
      <trkpt lat="45.17952" lon="4.8105">
        <ele>127</ele>
      </trkpt>
      <trkpt lat="45.17899" lon="4.81022">
        <ele>127</ele>
      </trkpt>
      <trkpt lat="45.17794" lon="4.80966">
        <ele>127</ele>
      </trkpt>
      <trkpt lat="45.17576" lon="4.80848">
        <ele>130</ele>
      </trkpt>
      <trkpt lat="45.17474" lon="4.80792">
        <ele>129</ele>
      </trkpt>
      <trkpt lat="45.17429" lon="4.80766">
        <ele>129</ele>
      </trkpt>
      <trkpt lat="45.17361" lon="4.8073">
        <ele>129</ele>
      </trkpt>
      <trkpt lat="45.17294" lon="4.80696">
        <ele>129</ele>
      </trkpt>
      <trkpt lat="45.17241" lon="4.80672">
        <ele>130</ele>
      </trkpt>
      <trkpt lat="45.17153" lon="4.80644">
        <ele>130</ele>
      </trkpt>
      <trkpt lat="45.17065" lon="4.80627">
        <ele>132</ele>
      </trkpt>
      <trkpt lat="45.17015" lon="4.80617">
        <ele>133</ele>
      </trkpt>
      <trkpt lat="45.1699" lon="4.80616">
        <ele>134</ele>
      </trkpt>
      <trkpt lat="45.16972" lon="4.8062">
        <ele>133</ele>
      </trkpt>
      <trkpt lat="45.16956" lon="4.80626">
        <ele>133</ele>
      </trkpt>
      <trkpt lat="45.16934" lon="4.80629">
        <ele>133</ele>
      </trkpt>
      <trkpt lat="45.16923" lon="4.80623">
        <ele>134</ele>
      </trkpt>
      <trkpt lat="45.16911" lon="4.80615">
        <ele>138</ele>
      </trkpt>
      <trkpt lat="45.16895" lon="4.80623">
        <ele>137</ele>
      </trkpt>
      <trkpt lat="45.16875" lon="4.80635">
        <ele>137</ele>
      </trkpt>
      <trkpt lat="45.16879" lon="4.80624">
        <ele>138</ele>
      </trkpt>
      <trkpt lat="45.1689" lon="4.80614">
        <ele>138</ele>
      </trkpt>
      <trkpt lat="45.16905" lon="4.80605">
        <ele>139</ele>
      </trkpt>
      <trkpt lat="45.16908" lon="4.80599">
        <ele>140</ele>
      </trkpt>
      <trkpt lat="45.16899" lon="4.80599">
        <ele>139</ele>
      </trkpt>
      <trkpt lat="45.16889" lon="4.80605">
        <ele>139</ele>
      </trkpt>
      <trkpt lat="45.16876" lon="4.80616">
        <ele>138</ele>
      </trkpt>
      <trkpt lat="45.16865" lon="4.80627">
        <ele>138</ele>
      </trkpt>
      <trkpt lat="45.16856" lon="4.80641">
        <ele>138</ele>
      </trkpt>
      <trkpt lat="45.1684" lon="4.80649">
        <ele>137</ele>
      </trkpt>
      <trkpt lat="45.16829" lon="4.8065">
        <ele>141</ele>
      </trkpt>
      <trkpt lat="45.16816" lon="4.80651">
        <ele>141</ele>
      </trkpt>
      <trkpt lat="45.16781" lon="4.80672">
        <ele>136</ele>
      </trkpt>
      <trkpt lat="45.16741" lon="4.80702">
        <ele>139</ele>
      </trkpt>
      <trkpt lat="45.16693" lon="4.80733">
        <ele>140</ele>
      </trkpt>
      <trkpt lat="45.16668" lon="4.80752">
        <ele>140</ele>
      </trkpt>
      <trkpt lat="45.16621" lon="4.80785">
        <ele>139</ele>
      </trkpt>
      <trkpt lat="45.16527" lon="4.80854">
        <ele>137</ele>
      </trkpt>
      <trkpt lat="45.1643" lon="4.80923">
        <ele>135</ele>
      </trkpt>
      <trkpt lat="45.16376" lon="4.80955">
        <ele>137</ele>
      </trkpt>
      <trkpt lat="45.16332" lon="4.80981">
        <ele>140</ele>
      </trkpt>
      <trkpt lat="45.16299" lon="4.81003">
        <ele>135</ele>
      </trkpt>
      <trkpt lat="45.16272" lon="4.81026">
        <ele>135</ele>
      </trkpt>
      <trkpt lat="45.16252" lon="4.81046">
        <ele>134</ele>
      </trkpt>
      <trkpt lat="45.16239" lon="4.81063">
        <ele>137</ele>
      </trkpt>
      <trkpt lat="45.16225" lon="4.81086">
        <ele>133</ele>
      </trkpt>
      <trkpt lat="45.1621" lon="4.81102">
        <ele>133</ele>
      </trkpt>
      <trkpt lat="45.1619" lon="4.81112">
        <ele>134</ele>
      </trkpt>
      <trkpt lat="45.16173" lon="4.81125">
        <ele>134</ele>
      </trkpt>
      <trkpt lat="45.16157" lon="4.81138">
        <ele>137</ele>
      </trkpt>
      <trkpt lat="45.16139" lon="4.81164">
        <ele>137</ele>
      </trkpt>
      <trkpt lat="45.16117" lon="4.81198">
        <ele>135</ele>
      </trkpt>
      <trkpt lat="45.16065" lon="4.81288">
        <ele>137</ele>
      </trkpt>
      <trkpt lat="45.16039" lon="4.81348">
        <ele>135</ele>
      </trkpt>
      <trkpt lat="45.16036" lon="4.81365">
        <ele>134</ele>
      </trkpt>
      <trkpt lat="45.16031" lon="4.81401">
        <ele>134</ele>
      </trkpt>
      <trkpt lat="45.16022" lon="4.81428">
        <ele>132</ele>
      </trkpt>
      <trkpt lat="45.15949" lon="4.81616">
        <ele>129</ele>
      </trkpt>
      <trkpt lat="45.15927" lon="4.81676">
        <ele>129</ele>
      </trkpt>
      <trkpt lat="45.15923" lon="4.81692">
        <ele>128</ele>
      </trkpt>
      <trkpt lat="45.15923" lon="4.81708">
        <ele>127</ele>
      </trkpt>
      <trkpt lat="45.15927" lon="4.8173">
        <ele>127</ele>
      </trkpt>
      <trkpt lat="45.15932" lon="4.8175">
        <ele>126</ele>
      </trkpt>
      <trkpt lat="45.15933" lon="4.8177">
        <ele>126</ele>
      </trkpt>
      <trkpt lat="45.15933" lon="4.81794">
        <ele>126</ele>
      </trkpt>
      <trkpt lat="45.15924" lon="4.81845">
        <ele>126</ele>
      </trkpt>
      <trkpt lat="45.15913" lon="4.81937">
        <ele>126</ele>
      </trkpt>
      <trkpt lat="45.15905" lon="4.81994">
        <ele>126</ele>
      </trkpt>
      <trkpt lat="45.15896" lon="4.82055">
        <ele>128</ele>
      </trkpt>
      <trkpt lat="45.15873" lon="4.82158">
        <ele>128</ele>
      </trkpt>
      <trkpt lat="45.15861" lon="4.82204">
        <ele>129</ele>
      </trkpt>
      <trkpt lat="45.1585" lon="4.82242">
        <ele>129</ele>
      </trkpt>
      <trkpt lat="45.15817" lon="4.82325">
        <ele>129</ele>
      </trkpt>
      <trkpt lat="45.15801" lon="4.82357">
        <ele>129</ele>
      </trkpt>
      <trkpt lat="45.15785" lon="4.82382">
        <ele>128</ele>
      </trkpt>
      <trkpt lat="45.1577" lon="4.82401">
        <ele>128</ele>
      </trkpt>
      <trkpt lat="45.15737" lon="4.82441">
        <ele>128</ele>
      </trkpt>
      <trkpt lat="45.15665" lon="4.82488">
        <ele>127</ele>
      </trkpt>
      <trkpt lat="45.15601" lon="4.82507">
        <ele>127</ele>
      </trkpt>
      <trkpt lat="45.15523" lon="4.82513">
        <ele>127</ele>
      </trkpt>
      <trkpt lat="45.15448" lon="4.82499">
        <ele>127</ele>
      </trkpt>
      <trkpt lat="45.1537" lon="4.82468">
        <ele>127</ele>
      </trkpt>
      <trkpt lat="45.15312" lon="4.82427">
        <ele>127</ele>
      </trkpt>
      <trkpt lat="45.15245" lon="4.82372">
        <ele>126</ele>
      </trkpt>
      <trkpt lat="45.1517" lon="4.8231">
        <ele>124</ele>
      </trkpt>
      <trkpt lat="45.15053" lon="4.82212">
        <ele>123</ele>
      </trkpt>
      <trkpt lat="45.14988" lon="4.82154">
        <ele>123</ele>
      </trkpt>
      <trkpt lat="45.1496" lon="4.82129">
        <ele>123</ele>
      </trkpt>
      <trkpt lat="45.14939" lon="4.82111">
        <ele>124</ele>
      </trkpt>
      <trkpt lat="45.14908" lon="4.82085">
        <ele>124</ele>
      </trkpt>
      <trkpt lat="45.14859" lon="4.8204">
        <ele>125</ele>
      </trkpt>
      <trkpt lat="45.14779" lon="4.81962">
        <ele>126</ele>
      </trkpt>
      <trkpt lat="45.14665" lon="4.81845">
        <ele>129</ele>
      </trkpt>
      <trkpt lat="45.14555" lon="4.81737">
        <ele>127</ele>
      </trkpt>
      <trkpt lat="45.14471" lon="4.81646">
        <ele>127</ele>
      </trkpt>
      <trkpt lat="45.14422" lon="4.81599">
        <ele>127</ele>
      </trkpt>
      <trkpt lat="45.14342" lon="4.81521">
        <ele>126</ele>
      </trkpt>
      <trkpt lat="45.14241" lon="4.81412">
        <ele>123</ele>
      </trkpt>
      <trkpt lat="45.14193" lon="4.81351">
        <ele>124</ele>
      </trkpt>
      <trkpt lat="45.14171" lon="4.81328">
        <ele>123</ele>
      </trkpt>
      <trkpt lat="45.14158" lon="4.81297">
        <ele>124</ele>
      </trkpt>
      <trkpt lat="45.14151" lon="4.81276">
        <ele>124</ele>
      </trkpt>
      <trkpt lat="45.14149" lon="4.81264">
        <ele>124</ele>
      </trkpt>
      <trkpt lat="45.1414" lon="4.8125">
        <ele>124</ele>
      </trkpt>
      <trkpt lat="45.14129" lon="4.81246">
        <ele>125</ele>
      </trkpt>
      <trkpt lat="45.14108" lon="4.81245">
        <ele>126</ele>
      </trkpt>
      <trkpt lat="45.14092" lon="4.81228">
        <ele>127</ele>
      </trkpt>
      <trkpt lat="45.14076" lon="4.8121">
        <ele>128</ele>
      </trkpt>
      <trkpt lat="45.14029" lon="4.81146">
        <ele>128</ele>
      </trkpt>
      <trkpt lat="45.13986" lon="4.81087">
        <ele>128</ele>
      </trkpt>
      <trkpt lat="45.13948" lon="4.8103">
        <ele>129</ele>
      </trkpt>
      <trkpt lat="45.13909" lon="4.80971">
        <ele>129</ele>
      </trkpt>
      <trkpt lat="45.13876" lon="4.80914">
        <ele>128</ele>
      </trkpt>
      <trkpt lat="45.13869" lon="4.809">
        <ele>128</ele>
      </trkpt>
      <trkpt lat="45.13864" lon="4.80878">
        <ele>128</ele>
      </trkpt>
      <trkpt lat="45.13866" lon="4.80864">
        <ele>128</ele>
      </trkpt>
      <trkpt lat="45.13866" lon="4.80855">
        <ele>128</ele>
      </trkpt>
      <trkpt lat="45.13863" lon="4.80848">
        <ele>127</ele>
      </trkpt>
      <trkpt lat="45.13855" lon="4.80828">
        <ele>127</ele>
      </trkpt>
      <trkpt lat="45.1384" lon="4.80795">
        <ele>127</ele>
      </trkpt>
      <trkpt lat="45.13823" lon="4.80752">
        <ele>126</ele>
      </trkpt>
      <trkpt lat="45.13809" lon="4.80717">
        <ele>126</ele>
      </trkpt>
      <trkpt lat="45.13797" lon="4.80692">
        <ele>126</ele>
      </trkpt>
      <trkpt lat="45.13785" lon="4.80679">
        <ele>126</ele>
      </trkpt>
      <trkpt lat="45.13766" lon="4.80657">
        <ele>125</ele>
      </trkpt>
      <trkpt lat="45.1373" lon="4.80584">
        <ele>124</ele>
      </trkpt>
      <trkpt lat="45.13688" lon="4.80508">
        <ele>124</ele>
      </trkpt>
      <trkpt lat="45.13634" lon="4.80443">
        <ele>125</ele>
      </trkpt>
      <trkpt lat="45.13582" lon="4.804">
        <ele>126</ele>
      </trkpt>
      <trkpt lat="45.1355" lon="4.8038">
        <ele>127</ele>
      </trkpt>
      <trkpt lat="45.13528" lon="4.80362">
        <ele>127</ele>
      </trkpt>
      <trkpt lat="45.13508" lon="4.80332">
        <ele>129</ele>
      </trkpt>
      <trkpt lat="45.13495" lon="4.80314">
        <ele>128</ele>
      </trkpt>
      <trkpt lat="45.13483" lon="4.80305">
        <ele>129</ele>
      </trkpt>
      <trkpt lat="45.13456" lon="4.80295">
        <ele>129</ele>
      </trkpt>
      <trkpt lat="45.13424" lon="4.80296">
        <ele>128</ele>
      </trkpt>
      <trkpt lat="45.1341" lon="4.80286">
        <ele>126</ele>
      </trkpt>
      <trkpt lat="45.13393" lon="4.80274">
        <ele>126</ele>
      </trkpt>
      <trkpt lat="45.13376" lon="4.80269">
        <ele>125</ele>
      </trkpt>
      <trkpt lat="45.13362" lon="4.80268">
        <ele>125</ele>
      </trkpt>
      <trkpt lat="45.13324" lon="4.80268">
        <ele>124</ele>
      </trkpt>
      <trkpt lat="45.13288" lon="4.80259">
        <ele>124</ele>
      </trkpt>
      <trkpt lat="45.13242" lon="4.80256">
        <ele>124</ele>
      </trkpt>
      <trkpt lat="45.13208" lon="4.80248">
        <ele>131</ele>
      </trkpt>
      <trkpt lat="45.13186" lon="4.80245">
        <ele>129</ele>
      </trkpt>
      <trkpt lat="45.13169" lon="4.80247">
        <ele>126</ele>
      </trkpt>
      <trkpt lat="45.13155" lon="4.8025">
        <ele>128</ele>
      </trkpt>
      <trkpt lat="45.13139" lon="4.8025">
        <ele>124</ele>
      </trkpt>
      <trkpt lat="45.13114" lon="4.80245">
        <ele>131</ele>
      </trkpt>
      <trkpt lat="45.13012" lon="4.80227">
        <ele>129</ele>
      </trkpt>
      <trkpt lat="45.12934" lon="4.80212">
        <ele>127</ele>
      </trkpt>
      <trkpt lat="45.12861" lon="4.80198">
        <ele>126</ele>
      </trkpt>
      <trkpt lat="45.12838" lon="4.80187">
        <ele>127</ele>
      </trkpt>
      <trkpt lat="45.12813" lon="4.8018">
        <ele>127</ele>
      </trkpt>
      <trkpt lat="45.12787" lon="4.80176">
        <ele>126</ele>
      </trkpt>
      <trkpt lat="45.12757" lon="4.8017">
        <ele>127</ele>
      </trkpt>
      <trkpt lat="45.12724" lon="4.80167">
        <ele>126</ele>
      </trkpt>
      <trkpt lat="45.12703" lon="4.8017">
        <ele>126</ele>
      </trkpt>
      <trkpt lat="45.12679" lon="4.80167">
        <ele>126</ele>
      </trkpt>
      <trkpt lat="45.12628" lon="4.80152">
        <ele>130</ele>
      </trkpt>
      <trkpt lat="45.12544" lon="4.80137">
        <ele>127</ele>
      </trkpt>
      <trkpt lat="45.12509" lon="4.80141">
        <ele>126</ele>
      </trkpt>
      <trkpt lat="45.12499" lon="4.80137">
        <ele>125</ele>
      </trkpt>
      <trkpt lat="45.12484" lon="4.80126">
        <ele>126</ele>
      </trkpt>
      <trkpt lat="45.12441" lon="4.80115">
        <ele>126</ele>
      </trkpt>
      <trkpt lat="45.12422" lon="4.80107">
        <ele>126</ele>
      </trkpt>
      <trkpt lat="45.12407" lon="4.80104">
        <ele>126</ele>
      </trkpt>
      <trkpt lat="45.12385" lon="4.80106">
        <ele>125</ele>
      </trkpt>
      <trkpt lat="45.12363" lon="4.80099">
        <ele>125</ele>
      </trkpt>
      <trkpt lat="45.12326" lon="4.80094">
        <ele>125</ele>
      </trkpt>
      <trkpt lat="45.12299" lon="4.80095">
        <ele>125</ele>
      </trkpt>
      <trkpt lat="45.12233" lon="4.80104">
        <ele>126</ele>
      </trkpt>
      <trkpt lat="45.12209" lon="4.80116">
        <ele>126</ele>
      </trkpt>
      <trkpt lat="45.122" lon="4.8012">
        <ele>126</ele>
      </trkpt>
      <trkpt lat="45.12181" lon="4.80122">
        <ele>126</ele>
      </trkpt>
      <trkpt lat="45.12164" lon="4.80127">
        <ele>126</ele>
      </trkpt>
      <trkpt lat="45.1215" lon="4.80145">
        <ele>125</ele>
      </trkpt>
      <trkpt lat="45.12131" lon="4.80154">
        <ele>125</ele>
      </trkpt>
      <trkpt lat="45.12113" lon="4.80156">
        <ele>125</ele>
      </trkpt>
      <trkpt lat="45.12099" lon="4.80165">
        <ele>124</ele>
      </trkpt>
      <trkpt lat="45.12087" lon="4.80173">
        <ele>123</ele>
      </trkpt>
      <trkpt lat="45.12087" lon="4.80173">
        <ele>123</ele>
      </trkpt>
      <trkpt lat="45.12077" lon="4.80204">
        <ele>123</ele>
      </trkpt>
      <trkpt lat="45.12071" lon="4.80225">
        <ele>123</ele>
      </trkpt>
      <trkpt lat="45.12061" lon="4.80266">
        <ele>122</ele>
      </trkpt>
      <trkpt lat="45.12051" lon="4.80323">
        <ele>122</ele>
      </trkpt>
      <trkpt lat="45.12051" lon="4.80344">
        <ele>122</ele>
      </trkpt>
      <trkpt lat="45.12046" lon="4.80365">
        <ele>122</ele>
      </trkpt>
      <trkpt lat="45.1202" lon="4.80399">
        <ele>123</ele>
      </trkpt>
      <trkpt lat="45.11999" lon="4.80431">
        <ele>123</ele>
      </trkpt>
      <trkpt lat="45.11983" lon="4.80462">
        <ele>122</ele>
      </trkpt>
      <trkpt lat="45.11958" lon="4.80492">
        <ele>122</ele>
      </trkpt>
      <trkpt lat="45.1192" lon="4.80539">
        <ele>121</ele>
      </trkpt>
      <trkpt lat="45.11856" lon="4.80602">
        <ele>121</ele>
      </trkpt>
      <trkpt lat="45.11806" lon="4.80645">
        <ele>122</ele>
      </trkpt>
      <trkpt lat="45.11775" lon="4.80663">
        <ele>123</ele>
      </trkpt>
      <trkpt lat="45.11658" lon="4.80748">
        <ele>123</ele>
      </trkpt>
      <trkpt lat="45.11616" lon="4.80779">
        <ele>123</ele>
      </trkpt>
      <trkpt lat="45.11583" lon="4.80809">
        <ele>124</ele>
      </trkpt>
      <trkpt lat="45.1156" lon="4.80833">
        <ele>124</ele>
      </trkpt>
      <trkpt lat="45.11492" lon="4.8089">
        <ele>123</ele>
      </trkpt>
      <trkpt lat="45.11438" lon="4.80938">
        <ele>124</ele>
      </trkpt>
      <trkpt lat="45.1141" lon="4.80962">
        <ele>124</ele>
      </trkpt>
      <trkpt lat="45.11382" lon="4.80986">
        <ele>124</ele>
      </trkpt>
      <trkpt lat="45.11373" lon="4.80997">
        <ele>124</ele>
      </trkpt>
      <trkpt lat="45.1136" lon="4.81014">
        <ele>124</ele>
      </trkpt>
      <trkpt lat="45.11348" lon="4.81034">
        <ele>124</ele>
      </trkpt>
      <trkpt lat="45.11331" lon="4.81046">
        <ele>123</ele>
      </trkpt>
      <trkpt lat="45.11316" lon="4.81052">
        <ele>123</ele>
      </trkpt>
      <trkpt lat="45.11254" lon="4.81083">
        <ele>123</ele>
      </trkpt>
      <trkpt lat="45.11223" lon="4.81114">
        <ele>123</ele>
      </trkpt>
      <trkpt lat="45.11201" lon="4.81142">
        <ele>123</ele>
      </trkpt>
      <trkpt lat="45.11182" lon="4.8118">
        <ele>122</ele>
      </trkpt>
      <trkpt lat="45.11169" lon="4.8121">
        <ele>122</ele>
      </trkpt>
      <trkpt lat="45.11163" lon="4.81219">
        <ele>121</ele>
      </trkpt>
      <trkpt lat="45.11153" lon="4.81226">
        <ele>121</ele>
      </trkpt>
      <trkpt lat="45.11133" lon="4.8123">
        <ele>121</ele>
      </trkpt>
      <trkpt lat="45.11069" lon="4.81242">
        <ele>121</ele>
      </trkpt>
      <trkpt lat="45.11041" lon="4.81249">
        <ele>121</ele>
      </trkpt>
      <trkpt lat="45.11014" lon="4.81263">
        <ele>121</ele>
      </trkpt>
      <trkpt lat="45.10987" lon="4.81287">
        <ele>121</ele>
      </trkpt>
      <trkpt lat="45.10957" lon="4.81316">
        <ele>121</ele>
      </trkpt>
      <trkpt lat="45.10932" lon="4.81356">
        <ele>121</ele>
      </trkpt>
      <trkpt lat="45.10911" lon="4.81406">
        <ele>121</ele>
      </trkpt>
      <trkpt lat="45.10881" lon="4.81467">
        <ele>121</ele>
      </trkpt>
      <trkpt lat="45.10821" lon="4.8158">
        <ele>122</ele>
      </trkpt>
      <trkpt lat="45.10786" lon="4.81649">
        <ele>121</ele>
      </trkpt>
      <trkpt lat="45.10772" lon="4.81672">
        <ele>122</ele>
      </trkpt>
      <trkpt lat="45.10748" lon="4.81701">
        <ele>123</ele>
      </trkpt>
      <trkpt lat="45.1072" lon="4.81731">
        <ele>123</ele>
      </trkpt>
      <trkpt lat="45.10637" lon="4.81809">
        <ele>121</ele>
      </trkpt>
      <trkpt lat="45.10601" lon="4.81847">
        <ele>122</ele>
      </trkpt>
      <trkpt lat="45.10553" lon="4.8191">
        <ele>122</ele>
      </trkpt>
      <trkpt lat="45.10514" lon="4.81946">
        <ele>122</ele>
      </trkpt>
      <trkpt lat="45.10486" lon="4.8197">
        <ele>122</ele>
      </trkpt>
      <trkpt lat="45.10411" lon="4.82036">
        <ele>122</ele>
      </trkpt>
      <trkpt lat="45.10357" lon="4.82104">
        <ele>122</ele>
      </trkpt>
      <trkpt lat="45.10351" lon="4.82118">
        <ele>122</ele>
      </trkpt>
      <trkpt lat="45.10351" lon="4.82118">
        <ele>122</ele>
      </trkpt>
      <trkpt lat="45.10349" lon="4.8213">
        <ele>123</ele>
      </trkpt>
      <trkpt lat="45.10343" lon="4.82146">
        <ele>123</ele>
      </trkpt>
      <trkpt lat="45.10306" lon="4.82188">
        <ele>124</ele>
      </trkpt>
      <trkpt lat="45.10279" lon="4.8222">
        <ele>124</ele>
      </trkpt>
      <trkpt lat="45.1027" lon="4.82231">
        <ele>124</ele>
      </trkpt>
      <trkpt lat="45.10261" lon="4.8225">
        <ele>125</ele>
      </trkpt>
      <trkpt lat="45.10254" lon="4.82279">
        <ele>125</ele>
      </trkpt>
      <trkpt lat="45.10248" lon="4.82293">
        <ele>126</ele>
      </trkpt>
      <trkpt lat="45.10185" lon="4.8232">
        <ele>126</ele>
      </trkpt>
      <trkpt lat="45.10135" lon="4.82347">
        <ele>126</ele>
      </trkpt>
      <trkpt lat="45.10104" lon="4.82379">
        <ele>125</ele>
      </trkpt>
      <trkpt lat="45.10031" lon="4.82418">
        <ele>123</ele>
      </trkpt>
      <trkpt lat="45.10007" lon="4.82425">
        <ele>122</ele>
      </trkpt>
      <trkpt lat="45.09962" lon="4.82445">
        <ele>122</ele>
      </trkpt>
      <trkpt lat="45.09863" lon="4.82484">
        <ele>123</ele>
      </trkpt>
      <trkpt lat="45.09749" lon="4.82538">
        <ele>123</ele>
      </trkpt>
      <trkpt lat="45.09715" lon="4.82555">
        <ele>123</ele>
      </trkpt>
      <trkpt lat="45.09674" lon="4.82577">
        <ele>123</ele>
      </trkpt>
      <trkpt lat="45.09648" lon="4.82587">
        <ele>123</ele>
      </trkpt>
      <trkpt lat="45.09642" lon="4.826">
        <ele>123</ele>
      </trkpt>
      <trkpt lat="45.09636" lon="4.82624">
        <ele>123</ele>
      </trkpt>
      <trkpt lat="45.09624" lon="4.82657">
        <ele>123</ele>
      </trkpt>
      <trkpt lat="45.09608" lon="4.82695">
        <ele>125</ele>
      </trkpt>
      <trkpt lat="45.09592" lon="4.82728">
        <ele>125</ele>
      </trkpt>
      <trkpt lat="45.09561" lon="4.82758">
        <ele>123</ele>
      </trkpt>
      <trkpt lat="45.09517" lon="4.828">
        <ele>123</ele>
      </trkpt>
      <trkpt lat="45.09492" lon="4.82827">
        <ele>122</ele>
      </trkpt>
      <trkpt lat="45.09464" lon="4.82855">
        <ele>122</ele>
      </trkpt>
      <trkpt lat="45.09451" lon="4.82858">
        <ele>122</ele>
      </trkpt>
      <trkpt lat="45.09412" lon="4.8287">
        <ele>122</ele>
      </trkpt>
      <trkpt lat="45.09338" lon="4.82884">
        <ele>122</ele>
      </trkpt>
      <trkpt lat="45.09253" lon="4.82919">
        <ele>123</ele>
      </trkpt>
      <trkpt lat="45.09232" lon="4.82927">
        <ele>122</ele>
      </trkpt>
      <trkpt lat="45.092" lon="4.82945">
        <ele>122</ele>
      </trkpt>
      <trkpt lat="45.09173" lon="4.82966">
        <ele>122</ele>
      </trkpt>
      <trkpt lat="45.09156" lon="4.82974">
        <ele>122</ele>
      </trkpt>
      <trkpt lat="45.09067" lon="4.82995">
        <ele>120</ele>
      </trkpt>
      <trkpt lat="45.09027" lon="4.83006">
        <ele>121</ele>
      </trkpt>
      <trkpt lat="45.08999" lon="4.8302">
        <ele>121</ele>
      </trkpt>
      <trkpt lat="45.08971" lon="4.83034">
        <ele>121</ele>
      </trkpt>
      <trkpt lat="45.08958" lon="4.83038">
        <ele>121</ele>
      </trkpt>
      <trkpt lat="45.0889" lon="4.8304">
        <ele>121</ele>
      </trkpt>
      <trkpt lat="45.08855" lon="4.83047">
        <ele>121</ele>
      </trkpt>
      <trkpt lat="45.08819" lon="4.83049">
        <ele>121</ele>
      </trkpt>
      <trkpt lat="45.08763" lon="4.83045">
        <ele>122</ele>
      </trkpt>
      <trkpt lat="45.087" lon="4.83032">
        <ele>122</ele>
      </trkpt>
      <trkpt lat="45.08616" lon="4.83002">
        <ele>121</ele>
      </trkpt>
      <trkpt lat="45.08568" lon="4.82979">
        <ele>122</ele>
      </trkpt>
      <trkpt lat="45.0855" lon="4.8297">
        <ele>122</ele>
      </trkpt>
      <trkpt lat="45.08515" lon="4.82947">
        <ele>122</ele>
      </trkpt>
      <trkpt lat="45.08496" lon="4.82931">
        <ele>122</ele>
      </trkpt>
      <trkpt lat="45.08452" lon="4.82888">
        <ele>124</ele>
      </trkpt>
      <trkpt lat="45.08436" lon="4.82872">
        <ele>124</ele>
      </trkpt>
      <trkpt lat="45.08414" lon="4.82857">
        <ele>124</ele>
      </trkpt>
      <trkpt lat="45.08379" lon="4.82838">
        <ele>124</ele>
      </trkpt>
      <trkpt lat="45.08347" lon="4.82818">
        <ele>122</ele>
      </trkpt>
      <trkpt lat="45.08329" lon="4.82807">
        <ele>122</ele>
      </trkpt>
      <trkpt lat="45.08251" lon="4.82765">
        <ele>122</ele>
      </trkpt>
      <trkpt lat="45.08227" lon="4.82748">
        <ele>121</ele>
      </trkpt>
      <trkpt lat="45.08194" lon="4.82724">
        <ele>121</ele>
      </trkpt>
      <trkpt lat="45.08161" lon="4.82702">
        <ele>120</ele>
      </trkpt>
      <trkpt lat="45.08134" lon="4.82684">
        <ele>120</ele>
      </trkpt>
      <trkpt lat="45.08095" lon="4.82671">
        <ele>121</ele>
      </trkpt>
      <trkpt lat="45.08074" lon="4.82664">
        <ele>122</ele>
      </trkpt>
      <trkpt lat="45.08059" lon="4.82657">
        <ele>123</ele>
      </trkpt>
      <trkpt lat="45.08051" lon="4.8264">
        <ele>123</ele>
      </trkpt>
      <trkpt lat="45.08046" lon="4.82634">
        <ele>123</ele>
      </trkpt>
      <trkpt lat="45.08036" lon="4.82626">
        <ele>123</ele>
      </trkpt>
      <trkpt lat="45.08022" lon="4.8262">
        <ele>123</ele>
      </trkpt>
      <trkpt lat="45.07993" lon="4.82628">
        <ele>123</ele>
      </trkpt>
      <trkpt lat="45.07956" lon="4.82623">
        <ele>122</ele>
      </trkpt>
      <trkpt lat="45.07849" lon="4.82612">
        <ele>121</ele>
      </trkpt>
      <trkpt lat="45.07758" lon="4.82604">
        <ele>122</ele>
      </trkpt>
      <trkpt lat="45.07724" lon="4.82579">
        <ele>125</ele>
      </trkpt>
      <trkpt lat="45.07689" lon="4.82556">
        <ele>125</ele>
      </trkpt>
      <trkpt lat="45.07658" lon="4.8252">
        <ele>124</ele>
      </trkpt>
      <trkpt lat="45.07638" lon="4.82481">
        <ele>123</ele>
      </trkpt>
      <trkpt lat="45.0762" lon="4.82417">
        <ele>122</ele>
      </trkpt>
      <trkpt lat="45.07621" lon="4.8236">
        <ele>120</ele>
      </trkpt>
      <trkpt lat="45.07639" lon="4.82315">
        <ele>119</ele>
      </trkpt>
      <trkpt lat="45.07655" lon="4.82289">
        <ele>119</ele>
      </trkpt>
      <trkpt lat="45.07664" lon="4.82277">
        <ele>119</ele>
      </trkpt>
      <trkpt lat="45.07674" lon="4.82258">
        <ele>120</ele>
      </trkpt>
      <trkpt lat="45.07681" lon="4.82242">
        <ele>120</ele>
      </trkpt>
      <trkpt lat="45.0768" lon="4.82223">
        <ele>120</ele>
      </trkpt>
      <trkpt lat="45.07671" lon="4.82185">
        <ele>119</ele>
      </trkpt>
      <trkpt lat="45.07631" lon="4.82034">
        <ele>119</ele>
      </trkpt>
      <trkpt lat="45.07605" lon="4.81939">
        <ele>120</ele>
      </trkpt>
      <trkpt lat="45.07572" lon="4.81813">
        <ele>120</ele>
      </trkpt>
      <trkpt lat="45.07545" lon="4.81713">
        <ele>121</ele>
      </trkpt>
      <trkpt lat="45.07533" lon="4.81667">
        <ele>121</ele>
      </trkpt>
      <trkpt lat="45.0753" lon="4.81655">
        <ele>121</ele>
      </trkpt>
      <trkpt lat="45.07527" lon="4.81651">
        <ele>121</ele>
      </trkpt>
      <trkpt lat="45.07527" lon="4.81651">
        <ele>121</ele>
      </trkpt>
      <trkpt lat="45.07523" lon="4.81652">
        <ele>121</ele>
      </trkpt>
      <trkpt lat="45.07477" lon="4.81685">
        <ele>121</ele>
      </trkpt>
      <trkpt lat="45.0742" lon="4.81728">
        <ele>122</ele>
      </trkpt>
      <trkpt lat="45.07403" lon="4.81744">
        <ele>123</ele>
      </trkpt>
      <trkpt lat="45.07385" lon="4.81764">
        <ele>122</ele>
      </trkpt>
      <trkpt lat="45.07376" lon="4.81782">
        <ele>122</ele>
      </trkpt>
      <trkpt lat="45.07361" lon="4.81822">
        <ele>122</ele>
      </trkpt>
      <trkpt lat="45.07349" lon="4.81858">
        <ele>122</ele>
      </trkpt>
      <trkpt lat="45.0734" lon="4.81898">
        <ele>123</ele>
      </trkpt>
      <trkpt lat="45.07321" lon="4.81963">
        <ele>124</ele>
      </trkpt>
      <trkpt lat="45.07271" lon="4.82119">
        <ele>124</ele>
      </trkpt>
      <trkpt lat="45.0726" lon="4.82159">
        <ele>125</ele>
      </trkpt>
      <trkpt lat="45.07258" lon="4.82173">
        <ele>125</ele>
      </trkpt>
      <trkpt lat="45.07258" lon="4.82185">
        <ele>124</ele>
      </trkpt>
      <trkpt lat="45.07262" lon="4.82197">
        <ele>124</ele>
      </trkpt>
      <trkpt lat="45.07268" lon="4.82207">
        <ele>124</ele>
      </trkpt>
      <trkpt lat="45.07275" lon="4.82221">
        <ele>124</ele>
      </trkpt>
      <trkpt lat="45.07283" lon="4.82244">
        <ele>124</ele>
      </trkpt>
      <trkpt lat="45.07289" lon="4.82277">
        <ele>124</ele>
      </trkpt>
      <trkpt lat="45.07292" lon="4.82307">
        <ele>124</ele>
      </trkpt>
      <trkpt lat="45.07293" lon="4.82347">
        <ele>124</ele>
      </trkpt>
      <trkpt lat="45.07292" lon="4.82381">
        <ele>124</ele>
      </trkpt>
      <trkpt lat="45.07289" lon="4.82418">
        <ele>123</ele>
      </trkpt>
      <trkpt lat="45.07282" lon="4.82459">
        <ele>123</ele>
      </trkpt>
      <trkpt lat="45.07274" lon="4.825">
        <ele>122</ele>
      </trkpt>
      <trkpt lat="45.07264" lon="4.82536">
        <ele>121</ele>
      </trkpt>
      <trkpt lat="45.0725" lon="4.82585">
        <ele>121</ele>
      </trkpt>
      <trkpt lat="45.07233" lon="4.82631">
        <ele>122</ele>
      </trkpt>
      <trkpt lat="45.07217" lon="4.82668">
        <ele>122</ele>
      </trkpt>
      <trkpt lat="45.07189" lon="4.82719">
        <ele>122</ele>
      </trkpt>
      <trkpt lat="45.07166" lon="4.82755">
        <ele>123</ele>
      </trkpt>
      <trkpt lat="45.07143" lon="4.82786">
        <ele>123</ele>
      </trkpt>
      <trkpt lat="45.07114" lon="4.8282">
        <ele>123</ele>
      </trkpt>
      <trkpt lat="45.07089" lon="4.82846">
        <ele>122</ele>
      </trkpt>
      <trkpt lat="45.07084" lon="4.82851">
        <ele>122</ele>
      </trkpt>
      <trkpt lat="45.07082" lon="4.82858">
        <ele>122</ele>
      </trkpt>
      <trkpt lat="45.07084" lon="4.82863">
        <ele>122</ele>
      </trkpt>
      <trkpt lat="45.07086" lon="4.82865">
        <ele>122</ele>
      </trkpt>
      <trkpt lat="45.0711" lon="4.82896">
        <ele>121</ele>
      </trkpt>
      <trkpt lat="45.07115" lon="4.82902">
        <ele>121</ele>
      </trkpt>
      <trkpt lat="45.07116" lon="4.82907">
        <ele>121</ele>
      </trkpt>
      <trkpt lat="45.07114" lon="4.82914">
        <ele>121</ele>
      </trkpt>
      <trkpt lat="45.07107" lon="4.82922">
        <ele>120</ele>
      </trkpt>
      <trkpt lat="45.07075" lon="4.82952">
        <ele>121</ele>
      </trkpt>
      <trkpt lat="45.07065" lon="4.82957">
        <ele>121</ele>
      </trkpt>
      <trkpt lat="45.07054" lon="4.82962">
        <ele>121</ele>
      </trkpt>
      <trkpt lat="45.07045" lon="4.82971">
        <ele>120</ele>
      </trkpt>
      <trkpt lat="45.07036" lon="4.82983">
        <ele>120</ele>
      </trkpt>
      <trkpt lat="45.06995" lon="4.83035">
        <ele>120</ele>
      </trkpt>
      <trkpt lat="45.0696" lon="4.83091">
        <ele>120</ele>
      </trkpt>
      <trkpt lat="45.06923" lon="4.83159">
        <ele>120</ele>
      </trkpt>
      <trkpt lat="45.06907" lon="4.83189">
        <ele>123</ele>
      </trkpt>
      <trkpt lat="45.06879" lon="4.83243">
        <ele>124</ele>
      </trkpt>
      <trkpt lat="45.06865" lon="4.83291">
        <ele>123</ele>
      </trkpt>
      <trkpt lat="45.06839" lon="4.83344">
        <ele>123</ele>
      </trkpt>
      <trkpt lat="45.0681" lon="4.83393">
        <ele>125</ele>
      </trkpt>
      <trkpt lat="45.06777" lon="4.83463">
        <ele>124</ele>
      </trkpt>
      <trkpt lat="45.06697" lon="4.83647">
        <ele>121</ele>
      </trkpt>
      <trkpt lat="45.06686" lon="4.83671">
        <ele>120</ele>
      </trkpt>
      <trkpt lat="45.06591" lon="4.83889">
        <ele>117</ele>
      </trkpt>
      <trkpt lat="45.06569" lon="4.83943">
        <ele>118</ele>
      </trkpt>
      <trkpt lat="45.06553" lon="4.83963">
        <ele>118</ele>
      </trkpt>
      <trkpt lat="45.06545" lon="4.8398">
        <ele>119</ele>
      </trkpt>
      <trkpt lat="45.06538" lon="4.84002">
        <ele>119</ele>
      </trkpt>
      <trkpt lat="45.06537" lon="4.84023">
        <ele>118</ele>
      </trkpt>
    </trkseg>
  </trk>
  <trk>
    <name><![CDATA[20180415225359-J2UR7]]></name>
    <trkseg>
      <trkpt lat="44.92905" lon="4.88919">
        <ele>128</ele>
        <time>2013-04-24T13:26:20Z</time>
      </trkpt>
      <trkpt lat="44.92944" lon="4.88945">
        <ele>127</ele>
        <time>2013-04-24T13:26:14Z</time>
      </trkpt>
      <trkpt lat="44.92947" lon="4.88947">
        <ele>127</ele>
        <time>2013-04-24T13:26:13Z</time>
      </trkpt>
      <trkpt lat="44.92972" lon="4.8896">
        <ele>126</ele>
        <time>2013-04-24T13:26:06Z</time>
      </trkpt>
      <trkpt lat="44.92997" lon="4.88974">
        <ele>126</ele>
        <time>2013-04-24T13:25:59Z</time>
      </trkpt>
      <trkpt lat="44.93024" lon="4.88988">
        <ele>126</ele>
        <time>2013-04-24T13:25:52Z</time>
      </trkpt>
      <trkpt lat="44.93032" lon="4.88992">
        <ele>126</ele>
        <time>2013-04-24T13:25:50Z</time>
      </trkpt>
      <trkpt lat="44.93045" lon="4.89001">
        <ele>128</ele>
        <time>2013-04-24T13:25:46Z</time>
      </trkpt>
      <trkpt lat="44.93052" lon="4.89009">
        <ele>129</ele>
        <time>2013-04-24T13:25:42Z</time>
      </trkpt>
      <trkpt lat="44.93054" lon="4.89039">
        <ele>129</ele>
        <time>2013-04-24T13:25:35Z</time>
      </trkpt>
      <trkpt lat="44.93052" lon="4.89072">
        <ele>130</ele>
        <time>2013-04-24T13:25:28Z</time>
      </trkpt>
      <trkpt lat="44.93051" lon="4.89121">
        <ele>130</ele>
        <time>2013-04-24T13:25:20Z</time>
      </trkpt>
      <trkpt lat="44.93038" lon="4.89449">
        <ele>131</ele>
        <time>2013-04-24T13:24:18Z</time>
      </trkpt>
      <trkpt lat="44.93041" lon="4.89451">
        <ele>131</ele>
        <time>2013-04-24T13:21:34Z</time>
      </trkpt>
      <trkpt lat="44.93043" lon="4.89451">
        <ele>131</ele>
        <time>2013-04-24T13:21:33Z</time>
      </trkpt>
      <trkpt lat="44.93045" lon="4.89451">
        <ele>131</ele>
        <time>2013-04-24T13:21:32Z</time>
      </trkpt>
      <trkpt lat="44.93046" lon="4.89452">
        <ele>131</ele>
        <time>2013-04-24T13:21:31Z</time>
      </trkpt>
      <trkpt lat="44.9315" lon="4.89492">
        <ele>132</ele>
        <time>2013-04-24T12:03:15Z</time>
      </trkpt>
      <trkpt lat="44.93178" lon="4.89506">
        <ele>132</ele>
        <time>2013-04-24T12:03:07Z</time>
      </trkpt>
      <trkpt lat="44.93205" lon="4.89523">
        <ele>132</ele>
        <time>2013-04-24T12:03:00Z</time>
      </trkpt>
      <trkpt lat="44.93237" lon="4.89543">
        <ele>132</ele>
        <time>2013-04-24T12:02:51Z</time>
      </trkpt>
      <trkpt lat="44.93263" lon="4.89558">
        <ele>132</ele>
        <time>2013-04-24T12:02:44Z</time>
      </trkpt>
      <trkpt lat="44.93266" lon="4.8956">
        <ele>132</ele>
        <time>2013-04-24T12:02:43Z</time>
      </trkpt>
      <trkpt lat="44.93283" lon="4.89571">
        <ele>132</ele>
        <time>2013-04-24T12:02:38Z</time>
      </trkpt>
      <trkpt lat="44.93287" lon="4.89574">
        <ele>132</ele>
        <time>2013-04-24T12:02:37Z</time>
      </trkpt>
      <trkpt lat="44.93312" lon="4.89594">
        <ele>132</ele>
        <time>2013-04-24T12:02:30Z</time>
      </trkpt>
      <trkpt lat="44.93338" lon="4.89617">
        <ele>131</ele>
        <time>2013-04-24T12:02:22Z</time>
      </trkpt>
      <trkpt lat="44.93353" lon="4.89629">
        <ele>131</ele>
        <time>2013-04-24T12:02:17Z</time>
      </trkpt>
      <trkpt lat="44.93367" lon="4.89631">
        <ele>131</ele>
        <time>2013-04-24T12:02:13Z</time>
      </trkpt>
      <trkpt lat="44.93379" lon="4.89613">
        <ele>131</ele>
        <time>2013-04-24T12:02:08Z</time>
      </trkpt>
      <trkpt lat="44.93389" lon="4.89594">
        <ele>131</ele>
        <time>2013-04-24T12:02:03Z</time>
      </trkpt>
      <trkpt lat="44.93402" lon="4.89579">
        <ele>130</ele>
        <time>2013-04-24T12:01:58Z</time>
      </trkpt>
      <trkpt lat="44.93408" lon="4.8957">
        <ele>130</ele>
        <time>2013-04-24T12:01:53Z</time>
      </trkpt>
      <trkpt lat="44.93419" lon="4.89561">
        <ele>130</ele>
        <time>2013-04-24T12:01:49Z</time>
      </trkpt>
      <trkpt lat="44.93439" lon="4.89549">
        <ele>130</ele>
        <time>2013-04-24T12:01:43Z</time>
      </trkpt>
      <trkpt lat="44.93453" lon="4.89539">
        <ele>130</ele>
        <time>2013-04-24T12:01:39Z</time>
      </trkpt>
      <trkpt lat="44.93461" lon="4.89534">
        <ele>130</ele>
        <time>2013-04-24T12:01:37Z</time>
      </trkpt>
      <trkpt lat="44.9348" lon="4.89518">
        <ele>130</ele>
        <time>2013-04-24T12:01:32Z</time>
      </trkpt>
      <trkpt lat="44.93483" lon="4.89513">
        <ele>130</ele>
        <time>2013-04-24T12:01:31Z</time>
      </trkpt>
      <trkpt lat="44.93494" lon="4.89487">
        <ele>130</ele>
        <time>2013-04-24T12:01:26Z</time>
      </trkpt>
      <trkpt lat="44.93498" lon="4.89476">
        <ele>130</ele>
        <time>2013-04-24T12:01:24Z</time>
      </trkpt>
      <trkpt lat="44.93508" lon="4.89451">
        <ele>130</ele>
        <time>2013-04-24T12:01:19Z</time>
      </trkpt>
      <trkpt lat="44.93519" lon="4.89415">
        <ele>131</ele>
        <time>2013-04-24T12:01:12Z</time>
      </trkpt>
      <trkpt lat="44.93524" lon="4.89399">
        <ele>131</ele>
        <time>2013-04-24T12:01:09Z</time>
      </trkpt>
      <trkpt lat="44.93529" lon="4.89383">
        <ele>131</ele>
        <time>2013-04-24T12:01:06Z</time>
      </trkpt>
      <trkpt lat="44.93544" lon="4.89342">
        <ele>131</ele>
        <time>2013-04-24T12:01:00Z</time>
      </trkpt>
      <trkpt lat="44.9354" lon="4.89329">
        <ele>131</ele>
        <time>2013-04-24T12:00:54Z</time>
      </trkpt>
      <trkpt lat="44.93546" lon="4.89314">
        <ele>131</ele>
        <time>2013-04-24T12:00:53Z</time>
      </trkpt>
      <trkpt lat="44.93559" lon="4.89309">
        <ele>131</ele>
        <time>2013-04-24T12:00:50Z</time>
      </trkpt>
      <trkpt lat="44.93594" lon="4.89238">
        <ele>125</ele>
        <time>2013-04-24T12:00:23Z</time>
      </trkpt>
      <trkpt lat="44.93597" lon="4.89224">
        <ele>123</ele>
        <time>2013-04-24T12:00:20Z</time>
      </trkpt>
      <trkpt lat="44.93603" lon="4.89217">
        <ele>122</ele>
        <time>2013-04-24T12:00:17Z</time>
      </trkpt>
      <trkpt lat="44.93609" lon="4.89226">
        <ele>123</ele>
        <time>2013-04-24T12:00:13Z</time>
      </trkpt>
      <trkpt lat="44.93633" lon="4.89259">
        <ele>123</ele>
        <time>2013-04-24T12:00:01Z</time>
      </trkpt>
      <trkpt lat="44.93648" lon="4.89282">
        <ele>123</ele>
        <time>2013-04-24T11:59:55Z</time>
      </trkpt>
      <trkpt lat="44.93659" lon="4.893">
        <ele>123</ele>
        <time>2013-04-24T11:59:50Z</time>
      </trkpt>
      <trkpt lat="44.93668" lon="4.89313">
        <ele>119</ele>
        <time>2013-04-24T11:59:46Z</time>
      </trkpt>
      <trkpt lat="44.93684" lon="4.8933">
        <ele>119</ele>
        <time>2013-04-24T11:59:39Z</time>
      </trkpt>
      <trkpt lat="44.93697" lon="4.89333">
        <ele>118</ele>
        <time>2013-04-24T11:59:35Z</time>
      </trkpt>
      <trkpt lat="44.93721" lon="4.8933">
        <ele>117</ele>
        <time>2013-04-24T11:59:28Z</time>
      </trkpt>
      <trkpt lat="44.93744" lon="4.89324">
        <ele>116</ele>
        <time>2013-04-24T11:59:22Z</time>
      </trkpt>
      <trkpt lat="44.93771" lon="4.89314">
        <ele>114</ele>
        <time>2013-04-24T11:59:15Z</time>
      </trkpt>
      <trkpt lat="44.93804" lon="4.89299">
        <ele>114</ele>
        <time>2013-04-24T11:59:07Z</time>
      </trkpt>
      <trkpt lat="44.93816" lon="4.89294">
        <ele>114</ele>
        <time>2013-04-24T11:59:04Z</time>
      </trkpt>
      <trkpt lat="44.93821" lon="4.89295">
        <ele>114</ele>
        <time>2013-04-24T11:59:03Z</time>
      </trkpt>
      <trkpt lat="44.93851" lon="4.89305">
        <ele>114</ele>
        <time>2013-04-24T11:58:56Z</time>
      </trkpt>
      <trkpt lat="44.93876" lon="4.89312">
        <ele>114</ele>
        <time>2013-04-24T11:58:50Z</time>
      </trkpt>
      <trkpt lat="44.93904" lon="4.89322">
        <ele>114</ele>
        <time>2013-04-24T11:58:43Z</time>
      </trkpt>
      <trkpt lat="44.93908" lon="4.89323">
        <ele>114</ele>
        <time>2013-04-24T11:58:42Z</time>
      </trkpt>
      <trkpt lat="44.93927" lon="4.89329">
        <ele>114</ele>
        <time>2013-04-24T11:58:37Z</time>
      </trkpt>
      <trkpt lat="44.93964" lon="4.8934">
        <ele>114</ele>
        <time>2013-04-24T11:58:28Z</time>
      </trkpt>
      <trkpt lat="44.94003" lon="4.89352">
        <ele>114</ele>
        <time>2013-04-24T11:58:19Z</time>
      </trkpt>
      <trkpt lat="44.94031" lon="4.8936">
        <ele>114</ele>
        <time>2013-04-24T11:58:12Z</time>
      </trkpt>
      <trkpt lat="44.94048" lon="4.89366">
        <ele>114</ele>
        <time>2013-04-24T11:58:08Z</time>
      </trkpt>
      <trkpt lat="44.94052" lon="4.89367">
        <ele>114</ele>
        <time>2013-04-24T11:58:07Z</time>
      </trkpt>
      <trkpt lat="44.94056" lon="4.89369">
        <ele>114</ele>
        <time>2013-04-24T11:58:06Z</time>
      </trkpt>
      <trkpt lat="44.9406" lon="4.8937">
        <ele>114</ele>
        <time>2013-04-24T11:58:05Z</time>
      </trkpt>
      <trkpt lat="44.94063" lon="4.89371">
        <ele>114</ele>
        <time>2013-04-24T11:58:04Z</time>
      </trkpt>
      <trkpt lat="44.94071" lon="4.89369">
        <ele>114</ele>
        <time>2013-04-24T11:58:02Z</time>
      </trkpt>
      <trkpt lat="44.94081" lon="4.89354">
        <ele>114</ele>
        <time>2013-04-24T11:57:58Z</time>
      </trkpt>
      <trkpt lat="44.94084" lon="4.89344">
        <ele>115</ele>
        <time>2013-04-24T11:57:56Z</time>
      </trkpt>
      <trkpt lat="44.94087" lon="4.89341">
        <ele>115</ele>
        <time>2013-04-24T11:57:55Z</time>
      </trkpt>
      <trkpt lat="44.94094" lon="4.89339">
        <ele>115</ele>
        <time>2013-04-24T11:57:53Z</time>
      </trkpt>
      <trkpt lat="44.94104" lon="4.8934">
        <ele>115</ele>
        <time>2013-04-24T11:57:50Z</time>
      </trkpt>
      <trkpt lat="44.94117" lon="4.89351">
        <ele>115</ele>
        <time>2013-04-24T11:57:45Z</time>
      </trkpt>
      <trkpt lat="44.94123" lon="4.89354">
        <ele>115</ele>
        <time>2013-04-24T11:57:43Z</time>
      </trkpt>
      <trkpt lat="44.94146" lon="4.89346">
        <ele>115</ele>
        <time>2013-04-24T11:57:37Z</time>
      </trkpt>
      <trkpt lat="44.94166" lon="4.89338">
        <ele>115</ele>
        <time>2013-04-24T11:57:32Z</time>
      </trkpt>
      <trkpt lat="44.9417" lon="4.89336">
        <ele>115</ele>
        <time>2013-04-24T11:57:31Z</time>
      </trkpt>
      <trkpt lat="44.94174" lon="4.89334">
        <ele>115</ele>
        <time>2013-04-24T11:57:30Z</time>
      </trkpt>
      <trkpt lat="44.94178" lon="4.89332">
        <ele>115</ele>
        <time>2013-04-24T11:57:29Z</time>
      </trkpt>
      <trkpt lat="44.94199" lon="4.89322">
        <ele>115</ele>
        <time>2013-04-24T11:57:24Z</time>
      </trkpt>
      <trkpt lat="44.94231" lon="4.89305">
        <ele>115</ele>
        <time>2013-04-24T11:57:17Z</time>
      </trkpt>
      <trkpt lat="44.94273" lon="4.89282">
        <ele>117</ele>
        <time>2013-04-24T11:57:08Z</time>
      </trkpt>
      <trkpt lat="44.94308" lon="4.89264">
        <ele>117</ele>
        <time>2013-04-24T11:57:01Z</time>
      </trkpt>
      <trkpt lat="44.9434" lon="4.89247">
        <ele>118</ele>
        <time>2013-04-24T11:56:54Z</time>
      </trkpt>
      <trkpt lat="44.94356" lon="4.89236">
        <ele>118</ele>
        <time>2013-04-24T11:56:50Z</time>
      </trkpt>
      <trkpt lat="44.94362" lon="4.89226">
        <ele>118</ele>
        <time>2013-04-24T11:56:48Z</time>
      </trkpt>
      <trkpt lat="44.94368" lon="4.89207">
        <ele>117</ele>
        <time>2013-04-24T11:56:45Z</time>
      </trkpt>
      <trkpt lat="44.94373" lon="4.89159">
        <ele>116</ele>
        <time>2013-04-24T11:56:38Z</time>
      </trkpt>
      <trkpt lat="44.94373" lon="4.89126">
        <ele>116</ele>
        <time>2013-04-24T11:56:33Z</time>
      </trkpt>
      <trkpt lat="44.94373" lon="4.8912">
        <ele>116</ele>
        <time>2013-04-24T11:56:32Z</time>
      </trkpt>
      <trkpt lat="44.94376" lon="4.89099">
        <ele>116</ele>
        <time>2013-04-24T11:56:28Z</time>
      </trkpt>
      <trkpt lat="44.94378" lon="4.89093">
        <ele>116</ele>
        <time>2013-04-24T11:56:27Z</time>
      </trkpt>
      <trkpt lat="44.94391" lon="4.8907">
        <ele>114</ele>
        <time>2013-04-24T11:56:22Z</time>
      </trkpt>
      <trkpt lat="44.94406" lon="4.89036">
        <ele>114</ele>
        <time>2013-04-24T11:56:15Z</time>
      </trkpt>
      <trkpt lat="44.94422" lon="4.88999">
        <ele>113</ele>
        <time>2013-04-24T11:56:07Z</time>
      </trkpt>
      <trkpt lat="44.94424" lon="4.88994">
        <ele>113</ele>
        <time>2013-04-24T11:56:06Z</time>
      </trkpt>
      <trkpt lat="44.94432" lon="4.88965">
        <ele>113</ele>
        <time>2013-04-24T11:56:01Z</time>
      </trkpt>
      <trkpt lat="44.94434" lon="4.88953">
        <ele>113</ele>
        <time>2013-04-24T11:55:59Z</time>
      </trkpt>
      <trkpt lat="44.94439" lon="4.88933">
        <ele>113</ele>
        <time>2013-04-24T11:55:56Z</time>
      </trkpt>
      <trkpt lat="44.94445" lon="4.88921">
        <ele>113</ele>
        <time>2013-04-24T11:55:54Z</time>
      </trkpt>
      <trkpt lat="44.94454" lon="4.88905">
        <ele>113</ele>
        <time>2013-04-24T11:55:51Z</time>
      </trkpt>
      <trkpt lat="44.94468" lon="4.88886">
        <ele>113</ele>
        <time>2013-04-24T11:55:47Z</time>
      </trkpt>
      <trkpt lat="44.94471" lon="4.88881">
        <ele>113</ele>
        <time>2013-04-24T11:55:46Z</time>
      </trkpt>
      <trkpt lat="44.94492" lon="4.88841">
        <ele>114</ele>
        <time>2013-04-24T11:55:38Z</time>
      </trkpt>
      <trkpt lat="44.94503" lon="4.88816">
        <ele>116</ele>
        <time>2013-04-24T11:55:32Z</time>
      </trkpt>
      <trkpt lat="44.94509" lon="4.888">
        <ele>116</ele>
        <time>2013-04-24T11:55:28Z</time>
      </trkpt>
      <trkpt lat="44.94514" lon="4.88788">
        <ele>116</ele>
        <time>2013-04-24T11:55:25Z</time>
      </trkpt>
      <trkpt lat="44.94523" lon="4.88762">
        <ele>116</ele>
        <time>2013-04-24T11:55:19Z</time>
      </trkpt>
      <trkpt lat="44.94532" lon="4.88741">
        <ele>115</ele>
        <time>2013-04-24T11:55:13Z</time>
      </trkpt>
      <trkpt lat="44.94539" lon="4.88725">
        <ele>115</ele>
        <time>2013-04-24T11:55:10Z</time>
      </trkpt>
      <trkpt lat="44.94538" lon="4.88717">
        <ele>115</ele>
        <time>2013-04-24T11:55:09Z</time>
      </trkpt>
      <trkpt lat="44.94524" lon="4.88695">
        <ele>115</ele>
        <time>2013-04-24T11:54:14Z</time>
      </trkpt>
      <trkpt lat="44.94514" lon="4.88702">
        <ele>115</ele>
        <time>2013-04-24T11:54:11Z</time>
      </trkpt>
      <trkpt lat="44.94497" lon="4.88698">
        <ele>114</ele>
        <time>2013-04-24T11:54:07Z</time>
      </trkpt>
      <trkpt lat="44.94494" lon="4.88694">
        <ele>114</ele>
        <time>2013-04-24T11:54:06Z</time>
      </trkpt>
      <trkpt lat="44.94488" lon="4.88681">
        <ele>114</ele>
        <time>2013-04-24T11:54:03Z</time>
      </trkpt>
      <trkpt lat="44.94487" lon="4.8866">
        <ele>114</ele>
        <time>2013-04-24T11:53:58Z</time>
      </trkpt>
      <trkpt lat="44.94487" lon="4.88656">
        <ele>114</ele>
        <time>2013-04-24T11:53:48Z</time>
      </trkpt>
      <trkpt lat="44.94487" lon="4.88656">
        <ele>114</ele>
        <time>2013-04-24T11:53:34Z</time>
      </trkpt>
      <trkpt lat="44.94487" lon="4.88654">
        <ele>114</ele>
        <time>2013-04-24T11:53:30Z</time>
      </trkpt>
      <trkpt lat="44.94483" lon="4.88638">
        <ele>114</ele>
        <time>2013-04-24T11:53:24Z</time>
      </trkpt>
      <trkpt lat="44.94469" lon="4.88616">
        <ele>114</ele>
        <time>2013-04-24T11:53:17Z</time>
      </trkpt>
      <trkpt lat="44.94451" lon="4.8859">
        <ele>114</ele>
        <time>2013-04-24T11:53:09Z</time>
      </trkpt>
      <trkpt lat="44.94431" lon="4.88562">
        <ele>113</ele>
        <time>2013-04-24T11:53:01Z</time>
      </trkpt>
      <trkpt lat="44.94419" lon="4.88551">
        <ele>113</ele>
        <time>2013-04-24T11:52:57Z</time>
      </trkpt>
      <trkpt lat="44.94401" lon="4.88553">
        <ele>111</ele>
        <time>2013-04-24T11:52:51Z</time>
      </trkpt>
      <trkpt lat="44.94391" lon="4.88556">
        <ele>110</ele>
        <time>2013-04-24T11:52:13Z</time>
      </trkpt>
      <trkpt lat="44.94391" lon="4.88556">
        <ele>110</ele>
        <time>2013-04-24T11:52:13Z</time>
      </trkpt>
      <trkpt lat="44.94388" lon="4.88545">
        <ele>110</ele>
        <time>2013-04-24T11:51:42Z</time>
      </trkpt>
      <trkpt lat="44.94388" lon="4.88537">
        <ele>110</ele>
        <time>2013-04-24T11:51:40Z</time>
      </trkpt>
      <trkpt lat="44.94393" lon="4.88531">
        <ele>110</ele>
        <time>2013-04-24T11:51:38Z</time>
      </trkpt>
      <trkpt lat="44.94419" lon="4.88515">
        <ele>112</ele>
        <time>2013-04-24T11:51:30Z</time>
      </trkpt>
      <trkpt lat="44.94459" lon="4.88493">
        <ele>111</ele>
        <time>2013-04-24T11:51:21Z</time>
      </trkpt>
      <trkpt lat="44.94497" lon="4.88473">
        <ele>111</ele>
        <time>2013-04-24T11:51:13Z</time>
      </trkpt>
      <trkpt lat="44.94535" lon="4.88455">
        <ele>110</ele>
        <time>2013-04-24T11:51:05Z</time>
      </trkpt>
      <trkpt lat="44.94565" lon="4.88441">
        <ele>110</ele>
        <time>2013-04-24T11:50:59Z</time>
      </trkpt>
      <trkpt lat="44.9457" lon="4.88439">
        <ele>110</ele>
        <time>2013-04-24T11:50:58Z</time>
      </trkpt>
      <trkpt lat="44.94604" lon="4.88424">
        <ele>110</ele>
        <time>2013-04-24T11:50:51Z</time>
      </trkpt>
      <trkpt lat="44.94638" lon="4.88409">
        <ele>109</ele>
        <time>2013-04-24T11:50:44Z</time>
      </trkpt>
      <trkpt lat="44.94677" lon="4.88392">
        <ele>108</ele>
        <time>2013-04-24T11:50:36Z</time>
      </trkpt>
      <trkpt lat="44.94715" lon="4.88376">
        <ele>108</ele>
        <time>2013-04-24T11:50:28Z</time>
      </trkpt>
      <trkpt lat="44.94754" lon="4.8836">
        <ele>109</ele>
        <time>2013-04-24T11:50:20Z</time>
      </trkpt>
      <trkpt lat="44.94787" lon="4.88344">
        <ele>109</ele>
        <time>2013-04-24T11:50:13Z</time>
      </trkpt>
      <trkpt lat="44.94796" lon="4.88341">
        <ele>109</ele>
        <time>2013-04-24T11:50:11Z</time>
      </trkpt>
      <trkpt lat="44.94838" lon="4.88321">
        <ele>108</ele>
        <time>2013-04-24T11:50:02Z</time>
      </trkpt>
      <trkpt lat="44.9488" lon="4.88302">
        <ele>109</ele>
        <time>2013-04-24T11:49:53Z</time>
      </trkpt>
      <trkpt lat="44.94885" lon="4.883">
        <ele>109</ele>
        <time>2013-04-24T11:49:52Z</time>
      </trkpt>
      <trkpt lat="44.94914" lon="4.88287">
        <ele>108</ele>
        <time>2013-04-24T11:49:45Z</time>
      </trkpt>
      <trkpt lat="44.94944" lon="4.88274">
        <ele>110</ele>
        <time>2013-04-24T11:49:38Z</time>
      </trkpt>
      <trkpt lat="44.94978" lon="4.88259">
        <ele>110</ele>
        <time>2013-04-24T11:49:30Z</time>
      </trkpt>
      <trkpt lat="44.9501" lon="4.88245">
        <ele>110</ele>
        <time>2013-04-24T11:49:21Z</time>
      </trkpt>
      <trkpt lat="44.95037" lon="4.88233">
        <ele>110</ele>
        <time>2013-04-24T11:49:14Z</time>
      </trkpt>
      <trkpt lat="44.95042" lon="4.88231">
        <ele>110</ele>
        <time>2013-04-24T11:49:13Z</time>
      </trkpt>
      <trkpt lat="44.95079" lon="4.88215">
        <ele>110</ele>
        <time>2013-04-24T11:49:05Z</time>
      </trkpt>
      <trkpt lat="44.95116" lon="4.88199">
        <ele>111</ele>
        <time>2013-04-24T11:48:57Z</time>
      </trkpt>
      <trkpt lat="44.95156" lon="4.88181">
        <ele>110</ele>
        <time>2013-04-24T11:48:48Z</time>
      </trkpt>
      <trkpt lat="44.95196" lon="4.88163">
        <ele>109</ele>
        <time>2013-04-24T11:48:39Z</time>
      </trkpt>
      <trkpt lat="44.95245" lon="4.88141">
        <ele>109</ele>
        <time>2013-04-24T11:48:28Z</time>
      </trkpt>
      <trkpt lat="44.95289" lon="4.88122">
        <ele>111</ele>
        <time>2013-04-24T11:48:18Z</time>
      </trkpt>
      <trkpt lat="44.95311" lon="4.88112">
        <ele>111</ele>
        <time>2013-04-24T11:48:13Z</time>
      </trkpt>
      <trkpt lat="44.95319" lon="4.88109">
        <ele>111</ele>
        <time>2013-04-24T11:48:11Z</time>
      </trkpt>
      <trkpt lat="44.95359" lon="4.8809">
        <ele>112</ele>
        <time>2013-04-24T11:48:02Z</time>
      </trkpt>
      <trkpt lat="44.95399" lon="4.88072">
        <ele>109</ele>
        <time>2013-04-24T11:47:53Z</time>
      </trkpt>
      <trkpt lat="44.95413" lon="4.88067">
        <ele>109</ele>
        <time>2013-04-24T11:47:50Z</time>
      </trkpt>
      <trkpt lat="44.95431" lon="4.88059">
        <ele>110</ele>
        <time>2013-04-24T11:47:46Z</time>
      </trkpt>
      <trkpt lat="44.95471" lon="4.88041">
        <ele>110</ele>
        <time>2013-04-24T11:47:37Z</time>
      </trkpt>
      <trkpt lat="44.95503" lon="4.88027">
        <ele>110</ele>
        <time>2013-04-24T11:47:30Z</time>
      </trkpt>
      <trkpt lat="44.95544" lon="4.88012">
        <ele>111</ele>
        <time>2013-04-24T11:47:21Z</time>
      </trkpt>
      <trkpt lat="44.95638" lon="4.87977">
        <ele>109</ele>
        <time>2013-04-24T11:46:41Z</time>
      </trkpt>
      <trkpt lat="44.95666" lon="4.87965">
        <ele>109</ele>
        <time>2013-04-24T11:46:34Z</time>
      </trkpt>
      <trkpt lat="44.95688" lon="4.87956">
        <ele>109</ele>
        <time>2013-04-24T11:46:28Z</time>
      </trkpt>
      <trkpt lat="44.95716" lon="4.8794">
        <ele>109</ele>
        <time>2013-04-24T11:46:20Z</time>
      </trkpt>
      <trkpt lat="44.95728" lon="4.87934">
        <ele>109</ele>
        <time>2013-04-24T11:46:17Z</time>
      </trkpt>
      <trkpt lat="44.95745" lon="4.87924">
        <ele>109</ele>
        <time>2013-04-24T11:46:13Z</time>
      </trkpt>
      <trkpt lat="44.95768" lon="4.8791">
        <ele>109</ele>
        <time>2013-04-24T11:46:07Z</time>
      </trkpt>
      <trkpt lat="44.958" lon="4.87888">
        <ele>110</ele>
        <time>2013-04-24T11:45:58Z</time>
      </trkpt>
      <trkpt lat="44.95836" lon="4.87864">
        <ele>111</ele>
        <time>2013-04-24T11:45:50Z</time>
      </trkpt>
      <trkpt lat="44.95875" lon="4.87835">
        <ele>111</ele>
        <time>2013-04-24T11:45:41Z</time>
      </trkpt>
      <trkpt lat="44.95895" lon="4.8782">
        <ele>110</ele>
        <time>2013-04-24T11:45:36Z</time>
      </trkpt>
      <trkpt lat="44.95898" lon="4.87817">
        <ele>110</ele>
        <time>2013-04-24T11:45:35Z</time>
      </trkpt>
      <trkpt lat="44.95912" lon="4.87806">
        <ele>110</ele>
        <time>2013-04-24T11:45:05Z</time>
      </trkpt>
      <trkpt lat="44.95916" lon="4.87803">
        <ele>110</ele>
        <time>2013-04-24T11:45:01Z</time>
      </trkpt>
      <trkpt lat="44.95919" lon="4.87801">
        <ele>111</ele>
        <time>2013-04-24T11:44:58Z</time>
      </trkpt>
      <trkpt lat="44.95919" lon="4.87801">
        <ele>111</ele>
        <time>2013-04-24T11:44:50Z</time>
      </trkpt>
      <trkpt lat="44.95919" lon="4.87801">
        <ele>111</ele>
        <time>2013-04-24T11:44:49Z</time>
      </trkpt>
      <trkpt lat="44.95919" lon="4.87801">
        <ele>111</ele>
        <time>2013-04-24T11:44:48Z</time>
      </trkpt>
      <trkpt lat="44.95919" lon="4.87801">
        <ele>111</ele>
        <time>2013-04-24T11:44:47Z</time>
      </trkpt>
      <trkpt lat="44.95918" lon="4.87802">
        <ele>111</ele>
        <time>2013-04-24T11:44:46Z</time>
      </trkpt>
      <trkpt lat="44.95927" lon="4.87794">
        <ele>111</ele>
        <time>2013-04-24T11:44:43Z</time>
      </trkpt>
      <trkpt lat="44.95932" lon="4.8779">
        <ele>111</ele>
        <time>2013-04-24T11:44:42Z</time>
      </trkpt>
      <trkpt lat="44.95948" lon="4.87781">
        <ele>111</ele>
        <time>2013-04-24T11:44:39Z</time>
      </trkpt>
      <trkpt lat="44.95981" lon="4.87756">
        <ele>111</ele>
        <time>2013-04-24T11:44:32Z</time>
      </trkpt>
      <trkpt lat="44.96005" lon="4.87738">
        <ele>111</ele>
        <time>2013-04-24T11:44:25Z</time>
      </trkpt>
      <trkpt lat="44.96011" lon="4.87732">
        <ele>112</ele>
        <time>2013-04-24T11:44:23Z</time>
      </trkpt>
      <trkpt lat="44.96017" lon="4.87726">
        <ele>112</ele>
        <time>2013-04-24T11:44:18Z</time>
      </trkpt>
      <trkpt lat="44.96017" lon="4.87726">
        <ele>112</ele>
        <time>2013-04-24T11:44:05Z</time>
      </trkpt>
      <trkpt lat="44.96017" lon="4.87725">
        <ele>112</ele>
        <time>2013-04-24T11:44:00Z</time>
      </trkpt>
      <trkpt lat="44.96027" lon="4.87715">
        <ele>112</ele>
        <time>2013-04-24T11:43:54Z</time>
      </trkpt>
      <trkpt lat="44.96044" lon="4.87693">
        <ele>112</ele>
        <time>2013-04-24T11:43:47Z</time>
      </trkpt>
      <trkpt lat="44.9606" lon="4.87674">
        <ele>112</ele>
        <time>2013-04-24T11:43:42Z</time>
      </trkpt>
      <trkpt lat="44.96066" lon="4.87666">
        <ele>111</ele>
        <time>2013-04-24T11:43:40Z</time>
      </trkpt>
      <trkpt lat="44.96097" lon="4.87628">
        <ele>112</ele>
        <time>2013-04-24T11:43:31Z</time>
      </trkpt>
      <trkpt lat="44.96123" lon="4.87593">
        <ele>112</ele>
        <time>2013-04-24T11:43:23Z</time>
      </trkpt>
      <trkpt lat="44.96129" lon="4.87584">
        <ele>112</ele>
        <time>2013-04-24T11:43:21Z</time>
      </trkpt>
      <trkpt lat="44.96141" lon="4.87566">
        <ele>110</ele>
        <time>2013-04-24T11:43:17Z</time>
      </trkpt>
      <trkpt lat="44.96162" lon="4.87534">
        <ele>110</ele>
        <time>2013-04-24T11:43:10Z</time>
      </trkpt>
      <trkpt lat="44.96189" lon="4.87496">
        <ele>109</ele>
        <time>2013-04-24T11:43:01Z</time>
      </trkpt>
      <trkpt lat="44.96208" lon="4.87467">
        <ele>110</ele>
        <time>2013-04-24T11:42:54Z</time>
      </trkpt>
      <trkpt lat="44.96219" lon="4.87452">
        <ele>110</ele>
        <time>2013-04-24T11:42:39Z</time>
      </trkpt>
      <trkpt lat="44.96219" lon="4.87452">
        <ele>110</ele>
        <time>2013-04-24T11:42:26Z</time>
      </trkpt>
      <trkpt lat="44.96219" lon="4.87452">
        <ele>110</ele>
        <time>2013-04-24T11:42:13Z</time>
      </trkpt>
      <trkpt lat="44.96219" lon="4.87452">
        <ele>110</ele>
        <time>2013-04-24T11:42:01Z</time>
      </trkpt>
      <trkpt lat="44.96219" lon="4.87452">
        <ele>110</ele>
        <time>2013-04-24T11:41:46Z</time>
      </trkpt>
      <trkpt lat="44.96219" lon="4.87452">
        <ele>110</ele>
        <time>2013-04-24T11:41:31Z</time>
      </trkpt>
      <trkpt lat="44.96219" lon="4.87452">
        <ele>110</ele>
        <time>2013-04-24T11:41:22Z</time>
      </trkpt>
      <trkpt lat="44.96219" lon="4.87452">
        <ele>110</ele>
        <time>2013-04-24T11:41:21Z</time>
      </trkpt>
      <trkpt lat="44.96225" lon="4.8745">
        <ele>111</ele>
        <time>2013-04-24T11:41:18Z</time>
      </trkpt>
      <trkpt lat="44.96239" lon="4.87444">
        <ele>111</ele>
        <time>2013-04-24T11:41:14Z</time>
      </trkpt>
      <trkpt lat="44.96243" lon="4.87438">
        <ele>111</ele>
        <time>2013-04-24T11:41:10Z</time>
      </trkpt>
      <trkpt lat="44.96243" lon="4.87438">
        <ele>111</ele>
        <time>2013-04-24T11:41:09Z</time>
      </trkpt>
      <trkpt lat="44.96243" lon="4.87438">
        <ele>111</ele>
        <time>2013-04-24T11:40:52Z</time>
      </trkpt>
      <trkpt lat="44.96244" lon="4.87436">
        <ele>111</ele>
        <time>2013-04-24T11:40:47Z</time>
      </trkpt>
      <trkpt lat="44.96254" lon="4.87422">
        <ele>113</ele>
        <time>2013-04-24T11:40:36Z</time>
      </trkpt>
      <trkpt lat="44.96264" lon="4.87408">
        <ele>113</ele>
        <time>2013-04-24T11:40:30Z</time>
      </trkpt>
      <trkpt lat="44.96269" lon="4.87401">
        <ele>113</ele>
        <time>2013-04-24T11:40:28Z</time>
      </trkpt>
      <trkpt lat="44.9627" lon="4.8739">
        <ele>113</ele>
        <time>2013-04-24T11:40:26Z</time>
      </trkpt>
      <trkpt lat="44.96269" lon="4.87385">
        <ele>113</ele>
        <time>2013-04-24T11:40:25Z</time>
      </trkpt>
      <trkpt lat="44.96264" lon="4.8738">
        <ele>113</ele>
        <time>2013-04-24T11:40:24Z</time>
      </trkpt>
      <trkpt lat="44.96244" lon="4.8735">
        <ele>112</ele>
        <time>2013-04-24T11:40:18Z</time>
      </trkpt>
      <trkpt lat="44.96234" lon="4.87333">
        <ele>112</ele>
        <time>2013-04-24T11:40:14Z</time>
      </trkpt>
      <trkpt lat="44.9624" lon="4.87309">
        <ele>112</ele>
        <time>2013-04-24T11:40:09Z</time>
      </trkpt>
      <trkpt lat="44.96258" lon="4.87281">
        <ele>114</ele>
        <time>2013-04-24T11:40:02Z</time>
      </trkpt>
      <trkpt lat="44.96284" lon="4.8724">
        <ele>115</ele>
        <time>2013-04-24T11:39:53Z</time>
      </trkpt>
      <trkpt lat="44.96297" lon="4.87221">
        <ele>115</ele>
        <time>2013-04-24T11:39:49Z</time>
      </trkpt>
      <trkpt lat="44.96309" lon="4.87203">
        <ele>115</ele>
        <time>2013-04-24T11:39:45Z</time>
      </trkpt>
      <trkpt lat="44.96322" lon="4.87185">
        <ele>114</ele>
        <time>2013-04-24T11:39:41Z</time>
      </trkpt>
      <trkpt lat="44.96331" lon="4.87173">
        <ele>114</ele>
        <time>2013-04-24T11:39:38Z</time>
      </trkpt>
      <trkpt lat="44.96335" lon="4.87169">
        <ele>114</ele>
        <time>2013-04-24T11:39:37Z</time>
      </trkpt>
      <trkpt lat="44.96347" lon="4.87156">
        <ele>115</ele>
        <time>2013-04-24T11:39:34Z</time>
      </trkpt>
      <trkpt lat="44.96356" lon="4.87152">
        <ele>115</ele>
        <time>2013-04-24T11:39:32Z</time>
      </trkpt>
      <trkpt lat="44.96368" lon="4.87153">
        <ele>115</ele>
        <time>2013-04-24T11:39:29Z</time>
      </trkpt>
      <trkpt lat="44.96388" lon="4.87154">
        <ele>115</ele>
        <time>2013-04-24T11:39:24Z</time>
      </trkpt>
      <trkpt lat="44.96392" lon="4.87153">
        <ele>115</ele>
        <time>2013-04-24T11:39:23Z</time>
      </trkpt>
      <trkpt lat="44.96408" lon="4.87147">
        <ele>115</ele>
        <time>2013-04-24T11:39:19Z</time>
      </trkpt>
      <trkpt lat="44.9643" lon="4.87123">
        <ele>116</ele>
        <time>2013-04-24T11:39:12Z</time>
      </trkpt>
      <trkpt lat="44.96441" lon="4.87113">
        <ele>116</ele>
        <time>2013-04-24T11:39:08Z</time>
      </trkpt>
      <trkpt lat="44.96448" lon="4.87115">
        <ele>116</ele>
        <time>2013-04-24T11:38:48Z</time>
      </trkpt>
      <trkpt lat="44.96458" lon="4.87127">
        <ele>116</ele>
        <time>2013-04-24T11:38:42Z</time>
      </trkpt>
      <trkpt lat="44.96472" lon="4.8715">
        <ele>116</ele>
        <time>2013-04-24T11:38:36Z</time>
      </trkpt>
      <trkpt lat="44.9649" lon="4.87178">
        <ele>118</ele>
        <time>2013-04-24T11:38:29Z</time>
      </trkpt>
      <trkpt lat="44.96503" lon="4.87213">
        <ele>119</ele>
        <time>2013-04-24T11:38:22Z</time>
      </trkpt>
      <trkpt lat="44.96509" lon="4.87236">
        <ele>119</ele>
        <time>2013-04-24T11:38:18Z</time>
      </trkpt>
      <trkpt lat="44.96511" lon="4.87242">
        <ele>119</ele>
        <time>2013-04-24T11:38:17Z</time>
      </trkpt>
      <trkpt lat="44.96514" lon="4.87247">
        <ele>119</ele>
        <time>2013-04-24T11:38:16Z</time>
      </trkpt>
      <trkpt lat="44.96522" lon="4.87262">
        <ele>119</ele>
        <time>2013-04-24T11:38:13Z</time>
      </trkpt>
      <trkpt lat="44.96535" lon="4.8727">
        <ele>119</ele>
        <time>2013-04-24T11:38:10Z</time>
      </trkpt>
      <trkpt lat="44.96545" lon="4.87276">
        <ele>119</ele>
        <time>2013-04-24T11:38:08Z</time>
      </trkpt>
      <trkpt lat="44.96555" lon="4.87283">
        <ele>119</ele>
        <time>2013-04-24T11:38:06Z</time>
      </trkpt>
      <trkpt lat="44.96572" lon="4.87286">
        <ele>119</ele>
        <time>2013-04-24T11:38:03Z</time>
      </trkpt>
      <trkpt lat="44.96592" lon="4.87288">
        <ele>119</ele>
        <time>2013-04-24T11:37:59Z</time>
      </trkpt>
      <trkpt lat="44.96608" lon="4.87305">
        <ele>119</ele>
        <time>2013-04-24T11:37:55Z</time>
      </trkpt>
      <trkpt lat="44.96627" lon="4.87324">
        <ele>119</ele>
        <time>2013-04-24T11:37:51Z</time>
      </trkpt>
      <trkpt lat="44.96631" lon="4.8733">
        <ele>119</ele>
        <time>2013-04-24T11:37:50Z</time>
      </trkpt>
      <trkpt lat="44.96645" lon="4.87343">
        <ele>118</ele>
        <time>2013-04-24T11:37:47Z</time>
      </trkpt>
      <trkpt lat="44.96654" lon="4.87351">
        <ele>118</ele>
        <time>2013-04-24T11:37:45Z</time>
      </trkpt>
      <trkpt lat="44.96688" lon="4.87385">
        <ele>119</ele>
        <time>2013-04-24T11:37:38Z</time>
      </trkpt>
      <trkpt lat="44.96703" lon="4.87412">
        <ele>119</ele>
        <time>2013-04-24T11:37:34Z</time>
      </trkpt>
      <trkpt lat="44.96707" lon="4.87419">
        <ele>119</ele>
        <time>2013-04-24T11:37:33Z</time>
      </trkpt>
      <trkpt lat="44.96712" lon="4.87426">
        <ele>119</ele>
        <time>2013-04-24T11:37:32Z</time>
      </trkpt>
      <trkpt lat="44.96717" lon="4.87433">
        <ele>119</ele>
        <time>2013-04-24T11:37:31Z</time>
      </trkpt>
      <trkpt lat="44.96723" lon="4.87439">
        <ele>119</ele>
        <time>2013-04-24T11:37:30Z</time>
      </trkpt>
      <trkpt lat="44.96728" lon="4.87444">
        <ele>119</ele>
        <time>2013-04-24T11:37:29Z</time>
      </trkpt>
      <trkpt lat="44.96754" lon="4.87455">
        <ele>121</ele>
        <time>2013-04-24T11:37:25Z</time>
      </trkpt>
      <trkpt lat="44.96773" lon="4.87462">
        <ele>121</ele>
        <time>2013-04-24T11:37:22Z</time>
      </trkpt>
      <trkpt lat="44.96827" lon="4.87467">
        <ele>123</ele>
        <time>2013-04-24T11:37:12Z</time>
      </trkpt>
      <trkpt lat="44.96871" lon="4.87471">
        <ele>125</ele>
        <time>2013-04-24T11:37:03Z</time>
      </trkpt>
      <trkpt lat="44.9691" lon="4.87473">
        <ele>126</ele>
        <time>2013-04-24T11:36:55Z</time>
      </trkpt>
      <trkpt lat="44.96943" lon="4.87476">
        <ele>127</ele>
        <time>2013-04-24T11:36:48Z</time>
      </trkpt>
      <trkpt lat="44.96968" lon="4.87479">
        <ele>127</ele>
        <time>2013-04-24T11:36:43Z</time>
      </trkpt>
      <trkpt lat="44.96978" lon="4.87479">
        <ele>127</ele>
        <time>2013-04-24T11:36:41Z</time>
      </trkpt>
      <trkpt lat="44.96993" lon="4.87483">
        <ele>127</ele>
        <time>2013-04-24T11:36:38Z</time>
      </trkpt>
      <trkpt lat="44.97002" lon="4.87479">
        <ele>127</ele>
        <time>2013-04-24T11:36:36Z</time>
      </trkpt>
      <trkpt lat="44.97009" lon="4.87471">
        <ele>127</ele>
        <time>2013-04-24T11:36:34Z</time>
      </trkpt>
      <trkpt lat="44.97028" lon="4.8744">
        <ele>128</ele>
        <time>2013-04-24T11:36:28Z</time>
      </trkpt>
      <trkpt lat="44.97049" lon="4.87383">
        <ele>128</ele>
        <time>2013-04-24T11:36:17Z</time>
      </trkpt>
      <trkpt lat="44.97056" lon="4.87369">
        <ele>128</ele>
        <time>2013-04-24T11:36:12Z</time>
      </trkpt>
      <trkpt lat="44.97064" lon="4.87343">
        <ele>128</ele>
        <time>2013-04-24T11:36:05Z</time>
      </trkpt>
      <trkpt lat="44.97073" lon="4.87318">
        <ele>127</ele>
        <time>2013-04-24T11:36:00Z</time>
      </trkpt>
      <trkpt lat="44.97075" lon="4.87313">
        <ele>127</ele>
        <time>2013-04-24T11:35:59Z</time>
      </trkpt>
      <trkpt lat="44.97088" lon="4.87271">
        <ele>126</ele>
        <time>2013-04-24T11:35:52Z</time>
      </trkpt>
      <trkpt lat="44.97103" lon="4.87229">
        <ele>127</ele>
        <time>2013-04-24T11:35:45Z</time>
      </trkpt>
      <trkpt lat="44.9712" lon="4.87176">
        <ele>128</ele>
        <time>2013-04-24T11:35:36Z</time>
      </trkpt>
      <trkpt lat="44.97146" lon="4.87099">
        <ele>127</ele>
        <time>2013-04-24T11:35:22Z</time>
      </trkpt>
      <trkpt lat="44.97159" lon="4.87057">
        <ele>126</ele>
        <time>2013-04-24T11:35:15Z</time>
      </trkpt>
      <trkpt lat="44.9717" lon="4.87025">
        <ele>126</ele>
        <time>2013-04-24T11:35:09Z</time>
      </trkpt>
      <trkpt lat="44.97175" lon="4.87012">
        <ele>126</ele>
        <time>2013-04-24T11:35:07Z</time>
      </trkpt>
      <trkpt lat="44.9719" lon="4.86968">
        <ele>126</ele>
        <time>2013-04-24T11:35:00Z</time>
      </trkpt>
      <trkpt lat="44.97203" lon="4.86929">
        <ele>126</ele>
        <time>2013-04-24T11:34:54Z</time>
      </trkpt>
      <trkpt lat="44.97216" lon="4.86877">
        <ele>125</ele>
        <time>2013-04-24T11:34:46Z</time>
      </trkpt>
      <trkpt lat="44.97221" lon="4.86852">
        <ele>125</ele>
        <time>2013-04-24T11:34:42Z</time>
      </trkpt>
      <trkpt lat="44.97225" lon="4.86833">
        <ele>125</ele>
        <time>2013-04-24T11:34:39Z</time>
      </trkpt>
      <trkpt lat="44.9723" lon="4.86809">
        <ele>125</ele>
        <time>2013-04-24T11:34:35Z</time>
      </trkpt>
      <trkpt lat="44.97232" lon="4.86803">
        <ele>125</ele>
        <time>2013-04-24T11:34:34Z</time>
      </trkpt>
      <trkpt lat="44.9724" lon="4.86762">
        <ele>125</ele>
        <time>2013-04-24T11:34:27Z</time>
      </trkpt>
      <trkpt lat="44.9726" lon="4.86653">
        <ele>127</ele>
        <time>2013-04-24T11:34:03Z</time>
      </trkpt>
      <trkpt lat="44.97265" lon="4.8664">
        <ele>127</ele>
        <time>2013-04-24T11:33:59Z</time>
      </trkpt>
      <trkpt lat="44.97273" lon="4.86624">
        <ele>127</ele>
        <time>2013-04-24T11:33:52Z</time>
      </trkpt>
      <trkpt lat="44.97281" lon="4.866">
        <ele>127</ele>
        <time>2013-04-24T11:33:45Z</time>
      </trkpt>
      <trkpt lat="44.97312" lon="4.8645">
        <ele>123</ele>
        <time>2013-04-24T11:33:16Z</time>
      </trkpt>
      <trkpt lat="44.97322" lon="4.86406">
        <ele>122</ele>
        <time>2013-04-24T11:33:09Z</time>
      </trkpt>
      <trkpt lat="44.97334" lon="4.86345">
        <ele>122</ele>
        <time>2013-04-24T11:33:01Z</time>
      </trkpt>
      <trkpt lat="44.97351" lon="4.86279">
        <ele>121</ele>
        <time>2013-04-24T11:32:53Z</time>
      </trkpt>
      <trkpt lat="44.97366" lon="4.86232">
        <ele>120</ele>
        <time>2013-04-24T11:32:47Z</time>
      </trkpt>
      <trkpt lat="44.97385" lon="4.86198">
        <ele>120</ele>
        <time>2013-04-24T11:32:42Z</time>
      </trkpt>
      <trkpt lat="44.9739" lon="4.86192">
        <ele>120</ele>
        <time>2013-04-24T11:32:41Z</time>
      </trkpt>
      <trkpt lat="44.97394" lon="4.86186">
        <ele>120</ele>
        <time>2013-04-24T11:32:40Z</time>
      </trkpt>
      <trkpt lat="44.97414" lon="4.86167">
        <ele>120</ele>
        <time>2013-04-24T11:32:36Z</time>
      </trkpt>
      <trkpt lat="44.97429" lon="4.86146">
        <ele>120</ele>
        <time>2013-04-24T11:32:32Z</time>
      </trkpt>
      <trkpt lat="44.97421" lon="4.86108">
        <ele>119</ele>
        <time>2013-04-24T11:32:26Z</time>
      </trkpt>
      <trkpt lat="44.97404" lon="4.86053">
        <ele>116</ele>
        <time>2013-04-24T11:32:16Z</time>
      </trkpt>
      <trkpt lat="44.97397" lon="4.86029">
        <ele>114</ele>
        <time>2013-04-24T11:32:10Z</time>
      </trkpt>
      <trkpt lat="44.97419" lon="4.86012">
        <ele>114</ele>
        <time>2013-04-24T11:32:01Z</time>
      </trkpt>
      <trkpt lat="44.97456" lon="4.85989">
        <ele>115</ele>
        <time>2013-04-24T11:31:51Z</time>
      </trkpt>
      <trkpt lat="44.97495" lon="4.85964">
        <ele>116</ele>
        <time>2013-04-24T11:31:41Z</time>
      </trkpt>
      <trkpt lat="44.97523" lon="4.85948">
        <ele>118</ele>
        <time>2013-04-24T11:31:34Z</time>
      </trkpt>
      <trkpt lat="44.97619" lon="4.85898">
        <ele>116</ele>
        <time>2013-04-24T11:31:12Z</time>
      </trkpt>
      <trkpt lat="44.97653" lon="4.85883">
        <ele>116</ele>
        <time>2013-04-24T11:31:05Z</time>
      </trkpt>
      <trkpt lat="44.97693" lon="4.85868">
        <ele>116</ele>
        <time>2013-04-24T11:30:57Z</time>
      </trkpt>
      <trkpt lat="44.9774" lon="4.85855">
        <ele>117</ele>
        <time>2013-04-24T11:30:48Z</time>
      </trkpt>
      <trkpt lat="44.97782" lon="4.85845">
        <ele>117</ele>
        <time>2013-04-24T11:30:40Z</time>
      </trkpt>
      <trkpt lat="44.97818" lon="4.8584">
        <ele>116</ele>
        <time>2013-04-24T11:30:33Z</time>
      </trkpt>
      <trkpt lat="44.97928" lon="4.85832">
        <ele>113</ele>
        <time>2013-04-24T11:30:11Z</time>
      </trkpt>
      <trkpt lat="44.97972" lon="4.85835">
        <ele>114</ele>
        <time>2013-04-24T11:30:02Z</time>
      </trkpt>
      <trkpt lat="44.98003" lon="4.85838">
        <ele>113</ele>
        <time>2013-04-24T11:29:56Z</time>
      </trkpt>
      <trkpt lat="44.98013" lon="4.8584">
        <ele>113</ele>
        <time>2013-04-24T11:29:54Z</time>
      </trkpt>
      <trkpt lat="44.9806" lon="4.85851">
        <ele>114</ele>
        <time>2013-04-24T11:29:45Z</time>
      </trkpt>
      <trkpt lat="44.98107" lon="4.8587">
        <ele>113</ele>
        <time>2013-04-24T11:29:36Z</time>
      </trkpt>
      <trkpt lat="44.98142" lon="4.85889">
        <ele>113</ele>
        <time>2013-04-24T11:29:29Z</time>
      </trkpt>
      <trkpt lat="44.98171" lon="4.8591">
        <ele>113</ele>
        <time>2013-04-24T11:29:23Z</time>
      </trkpt>
      <trkpt lat="44.98199" lon="4.85934">
        <ele>114</ele>
        <time>2013-04-24T11:29:17Z</time>
      </trkpt>
      <trkpt lat="44.98229" lon="4.85965">
        <ele>114</ele>
        <time>2013-04-24T11:29:10Z</time>
      </trkpt>
      <trkpt lat="44.98263" lon="4.86005">
        <ele>114</ele>
        <time>2013-04-24T11:29:02Z</time>
      </trkpt>
      <trkpt lat="44.98286" lon="4.86038">
        <ele>114</ele>
        <time>2013-04-24T11:28:56Z</time>
      </trkpt>
      <trkpt lat="44.98315" lon="4.86087">
        <ele>115</ele>
        <time>2013-04-24T11:28:48Z</time>
      </trkpt>
      <trkpt lat="44.9834" lon="4.86139">
        <ele>114</ele>
        <time>2013-04-24T11:28:40Z</time>
      </trkpt>
      <trkpt lat="44.98363" lon="4.86194">
        <ele>115</ele>
        <time>2013-04-24T11:28:32Z</time>
      </trkpt>
      <trkpt lat="44.98386" lon="4.86246">
        <ele>114</ele>
        <time>2013-04-24T11:28:24Z</time>
      </trkpt>
      <trkpt lat="44.98407" lon="4.86291">
        <ele>115</ele>
        <time>2013-04-24T11:28:17Z</time>
      </trkpt>
      <trkpt lat="44.98443" lon="4.86365">
        <ele>114</ele>
        <time>2013-04-24T11:28:05Z</time>
      </trkpt>
      <trkpt lat="44.98471" lon="4.86414">
        <ele>113</ele>
        <time>2013-04-24T11:27:57Z</time>
      </trkpt>
      <trkpt lat="44.985" lon="4.86462">
        <ele>116</ele>
        <time>2013-04-24T11:27:49Z</time>
      </trkpt>
      <trkpt lat="44.9853" lon="4.86509">
        <ele>115</ele>
        <time>2013-04-24T11:27:41Z</time>
      </trkpt>
      <trkpt lat="44.98558" lon="4.86551">
        <ele>116</ele>
        <time>2013-04-24T11:27:34Z</time>
      </trkpt>
      <trkpt lat="44.98593" lon="4.86595">
        <ele>115</ele>
        <time>2013-04-24T11:27:26Z</time>
      </trkpt>
      <trkpt lat="44.98625" lon="4.86629">
        <ele>115</ele>
        <time>2013-04-24T11:27:19Z</time>
      </trkpt>
      <trkpt lat="44.98659" lon="4.86662">
        <ele>113</ele>
        <time>2013-04-24T11:27:12Z</time>
      </trkpt>
      <trkpt lat="44.98698" lon="4.86694">
        <ele>113</ele>
        <time>2013-04-24T11:27:04Z</time>
      </trkpt>
      <trkpt lat="44.98703" lon="4.86698">
        <ele>113</ele>
        <time>2013-04-24T11:27:03Z</time>
      </trkpt>
      <trkpt lat="44.98734" lon="4.86719">
        <ele>113</ele>
        <time>2013-04-24T11:26:57Z</time>
      </trkpt>
      <trkpt lat="44.98771" lon="4.86742">
        <ele>112</ele>
        <time>2013-04-24T11:26:50Z</time>
      </trkpt>
      <trkpt lat="44.98823" lon="4.86771">
        <ele>113</ele>
        <time>2013-04-24T11:26:40Z</time>
      </trkpt>
      <trkpt lat="44.98848" lon="4.86786">
        <ele>114</ele>
        <time>2013-04-24T11:26:35Z</time>
      </trkpt>
      <trkpt lat="44.98858" lon="4.86792">
        <ele>114</ele>
        <time>2013-04-24T11:26:33Z</time>
      </trkpt>
      <trkpt lat="44.98895" lon="4.86812">
        <ele>114</ele>
        <time>2013-04-24T11:26:26Z</time>
      </trkpt>
      <trkpt lat="44.98982" lon="4.86874">
        <ele>116</ele>
        <time>2013-04-24T11:26:10Z</time>
      </trkpt>
      <trkpt lat="44.99015" lon="4.86913">
        <ele>115</ele>
        <time>2013-04-24T11:26:03Z</time>
      </trkpt>
      <trkpt lat="44.99046" lon="4.86944">
        <ele>115</ele>
        <time>2013-04-24T11:25:57Z</time>
      </trkpt>
      <trkpt lat="44.99081" lon="4.86968">
        <ele>115</ele>
        <time>2013-04-24T11:25:51Z</time>
      </trkpt>
      <trkpt lat="44.99128" lon="4.86993">
        <ele>113</ele>
        <time>2013-04-24T11:25:43Z</time>
      </trkpt>
      <trkpt lat="44.99181" lon="4.87018">
        <ele>114</ele>
        <time>2013-04-24T11:25:34Z</time>
      </trkpt>
      <trkpt lat="44.99232" lon="4.87039">
        <ele>114</ele>
        <time>2013-04-24T11:25:26Z</time>
      </trkpt>
      <trkpt lat="44.99278" lon="4.87054">
        <ele>113</ele>
        <time>2013-04-24T11:25:19Z</time>
      </trkpt>
      <trkpt lat="44.99311" lon="4.87063">
        <ele>113</ele>
        <time>2013-04-24T11:25:14Z</time>
      </trkpt>
      <trkpt lat="44.99331" lon="4.87068">
        <ele>113</ele>
        <time>2013-04-24T11:25:11Z</time>
      </trkpt>
      <trkpt lat="44.99361" lon="4.87079">
        <ele>112</ele>
        <time>2013-04-24T11:25:06Z</time>
      </trkpt>
      <trkpt lat="44.99394" lon="4.87098">
        <ele>113</ele>
        <time>2013-04-24T11:25:00Z</time>
      </trkpt>
      <trkpt lat="44.99408" lon="4.87109">
        <ele>113</ele>
        <time>2013-04-24T11:24:57Z</time>
      </trkpt>
      <trkpt lat="44.99418" lon="4.87099">
        <ele>112</ele>
        <time>2013-04-24T11:24:54Z</time>
      </trkpt>
      <trkpt lat="44.99426" lon="4.87084">
        <ele>112</ele>
        <time>2013-04-24T11:24:51Z</time>
      </trkpt>
      <trkpt lat="44.99447" lon="4.87041">
        <ele>112</ele>
        <time>2013-04-24T11:24:43Z</time>
      </trkpt>
      <trkpt lat="44.99523" lon="4.8689">
        <ele>117</ele>
        <time>2013-04-24T11:22:36Z</time>
      </trkpt>
      <trkpt lat="44.9952" lon="4.86886">
        <ele>117</ele>
        <time>2013-04-24T11:22:34Z</time>
      </trkpt>
      <trkpt lat="44.99467" lon="4.8685">
        <ele>116</ele>
        <time>2013-04-24T11:22:20Z</time>
      </trkpt>
      <trkpt lat="44.99441" lon="4.8683">
        <ele>117</ele>
        <time>2013-04-24T11:22:14Z</time>
      </trkpt>
      <trkpt lat="44.99401" lon="4.86805">
        <ele>117</ele>
        <time>2013-04-24T11:22:05Z</time>
      </trkpt>
      <trkpt lat="44.99354" lon="4.86777">
        <ele>117</ele>
        <time>2013-04-24T11:21:56Z</time>
      </trkpt>
      <trkpt lat="44.99333" lon="4.86765">
        <ele>117</ele>
        <time>2013-04-24T11:21:52Z</time>
      </trkpt>
      <trkpt lat="44.99317" lon="4.86758">
        <ele>116</ele>
        <time>2013-04-24T11:21:49Z</time>
      </trkpt>
      <trkpt lat="44.99312" lon="4.86755">
        <ele>116</ele>
        <time>2013-04-24T11:21:48Z</time>
      </trkpt>
      <trkpt lat="44.99292" lon="4.86745">
        <ele>114</ele>
        <time>2013-04-24T11:21:44Z</time>
      </trkpt>
      <trkpt lat="44.99285" lon="4.86731">
        <ele>114</ele>
        <time>2013-04-24T11:21:41Z</time>
      </trkpt>
      <trkpt lat="44.99286" lon="4.86725">
        <ele>114</ele>
        <time>2013-04-24T11:21:40Z</time>
      </trkpt>
      <trkpt lat="44.99295" lon="4.86716">
        <ele>114</ele>
        <time>2013-04-24T11:21:37Z</time>
      </trkpt>
      <trkpt lat="44.99299" lon="4.86715">
        <ele>114</ele>
        <time>2013-04-24T11:21:35Z</time>
      </trkpt>
      <trkpt lat="44.993" lon="4.86714">
        <ele>114</ele>
        <time>2013-04-24T11:21:33Z</time>
      </trkpt>
      <trkpt lat="44.99299" lon="4.86714">
        <ele>114</ele>
        <time>2013-04-24T11:21:16Z</time>
      </trkpt>
      <trkpt lat="44.99299" lon="4.86714">
        <ele>114</ele>
        <time>2013-04-24T11:20:58Z</time>
      </trkpt>
      <trkpt lat="44.99299" lon="4.86714">
        <ele>114</ele>
        <time>2013-04-24T11:20:46Z</time>
      </trkpt>
      <trkpt lat="44.99304" lon="4.86712">
        <ele>114</ele>
        <time>2013-04-24T11:20:42Z</time>
      </trkpt>
      <trkpt lat="44.99324" lon="4.86701">
        <ele>114</ele>
        <time>2013-04-24T11:20:36Z</time>
      </trkpt>
      <trkpt lat="44.99365" lon="4.86678">
        <ele>115</ele>
        <time>2013-04-24T11:20:27Z</time>
      </trkpt>
      <trkpt lat="44.99369" lon="4.86675">
        <ele>115</ele>
        <time>2013-04-24T11:20:26Z</time>
      </trkpt>
      <trkpt lat="44.99393" lon="4.86663">
        <ele>114</ele>
        <time>2013-04-24T11:20:21Z</time>
      </trkpt>
      <trkpt lat="44.99435" lon="4.8664">
        <ele>114</ele>
        <time>2013-04-24T11:20:12Z</time>
      </trkpt>
      <trkpt lat="44.99454" lon="4.86628">
        <ele>114</ele>
        <time>2013-04-24T11:20:08Z</time>
      </trkpt>
      <trkpt lat="44.99463" lon="4.86623">
        <ele>114</ele>
        <time>2013-04-24T11:20:06Z</time>
      </trkpt>
      <trkpt lat="44.99501" lon="4.86601">
        <ele>113</ele>
        <time>2013-04-24T11:19:58Z</time>
      </trkpt>
      <trkpt lat="44.99506" lon="4.86599">
        <ele>113</ele>
        <time>2013-04-24T11:19:57Z</time>
      </trkpt>
      <trkpt lat="44.9952" lon="4.86591">
        <ele>113</ele>
        <time>2013-04-24T11:19:54Z</time>
      </trkpt>
      <trkpt lat="44.99525" lon="4.86589">
        <ele>114</ele>
        <time>2013-04-24T11:19:53Z</time>
      </trkpt>
      <trkpt lat="44.9954" lon="4.8658">
        <ele>113</ele>
        <time>2013-04-24T11:19:50Z</time>
      </trkpt>
      <trkpt lat="44.99554" lon="4.86572">
        <ele>113</ele>
        <time>2013-04-24T11:19:45Z</time>
      </trkpt>
      <trkpt lat="44.99622" lon="4.86534">
        <ele>115</ele>
        <time>2013-04-24T11:19:33Z</time>
      </trkpt>
      <trkpt lat="44.99666" lon="4.86509">
        <ele>116</ele>
        <time>2013-04-24T11:19:25Z</time>
      </trkpt>
      <trkpt lat="44.99699" lon="4.86489">
        <ele>115</ele>
        <time>2013-04-24T11:19:19Z</time>
      </trkpt>
      <trkpt lat="44.99737" lon="4.86467">
        <ele>114</ele>
        <time>2013-04-24T11:19:12Z</time>
      </trkpt>
      <trkpt lat="44.99742" lon="4.86464">
        <ele>114</ele>
        <time>2013-04-24T11:19:11Z</time>
      </trkpt>
      <trkpt lat="45.0002" lon="4.86312">
        <ele>117</ele>
        <time>2013-04-24T09:50:00Z</time>
      </trkpt>
      <trkpt lat="45.0005" lon="4.86295">
        <ele>117</ele>
        <time>2013-04-24T09:49:52Z</time>
      </trkpt>
      <trkpt lat="45.00085" lon="4.86273">
        <ele>118</ele>
        <time>2013-04-24T09:49:44Z</time>
      </trkpt>
      <trkpt lat="45.00115" lon="4.86256">
        <ele>119</ele>
        <time>2013-04-24T09:49:37Z</time>
      </trkpt>
      <trkpt lat="45.00154" lon="4.86234">
        <ele>117</ele>
        <time>2013-04-24T09:49:29Z</time>
      </trkpt>
      <trkpt lat="45.0022" lon="4.86198">
        <ele>117</ele>
        <time>2013-04-24T09:49:15Z</time>
      </trkpt>
      <trkpt lat="45.00261" lon="4.86174">
        <ele>119</ele>
        <time>2013-04-24T09:49:07Z</time>
      </trkpt>
      <trkpt lat="45.00298" lon="4.86154">
        <ele>116</ele>
        <time>2013-04-24T09:49:00Z</time>
      </trkpt>
      <trkpt lat="45.00345" lon="4.86127">
        <ele>117</ele>
        <time>2013-04-24T09:48:51Z</time>
      </trkpt>
      <trkpt lat="45.00391" lon="4.861">
        <ele>118</ele>
        <time>2013-04-24T09:48:42Z</time>
      </trkpt>
      <trkpt lat="45.00436" lon="4.86076">
        <ele>118</ele>
        <time>2013-04-24T09:48:33Z</time>
      </trkpt>
      <trkpt lat="45.0054" lon="4.86016">
        <ele>118</ele>
        <time>2013-04-24T09:48:11Z</time>
      </trkpt>
      <trkpt lat="45.00588" lon="4.8599">
        <ele>119</ele>
        <time>2013-04-24T09:48:01Z</time>
      </trkpt>
      <trkpt lat="45.00641" lon="4.85959">
        <ele>118</ele>
        <time>2013-04-24T09:47:50Z</time>
      </trkpt>
      <trkpt lat="45.00683" lon="4.85933">
        <ele>119</ele>
        <time>2013-04-24T09:47:41Z</time>
      </trkpt>
      <trkpt lat="45.00701" lon="4.85923">
        <ele>120</ele>
        <time>2013-04-24T09:47:37Z</time>
      </trkpt>
      <trkpt lat="45.00728" lon="4.85908">
        <ele>117</ele>
        <time>2013-04-24T09:47:31Z</time>
      </trkpt>
      <trkpt lat="45.00765" lon="4.85887">
        <ele>118</ele>
        <time>2013-04-24T09:47:23Z</time>
      </trkpt>
      <trkpt lat="45.00833" lon="4.85849">
        <ele>118</ele>
        <time>2013-04-24T09:47:09Z</time>
      </trkpt>
      <trkpt lat="45.00872" lon="4.85827">
        <ele>116</ele>
        <time>2013-04-24T09:47:01Z</time>
      </trkpt>
      <trkpt lat="45.00915" lon="4.85802">
        <ele>115</ele>
        <time>2013-04-24T09:46:52Z</time>
      </trkpt>
      <trkpt lat="45.00949" lon="4.85783">
        <ele>117</ele>
        <time>2013-04-24T09:46:45Z</time>
      </trkpt>
      <trkpt lat="45.00991" lon="4.85759">
        <ele>118</ele>
        <time>2013-04-24T09:46:36Z</time>
      </trkpt>
      <trkpt lat="45.01028" lon="4.85737">
        <ele>118</ele>
        <time>2013-04-24T09:46:28Z</time>
      </trkpt>
      <trkpt lat="45.01061" lon="4.85718">
        <ele>119</ele>
        <time>2013-04-24T09:46:21Z</time>
      </trkpt>
      <trkpt lat="45.01097" lon="4.85698">
        <ele>121</ele>
        <time>2013-04-24T09:46:13Z</time>
      </trkpt>
      <trkpt lat="45.01138" lon="4.85674">
        <ele>120</ele>
        <time>2013-04-24T09:46:04Z</time>
      </trkpt>
      <trkpt lat="45.01168" lon="4.85657">
        <ele>119</ele>
        <time>2013-04-24T09:45:57Z</time>
      </trkpt>
      <trkpt lat="45.01204" lon="4.85637">
        <ele>117</ele>
        <time>2013-04-24T09:45:49Z</time>
      </trkpt>
      <trkpt lat="45.01244" lon="4.85615">
        <ele>115</ele>
        <time>2013-04-24T09:45:40Z</time>
      </trkpt>
      <trkpt lat="45.01274" lon="4.85598">
        <ele>117</ele>
        <time>2013-04-24T09:43:51Z</time>
      </trkpt>
      <trkpt lat="45.01299" lon="4.85582">
        <ele>115</ele>
        <time>2013-04-24T09:43:44Z</time>
      </trkpt>
      <trkpt lat="45.01327" lon="4.85566">
        <ele>117</ele>
        <time>2013-04-24T09:43:36Z</time>
      </trkpt>
      <trkpt lat="45.0136" lon="4.85547">
        <ele>117</ele>
        <time>2013-04-24T09:43:27Z</time>
      </trkpt>
      <trkpt lat="45.01379" lon="4.85534">
        <ele>116</ele>
        <time>2013-04-24T09:43:21Z</time>
      </trkpt>
      <trkpt lat="45.01407" lon="4.85515">
        <ele>114</ele>
        <time>2013-04-24T09:43:13Z</time>
      </trkpt>
      <trkpt lat="45.01443" lon="4.85487">
        <ele>114</ele>
        <time>2013-04-24T09:43:04Z</time>
      </trkpt>
      <trkpt lat="45.0147" lon="4.85468">
        <ele>115</ele>
        <time>2013-04-24T09:42:57Z</time>
      </trkpt>
      <trkpt lat="45.01487" lon="4.85451">
        <ele>114</ele>
      </trkpt>
      <trkpt lat="45.01472" lon="4.8541">
        <ele>112</ele>
      </trkpt>
      <trkpt lat="45.01433" lon="4.85313">
        <ele>113</ele>
      </trkpt>
      <trkpt lat="45.01396" lon="4.85219">
        <ele>120</ele>
      </trkpt>
      <trkpt lat="45.01374" lon="4.85157">
        <ele>119</ele>
      </trkpt>
      <trkpt lat="45.01342" lon="4.85072">
        <ele>119</ele>
      </trkpt>
      <trkpt lat="45.01311" lon="4.84958">
        <ele>119</ele>
      </trkpt>
      <trkpt lat="45.01291" lon="4.84887">
        <ele>118</ele>
      </trkpt>
      <trkpt lat="45.01274" lon="4.84833">
        <ele>119</ele>
      </trkpt>
      <trkpt lat="45.01255" lon="4.84793">
        <ele>119</ele>
      </trkpt>
      <trkpt lat="45.01227" lon="4.84758">
        <ele>119</ele>
      </trkpt>
      <trkpt lat="45.01197" lon="4.84724">
        <ele>119</ele>
      </trkpt>
      <trkpt lat="45.01154" lon="4.8467">
        <ele>118</ele>
      </trkpt>
      <trkpt lat="45.01109" lon="4.84614">
        <ele>118</ele>
      </trkpt>
      <trkpt lat="45.01091" lon="4.84581">
        <ele>118</ele>
      </trkpt>
      <trkpt lat="45.01081" lon="4.84553">
        <ele>117</ele>
      </trkpt>
      <trkpt lat="45.01074" lon="4.84528">
        <ele>116</ele>
      </trkpt>
      <trkpt lat="45.01072" lon="4.84495">
        <ele>115</ele>
      </trkpt>
      <trkpt lat="45.01072" lon="4.84431">
        <ele>115</ele>
      </trkpt>
      <trkpt lat="45.01076" lon="4.84371">
        <ele>115</ele>
      </trkpt>
      <trkpt lat="45.01079" lon="4.84301">
        <ele>117</ele>
      </trkpt>
      <trkpt lat="45.01077" lon="4.84256">
        <ele>118</ele>
      </trkpt>
      <trkpt lat="45.01075" lon="4.84231">
        <ele>117</ele>
      </trkpt>
      <trkpt lat="45.01074" lon="4.84209">
        <ele>117</ele>
      </trkpt>
      <trkpt lat="45.01074" lon="4.84186">
        <ele>116</ele>
      </trkpt>
      <trkpt lat="45.01067" lon="4.84165">
        <ele>116</ele>
      </trkpt>
      <trkpt lat="45.01056" lon="4.84153">
        <ele>116</ele>
      </trkpt>
      <trkpt lat="45.01045" lon="4.8415">
        <ele>117</ele>
      </trkpt>
      <trkpt lat="45.01029" lon="4.84149">
        <ele>117</ele>
      </trkpt>
      <trkpt lat="45.01015" lon="4.84137">
        <ele>117</ele>
      </trkpt>
      <trkpt lat="45.01009" lon="4.84107">
        <ele>117</ele>
      </trkpt>
      <trkpt lat="45.01017" lon="4.84044">
        <ele>115</ele>
      </trkpt>
      <trkpt lat="45.01033" lon="4.83946">
        <ele>112</ele>
      </trkpt>
      <trkpt lat="45.01049" lon="4.8385">
        <ele>111</ele>
      </trkpt>
      <trkpt lat="45.01066" lon="4.83758">
        <ele>111</ele>
      </trkpt>
      <trkpt lat="45.01092" lon="4.83704">
        <ele>111</ele>
      </trkpt>
      <trkpt lat="45.0112" lon="4.83668">
        <ele>111</ele>
      </trkpt>
      <trkpt lat="45.0112" lon="4.83668">
        <ele>111</ele>
      </trkpt>
      <trkpt lat="45.0114" lon="4.83629">
        <ele>112</ele>
      </trkpt>
      <trkpt lat="45.01165" lon="4.83594">
        <ele>113</ele>
      </trkpt>
      <trkpt lat="45.01184" lon="4.83581">
        <ele>114</ele>
      </trkpt>
      <trkpt lat="45.01197" lon="4.8358">
        <ele>114</ele>
      </trkpt>
      <trkpt lat="45.01212" lon="4.83582">
        <ele>114</ele>
      </trkpt>
      <trkpt lat="45.01231" lon="4.83592">
        <ele>113</ele>
      </trkpt>
      <trkpt lat="45.01241" lon="4.83602">
        <ele>113</ele>
      </trkpt>
      <trkpt lat="45.01269" lon="4.8363">
        <ele>114</ele>
      </trkpt>
      <trkpt lat="45.01314" lon="4.83688">
        <ele>116</ele>
      </trkpt>
      <trkpt lat="45.01325" lon="4.83703">
        <ele>116</ele>
      </trkpt>
      <trkpt lat="45.01334" lon="4.83718">
        <ele>118</ele>
      </trkpt>
      <trkpt lat="45.01362" lon="4.83783">
        <ele>116</ele>
      </trkpt>
      <trkpt lat="45.01409" lon="4.83888">
        <ele>115</ele>
      </trkpt>
      <trkpt lat="45.0143" lon="4.83924">
        <ele>116</ele>
      </trkpt>
      <trkpt lat="45.01457" lon="4.83965">
        <ele>115</ele>
      </trkpt>
      <trkpt lat="45.01503" lon="4.83996">
        <ele>116</ele>
      </trkpt>
      <trkpt lat="45.01511" lon="4.84001">
        <ele>116</ele>
      </trkpt>
      <trkpt lat="45.01511" lon="4.84001">
        <ele>116</ele>
      </trkpt>
      <trkpt lat="45.01521" lon="4.84015">
        <ele>115</ele>
      </trkpt>
      <trkpt lat="45.0156" lon="4.84062">
        <ele>115</ele>
      </trkpt>
      <trkpt lat="45.01575" lon="4.84079">
        <ele>116</ele>
      </trkpt>
      <trkpt lat="45.01594" lon="4.84084">
        <ele>115</ele>
      </trkpt>
      <trkpt lat="45.01613" lon="4.84091">
        <ele>115</ele>
      </trkpt>
      <trkpt lat="45.01626" lon="4.84098">
        <ele>114</ele>
      </trkpt>
      <trkpt lat="45.01626" lon="4.84098">
        <ele>114</ele>
      </trkpt>
      <trkpt lat="45.01636" lon="4.84108">
        <ele>114</ele>
      </trkpt>
      <trkpt lat="45.01642" lon="4.84119">
        <ele>114</ele>
      </trkpt>
      <trkpt lat="45.01671" lon="4.84153">
        <ele>115</ele>
      </trkpt>
      <trkpt lat="45.01717" lon="4.84196">
        <ele>114</ele>
      </trkpt>
      <trkpt lat="45.01762" lon="4.84232">
        <ele>114</ele>
      </trkpt>
      <trkpt lat="45.01808" lon="4.84256">
        <ele>113</ele>
      </trkpt>
      <trkpt lat="45.01881" lon="4.84288">
        <ele>115</ele>
      </trkpt>
      <trkpt lat="45.01941" lon="4.84299">
        <ele>115</ele>
      </trkpt>
      <trkpt lat="45.02012" lon="4.84303">
        <ele>117</ele>
      </trkpt>
      <trkpt lat="45.02061" lon="4.843">
        <ele>117</ele>
      </trkpt>
      <trkpt lat="45.02093" lon="4.84293">
        <ele>116</ele>
      </trkpt>
      <trkpt lat="45.02142" lon="4.84272">
        <ele>115</ele>
      </trkpt>
      <trkpt lat="45.02192" lon="4.84249">
        <ele>114</ele>
      </trkpt>
      <trkpt lat="45.02242" lon="4.84217">
        <ele>114</ele>
      </trkpt>
      <trkpt lat="45.02286" lon="4.84181">
        <ele>114</ele>
      </trkpt>
      <trkpt lat="45.02352" lon="4.84109">
        <ele>115</ele>
      </trkpt>
      <trkpt lat="45.02391" lon="4.84056">
        <ele>115</ele>
      </trkpt>
      <trkpt lat="45.02446" lon="4.83984">
        <ele>115</ele>
      </trkpt>
      <trkpt lat="45.02506" lon="4.83912">
        <ele>114</ele>
      </trkpt>
      <trkpt lat="45.02561" lon="4.83849">
        <ele>114</ele>
      </trkpt>
      <trkpt lat="45.02615" lon="4.83798">
        <ele>115</ele>
      </trkpt>
      <trkpt lat="45.02653" lon="4.83763">
        <ele>116</ele>
      </trkpt>
      <trkpt lat="45.02683" lon="4.83743">
        <ele>116</ele>
      </trkpt>
      <trkpt lat="45.02704" lon="4.83726">
        <ele>117</ele>
      </trkpt>
      <trkpt lat="45.02719" lon="4.83707">
        <ele>117</ele>
      </trkpt>
      <trkpt lat="45.02769" lon="4.83672">
        <ele>117</ele>
      </trkpt>
      <trkpt lat="45.02818" lon="4.83648">
        <ele>118</ele>
      </trkpt>
      <trkpt lat="45.02921" lon="4.83609">
        <ele>117</ele>
      </trkpt>
      <trkpt lat="45.03059" lon="4.83579">
        <ele>117</ele>
      </trkpt>
      <trkpt lat="45.03173" lon="4.8357">
        <ele>116</ele>
      </trkpt>
      <trkpt lat="45.0323" lon="4.83574">
        <ele>116</ele>
      </trkpt>
      <trkpt lat="45.03271" lon="4.83581">
        <ele>116</ele>
      </trkpt>
      <trkpt lat="45.03504" lon="4.83669">
        <ele>117</ele>
      </trkpt>
      <trkpt lat="45.03548" lon="4.83689">
        <ele>117</ele>
      </trkpt>
      <trkpt lat="45.03575" lon="4.83705">
        <ele>116</ele>
      </trkpt>
      <trkpt lat="45.03643" lon="4.83752">
        <ele>115</ele>
      </trkpt>
      <trkpt lat="45.03701" lon="4.83792">
        <ele>116</ele>
      </trkpt>
      <trkpt lat="45.03729" lon="4.83817">
        <ele>117</ele>
      </trkpt>
      <trkpt lat="45.04086" lon="4.84162">
        <ele>116</ele>
      </trkpt>
      <trkpt lat="45.04197" lon="4.8427">
        <ele>116</ele>
      </trkpt>
      <trkpt lat="45.04289" lon="4.84359">
        <ele>117</ele>
      </trkpt>
      <trkpt lat="45.043" lon="4.84371">
        <ele>117</ele>
      </trkpt>
      <trkpt lat="45.04301" lon="4.84378">
        <ele>117</ele>
      </trkpt>
      <trkpt lat="45.04297" lon="4.84386">
        <ele>117</ele>
      </trkpt>
      <trkpt lat="45.04287" lon="4.84406">
        <ele>117</ele>
      </trkpt>
      <trkpt lat="45.04278" lon="4.84425">
        <ele>117</ele>
      </trkpt>
      <trkpt lat="45.04278" lon="4.84434">
        <ele>117</ele>
      </trkpt>
      <trkpt lat="45.0428" lon="4.84439">
        <ele>117</ele>
      </trkpt>
      <trkpt lat="45.04285" lon="4.84444">
        <ele>117</ele>
      </trkpt>
      <trkpt lat="45.04346" lon="4.84511">
        <ele>121</ele>
      </trkpt>
      <trkpt lat="45.0439" lon="4.84565">
        <ele>122</ele>
      </trkpt>
      <trkpt lat="45.04439" lon="4.84631">
        <ele>117</ele>
      </trkpt>
      <trkpt lat="45.04475" lon="4.84686">
        <ele>115</ele>
      </trkpt>
      <trkpt lat="45.04553" lon="4.84797">
        <ele>114</ele>
      </trkpt>
      <trkpt lat="45.04635" lon="4.84902">
        <ele>116</ele>
      </trkpt>
      <trkpt lat="45.04727" lon="4.85004">
        <ele>116</ele>
      </trkpt>
      <trkpt lat="45.0507" lon="4.85376">
        <ele>120</ele>
      </trkpt>
      <trkpt lat="45.05147" lon="4.85457">
        <ele>120</ele>
      </trkpt>
      <trkpt lat="45.05242" lon="4.85539">
        <ele>118</ele>
      </trkpt>
      <trkpt lat="45.05331" lon="4.85601">
        <ele>118</ele>
      </trkpt>
      <trkpt lat="45.05411" lon="4.85647">
        <ele>116</ele>
      </trkpt>
      <trkpt lat="45.05485" lon="4.85681">
        <ele>119</ele>
      </trkpt>
      <trkpt lat="45.05591" lon="4.85713">
        <ele>118</ele>
      </trkpt>
      <trkpt lat="45.05659" lon="4.8573">
        <ele>116</ele>
      </trkpt>
      <trkpt lat="45.05746" lon="4.8574">
        <ele>116</ele>
      </trkpt>
      <trkpt lat="45.058" lon="4.85736">
        <ele>116</ele>
      </trkpt>
      <trkpt lat="45.05843" lon="4.85726">
        <ele>116</ele>
      </trkpt>
      <trkpt lat="45.05887" lon="4.85709">
        <ele>117</ele>
      </trkpt>
      <trkpt lat="45.05937" lon="4.85683">
        <ele>116</ele>
      </trkpt>
      <trkpt lat="45.0599" lon="4.85647">
        <ele>116</ele>
      </trkpt>
      <trkpt lat="45.06035" lon="4.85598">
        <ele>116</ele>
      </trkpt>
      <trkpt lat="45.06061" lon="4.85565">
        <ele>116</ele>
      </trkpt>
      <trkpt lat="45.06116" lon="4.85486">
        <ele>117</ele>
      </trkpt>
      <trkpt lat="45.062" lon="4.85344">
        <ele>117</ele>
      </trkpt>
      <trkpt lat="45.06242" lon="4.85255">
        <ele>119</ele>
      </trkpt>
      <trkpt lat="45.06267" lon="4.85199">
        <ele>116</ele>
      </trkpt>
      <trkpt lat="45.06296" lon="4.85124">
        <ele>117</ele>
      </trkpt>
      <trkpt lat="45.06311" lon="4.85077">
        <ele>119</ele>
      </trkpt>
      <trkpt lat="45.06311" lon="4.85077">
        <ele>119</ele>
      </trkpt>
      <trkpt lat="45.06335" lon="4.85003">
        <ele>120</ele>
      </trkpt>
      <trkpt lat="45.06369" lon="4.84875">
        <ele>117</ele>
      </trkpt>
      <trkpt lat="45.06388" lon="4.848">
        <ele>119</ele>
      </trkpt>
      <trkpt lat="45.06404" lon="4.84737">
        <ele>121</ele>
      </trkpt>
      <trkpt lat="45.0642" lon="4.84671">
        <ele>120</ele>
      </trkpt>
      <trkpt lat="45.06431" lon="4.84615">
        <ele>118</ele>
      </trkpt>
      <trkpt lat="45.06446" lon="4.84539">
        <ele>117</ele>
      </trkpt>
      <trkpt lat="45.06456" lon="4.84484">
        <ele>117</ele>
      </trkpt>
      <trkpt lat="45.0646" lon="4.84426">
        <ele>117</ele>
      </trkpt>
      <trkpt lat="45.0647" lon="4.84369">
        <ele>116</ele>
      </trkpt>
      <trkpt lat="45.065" lon="4.84241">
        <ele>119</ele>
      </trkpt>
      <trkpt lat="45.06524" lon="4.84146">
        <ele>119</ele>
      </trkpt>
      <trkpt lat="45.06539" lon="4.84086">
        <ele>118</ele>
      </trkpt>
      <trkpt lat="45.06547" lon="4.8405">
        <ele>118</ele>
      </trkpt>
      <trkpt lat="45.06544" lon="4.84034">
        <ele>118</ele>
      </trkpt>
      <trkpt lat="45.06537" lon="4.84023">
        <ele>118</ele>
      </trkpt>
      <trkpt lat="45.06537" lon="4.84023">
        <ele>118</ele>
      </trkpt>
      <trkpt lat="45.06538" lon="4.84002">
        <ele>119</ele>
      </trkpt>
      <trkpt lat="45.06545" lon="4.8398">
        <ele>119</ele>
      </trkpt>
      <trkpt lat="45.06553" lon="4.83963">
        <ele>118</ele>
      </trkpt>
      <trkpt lat="45.06569" lon="4.83943">
        <ele>118</ele>
      </trkpt>
      <trkpt lat="45.06591" lon="4.83889">
        <ele>117</ele>
      </trkpt>
      <trkpt lat="45.06686" lon="4.83671">
        <ele>120</ele>
      </trkpt>
      <trkpt lat="45.06697" lon="4.83647">
        <ele>121</ele>
      </trkpt>
      <trkpt lat="45.06777" lon="4.83463">
        <ele>124</ele>
      </trkpt>
    </trkseg>
  </trk>
</gpx>